<?xml version="1.0" encoding="UTF-8" standalone="no" ?>
<gpx xmlns="http://www.topografix.com/GPX/1/1" xmlns:xsi="http://www.w3.org/2001/XMLSchema-instance" xsi:schemaLocation="http://www.topografix.com/GPX/1/1 http://www.topografix.com/GPX/1/1/gpx.xsd" version="1.1" creator="VisuGPX - https://www.visugpx.com">
  <metadata>
    <name>Rando vtt chez nadege 16aout2012</name>
    <desc><![CDATA[Rando VTT nord ouest de caen, vers la Thue, 33km]]></desc>
  </metadata>
  <trk>
    <name><![CDATA[Vtt Nadege]]></name>
    <desc><![CDATA[16aout]]></desc>
    <trkseg>
      <trkpt lat="49.20119" lon="-0.39491">
        <ele>121</ele>
        <time>2012-08-16T15:03:36Z</time>
      </trkpt>
      <trkpt lat="49.20119" lon="-0.39491">
        <ele>121</ele>
        <time>2012-08-16T15:03:36Z</time>
      </trkpt>
      <trkpt lat="49.20119" lon="-0.39491">
        <ele>121</ele>
        <time>2012-08-16T15:03:38Z</time>
      </trkpt>
      <trkpt lat="49.20127" lon="-0.39475">
        <ele>107</ele>
        <time>2012-08-16T15:04:15Z</time>
      </trkpt>
      <trkpt lat="49.20122" lon="-0.39476">
        <ele>102</ele>
        <time>2012-08-16T15:04:19Z</time>
      </trkpt>
      <trkpt lat="49.20115" lon="-0.39479">
        <ele>101</ele>
        <time>2012-08-16T15:04:22Z</time>
      </trkpt>
      <trkpt lat="49.20111" lon="-0.3948">
        <ele>101</ele>
        <time>2012-08-16T15:04:24Z</time>
      </trkpt>
      <trkpt lat="49.20105" lon="-0.39478">
        <ele>101</ele>
        <time>2012-08-16T15:04:27Z</time>
      </trkpt>
      <trkpt lat="49.201" lon="-0.39476">
        <ele>101</ele>
        <time>2012-08-16T15:04:29Z</time>
      </trkpt>
      <trkpt lat="49.20094" lon="-0.39469">
        <ele>101</ele>
        <time>2012-08-16T15:04:32Z</time>
      </trkpt>
      <trkpt lat="49.20088" lon="-0.39465">
        <ele>101</ele>
        <time>2012-08-16T15:04:34Z</time>
      </trkpt>
      <trkpt lat="49.20084" lon="-0.39469">
        <ele>101</ele>
        <time>2012-08-16T15:04:37Z</time>
      </trkpt>
      <trkpt lat="49.2008" lon="-0.39476">
        <ele>103</ele>
        <time>2012-08-16T15:04:39Z</time>
      </trkpt>
      <trkpt lat="49.20076" lon="-0.39483">
        <ele>105</ele>
        <time>2012-08-16T15:04:41Z</time>
      </trkpt>
      <trkpt lat="49.20074" lon="-0.39491">
        <ele>105</ele>
        <time>2012-08-16T15:04:43Z</time>
      </trkpt>
      <trkpt lat="49.20072" lon="-0.39499">
        <ele>106</ele>
        <time>2012-08-16T15:04:45Z</time>
      </trkpt>
      <trkpt lat="49.20068" lon="-0.39495">
        <ele>113</ele>
        <time>2012-08-16T15:06:02Z</time>
      </trkpt>
      <trkpt lat="49.20067" lon="-0.39506">
        <ele>115</ele>
        <time>2012-08-16T15:06:47Z</time>
      </trkpt>
      <trkpt lat="49.20064" lon="-0.39512">
        <ele>114</ele>
        <time>2012-08-16T15:06:54Z</time>
      </trkpt>
      <trkpt lat="49.2006" lon="-0.39516">
        <ele>114</ele>
        <time>2012-08-16T15:06:57Z</time>
      </trkpt>
      <trkpt lat="49.20056" lon="-0.39522">
        <ele>113</ele>
        <time>2012-08-16T15:06:59Z</time>
      </trkpt>
      <trkpt lat="49.20053" lon="-0.39529">
        <ele>113</ele>
        <time>2012-08-16T15:07:01Z</time>
      </trkpt>
      <trkpt lat="49.20052" lon="-0.39536">
        <ele>113</ele>
        <time>2012-08-16T15:07:03Z</time>
      </trkpt>
      <trkpt lat="49.2005" lon="-0.39545">
        <ele>113</ele>
        <time>2012-08-16T15:07:05Z</time>
      </trkpt>
      <trkpt lat="49.20049" lon="-0.39553">
        <ele>112</ele>
        <time>2012-08-16T15:07:06Z</time>
      </trkpt>
      <trkpt lat="49.20047" lon="-0.39561">
        <ele>113</ele>
        <time>2012-08-16T15:07:07Z</time>
      </trkpt>
      <trkpt lat="49.20046" lon="-0.39569">
        <ele>114</ele>
        <time>2012-08-16T15:07:09Z</time>
      </trkpt>
      <trkpt lat="49.20047" lon="-0.39577">
        <ele>114</ele>
        <time>2012-08-16T15:07:13Z</time>
      </trkpt>
      <trkpt lat="49.20048" lon="-0.39587">
        <ele>117</ele>
        <time>2012-08-16T15:07:15Z</time>
      </trkpt>
      <trkpt lat="49.20051" lon="-0.39593">
        <ele>118</ele>
        <time>2012-08-16T15:07:17Z</time>
      </trkpt>
      <trkpt lat="49.20054" lon="-0.39603">
        <ele>119</ele>
        <time>2012-08-16T15:07:20Z</time>
      </trkpt>
      <trkpt lat="49.2005" lon="-0.39611">
        <ele>118</ele>
        <time>2012-08-16T15:07:25Z</time>
      </trkpt>
      <trkpt lat="49.20044" lon="-0.39615">
        <ele>117</ele>
        <time>2012-08-16T15:07:27Z</time>
      </trkpt>
      <trkpt lat="49.20038" lon="-0.39619">
        <ele>116</ele>
        <time>2012-08-16T15:07:29Z</time>
      </trkpt>
      <trkpt lat="49.20031" lon="-0.39622">
        <ele>116</ele>
        <time>2012-08-16T15:07:31Z</time>
      </trkpt>
      <trkpt lat="49.20027" lon="-0.39626">
        <ele>115</ele>
        <time>2012-08-16T15:07:32Z</time>
      </trkpt>
      <trkpt lat="49.2002" lon="-0.39633">
        <ele>115</ele>
        <time>2012-08-16T15:07:34Z</time>
      </trkpt>
      <trkpt lat="49.2001" lon="-0.39637">
        <ele>115</ele>
        <time>2012-08-16T15:07:36Z</time>
      </trkpt>
      <trkpt lat="49.20001" lon="-0.39641">
        <ele>114</ele>
        <time>2012-08-16T15:07:38Z</time>
      </trkpt>
      <trkpt lat="49.19995" lon="-0.39643">
        <ele>114</ele>
        <time>2012-08-16T15:07:39Z</time>
      </trkpt>
      <trkpt lat="49.19985" lon="-0.39648">
        <ele>113</ele>
        <time>2012-08-16T15:07:41Z</time>
      </trkpt>
      <trkpt lat="49.1998" lon="-0.3965">
        <ele>113</ele>
        <time>2012-08-16T15:07:42Z</time>
      </trkpt>
      <trkpt lat="49.19972" lon="-0.39655">
        <ele>114</ele>
        <time>2012-08-16T15:07:44Z</time>
      </trkpt>
      <trkpt lat="49.19967" lon="-0.39656">
        <ele>113</ele>
        <time>2012-08-16T15:07:45Z</time>
      </trkpt>
      <trkpt lat="49.19958" lon="-0.3966">
        <ele>114</ele>
        <time>2012-08-16T15:07:47Z</time>
      </trkpt>
      <trkpt lat="49.1995" lon="-0.39663">
        <ele>113</ele>
        <time>2012-08-16T15:07:49Z</time>
      </trkpt>
      <trkpt lat="49.19945" lon="-0.39666">
        <ele>113</ele>
        <time>2012-08-16T15:07:50Z</time>
      </trkpt>
      <trkpt lat="49.19937" lon="-0.3967">
        <ele>111</ele>
        <time>2012-08-16T15:07:52Z</time>
      </trkpt>
      <trkpt lat="49.19929" lon="-0.39675">
        <ele>110</ele>
        <time>2012-08-16T15:07:54Z</time>
      </trkpt>
      <trkpt lat="49.19925" lon="-0.39677">
        <ele>110</ele>
        <time>2012-08-16T15:07:55Z</time>
      </trkpt>
      <trkpt lat="49.1992" lon="-0.39678">
        <ele>110</ele>
        <time>2012-08-16T15:07:56Z</time>
      </trkpt>
      <trkpt lat="49.19911" lon="-0.3968">
        <ele>109</ele>
        <time>2012-08-16T15:07:58Z</time>
      </trkpt>
      <trkpt lat="49.19906" lon="-0.39682">
        <ele>110</ele>
        <time>2012-08-16T15:07:59Z</time>
      </trkpt>
      <trkpt lat="49.19901" lon="-0.39682">
        <ele>110</ele>
        <time>2012-08-16T15:08:00Z</time>
      </trkpt>
      <trkpt lat="49.19892" lon="-0.39684">
        <ele>109</ele>
        <time>2012-08-16T15:08:02Z</time>
      </trkpt>
      <trkpt lat="49.19887" lon="-0.39685">
        <ele>108</ele>
        <time>2012-08-16T15:08:03Z</time>
      </trkpt>
      <trkpt lat="49.19881" lon="-0.39688">
        <ele>108</ele>
        <time>2012-08-16T15:08:05Z</time>
      </trkpt>
      <trkpt lat="49.19871" lon="-0.39689">
        <ele>107</ele>
        <time>2012-08-16T15:08:07Z</time>
      </trkpt>
      <trkpt lat="49.19862" lon="-0.39689">
        <ele>109</ele>
        <time>2012-08-16T15:08:08Z</time>
      </trkpt>
      <trkpt lat="49.19857" lon="-0.39689">
        <ele>109</ele>
        <time>2012-08-16T15:08:09Z</time>
      </trkpt>
      <trkpt lat="49.19848" lon="-0.39689">
        <ele>109</ele>
        <time>2012-08-16T15:08:11Z</time>
      </trkpt>
      <trkpt lat="49.19843" lon="-0.39691">
        <ele>109</ele>
        <time>2012-08-16T15:08:12Z</time>
      </trkpt>
      <trkpt lat="49.19838" lon="-0.39692">
        <ele>110</ele>
        <time>2012-08-16T15:08:13Z</time>
      </trkpt>
      <trkpt lat="49.1983" lon="-0.39695">
        <ele>110</ele>
        <time>2012-08-16T15:08:15Z</time>
      </trkpt>
      <trkpt lat="49.19828" lon="-0.39704">
        <ele>111</ele>
        <time>2012-08-16T15:08:17Z</time>
      </trkpt>
      <trkpt lat="49.19828" lon="-0.39712">
        <ele>110</ele>
        <time>2012-08-16T15:08:18Z</time>
      </trkpt>
      <trkpt lat="49.19827" lon="-0.3972">
        <ele>110</ele>
        <time>2012-08-16T15:08:19Z</time>
      </trkpt>
      <trkpt lat="49.19827" lon="-0.39728">
        <ele>110</ele>
        <time>2012-08-16T15:08:20Z</time>
      </trkpt>
      <trkpt lat="49.19828" lon="-0.39735">
        <ele>110</ele>
        <time>2012-08-16T15:08:21Z</time>
      </trkpt>
      <trkpt lat="49.19832" lon="-0.39741">
        <ele>110</ele>
        <time>2012-08-16T15:08:22Z</time>
      </trkpt>
      <trkpt lat="49.19834" lon="-0.39751">
        <ele>111</ele>
        <time>2012-08-16T15:08:23Z</time>
      </trkpt>
      <trkpt lat="49.19836" lon="-0.39759">
        <ele>111</ele>
        <time>2012-08-16T15:08:24Z</time>
      </trkpt>
      <trkpt lat="49.1984" lon="-0.39767">
        <ele>111</ele>
        <time>2012-08-16T15:08:25Z</time>
      </trkpt>
      <trkpt lat="49.19843" lon="-0.39774">
        <ele>111</ele>
        <time>2012-08-16T15:08:26Z</time>
      </trkpt>
      <trkpt lat="49.19847" lon="-0.3978">
        <ele>110</ele>
        <time>2012-08-16T15:08:27Z</time>
      </trkpt>
      <trkpt lat="49.19849" lon="-0.39787">
        <ele>110</ele>
        <time>2012-08-16T15:08:28Z</time>
      </trkpt>
      <trkpt lat="49.19852" lon="-0.39793">
        <ele>110</ele>
        <time>2012-08-16T15:08:29Z</time>
      </trkpt>
      <trkpt lat="49.19856" lon="-0.39797">
        <ele>110</ele>
        <time>2012-08-16T15:08:30Z</time>
      </trkpt>
      <trkpt lat="49.19863" lon="-0.39807">
        <ele>108</ele>
        <time>2012-08-16T15:08:32Z</time>
      </trkpt>
      <trkpt lat="49.19867" lon="-0.39819">
        <ele>110</ele>
        <time>2012-08-16T15:08:34Z</time>
      </trkpt>
      <trkpt lat="49.19869" lon="-0.39825">
        <ele>110</ele>
        <time>2012-08-16T15:08:35Z</time>
      </trkpt>
      <trkpt lat="49.19871" lon="-0.39832">
        <ele>110</ele>
        <time>2012-08-16T15:08:36Z</time>
      </trkpt>
      <trkpt lat="49.19874" lon="-0.39838">
        <ele>111</ele>
        <time>2012-08-16T15:08:37Z</time>
      </trkpt>
      <trkpt lat="49.19877" lon="-0.39844">
        <ele>111</ele>
        <time>2012-08-16T15:08:38Z</time>
      </trkpt>
      <trkpt lat="49.1988" lon="-0.39854">
        <ele>111</ele>
        <time>2012-08-16T15:08:40Z</time>
      </trkpt>
      <trkpt lat="49.19884" lon="-0.39866">
        <ele>111</ele>
        <time>2012-08-16T15:08:42Z</time>
      </trkpt>
      <trkpt lat="49.19887" lon="-0.39872">
        <ele>111</ele>
        <time>2012-08-16T15:08:43Z</time>
      </trkpt>
      <trkpt lat="49.19891" lon="-0.39883">
        <ele>112</ele>
        <time>2012-08-16T15:08:45Z</time>
      </trkpt>
      <trkpt lat="49.19893" lon="-0.39889">
        <ele>113</ele>
        <time>2012-08-16T15:08:46Z</time>
      </trkpt>
      <trkpt lat="49.19896" lon="-0.39896">
        <ele>113</ele>
        <time>2012-08-16T15:08:48Z</time>
      </trkpt>
      <trkpt lat="49.19891" lon="-0.399">
        <ele>112</ele>
        <time>2012-08-16T15:08:50Z</time>
      </trkpt>
      <trkpt lat="49.19888" lon="-0.39907">
        <ele>111</ele>
        <time>2012-08-16T15:08:52Z</time>
      </trkpt>
      <trkpt lat="49.19885" lon="-0.39912">
        <ele>111</ele>
        <time>2012-08-16T15:08:53Z</time>
      </trkpt>
      <trkpt lat="49.19877" lon="-0.39919">
        <ele>110</ele>
        <time>2012-08-16T15:08:55Z</time>
      </trkpt>
      <trkpt lat="49.19869" lon="-0.39927">
        <ele>110</ele>
        <time>2012-08-16T15:08:57Z</time>
      </trkpt>
      <trkpt lat="49.19864" lon="-0.39932">
        <ele>111</ele>
        <time>2012-08-16T15:08:58Z</time>
      </trkpt>
      <trkpt lat="49.19858" lon="-0.39942">
        <ele>111</ele>
        <time>2012-08-16T15:09:00Z</time>
      </trkpt>
      <trkpt lat="49.19855" lon="-0.39949">
        <ele>112</ele>
        <time>2012-08-16T15:09:01Z</time>
      </trkpt>
      <trkpt lat="49.19849" lon="-0.3996">
        <ele>112</ele>
        <time>2012-08-16T15:09:03Z</time>
      </trkpt>
      <trkpt lat="49.19845" lon="-0.39972">
        <ele>113</ele>
        <time>2012-08-16T15:09:05Z</time>
      </trkpt>
      <trkpt lat="49.19842" lon="-0.39985">
        <ele>112</ele>
        <time>2012-08-16T15:09:07Z</time>
      </trkpt>
      <trkpt lat="49.19839" lon="-0.39991">
        <ele>113</ele>
        <time>2012-08-16T15:09:08Z</time>
      </trkpt>
      <trkpt lat="49.19835" lon="-0.40002">
        <ele>113</ele>
        <time>2012-08-16T15:09:10Z</time>
      </trkpt>
      <trkpt lat="49.19833" lon="-0.40008">
        <ele>114</ele>
        <time>2012-08-16T15:09:11Z</time>
      </trkpt>
      <trkpt lat="49.1983" lon="-0.40014">
        <ele>115</ele>
        <time>2012-08-16T15:09:12Z</time>
      </trkpt>
      <trkpt lat="49.19826" lon="-0.40024">
        <ele>115</ele>
        <time>2012-08-16T15:09:14Z</time>
      </trkpt>
      <trkpt lat="49.19822" lon="-0.40031">
        <ele>116</ele>
        <time>2012-08-16T15:09:16Z</time>
      </trkpt>
      <trkpt lat="49.19819" lon="-0.40041">
        <ele>115</ele>
        <time>2012-08-16T15:09:18Z</time>
      </trkpt>
      <trkpt lat="49.19818" lon="-0.4005">
        <ele>115</ele>
        <time>2012-08-16T15:09:20Z</time>
      </trkpt>
      <trkpt lat="49.19816" lon="-0.4006">
        <ele>115</ele>
        <time>2012-08-16T15:09:22Z</time>
      </trkpt>
      <trkpt lat="49.19812" lon="-0.4007">
        <ele>116</ele>
        <time>2012-08-16T15:09:24Z</time>
      </trkpt>
      <trkpt lat="49.19809" lon="-0.4008">
        <ele>117</ele>
        <time>2012-08-16T15:09:26Z</time>
      </trkpt>
      <trkpt lat="49.19803" lon="-0.4009">
        <ele>118</ele>
        <time>2012-08-16T15:09:28Z</time>
      </trkpt>
      <trkpt lat="49.198" lon="-0.40097">
        <ele>119</ele>
        <time>2012-08-16T15:09:30Z</time>
      </trkpt>
      <trkpt lat="49.19799" lon="-0.40106">
        <ele>118</ele>
        <time>2012-08-16T15:09:32Z</time>
      </trkpt>
      <trkpt lat="49.19796" lon="-0.40115">
        <ele>117</ele>
        <time>2012-08-16T15:09:34Z</time>
      </trkpt>
      <trkpt lat="49.19792" lon="-0.40124">
        <ele>117</ele>
        <time>2012-08-16T15:09:36Z</time>
      </trkpt>
      <trkpt lat="49.19791" lon="-0.40132">
        <ele>117</ele>
        <time>2012-08-16T15:09:38Z</time>
      </trkpt>
      <trkpt lat="49.19788" lon="-0.4014">
        <ele>117</ele>
        <time>2012-08-16T15:09:40Z</time>
      </trkpt>
      <trkpt lat="49.19783" lon="-0.40149">
        <ele>116</ele>
        <time>2012-08-16T15:09:42Z</time>
      </trkpt>
      <trkpt lat="49.19781" lon="-0.40159">
        <ele>116</ele>
        <time>2012-08-16T15:09:44Z</time>
      </trkpt>
      <trkpt lat="49.19778" lon="-0.40168">
        <ele>115</ele>
        <time>2012-08-16T15:09:46Z</time>
      </trkpt>
      <trkpt lat="49.19774" lon="-0.40176">
        <ele>114</ele>
        <time>2012-08-16T15:09:48Z</time>
      </trkpt>
      <trkpt lat="49.19772" lon="-0.40184">
        <ele>114</ele>
        <time>2012-08-16T15:09:50Z</time>
      </trkpt>
      <trkpt lat="49.19769" lon="-0.40193">
        <ele>113</ele>
        <time>2012-08-16T15:09:52Z</time>
      </trkpt>
      <trkpt lat="49.19766" lon="-0.40201">
        <ele>112</ele>
        <time>2012-08-16T15:09:54Z</time>
      </trkpt>
      <trkpt lat="49.19763" lon="-0.40209">
        <ele>112</ele>
        <time>2012-08-16T15:09:56Z</time>
      </trkpt>
      <trkpt lat="49.1976" lon="-0.40218">
        <ele>112</ele>
        <time>2012-08-16T15:09:58Z</time>
      </trkpt>
      <trkpt lat="49.19757" lon="-0.40226">
        <ele>112</ele>
        <time>2012-08-16T15:10:00Z</time>
      </trkpt>
      <trkpt lat="49.19755" lon="-0.40234">
        <ele>112</ele>
        <time>2012-08-16T15:10:02Z</time>
      </trkpt>
      <trkpt lat="49.19751" lon="-0.40242">
        <ele>111</ele>
        <time>2012-08-16T15:10:04Z</time>
      </trkpt>
      <trkpt lat="49.19746" lon="-0.4025">
        <ele>112</ele>
        <time>2012-08-16T15:10:06Z</time>
      </trkpt>
      <trkpt lat="49.19745" lon="-0.40261">
        <ele>110</ele>
        <time>2012-08-16T15:10:08Z</time>
      </trkpt>
      <trkpt lat="49.1974" lon="-0.40271">
        <ele>110</ele>
        <time>2012-08-16T15:10:10Z</time>
      </trkpt>
      <trkpt lat="49.19736" lon="-0.4028">
        <ele>111</ele>
        <time>2012-08-16T15:10:12Z</time>
      </trkpt>
      <trkpt lat="49.19733" lon="-0.40289">
        <ele>111</ele>
        <time>2012-08-16T15:10:14Z</time>
      </trkpt>
      <trkpt lat="49.1973" lon="-0.40298">
        <ele>110</ele>
        <time>2012-08-16T15:10:16Z</time>
      </trkpt>
      <trkpt lat="49.19726" lon="-0.40305">
        <ele>110</ele>
        <time>2012-08-16T15:10:18Z</time>
      </trkpt>
      <trkpt lat="49.19722" lon="-0.40315">
        <ele>111</ele>
        <time>2012-08-16T15:10:20Z</time>
      </trkpt>
      <trkpt lat="49.19718" lon="-0.40322">
        <ele>110</ele>
        <time>2012-08-16T15:10:22Z</time>
      </trkpt>
      <trkpt lat="49.19713" lon="-0.40331">
        <ele>110</ele>
        <time>2012-08-16T15:10:24Z</time>
      </trkpt>
      <trkpt lat="49.19708" lon="-0.4034">
        <ele>109</ele>
        <time>2012-08-16T15:10:26Z</time>
      </trkpt>
      <trkpt lat="49.19704" lon="-0.40347">
        <ele>110</ele>
        <time>2012-08-16T15:10:28Z</time>
      </trkpt>
      <trkpt lat="49.19702" lon="-0.40357">
        <ele>109</ele>
        <time>2012-08-16T15:10:30Z</time>
      </trkpt>
      <trkpt lat="49.19699" lon="-0.40366">
        <ele>108</ele>
        <time>2012-08-16T15:10:32Z</time>
      </trkpt>
      <trkpt lat="49.19695" lon="-0.40374">
        <ele>108</ele>
        <time>2012-08-16T15:10:34Z</time>
      </trkpt>
      <trkpt lat="49.19691" lon="-0.40383">
        <ele>108</ele>
        <time>2012-08-16T15:10:36Z</time>
      </trkpt>
      <trkpt lat="49.19687" lon="-0.40392">
        <ele>109</ele>
        <time>2012-08-16T15:10:38Z</time>
      </trkpt>
      <trkpt lat="49.19684" lon="-0.40399">
        <ele>109</ele>
        <time>2012-08-16T15:10:40Z</time>
      </trkpt>
      <trkpt lat="49.1968" lon="-0.40405">
        <ele>109</ele>
        <time>2012-08-16T15:10:42Z</time>
      </trkpt>
      <trkpt lat="49.19677" lon="-0.40413">
        <ele>109</ele>
        <time>2012-08-16T15:10:44Z</time>
      </trkpt>
      <trkpt lat="49.19672" lon="-0.4042">
        <ele>108</ele>
        <time>2012-08-16T15:10:46Z</time>
      </trkpt>
      <trkpt lat="49.19669" lon="-0.40427">
        <ele>107</ele>
        <time>2012-08-16T15:10:48Z</time>
      </trkpt>
      <trkpt lat="49.19665" lon="-0.40435">
        <ele>107</ele>
        <time>2012-08-16T15:10:50Z</time>
      </trkpt>
      <trkpt lat="49.19663" lon="-0.40443">
        <ele>107</ele>
        <time>2012-08-16T15:10:52Z</time>
      </trkpt>
      <trkpt lat="49.19659" lon="-0.4045">
        <ele>107</ele>
        <time>2012-08-16T15:10:54Z</time>
      </trkpt>
      <trkpt lat="49.19657" lon="-0.40456">
        <ele>107</ele>
        <time>2012-08-16T15:10:56Z</time>
      </trkpt>
      <trkpt lat="49.19653" lon="-0.4046">
        <ele>107</ele>
        <time>2012-08-16T15:10:57Z</time>
      </trkpt>
      <trkpt lat="49.19649" lon="-0.40465">
        <ele>107</ele>
        <time>2012-08-16T15:10:58Z</time>
      </trkpt>
      <trkpt lat="49.19645" lon="-0.40473">
        <ele>108</ele>
        <time>2012-08-16T15:11:00Z</time>
      </trkpt>
      <trkpt lat="49.19641" lon="-0.40479">
        <ele>107</ele>
        <time>2012-08-16T15:11:02Z</time>
      </trkpt>
      <trkpt lat="49.19638" lon="-0.40487">
        <ele>107</ele>
        <time>2012-08-16T15:11:04Z</time>
      </trkpt>
      <trkpt lat="49.19634" lon="-0.40495">
        <ele>107</ele>
        <time>2012-08-16T15:11:06Z</time>
      </trkpt>
      <trkpt lat="49.1963" lon="-0.40505">
        <ele>107</ele>
        <time>2012-08-16T15:11:08Z</time>
      </trkpt>
      <trkpt lat="49.19626" lon="-0.40512">
        <ele>107</ele>
        <time>2012-08-16T15:11:10Z</time>
      </trkpt>
      <trkpt lat="49.19621" lon="-0.40522">
        <ele>107</ele>
        <time>2012-08-16T15:11:12Z</time>
      </trkpt>
      <trkpt lat="49.19619" lon="-0.40532">
        <ele>108</ele>
        <time>2012-08-16T15:11:14Z</time>
      </trkpt>
      <trkpt lat="49.1962" lon="-0.40544">
        <ele>108</ele>
        <time>2012-08-16T15:11:16Z</time>
      </trkpt>
      <trkpt lat="49.19621" lon="-0.40555">
        <ele>109</ele>
        <time>2012-08-16T15:11:18Z</time>
      </trkpt>
      <trkpt lat="49.19623" lon="-0.40565">
        <ele>109</ele>
        <time>2012-08-16T15:11:20Z</time>
      </trkpt>
      <trkpt lat="49.19624" lon="-0.40577">
        <ele>109</ele>
        <time>2012-08-16T15:11:22Z</time>
      </trkpt>
      <trkpt lat="49.19627" lon="-0.40587">
        <ele>110</ele>
        <time>2012-08-16T15:11:24Z</time>
      </trkpt>
      <trkpt lat="49.19629" lon="-0.40599">
        <ele>110</ele>
        <time>2012-08-16T15:11:26Z</time>
      </trkpt>
      <trkpt lat="49.19633" lon="-0.40609">
        <ele>111</ele>
        <time>2012-08-16T15:11:28Z</time>
      </trkpt>
      <trkpt lat="49.19675" lon="-0.40677">
        <ele>109</ele>
        <time>2012-08-16T15:11:41Z</time>
      </trkpt>
      <trkpt lat="49.19677" lon="-0.40683">
        <ele>109</ele>
        <time>2012-08-16T15:11:42Z</time>
      </trkpt>
      <trkpt lat="49.1968" lon="-0.40688">
        <ele>109</ele>
        <time>2012-08-16T15:11:43Z</time>
      </trkpt>
      <trkpt lat="49.19685" lon="-0.40699">
        <ele>109</ele>
        <time>2012-08-16T15:11:45Z</time>
      </trkpt>
      <trkpt lat="49.1969" lon="-0.40708">
        <ele>110</ele>
        <time>2012-08-16T15:11:47Z</time>
      </trkpt>
      <trkpt lat="49.19692" lon="-0.40715">
        <ele>110</ele>
        <time>2012-08-16T15:11:48Z</time>
      </trkpt>
      <trkpt lat="49.19693" lon="-0.40722">
        <ele>110</ele>
        <time>2012-08-16T15:11:49Z</time>
      </trkpt>
      <trkpt lat="49.19695" lon="-0.40729">
        <ele>110</ele>
        <time>2012-08-16T15:11:50Z</time>
      </trkpt>
      <trkpt lat="49.19698" lon="-0.40735">
        <ele>110</ele>
        <time>2012-08-16T15:11:51Z</time>
      </trkpt>
      <trkpt lat="49.19699" lon="-0.40742">
        <ele>111</ele>
        <time>2012-08-16T15:11:52Z</time>
      </trkpt>
      <trkpt lat="49.19703" lon="-0.40754">
        <ele>111</ele>
        <time>2012-08-16T15:11:54Z</time>
      </trkpt>
      <trkpt lat="49.19705" lon="-0.40762">
        <ele>111</ele>
        <time>2012-08-16T15:11:55Z</time>
      </trkpt>
      <trkpt lat="49.19708" lon="-0.40774">
        <ele>111</ele>
        <time>2012-08-16T15:11:57Z</time>
      </trkpt>
      <trkpt lat="49.19713" lon="-0.40778">
        <ele>110</ele>
        <time>2012-08-16T15:11:58Z</time>
      </trkpt>
      <trkpt lat="49.19716" lon="-0.40782">
        <ele>110</ele>
        <time>2012-08-16T15:11:59Z</time>
      </trkpt>
      <trkpt lat="49.19719" lon="-0.40788">
        <ele>110</ele>
        <time>2012-08-16T15:12:00Z</time>
      </trkpt>
      <trkpt lat="49.19725" lon="-0.40797">
        <ele>111</ele>
        <time>2012-08-16T15:12:02Z</time>
      </trkpt>
      <trkpt lat="49.19726" lon="-0.40804">
        <ele>110</ele>
        <time>2012-08-16T15:12:03Z</time>
      </trkpt>
      <trkpt lat="49.19731" lon="-0.40814">
        <ele>110</ele>
        <time>2012-08-16T15:12:05Z</time>
      </trkpt>
      <trkpt lat="49.19734" lon="-0.40824">
        <ele>110</ele>
        <time>2012-08-16T15:12:07Z</time>
      </trkpt>
      <trkpt lat="49.19782" lon="-0.40892">
        <ele>113</ele>
        <time>2012-08-16T15:12:23Z</time>
      </trkpt>
      <trkpt lat="49.19787" lon="-0.40901">
        <ele>113</ele>
        <time>2012-08-16T15:12:25Z</time>
      </trkpt>
      <trkpt lat="49.19792" lon="-0.40907">
        <ele>113</ele>
        <time>2012-08-16T15:12:27Z</time>
      </trkpt>
      <trkpt lat="49.19798" lon="-0.40913">
        <ele>113</ele>
        <time>2012-08-16T15:12:29Z</time>
      </trkpt>
      <trkpt lat="49.19804" lon="-0.40919">
        <ele>113</ele>
        <time>2012-08-16T15:12:31Z</time>
      </trkpt>
      <trkpt lat="49.19809" lon="-0.40922">
        <ele>113</ele>
        <time>2012-08-16T15:12:32Z</time>
      </trkpt>
      <trkpt lat="49.19813" lon="-0.40933">
        <ele>114</ele>
        <time>2012-08-16T15:12:34Z</time>
      </trkpt>
      <trkpt lat="49.1982" lon="-0.40937">
        <ele>114</ele>
        <time>2012-08-16T15:12:36Z</time>
      </trkpt>
      <trkpt lat="49.19824" lon="-0.4094">
        <ele>114</ele>
        <time>2012-08-16T15:12:37Z</time>
      </trkpt>
      <trkpt lat="49.19827" lon="-0.40946">
        <ele>113</ele>
        <time>2012-08-16T15:12:38Z</time>
      </trkpt>
      <trkpt lat="49.1983" lon="-0.40954">
        <ele>113</ele>
        <time>2012-08-16T15:12:40Z</time>
      </trkpt>
      <trkpt lat="49.19841" lon="-0.40982">
        <ele>112</ele>
        <time>2012-08-16T15:12:45Z</time>
      </trkpt>
      <trkpt lat="49.19844" lon="-0.40993">
        <ele>112</ele>
        <time>2012-08-16T15:12:47Z</time>
      </trkpt>
      <trkpt lat="49.19847" lon="-0.41">
        <ele>111</ele>
        <time>2012-08-16T15:12:48Z</time>
      </trkpt>
      <trkpt lat="49.19849" lon="-0.41006">
        <ele>112</ele>
        <time>2012-08-16T15:12:49Z</time>
      </trkpt>
      <trkpt lat="49.19854" lon="-0.41011">
        <ele>111</ele>
        <time>2012-08-16T15:12:50Z</time>
      </trkpt>
      <trkpt lat="49.1986" lon="-0.41017">
        <ele>110</ele>
        <time>2012-08-16T15:12:52Z</time>
      </trkpt>
      <trkpt lat="49.19866" lon="-0.41025">
        <ele>110</ele>
        <time>2012-08-16T15:12:54Z</time>
      </trkpt>
      <trkpt lat="49.1987" lon="-0.41035">
        <ele>110</ele>
        <time>2012-08-16T15:12:56Z</time>
      </trkpt>
      <trkpt lat="49.19876" lon="-0.41042">
        <ele>110</ele>
        <time>2012-08-16T15:12:58Z</time>
      </trkpt>
      <trkpt lat="49.19879" lon="-0.41051">
        <ele>111</ele>
        <time>2012-08-16T15:13:00Z</time>
      </trkpt>
      <trkpt lat="49.19884" lon="-0.41058">
        <ele>110</ele>
        <time>2012-08-16T15:13:02Z</time>
      </trkpt>
      <trkpt lat="49.1994" lon="-0.41152">
        <ele>108</ele>
        <time>2012-08-16T15:13:20Z</time>
      </trkpt>
      <trkpt lat="49.19941" lon="-0.41158">
        <ele>108</ele>
        <time>2012-08-16T15:13:21Z</time>
      </trkpt>
      <trkpt lat="49.19945" lon="-0.41164">
        <ele>108</ele>
        <time>2012-08-16T15:13:22Z</time>
      </trkpt>
      <trkpt lat="49.19949" lon="-0.41169">
        <ele>108</ele>
        <time>2012-08-16T15:13:23Z</time>
      </trkpt>
      <trkpt lat="49.19954" lon="-0.41179">
        <ele>108</ele>
        <time>2012-08-16T15:13:25Z</time>
      </trkpt>
      <trkpt lat="49.19956" lon="-0.41185">
        <ele>107</ele>
        <time>2012-08-16T15:13:26Z</time>
      </trkpt>
      <trkpt lat="49.19961" lon="-0.41194">
        <ele>107</ele>
        <time>2012-08-16T15:13:28Z</time>
      </trkpt>
      <trkpt lat="49.19965" lon="-0.41204">
        <ele>107</ele>
        <time>2012-08-16T15:13:30Z</time>
      </trkpt>
      <trkpt lat="49.19971" lon="-0.4121">
        <ele>107</ele>
        <time>2012-08-16T15:13:32Z</time>
      </trkpt>
      <trkpt lat="49.19974" lon="-0.41216">
        <ele>107</ele>
        <time>2012-08-16T15:13:33Z</time>
      </trkpt>
      <trkpt lat="49.19979" lon="-0.4122">
        <ele>108</ele>
        <time>2012-08-16T15:13:34Z</time>
      </trkpt>
      <trkpt lat="49.19982" lon="-0.41227">
        <ele>108</ele>
        <time>2012-08-16T15:13:35Z</time>
      </trkpt>
      <trkpt lat="49.19985" lon="-0.41231">
        <ele>108</ele>
        <time>2012-08-16T15:13:36Z</time>
      </trkpt>
      <trkpt lat="49.19992" lon="-0.4124">
        <ele>107</ele>
        <time>2012-08-16T15:13:38Z</time>
      </trkpt>
      <trkpt lat="49.19996" lon="-0.41251">
        <ele>107</ele>
        <time>2012-08-16T15:13:40Z</time>
      </trkpt>
      <trkpt lat="49.19996" lon="-0.41288">
        <ele>107</ele>
        <time>2012-08-16T15:13:45Z</time>
      </trkpt>
      <trkpt lat="49.19995" lon="-0.41297">
        <ele>107</ele>
        <time>2012-08-16T15:13:46Z</time>
      </trkpt>
      <trkpt lat="49.19993" lon="-0.41309">
        <ele>107</ele>
        <time>2012-08-16T15:13:48Z</time>
      </trkpt>
      <trkpt lat="49.1999" lon="-0.41316">
        <ele>107</ele>
        <time>2012-08-16T15:13:49Z</time>
      </trkpt>
      <trkpt lat="49.19989" lon="-0.41323">
        <ele>107</ele>
        <time>2012-08-16T15:13:50Z</time>
      </trkpt>
      <trkpt lat="49.19988" lon="-0.41331">
        <ele>108</ele>
        <time>2012-08-16T15:13:51Z</time>
      </trkpt>
      <trkpt lat="49.19988" lon="-0.41345">
        <ele>108</ele>
        <time>2012-08-16T15:13:53Z</time>
      </trkpt>
      <trkpt lat="49.19993" lon="-0.41355">
        <ele>108</ele>
        <time>2012-08-16T15:13:55Z</time>
      </trkpt>
      <trkpt lat="49.19997" lon="-0.41367">
        <ele>108</ele>
        <time>2012-08-16T15:13:57Z</time>
      </trkpt>
      <trkpt lat="49.20002" lon="-0.41377">
        <ele>108</ele>
        <time>2012-08-16T15:13:59Z</time>
      </trkpt>
      <trkpt lat="49.20007" lon="-0.41388">
        <ele>109</ele>
        <time>2012-08-16T15:14:01Z</time>
      </trkpt>
      <trkpt lat="49.20011" lon="-0.41398">
        <ele>109</ele>
        <time>2012-08-16T15:14:03Z</time>
      </trkpt>
      <trkpt lat="49.20018" lon="-0.41398">
        <ele>107</ele>
        <time>2012-08-16T15:14:04Z</time>
      </trkpt>
      <trkpt lat="49.20022" lon="-0.41402">
        <ele>107</ele>
        <time>2012-08-16T15:14:05Z</time>
      </trkpt>
      <trkpt lat="49.20025" lon="-0.41407">
        <ele>107</ele>
        <time>2012-08-16T15:14:06Z</time>
      </trkpt>
      <trkpt lat="49.20028" lon="-0.41412">
        <ele>106</ele>
        <time>2012-08-16T15:14:07Z</time>
      </trkpt>
      <trkpt lat="49.20033" lon="-0.41422">
        <ele>107</ele>
        <time>2012-08-16T15:14:09Z</time>
      </trkpt>
      <trkpt lat="49.20034" lon="-0.41431">
        <ele>108</ele>
        <time>2012-08-16T15:14:10Z</time>
      </trkpt>
      <trkpt lat="49.20038" lon="-0.41441">
        <ele>110</ele>
        <time>2012-08-16T15:14:12Z</time>
      </trkpt>
      <trkpt lat="49.20042" lon="-0.41452">
        <ele>109</ele>
        <time>2012-08-16T15:14:14Z</time>
      </trkpt>
      <trkpt lat="49.20047" lon="-0.41464">
        <ele>110</ele>
        <time>2012-08-16T15:14:16Z</time>
      </trkpt>
      <trkpt lat="49.2005" lon="-0.41475">
        <ele>110</ele>
        <time>2012-08-16T15:14:18Z</time>
      </trkpt>
      <trkpt lat="49.20053" lon="-0.41481">
        <ele>110</ele>
        <time>2012-08-16T15:14:19Z</time>
      </trkpt>
      <trkpt lat="49.20057" lon="-0.41491">
        <ele>110</ele>
        <time>2012-08-16T15:14:21Z</time>
      </trkpt>
      <trkpt lat="49.20059" lon="-0.41497">
        <ele>110</ele>
        <time>2012-08-16T15:14:22Z</time>
      </trkpt>
      <trkpt lat="49.20062" lon="-0.41503">
        <ele>110</ele>
        <time>2012-08-16T15:14:23Z</time>
      </trkpt>
      <trkpt lat="49.20066" lon="-0.41514">
        <ele>110</ele>
        <time>2012-08-16T15:14:25Z</time>
      </trkpt>
      <trkpt lat="49.2007" lon="-0.41524">
        <ele>110</ele>
        <time>2012-08-16T15:14:27Z</time>
      </trkpt>
      <trkpt lat="49.20072" lon="-0.4153">
        <ele>110</ele>
        <time>2012-08-16T15:14:28Z</time>
      </trkpt>
      <trkpt lat="49.20074" lon="-0.41537">
        <ele>110</ele>
        <time>2012-08-16T15:14:29Z</time>
      </trkpt>
      <trkpt lat="49.20079" lon="-0.41548">
        <ele>110</ele>
        <time>2012-08-16T15:14:31Z</time>
      </trkpt>
      <trkpt lat="49.20083" lon="-0.41562">
        <ele>111</ele>
        <time>2012-08-16T15:14:33Z</time>
      </trkpt>
      <trkpt lat="49.20086" lon="-0.41568">
        <ele>111</ele>
        <time>2012-08-16T15:14:34Z</time>
      </trkpt>
      <trkpt lat="49.20089" lon="-0.41574">
        <ele>112</ele>
        <time>2012-08-16T15:14:35Z</time>
      </trkpt>
      <trkpt lat="49.20091" lon="-0.4158">
        <ele>112</ele>
        <time>2012-08-16T15:14:36Z</time>
      </trkpt>
      <trkpt lat="49.20096" lon="-0.4159">
        <ele>112</ele>
        <time>2012-08-16T15:14:38Z</time>
      </trkpt>
      <trkpt lat="49.201" lon="-0.41599">
        <ele>112</ele>
        <time>2012-08-16T15:14:40Z</time>
      </trkpt>
      <trkpt lat="49.20105" lon="-0.41608">
        <ele>113</ele>
        <time>2012-08-16T15:14:42Z</time>
      </trkpt>
      <trkpt lat="49.2011" lon="-0.41618">
        <ele>114</ele>
        <time>2012-08-16T15:14:44Z</time>
      </trkpt>
      <trkpt lat="49.20113" lon="-0.41622">
        <ele>114</ele>
        <time>2012-08-16T15:14:45Z</time>
      </trkpt>
      <trkpt lat="49.20116" lon="-0.41633">
        <ele>114</ele>
        <time>2012-08-16T15:14:47Z</time>
      </trkpt>
      <trkpt lat="49.2012" lon="-0.41643">
        <ele>114</ele>
        <time>2012-08-16T15:14:49Z</time>
      </trkpt>
      <trkpt lat="49.20123" lon="-0.41649">
        <ele>114</ele>
        <time>2012-08-16T15:14:50Z</time>
      </trkpt>
      <trkpt lat="49.20126" lon="-0.41658">
        <ele>114</ele>
        <time>2012-08-16T15:14:52Z</time>
      </trkpt>
      <trkpt lat="49.20128" lon="-0.41668">
        <ele>113</ele>
        <time>2012-08-16T15:14:54Z</time>
      </trkpt>
      <trkpt lat="49.20134" lon="-0.41675">
        <ele>112</ele>
        <time>2012-08-16T15:14:56Z</time>
      </trkpt>
      <trkpt lat="49.20139" lon="-0.41683">
        <ele>110</ele>
        <time>2012-08-16T15:14:58Z</time>
      </trkpt>
      <trkpt lat="49.20149" lon="-0.41686">
        <ele>110</ele>
        <time>2012-08-16T15:14:59Z</time>
      </trkpt>
      <trkpt lat="49.20154" lon="-0.41691">
        <ele>109</ele>
        <time>2012-08-16T15:15:00Z</time>
      </trkpt>
      <trkpt lat="49.20151" lon="-0.41701">
        <ele>112</ele>
        <time>2012-08-16T15:15:01Z</time>
      </trkpt>
      <trkpt lat="49.20149" lon="-0.4171">
        <ele>112</ele>
        <time>2012-08-16T15:15:03Z</time>
      </trkpt>
      <trkpt lat="49.20143" lon="-0.41718">
        <ele>112</ele>
        <time>2012-08-16T15:15:05Z</time>
      </trkpt>
      <trkpt lat="49.2014" lon="-0.41723">
        <ele>112</ele>
        <time>2012-08-16T15:15:06Z</time>
      </trkpt>
      <trkpt lat="49.20136" lon="-0.4173">
        <ele>112</ele>
        <time>2012-08-16T15:15:08Z</time>
      </trkpt>
      <trkpt lat="49.20131" lon="-0.41738">
        <ele>113</ele>
        <time>2012-08-16T15:15:10Z</time>
      </trkpt>
      <trkpt lat="49.20126" lon="-0.41746">
        <ele>112</ele>
        <time>2012-08-16T15:15:12Z</time>
      </trkpt>
      <trkpt lat="49.20124" lon="-0.41756">
        <ele>112</ele>
        <time>2012-08-16T15:15:14Z</time>
      </trkpt>
      <trkpt lat="49.20121" lon="-0.41765">
        <ele>113</ele>
        <time>2012-08-16T15:15:15Z</time>
      </trkpt>
      <trkpt lat="49.2012" lon="-0.41776">
        <ele>113</ele>
        <time>2012-08-16T15:15:17Z</time>
      </trkpt>
      <trkpt lat="49.20116" lon="-0.41787">
        <ele>112</ele>
        <time>2012-08-16T15:15:19Z</time>
      </trkpt>
      <trkpt lat="49.20115" lon="-0.41798">
        <ele>112</ele>
        <time>2012-08-16T15:15:21Z</time>
      </trkpt>
      <trkpt lat="49.20112" lon="-0.41806">
        <ele>113</ele>
        <time>2012-08-16T15:15:23Z</time>
      </trkpt>
      <trkpt lat="49.20093" lon="-0.42144">
        <ele>109</ele>
        <time>2012-08-16T15:16:18Z</time>
      </trkpt>
      <trkpt lat="49.20096" lon="-0.42155">
        <ele>109</ele>
        <time>2012-08-16T15:16:20Z</time>
      </trkpt>
      <trkpt lat="49.20097" lon="-0.42162">
        <ele>110</ele>
        <time>2012-08-16T15:16:21Z</time>
      </trkpt>
      <trkpt lat="49.201" lon="-0.42171">
        <ele>110</ele>
        <time>2012-08-16T15:16:23Z</time>
      </trkpt>
      <trkpt lat="49.20103" lon="-0.42182">
        <ele>109</ele>
        <time>2012-08-16T15:16:25Z</time>
      </trkpt>
      <trkpt lat="49.20106" lon="-0.42194">
        <ele>110</ele>
        <time>2012-08-16T15:16:27Z</time>
      </trkpt>
      <trkpt lat="49.2011" lon="-0.42204">
        <ele>109</ele>
        <time>2012-08-16T15:16:29Z</time>
      </trkpt>
      <trkpt lat="49.20114" lon="-0.42214">
        <ele>108</ele>
        <time>2012-08-16T15:16:31Z</time>
      </trkpt>
      <trkpt lat="49.20118" lon="-0.42225">
        <ele>109</ele>
        <time>2012-08-16T15:16:33Z</time>
      </trkpt>
      <trkpt lat="49.20121" lon="-0.4223">
        <ele>108</ele>
        <time>2012-08-16T15:16:34Z</time>
      </trkpt>
      <trkpt lat="49.20123" lon="-0.42236">
        <ele>109</ele>
        <time>2012-08-16T15:16:35Z</time>
      </trkpt>
      <trkpt lat="49.20126" lon="-0.42247">
        <ele>109</ele>
        <time>2012-08-16T15:16:37Z</time>
      </trkpt>
      <trkpt lat="49.20127" lon="-0.42254">
        <ele>109</ele>
        <time>2012-08-16T15:16:38Z</time>
      </trkpt>
      <trkpt lat="49.20129" lon="-0.4226">
        <ele>110</ele>
        <time>2012-08-16T15:16:39Z</time>
      </trkpt>
      <trkpt lat="49.2013" lon="-0.42267">
        <ele>110</ele>
        <time>2012-08-16T15:16:40Z</time>
      </trkpt>
      <trkpt lat="49.20132" lon="-0.42273">
        <ele>110</ele>
        <time>2012-08-16T15:16:41Z</time>
      </trkpt>
      <trkpt lat="49.20135" lon="-0.42284">
        <ele>110</ele>
        <time>2012-08-16T15:16:43Z</time>
      </trkpt>
      <trkpt lat="49.20138" lon="-0.42296">
        <ele>110</ele>
        <time>2012-08-16T15:16:45Z</time>
      </trkpt>
      <trkpt lat="49.20141" lon="-0.42303">
        <ele>110</ele>
        <time>2012-08-16T15:16:46Z</time>
      </trkpt>
      <trkpt lat="49.20144" lon="-0.42316">
        <ele>111</ele>
        <time>2012-08-16T15:16:48Z</time>
      </trkpt>
      <trkpt lat="49.20148" lon="-0.42326">
        <ele>110</ele>
        <time>2012-08-16T15:16:50Z</time>
      </trkpt>
      <trkpt lat="49.20152" lon="-0.42337">
        <ele>110</ele>
        <time>2012-08-16T15:16:52Z</time>
      </trkpt>
      <trkpt lat="49.20151" lon="-0.42345">
        <ele>112</ele>
        <time>2012-08-16T15:16:53Z</time>
      </trkpt>
      <trkpt lat="49.20155" lon="-0.42357">
        <ele>112</ele>
        <time>2012-08-16T15:16:55Z</time>
      </trkpt>
      <trkpt lat="49.20157" lon="-0.42363">
        <ele>112</ele>
        <time>2012-08-16T15:16:56Z</time>
      </trkpt>
      <trkpt lat="49.2016" lon="-0.42375">
        <ele>112</ele>
        <time>2012-08-16T15:16:58Z</time>
      </trkpt>
      <trkpt lat="49.20161" lon="-0.42382">
        <ele>112</ele>
        <time>2012-08-16T15:16:59Z</time>
      </trkpt>
      <trkpt lat="49.20165" lon="-0.42393">
        <ele>112</ele>
        <time>2012-08-16T15:17:01Z</time>
      </trkpt>
      <trkpt lat="49.20166" lon="-0.42401">
        <ele>112</ele>
        <time>2012-08-16T15:17:02Z</time>
      </trkpt>
      <trkpt lat="49.20168" lon="-0.42414">
        <ele>113</ele>
        <time>2012-08-16T15:17:04Z</time>
      </trkpt>
      <trkpt lat="49.2017" lon="-0.42421">
        <ele>113</ele>
        <time>2012-08-16T15:17:05Z</time>
      </trkpt>
      <trkpt lat="49.20172" lon="-0.42433">
        <ele>113</ele>
        <time>2012-08-16T15:17:07Z</time>
      </trkpt>
      <trkpt lat="49.20177" lon="-0.42444">
        <ele>113</ele>
        <time>2012-08-16T15:17:09Z</time>
      </trkpt>
      <trkpt lat="49.2018" lon="-0.42456">
        <ele>113</ele>
        <time>2012-08-16T15:17:11Z</time>
      </trkpt>
      <trkpt lat="49.20183" lon="-0.42462">
        <ele>113</ele>
        <time>2012-08-16T15:17:12Z</time>
      </trkpt>
      <trkpt lat="49.2022" lon="-0.4263">
        <ele>114</ele>
        <time>2012-08-16T15:17:39Z</time>
      </trkpt>
      <trkpt lat="49.20222" lon="-0.42642">
        <ele>114</ele>
        <time>2012-08-16T15:17:41Z</time>
      </trkpt>
      <trkpt lat="49.20224" lon="-0.42655">
        <ele>114</ele>
        <time>2012-08-16T15:17:43Z</time>
      </trkpt>
      <trkpt lat="49.20225" lon="-0.42667">
        <ele>114</ele>
        <time>2012-08-16T15:17:45Z</time>
      </trkpt>
      <trkpt lat="49.20226" lon="-0.42674">
        <ele>114</ele>
        <time>2012-08-16T15:17:46Z</time>
      </trkpt>
      <trkpt lat="49.20228" lon="-0.42687">
        <ele>114</ele>
        <time>2012-08-16T15:17:48Z</time>
      </trkpt>
      <trkpt lat="49.2023" lon="-0.42699">
        <ele>114</ele>
        <time>2012-08-16T15:17:50Z</time>
      </trkpt>
      <trkpt lat="49.20232" lon="-0.42708">
        <ele>118</ele>
        <time>2012-08-16T15:17:52Z</time>
      </trkpt>
      <trkpt lat="49.20234" lon="-0.42719">
        <ele>117</ele>
        <time>2012-08-16T15:17:54Z</time>
      </trkpt>
      <trkpt lat="49.20236" lon="-0.42725">
        <ele>116</ele>
        <time>2012-08-16T15:17:55Z</time>
      </trkpt>
      <trkpt lat="49.20238" lon="-0.42737">
        <ele>115</ele>
        <time>2012-08-16T15:17:57Z</time>
      </trkpt>
      <trkpt lat="49.2024" lon="-0.42749">
        <ele>114</ele>
        <time>2012-08-16T15:17:59Z</time>
      </trkpt>
      <trkpt lat="49.20243" lon="-0.4276">
        <ele>114</ele>
        <time>2012-08-16T15:18:01Z</time>
      </trkpt>
      <trkpt lat="49.20245" lon="-0.42773">
        <ele>113</ele>
        <time>2012-08-16T15:18:03Z</time>
      </trkpt>
      <trkpt lat="49.20246" lon="-0.4278">
        <ele>113</ele>
        <time>2012-08-16T15:18:04Z</time>
      </trkpt>
      <trkpt lat="49.20247" lon="-0.42789">
        <ele>112</ele>
        <time>2012-08-16T15:18:05Z</time>
      </trkpt>
      <trkpt lat="49.20247" lon="-0.42796">
        <ele>113</ele>
        <time>2012-08-16T15:18:06Z</time>
      </trkpt>
      <trkpt lat="49.20247" lon="-0.42804">
        <ele>113</ele>
        <time>2012-08-16T15:18:07Z</time>
      </trkpt>
      <trkpt lat="49.20249" lon="-0.42818">
        <ele>113</ele>
        <time>2012-08-16T15:18:09Z</time>
      </trkpt>
      <trkpt lat="49.2025" lon="-0.42825">
        <ele>113</ele>
        <time>2012-08-16T15:18:10Z</time>
      </trkpt>
      <trkpt lat="49.2025" lon="-0.42834">
        <ele>113</ele>
        <time>2012-08-16T15:18:11Z</time>
      </trkpt>
      <trkpt lat="49.20251" lon="-0.42841">
        <ele>112</ele>
        <time>2012-08-16T15:18:12Z</time>
      </trkpt>
      <trkpt lat="49.20251" lon="-0.42848">
        <ele>112</ele>
        <time>2012-08-16T15:18:13Z</time>
      </trkpt>
      <trkpt lat="49.20253" lon="-0.42856">
        <ele>112</ele>
        <time>2012-08-16T15:18:14Z</time>
      </trkpt>
      <trkpt lat="49.20255" lon="-0.42871">
        <ele>112</ele>
        <time>2012-08-16T15:18:16Z</time>
      </trkpt>
      <trkpt lat="49.20259" lon="-0.42878">
        <ele>110</ele>
        <time>2012-08-16T15:18:18Z</time>
      </trkpt>
      <trkpt lat="49.2026" lon="-0.42886">
        <ele>110</ele>
        <time>2012-08-16T15:18:19Z</time>
      </trkpt>
      <trkpt lat="49.20264" lon="-0.42898">
        <ele>111</ele>
        <time>2012-08-16T15:18:21Z</time>
      </trkpt>
      <trkpt lat="49.20265" lon="-0.42908">
        <ele>110</ele>
        <time>2012-08-16T15:18:23Z</time>
      </trkpt>
      <trkpt lat="49.20268" lon="-0.42918">
        <ele>110</ele>
        <time>2012-08-16T15:18:25Z</time>
      </trkpt>
      <trkpt lat="49.20269" lon="-0.4293">
        <ele>111</ele>
        <time>2012-08-16T15:18:27Z</time>
      </trkpt>
      <trkpt lat="49.2027" lon="-0.4294">
        <ele>111</ele>
        <time>2012-08-16T15:18:29Z</time>
      </trkpt>
      <trkpt lat="49.20273" lon="-0.42952">
        <ele>111</ele>
        <time>2012-08-16T15:18:31Z</time>
      </trkpt>
      <trkpt lat="49.20273" lon="-0.42959">
        <ele>112</ele>
        <time>2012-08-16T15:18:32Z</time>
      </trkpt>
      <trkpt lat="49.20274" lon="-0.42972">
        <ele>112</ele>
        <time>2012-08-16T15:18:34Z</time>
      </trkpt>
      <trkpt lat="49.20275" lon="-0.42982">
        <ele>112</ele>
        <time>2012-08-16T15:18:36Z</time>
      </trkpt>
      <trkpt lat="49.20276" lon="-0.42994">
        <ele>114</ele>
        <time>2012-08-16T15:18:38Z</time>
      </trkpt>
      <trkpt lat="49.20278" lon="-0.43004">
        <ele>114</ele>
        <time>2012-08-16T15:18:40Z</time>
      </trkpt>
      <trkpt lat="49.2028" lon="-0.43016">
        <ele>114</ele>
        <time>2012-08-16T15:18:42Z</time>
      </trkpt>
      <trkpt lat="49.20282" lon="-0.43026">
        <ele>113</ele>
        <time>2012-08-16T15:18:44Z</time>
      </trkpt>
      <trkpt lat="49.20283" lon="-0.43036">
        <ele>112</ele>
        <time>2012-08-16T15:18:46Z</time>
      </trkpt>
      <trkpt lat="49.20285" lon="-0.43048">
        <ele>113</ele>
        <time>2012-08-16T15:18:48Z</time>
      </trkpt>
      <trkpt lat="49.20286" lon="-0.43059">
        <ele>113</ele>
        <time>2012-08-16T15:18:50Z</time>
      </trkpt>
      <trkpt lat="49.20288" lon="-0.43069">
        <ele>113</ele>
        <time>2012-08-16T15:18:52Z</time>
      </trkpt>
      <trkpt lat="49.2029" lon="-0.43078">
        <ele>112</ele>
        <time>2012-08-16T15:18:54Z</time>
      </trkpt>
      <trkpt lat="49.20291" lon="-0.4309">
        <ele>113</ele>
        <time>2012-08-16T15:18:56Z</time>
      </trkpt>
      <trkpt lat="49.20292" lon="-0.43101">
        <ele>114</ele>
        <time>2012-08-16T15:18:58Z</time>
      </trkpt>
      <trkpt lat="49.20295" lon="-0.43112">
        <ele>113</ele>
        <time>2012-08-16T15:19:00Z</time>
      </trkpt>
      <trkpt lat="49.20296" lon="-0.43122">
        <ele>112</ele>
        <time>2012-08-16T15:19:02Z</time>
      </trkpt>
      <trkpt lat="49.20298" lon="-0.43133">
        <ele>112</ele>
        <time>2012-08-16T15:19:04Z</time>
      </trkpt>
      <trkpt lat="49.20299" lon="-0.43144">
        <ele>112</ele>
        <time>2012-08-16T15:19:06Z</time>
      </trkpt>
      <trkpt lat="49.20301" lon="-0.43156">
        <ele>112</ele>
        <time>2012-08-16T15:19:08Z</time>
      </trkpt>
      <trkpt lat="49.20302" lon="-0.43167">
        <ele>112</ele>
        <time>2012-08-16T15:19:10Z</time>
      </trkpt>
      <trkpt lat="49.20303" lon="-0.43179">
        <ele>112</ele>
        <time>2012-08-16T15:19:12Z</time>
      </trkpt>
      <trkpt lat="49.20304" lon="-0.43192">
        <ele>113</ele>
        <time>2012-08-16T15:19:14Z</time>
      </trkpt>
      <trkpt lat="49.20304" lon="-0.43204">
        <ele>113</ele>
        <time>2012-08-16T15:19:16Z</time>
      </trkpt>
      <trkpt lat="49.20306" lon="-0.43216">
        <ele>113</ele>
        <time>2012-08-16T15:19:18Z</time>
      </trkpt>
      <trkpt lat="49.20307" lon="-0.43228">
        <ele>113</ele>
        <time>2012-08-16T15:19:20Z</time>
      </trkpt>
      <trkpt lat="49.20308" lon="-0.43239">
        <ele>114</ele>
        <time>2012-08-16T15:19:22Z</time>
      </trkpt>
      <trkpt lat="49.20309" lon="-0.43249">
        <ele>114</ele>
        <time>2012-08-16T15:19:24Z</time>
      </trkpt>
      <trkpt lat="49.20312" lon="-0.43258">
        <ele>114</ele>
        <time>2012-08-16T15:19:26Z</time>
      </trkpt>
      <trkpt lat="49.20312" lon="-0.43267">
        <ele>114</ele>
        <time>2012-08-16T15:19:28Z</time>
      </trkpt>
      <trkpt lat="49.20311" lon="-0.43275">
        <ele>114</ele>
        <time>2012-08-16T15:19:30Z</time>
      </trkpt>
      <trkpt lat="49.20311" lon="-0.43288">
        <ele>113</ele>
        <time>2012-08-16T15:19:32Z</time>
      </trkpt>
      <trkpt lat="49.2031" lon="-0.433">
        <ele>112</ele>
        <time>2012-08-16T15:19:34Z</time>
      </trkpt>
      <trkpt lat="49.20313" lon="-0.43312">
        <ele>111</ele>
        <time>2012-08-16T15:19:36Z</time>
      </trkpt>
      <trkpt lat="49.20314" lon="-0.43324">
        <ele>113</ele>
        <time>2012-08-16T15:19:37Z</time>
      </trkpt>
      <trkpt lat="49.20317" lon="-0.43335">
        <ele>113</ele>
        <time>2012-08-16T15:19:39Z</time>
      </trkpt>
      <trkpt lat="49.20317" lon="-0.43343">
        <ele>112</ele>
        <time>2012-08-16T15:19:42Z</time>
      </trkpt>
      <trkpt lat="49.20312" lon="-0.43348">
        <ele>112</ele>
        <time>2012-08-16T15:19:45Z</time>
      </trkpt>
      <trkpt lat="49.20306" lon="-0.43348">
        <ele>112</ele>
        <time>2012-08-16T15:19:47Z</time>
      </trkpt>
      <trkpt lat="49.203" lon="-0.43349">
        <ele>111</ele>
        <time>2012-08-16T15:19:49Z</time>
      </trkpt>
      <trkpt lat="49.20294" lon="-0.43351">
        <ele>111</ele>
        <time>2012-08-16T15:19:51Z</time>
      </trkpt>
      <trkpt lat="49.20286" lon="-0.43352">
        <ele>111</ele>
        <time>2012-08-16T15:19:53Z</time>
      </trkpt>
      <trkpt lat="49.20277" lon="-0.43352">
        <ele>112</ele>
        <time>2012-08-16T15:19:55Z</time>
      </trkpt>
      <trkpt lat="49.2027" lon="-0.43353">
        <ele>111</ele>
        <time>2012-08-16T15:19:57Z</time>
      </trkpt>
      <trkpt lat="49.20262" lon="-0.43351">
        <ele>112</ele>
        <time>2012-08-16T15:19:59Z</time>
      </trkpt>
      <trkpt lat="49.20255" lon="-0.43353">
        <ele>111</ele>
        <time>2012-08-16T15:20:01Z</time>
      </trkpt>
      <trkpt lat="49.20247" lon="-0.43355">
        <ele>111</ele>
        <time>2012-08-16T15:20:03Z</time>
      </trkpt>
      <trkpt lat="49.20239" lon="-0.43357">
        <ele>111</ele>
        <time>2012-08-16T15:20:05Z</time>
      </trkpt>
      <trkpt lat="49.20231" lon="-0.43356">
        <ele>110</ele>
        <time>2012-08-16T15:20:07Z</time>
      </trkpt>
      <trkpt lat="49.20226" lon="-0.43357">
        <ele>111</ele>
        <time>2012-08-16T15:20:08Z</time>
      </trkpt>
      <trkpt lat="49.20218" lon="-0.43356">
        <ele>111</ele>
        <time>2012-08-16T15:20:10Z</time>
      </trkpt>
      <trkpt lat="49.20213" lon="-0.43361">
        <ele>112</ele>
        <time>2012-08-16T15:20:12Z</time>
      </trkpt>
      <trkpt lat="49.20208" lon="-0.43362">
        <ele>112</ele>
        <time>2012-08-16T15:20:13Z</time>
      </trkpt>
      <trkpt lat="49.202" lon="-0.43361">
        <ele>113</ele>
        <time>2012-08-16T15:20:15Z</time>
      </trkpt>
      <trkpt lat="49.20193" lon="-0.43362">
        <ele>114</ele>
        <time>2012-08-16T15:20:17Z</time>
      </trkpt>
      <trkpt lat="49.20185" lon="-0.43366">
        <ele>115</ele>
        <time>2012-08-16T15:20:19Z</time>
      </trkpt>
      <trkpt lat="49.20178" lon="-0.43367">
        <ele>114</ele>
        <time>2012-08-16T15:20:21Z</time>
      </trkpt>
      <trkpt lat="49.20172" lon="-0.43368">
        <ele>115</ele>
        <time>2012-08-16T15:20:22Z</time>
      </trkpt>
      <trkpt lat="49.20163" lon="-0.43369">
        <ele>116</ele>
        <time>2012-08-16T15:20:24Z</time>
      </trkpt>
      <trkpt lat="49.20157" lon="-0.43369">
        <ele>117</ele>
        <time>2012-08-16T15:20:25Z</time>
      </trkpt>
      <trkpt lat="49.20149" lon="-0.4337">
        <ele>117</ele>
        <time>2012-08-16T15:20:27Z</time>
      </trkpt>
      <trkpt lat="49.20141" lon="-0.43371">
        <ele>117</ele>
        <time>2012-08-16T15:20:29Z</time>
      </trkpt>
      <trkpt lat="49.20133" lon="-0.43372">
        <ele>117</ele>
        <time>2012-08-16T15:20:31Z</time>
      </trkpt>
      <trkpt lat="49.20128" lon="-0.43372">
        <ele>117</ele>
        <time>2012-08-16T15:20:32Z</time>
      </trkpt>
      <trkpt lat="49.20122" lon="-0.43372">
        <ele>117</ele>
        <time>2012-08-16T15:20:33Z</time>
      </trkpt>
      <trkpt lat="49.20116" lon="-0.43374">
        <ele>117</ele>
        <time>2012-08-16T15:20:35Z</time>
      </trkpt>
      <trkpt lat="49.20107" lon="-0.43376">
        <ele>118</ele>
        <time>2012-08-16T15:20:37Z</time>
      </trkpt>
      <trkpt lat="49.201" lon="-0.43378">
        <ele>118</ele>
        <time>2012-08-16T15:20:39Z</time>
      </trkpt>
      <trkpt lat="49.20092" lon="-0.43379">
        <ele>117</ele>
        <time>2012-08-16T15:20:41Z</time>
      </trkpt>
      <trkpt lat="49.20084" lon="-0.43381">
        <ele>118</ele>
        <time>2012-08-16T15:20:43Z</time>
      </trkpt>
      <trkpt lat="49.20075" lon="-0.43381">
        <ele>117</ele>
        <time>2012-08-16T15:20:45Z</time>
      </trkpt>
      <trkpt lat="49.20071" lon="-0.43384">
        <ele>116</ele>
        <time>2012-08-16T15:20:47Z</time>
      </trkpt>
      <trkpt lat="49.20063" lon="-0.43385">
        <ele>115</ele>
        <time>2012-08-16T15:20:49Z</time>
      </trkpt>
      <trkpt lat="49.20056" lon="-0.43387">
        <ele>114</ele>
        <time>2012-08-16T15:20:51Z</time>
      </trkpt>
      <trkpt lat="49.2005" lon="-0.43388">
        <ele>114</ele>
        <time>2012-08-16T15:20:53Z</time>
      </trkpt>
      <trkpt lat="49.20052" lon="-0.43396">
        <ele>112</ele>
        <time>2012-08-16T15:20:55Z</time>
      </trkpt>
      <trkpt lat="49.2005" lon="-0.43405">
        <ele>113</ele>
        <time>2012-08-16T15:20:57Z</time>
      </trkpt>
      <trkpt lat="49.20053" lon="-0.43413">
        <ele>112</ele>
        <time>2012-08-16T15:20:59Z</time>
      </trkpt>
      <trkpt lat="49.20049" lon="-0.43421">
        <ele>113</ele>
        <time>2012-08-16T15:21:01Z</time>
      </trkpt>
      <trkpt lat="49.20045" lon="-0.43424">
        <ele>114</ele>
        <time>2012-08-16T15:21:04Z</time>
      </trkpt>
      <trkpt lat="49.20041" lon="-0.43418">
        <ele>115</ele>
        <time>2012-08-16T15:21:06Z</time>
      </trkpt>
      <trkpt lat="49.20038" lon="-0.43412">
        <ele>116</ele>
        <time>2012-08-16T15:21:07Z</time>
      </trkpt>
      <trkpt lat="49.20033" lon="-0.43407">
        <ele>116</ele>
        <time>2012-08-16T15:21:08Z</time>
      </trkpt>
      <trkpt lat="49.20029" lon="-0.43404">
        <ele>116</ele>
        <time>2012-08-16T15:21:09Z</time>
      </trkpt>
      <trkpt lat="49.20024" lon="-0.434">
        <ele>116</ele>
        <time>2012-08-16T15:21:10Z</time>
      </trkpt>
      <trkpt lat="49.20016" lon="-0.43399">
        <ele>116</ele>
        <time>2012-08-16T15:21:12Z</time>
      </trkpt>
      <trkpt lat="49.20009" lon="-0.434">
        <ele>116</ele>
        <time>2012-08-16T15:21:14Z</time>
      </trkpt>
      <trkpt lat="49.20003" lon="-0.434">
        <ele>115</ele>
        <time>2012-08-16T15:21:15Z</time>
      </trkpt>
      <trkpt lat="49.19998" lon="-0.43401">
        <ele>115</ele>
        <time>2012-08-16T15:21:16Z</time>
      </trkpt>
      <trkpt lat="49.19992" lon="-0.43402">
        <ele>115</ele>
        <time>2012-08-16T15:21:17Z</time>
      </trkpt>
      <trkpt lat="49.19986" lon="-0.43401">
        <ele>114</ele>
        <time>2012-08-16T15:21:18Z</time>
      </trkpt>
      <trkpt lat="49.19841" lon="-0.43494">
        <ele>114</ele>
        <time>2012-08-16T15:21:56Z</time>
      </trkpt>
      <trkpt lat="49.19838" lon="-0.43499">
        <ele>114</ele>
        <time>2012-08-16T15:21:57Z</time>
      </trkpt>
      <trkpt lat="49.19837" lon="-0.43511">
        <ele>113</ele>
        <time>2012-08-16T15:21:59Z</time>
      </trkpt>
      <trkpt lat="49.19835" lon="-0.43518">
        <ele>112</ele>
        <time>2012-08-16T15:22:00Z</time>
      </trkpt>
      <trkpt lat="49.19834" lon="-0.43528">
        <ele>113</ele>
        <time>2012-08-16T15:22:02Z</time>
      </trkpt>
      <trkpt lat="49.19833" lon="-0.43536">
        <ele>113</ele>
        <time>2012-08-16T15:22:04Z</time>
      </trkpt>
      <trkpt lat="49.19827" lon="-0.43546">
        <ele>112</ele>
        <time>2012-08-16T15:22:06Z</time>
      </trkpt>
      <trkpt lat="49.19823" lon="-0.4355">
        <ele>112</ele>
        <time>2012-08-16T15:22:07Z</time>
      </trkpt>
      <trkpt lat="49.1982" lon="-0.43555">
        <ele>112</ele>
        <time>2012-08-16T15:22:08Z</time>
      </trkpt>
      <trkpt lat="49.19813" lon="-0.43563">
        <ele>111</ele>
        <time>2012-08-16T15:22:10Z</time>
      </trkpt>
      <trkpt lat="49.19809" lon="-0.43566">
        <ele>111</ele>
        <time>2012-08-16T15:22:11Z</time>
      </trkpt>
      <trkpt lat="49.19804" lon="-0.43571">
        <ele>111</ele>
        <time>2012-08-16T15:22:12Z</time>
      </trkpt>
      <trkpt lat="49.19799" lon="-0.43577">
        <ele>111</ele>
        <time>2012-08-16T15:22:13Z</time>
      </trkpt>
      <trkpt lat="49.19793" lon="-0.43588">
        <ele>110</ele>
        <time>2012-08-16T15:22:15Z</time>
      </trkpt>
      <trkpt lat="49.19793" lon="-0.43596">
        <ele>109</ele>
        <time>2012-08-16T15:22:16Z</time>
      </trkpt>
      <trkpt lat="49.19796" lon="-0.43602">
        <ele>108</ele>
        <time>2012-08-16T15:22:17Z</time>
      </trkpt>
      <trkpt lat="49.19796" lon="-0.43609">
        <ele>108</ele>
        <time>2012-08-16T15:22:18Z</time>
      </trkpt>
      <trkpt lat="49.19798" lon="-0.43617">
        <ele>108</ele>
        <time>2012-08-16T15:22:19Z</time>
      </trkpt>
      <trkpt lat="49.19798" lon="-0.43625">
        <ele>107</ele>
        <time>2012-08-16T15:22:20Z</time>
      </trkpt>
      <trkpt lat="49.19799" lon="-0.43633">
        <ele>107</ele>
        <time>2012-08-16T15:22:21Z</time>
      </trkpt>
      <trkpt lat="49.198" lon="-0.43641">
        <ele>108</ele>
        <time>2012-08-16T15:22:22Z</time>
      </trkpt>
      <trkpt lat="49.198" lon="-0.43649">
        <ele>107</ele>
        <time>2012-08-16T15:22:23Z</time>
      </trkpt>
      <trkpt lat="49.19802" lon="-0.43656">
        <ele>107</ele>
        <time>2012-08-16T15:22:24Z</time>
      </trkpt>
      <trkpt lat="49.19803" lon="-0.43662">
        <ele>108</ele>
        <time>2012-08-16T15:22:25Z</time>
      </trkpt>
      <trkpt lat="49.19805" lon="-0.43671">
        <ele>107</ele>
        <time>2012-08-16T15:22:26Z</time>
      </trkpt>
      <trkpt lat="49.19806" lon="-0.43679">
        <ele>107</ele>
        <time>2012-08-16T15:22:27Z</time>
      </trkpt>
      <trkpt lat="49.1981" lon="-0.4369">
        <ele>108</ele>
        <time>2012-08-16T15:22:29Z</time>
      </trkpt>
      <trkpt lat="49.19812" lon="-0.43697">
        <ele>109</ele>
        <time>2012-08-16T15:22:30Z</time>
      </trkpt>
      <trkpt lat="49.19814" lon="-0.43704">
        <ele>109</ele>
        <time>2012-08-16T15:22:31Z</time>
      </trkpt>
      <trkpt lat="49.19817" lon="-0.43715">
        <ele>109</ele>
        <time>2012-08-16T15:22:33Z</time>
      </trkpt>
      <trkpt lat="49.19819" lon="-0.43725">
        <ele>109</ele>
        <time>2012-08-16T15:22:35Z</time>
      </trkpt>
      <trkpt lat="49.1982" lon="-0.43737">
        <ele>108</ele>
        <time>2012-08-16T15:22:37Z</time>
      </trkpt>
      <trkpt lat="49.19822" lon="-0.4375">
        <ele>108</ele>
        <time>2012-08-16T15:22:39Z</time>
      </trkpt>
      <trkpt lat="49.19822" lon="-0.43758">
        <ele>110</ele>
        <time>2012-08-16T15:22:40Z</time>
      </trkpt>
      <trkpt lat="49.19825" lon="-0.43768">
        <ele>108</ele>
        <time>2012-08-16T15:22:42Z</time>
      </trkpt>
      <trkpt lat="49.19827" lon="-0.43781">
        <ele>108</ele>
        <time>2012-08-16T15:22:44Z</time>
      </trkpt>
      <trkpt lat="49.19826" lon="-0.43792">
        <ele>107</ele>
        <time>2012-08-16T15:22:46Z</time>
      </trkpt>
      <trkpt lat="49.19825" lon="-0.43803">
        <ele>107</ele>
        <time>2012-08-16T15:22:48Z</time>
      </trkpt>
      <trkpt lat="49.19822" lon="-0.43809">
        <ele>107</ele>
        <time>2012-08-16T15:22:49Z</time>
      </trkpt>
      <trkpt lat="49.19818" lon="-0.43819">
        <ele>107</ele>
        <time>2012-08-16T15:22:51Z</time>
      </trkpt>
      <trkpt lat="49.19807" lon="-0.43826">
        <ele>107</ele>
        <time>2012-08-16T15:22:53Z</time>
      </trkpt>
      <trkpt lat="49.19802" lon="-0.43828">
        <ele>107</ele>
        <time>2012-08-16T15:22:54Z</time>
      </trkpt>
      <trkpt lat="49.19796" lon="-0.43834">
        <ele>107</ele>
        <time>2012-08-16T15:22:56Z</time>
      </trkpt>
      <trkpt lat="49.19793" lon="-0.43842">
        <ele>107</ele>
        <time>2012-08-16T15:22:58Z</time>
      </trkpt>
      <trkpt lat="49.19791" lon="-0.43853">
        <ele>107</ele>
        <time>2012-08-16T15:23:00Z</time>
      </trkpt>
      <trkpt lat="49.19792" lon="-0.43862">
        <ele>107</ele>
        <time>2012-08-16T15:23:02Z</time>
      </trkpt>
      <trkpt lat="49.19796" lon="-0.43872">
        <ele>108</ele>
        <time>2012-08-16T15:23:04Z</time>
      </trkpt>
      <trkpt lat="49.198" lon="-0.43878">
        <ele>108</ele>
        <time>2012-08-16T15:23:06Z</time>
      </trkpt>
      <trkpt lat="49.19802" lon="-0.43886">
        <ele>112</ele>
        <time>2012-08-16T15:23:08Z</time>
      </trkpt>
      <trkpt lat="49.19806" lon="-0.43893">
        <ele>113</ele>
        <time>2012-08-16T15:23:10Z</time>
      </trkpt>
      <trkpt lat="49.1981" lon="-0.439">
        <ele>113</ele>
        <time>2012-08-16T15:23:12Z</time>
      </trkpt>
      <trkpt lat="49.19816" lon="-0.43908">
        <ele>114</ele>
        <time>2012-08-16T15:23:14Z</time>
      </trkpt>
      <trkpt lat="49.19821" lon="-0.43915">
        <ele>114</ele>
        <time>2012-08-16T15:23:16Z</time>
      </trkpt>
      <trkpt lat="49.19827" lon="-0.43922">
        <ele>115</ele>
        <time>2012-08-16T15:23:18Z</time>
      </trkpt>
      <trkpt lat="49.19834" lon="-0.43929">
        <ele>115</ele>
        <time>2012-08-16T15:23:20Z</time>
      </trkpt>
      <trkpt lat="49.19839" lon="-0.43936">
        <ele>115</ele>
        <time>2012-08-16T15:23:22Z</time>
      </trkpt>
      <trkpt lat="49.19843" lon="-0.43945">
        <ele>115</ele>
        <time>2012-08-16T15:23:24Z</time>
      </trkpt>
      <trkpt lat="49.19845" lon="-0.43955">
        <ele>116</ele>
        <time>2012-08-16T15:23:26Z</time>
      </trkpt>
      <trkpt lat="49.1985" lon="-0.43964">
        <ele>115</ele>
        <time>2012-08-16T15:23:28Z</time>
      </trkpt>
      <trkpt lat="49.19856" lon="-0.43972">
        <ele>114</ele>
        <time>2012-08-16T15:23:30Z</time>
      </trkpt>
      <trkpt lat="49.19863" lon="-0.43981">
        <ele>114</ele>
        <time>2012-08-16T15:23:32Z</time>
      </trkpt>
      <trkpt lat="49.19913" lon="-0.44073">
        <ele>116</ele>
        <time>2012-08-16T15:23:48Z</time>
      </trkpt>
      <trkpt lat="49.19916" lon="-0.4408">
        <ele>115</ele>
        <time>2012-08-16T15:23:49Z</time>
      </trkpt>
      <trkpt lat="49.19918" lon="-0.44087">
        <ele>117</ele>
        <time>2012-08-16T15:23:50Z</time>
      </trkpt>
      <trkpt lat="49.19921" lon="-0.44094">
        <ele>117</ele>
        <time>2012-08-16T15:23:51Z</time>
      </trkpt>
      <trkpt lat="49.19924" lon="-0.44106">
        <ele>115</ele>
        <time>2012-08-16T15:23:53Z</time>
      </trkpt>
      <trkpt lat="49.19927" lon="-0.44114">
        <ele>115</ele>
        <time>2012-08-16T15:23:54Z</time>
      </trkpt>
      <trkpt lat="49.19929" lon="-0.4412">
        <ele>115</ele>
        <time>2012-08-16T15:23:55Z</time>
      </trkpt>
      <trkpt lat="49.19931" lon="-0.44128">
        <ele>114</ele>
        <time>2012-08-16T15:23:56Z</time>
      </trkpt>
      <trkpt lat="49.19934" lon="-0.44136">
        <ele>114</ele>
        <time>2012-08-16T15:23:57Z</time>
      </trkpt>
      <trkpt lat="49.19936" lon="-0.44143">
        <ele>115</ele>
        <time>2012-08-16T15:23:58Z</time>
      </trkpt>
      <trkpt lat="49.19938" lon="-0.44151">
        <ele>115</ele>
        <time>2012-08-16T15:23:59Z</time>
      </trkpt>
      <trkpt lat="49.1994" lon="-0.44159">
        <ele>115</ele>
        <time>2012-08-16T15:24:00Z</time>
      </trkpt>
      <trkpt lat="49.19943" lon="-0.44167">
        <ele>115</ele>
        <time>2012-08-16T15:24:01Z</time>
      </trkpt>
      <trkpt lat="49.19945" lon="-0.44173">
        <ele>115</ele>
        <time>2012-08-16T15:24:02Z</time>
      </trkpt>
      <trkpt lat="49.19948" lon="-0.4418">
        <ele>115</ele>
        <time>2012-08-16T15:24:03Z</time>
      </trkpt>
      <trkpt lat="49.1995" lon="-0.44187">
        <ele>115</ele>
        <time>2012-08-16T15:24:04Z</time>
      </trkpt>
      <trkpt lat="49.19952" lon="-0.44195">
        <ele>115</ele>
        <time>2012-08-16T15:24:05Z</time>
      </trkpt>
      <trkpt lat="49.19954" lon="-0.44204">
        <ele>116</ele>
        <time>2012-08-16T15:24:06Z</time>
      </trkpt>
      <trkpt lat="49.19956" lon="-0.44211">
        <ele>115</ele>
        <time>2012-08-16T15:24:07Z</time>
      </trkpt>
      <trkpt lat="49.19957" lon="-0.44219">
        <ele>115</ele>
        <time>2012-08-16T15:24:08Z</time>
      </trkpt>
      <trkpt lat="49.19959" lon="-0.44226">
        <ele>116</ele>
        <time>2012-08-16T15:24:09Z</time>
      </trkpt>
      <trkpt lat="49.19961" lon="-0.44233">
        <ele>115</ele>
        <time>2012-08-16T15:24:10Z</time>
      </trkpt>
      <trkpt lat="49.19963" lon="-0.4424">
        <ele>116</ele>
        <time>2012-08-16T15:24:11Z</time>
      </trkpt>
      <trkpt lat="49.19965" lon="-0.44247">
        <ele>116</ele>
        <time>2012-08-16T15:24:12Z</time>
      </trkpt>
      <trkpt lat="49.19967" lon="-0.44254">
        <ele>116</ele>
        <time>2012-08-16T15:24:13Z</time>
      </trkpt>
      <trkpt lat="49.19968" lon="-0.4426">
        <ele>115</ele>
        <time>2012-08-16T15:24:14Z</time>
      </trkpt>
      <trkpt lat="49.19971" lon="-0.44267">
        <ele>115</ele>
        <time>2012-08-16T15:24:15Z</time>
      </trkpt>
      <trkpt lat="49.19973" lon="-0.44274">
        <ele>115</ele>
        <time>2012-08-16T15:24:16Z</time>
      </trkpt>
      <trkpt lat="49.19974" lon="-0.4428">
        <ele>115</ele>
        <time>2012-08-16T15:24:17Z</time>
      </trkpt>
      <trkpt lat="49.19976" lon="-0.44287">
        <ele>115</ele>
        <time>2012-08-16T15:24:18Z</time>
      </trkpt>
      <trkpt lat="49.19978" lon="-0.44293">
        <ele>116</ele>
        <time>2012-08-16T15:24:19Z</time>
      </trkpt>
      <trkpt lat="49.1998" lon="-0.443">
        <ele>116</ele>
        <time>2012-08-16T15:24:20Z</time>
      </trkpt>
      <trkpt lat="49.19982" lon="-0.44313">
        <ele>114</ele>
        <time>2012-08-16T15:24:22Z</time>
      </trkpt>
      <trkpt lat="49.19983" lon="-0.4432">
        <ele>114</ele>
        <time>2012-08-16T15:24:23Z</time>
      </trkpt>
      <trkpt lat="49.19984" lon="-0.44327">
        <ele>114</ele>
        <time>2012-08-16T15:24:24Z</time>
      </trkpt>
      <trkpt lat="49.19986" lon="-0.44334">
        <ele>114</ele>
        <time>2012-08-16T15:24:25Z</time>
      </trkpt>
      <trkpt lat="49.19989" lon="-0.44341">
        <ele>115</ele>
        <time>2012-08-16T15:24:26Z</time>
      </trkpt>
      <trkpt lat="49.1999" lon="-0.44348">
        <ele>115</ele>
        <time>2012-08-16T15:24:27Z</time>
      </trkpt>
      <trkpt lat="49.19992" lon="-0.44355">
        <ele>115</ele>
        <time>2012-08-16T15:24:28Z</time>
      </trkpt>
      <trkpt lat="49.19994" lon="-0.44361">
        <ele>115</ele>
        <time>2012-08-16T15:24:29Z</time>
      </trkpt>
      <trkpt lat="49.19997" lon="-0.44373">
        <ele>115</ele>
        <time>2012-08-16T15:24:31Z</time>
      </trkpt>
      <trkpt lat="49.19998" lon="-0.4438">
        <ele>115</ele>
        <time>2012-08-16T15:24:32Z</time>
      </trkpt>
      <trkpt lat="49.19999" lon="-0.44388">
        <ele>115</ele>
        <time>2012-08-16T15:24:33Z</time>
      </trkpt>
      <trkpt lat="49.2" lon="-0.44395">
        <ele>115</ele>
        <time>2012-08-16T15:24:34Z</time>
      </trkpt>
      <trkpt lat="49.20002" lon="-0.44408">
        <ele>115</ele>
        <time>2012-08-16T15:24:36Z</time>
      </trkpt>
      <trkpt lat="49.20005" lon="-0.44421">
        <ele>116</ele>
        <time>2012-08-16T15:24:38Z</time>
      </trkpt>
      <trkpt lat="49.20004" lon="-0.44428">
        <ele>116</ele>
        <time>2012-08-16T15:24:39Z</time>
      </trkpt>
      <trkpt lat="49.20006" lon="-0.44441">
        <ele>117</ele>
        <time>2012-08-16T15:24:41Z</time>
      </trkpt>
      <trkpt lat="49.20008" lon="-0.44454">
        <ele>117</ele>
        <time>2012-08-16T15:24:43Z</time>
      </trkpt>
      <trkpt lat="49.2001" lon="-0.44467">
        <ele>117</ele>
        <time>2012-08-16T15:24:45Z</time>
      </trkpt>
      <trkpt lat="49.20011" lon="-0.44479">
        <ele>117</ele>
        <time>2012-08-16T15:24:47Z</time>
      </trkpt>
      <trkpt lat="49.2001" lon="-0.44486">
        <ele>118</ele>
        <time>2012-08-16T15:24:48Z</time>
      </trkpt>
      <trkpt lat="49.20011" lon="-0.44498">
        <ele>118</ele>
        <time>2012-08-16T15:24:50Z</time>
      </trkpt>
      <trkpt lat="49.20012" lon="-0.4451">
        <ele>118</ele>
        <time>2012-08-16T15:24:52Z</time>
      </trkpt>
      <trkpt lat="49.20013" lon="-0.44517">
        <ele>118</ele>
        <time>2012-08-16T15:24:53Z</time>
      </trkpt>
      <trkpt lat="49.20014" lon="-0.44524">
        <ele>118</ele>
        <time>2012-08-16T15:24:54Z</time>
      </trkpt>
      <trkpt lat="49.20015" lon="-0.44531">
        <ele>118</ele>
        <time>2012-08-16T15:24:55Z</time>
      </trkpt>
      <trkpt lat="49.20017" lon="-0.44538">
        <ele>118</ele>
        <time>2012-08-16T15:24:56Z</time>
      </trkpt>
      <trkpt lat="49.20018" lon="-0.44546">
        <ele>118</ele>
        <time>2012-08-16T15:24:57Z</time>
      </trkpt>
      <trkpt lat="49.20017" lon="-0.44552">
        <ele>118</ele>
        <time>2012-08-16T15:24:58Z</time>
      </trkpt>
      <trkpt lat="49.20017" lon="-0.4456">
        <ele>118</ele>
        <time>2012-08-16T15:24:59Z</time>
      </trkpt>
      <trkpt lat="49.20018" lon="-0.4457">
        <ele>117</ele>
        <time>2012-08-16T15:25:01Z</time>
      </trkpt>
      <trkpt lat="49.20018" lon="-0.44577">
        <ele>118</ele>
        <time>2012-08-16T15:25:02Z</time>
      </trkpt>
      <trkpt lat="49.2002" lon="-0.44588">
        <ele>118</ele>
        <time>2012-08-16T15:25:04Z</time>
      </trkpt>
      <trkpt lat="49.20021" lon="-0.44601">
        <ele>118</ele>
        <time>2012-08-16T15:25:06Z</time>
      </trkpt>
      <trkpt lat="49.20022" lon="-0.44615">
        <ele>118</ele>
        <time>2012-08-16T15:25:08Z</time>
      </trkpt>
      <trkpt lat="49.20023" lon="-0.44626">
        <ele>118</ele>
        <time>2012-08-16T15:25:10Z</time>
      </trkpt>
      <trkpt lat="49.20025" lon="-0.44639">
        <ele>118</ele>
        <time>2012-08-16T15:25:12Z</time>
      </trkpt>
      <trkpt lat="49.20026" lon="-0.44651">
        <ele>118</ele>
        <time>2012-08-16T15:25:14Z</time>
      </trkpt>
      <trkpt lat="49.20027" lon="-0.44662">
        <ele>118</ele>
        <time>2012-08-16T15:25:16Z</time>
      </trkpt>
      <trkpt lat="49.20027" lon="-0.44673">
        <ele>118</ele>
        <time>2012-08-16T15:25:18Z</time>
      </trkpt>
      <trkpt lat="49.20027" lon="-0.44685">
        <ele>118</ele>
        <time>2012-08-16T15:25:20Z</time>
      </trkpt>
      <trkpt lat="49.20032" lon="-0.44725">
        <ele>117</ele>
        <time>2012-08-16T15:25:27Z</time>
      </trkpt>
      <trkpt lat="49.20034" lon="-0.44737">
        <ele>118</ele>
        <time>2012-08-16T15:25:29Z</time>
      </trkpt>
      <trkpt lat="49.20035" lon="-0.44751">
        <ele>118</ele>
        <time>2012-08-16T15:25:31Z</time>
      </trkpt>
      <trkpt lat="49.20037" lon="-0.44764">
        <ele>118</ele>
        <time>2012-08-16T15:25:33Z</time>
      </trkpt>
      <trkpt lat="49.20038" lon="-0.44777">
        <ele>118</ele>
        <time>2012-08-16T15:25:35Z</time>
      </trkpt>
      <trkpt lat="49.20077" lon="-0.45036">
        <ele>120</ele>
        <time>2012-08-16T15:26:20Z</time>
      </trkpt>
      <trkpt lat="49.2008" lon="-0.45041">
        <ele>119</ele>
        <time>2012-08-16T15:26:21Z</time>
      </trkpt>
      <trkpt lat="49.20081" lon="-0.4505">
        <ele>120</ele>
        <time>2012-08-16T15:26:22Z</time>
      </trkpt>
      <trkpt lat="49.20083" lon="-0.45056">
        <ele>119</ele>
        <time>2012-08-16T15:26:23Z</time>
      </trkpt>
      <trkpt lat="49.20085" lon="-0.45069">
        <ele>119</ele>
        <time>2012-08-16T15:26:25Z</time>
      </trkpt>
      <trkpt lat="49.20085" lon="-0.4508">
        <ele>118</ele>
        <time>2012-08-16T15:26:27Z</time>
      </trkpt>
      <trkpt lat="49.20088" lon="-0.45092">
        <ele>118</ele>
        <time>2012-08-16T15:26:29Z</time>
      </trkpt>
      <trkpt lat="49.20091" lon="-0.45103">
        <ele>118</ele>
        <time>2012-08-16T15:26:31Z</time>
      </trkpt>
      <trkpt lat="49.20093" lon="-0.45115">
        <ele>117</ele>
        <time>2012-08-16T15:26:33Z</time>
      </trkpt>
      <trkpt lat="49.20096" lon="-0.45126">
        <ele>117</ele>
        <time>2012-08-16T15:26:35Z</time>
      </trkpt>
      <trkpt lat="49.20098" lon="-0.45137">
        <ele>118</ele>
        <time>2012-08-16T15:26:37Z</time>
      </trkpt>
      <trkpt lat="49.201" lon="-0.45148">
        <ele>117</ele>
        <time>2012-08-16T15:26:39Z</time>
      </trkpt>
      <trkpt lat="49.20102" lon="-0.45159">
        <ele>118</ele>
        <time>2012-08-16T15:26:41Z</time>
      </trkpt>
      <trkpt lat="49.20105" lon="-0.45169">
        <ele>118</ele>
        <time>2012-08-16T15:26:43Z</time>
      </trkpt>
      <trkpt lat="49.20106" lon="-0.45181">
        <ele>118</ele>
        <time>2012-08-16T15:26:45Z</time>
      </trkpt>
      <trkpt lat="49.20108" lon="-0.45191">
        <ele>117</ele>
        <time>2012-08-16T15:26:47Z</time>
      </trkpt>
      <trkpt lat="49.2011" lon="-0.452">
        <ele>118</ele>
        <time>2012-08-16T15:26:49Z</time>
      </trkpt>
      <trkpt lat="49.20111" lon="-0.4521">
        <ele>118</ele>
        <time>2012-08-16T15:26:51Z</time>
      </trkpt>
      <trkpt lat="49.20114" lon="-0.4522">
        <ele>119</ele>
        <time>2012-08-16T15:26:53Z</time>
      </trkpt>
      <trkpt lat="49.20115" lon="-0.4523">
        <ele>118</ele>
        <time>2012-08-16T15:26:55Z</time>
      </trkpt>
      <trkpt lat="49.20117" lon="-0.45239">
        <ele>118</ele>
        <time>2012-08-16T15:26:57Z</time>
      </trkpt>
      <trkpt lat="49.20119" lon="-0.4525">
        <ele>118</ele>
        <time>2012-08-16T15:26:59Z</time>
      </trkpt>
      <trkpt lat="49.20121" lon="-0.4526">
        <ele>119</ele>
        <time>2012-08-16T15:27:01Z</time>
      </trkpt>
      <trkpt lat="49.20123" lon="-0.45271">
        <ele>118</ele>
        <time>2012-08-16T15:27:03Z</time>
      </trkpt>
      <trkpt lat="49.20124" lon="-0.4528">
        <ele>118</ele>
        <time>2012-08-16T15:27:05Z</time>
      </trkpt>
      <trkpt lat="49.20126" lon="-0.45291">
        <ele>118</ele>
        <time>2012-08-16T15:27:07Z</time>
      </trkpt>
      <trkpt lat="49.20128" lon="-0.45304">
        <ele>118</ele>
        <time>2012-08-16T15:27:09Z</time>
      </trkpt>
      <trkpt lat="49.20129" lon="-0.45314">
        <ele>119</ele>
        <time>2012-08-16T15:27:11Z</time>
      </trkpt>
      <trkpt lat="49.20131" lon="-0.45325">
        <ele>119</ele>
        <time>2012-08-16T15:27:13Z</time>
      </trkpt>
      <trkpt lat="49.20133" lon="-0.45335">
        <ele>119</ele>
        <time>2012-08-16T15:27:15Z</time>
      </trkpt>
      <trkpt lat="49.20134" lon="-0.45345">
        <ele>120</ele>
        <time>2012-08-16T15:27:17Z</time>
      </trkpt>
      <trkpt lat="49.20142" lon="-0.45357">
        <ele>119</ele>
        <time>2012-08-16T15:27:19Z</time>
      </trkpt>
      <trkpt lat="49.20146" lon="-0.45367">
        <ele>119</ele>
        <time>2012-08-16T15:27:21Z</time>
      </trkpt>
      <trkpt lat="49.20149" lon="-0.45378">
        <ele>119</ele>
        <time>2012-08-16T15:27:23Z</time>
      </trkpt>
      <trkpt lat="49.2015" lon="-0.45388">
        <ele>118</ele>
        <time>2012-08-16T15:27:25Z</time>
      </trkpt>
      <trkpt lat="49.20158" lon="-0.45428">
        <ele>115</ele>
        <time>2012-08-16T15:27:34Z</time>
      </trkpt>
      <trkpt lat="49.20161" lon="-0.45437">
        <ele>114</ele>
        <time>2012-08-16T15:27:36Z</time>
      </trkpt>
      <trkpt lat="49.20163" lon="-0.45445">
        <ele>114</ele>
        <time>2012-08-16T15:27:38Z</time>
      </trkpt>
      <trkpt lat="49.20164" lon="-0.45452">
        <ele>115</ele>
        <time>2012-08-16T15:27:39Z</time>
      </trkpt>
      <trkpt lat="49.20165" lon="-0.45462">
        <ele>114</ele>
        <time>2012-08-16T15:27:41Z</time>
      </trkpt>
      <trkpt lat="49.20168" lon="-0.45474">
        <ele>115</ele>
        <time>2012-08-16T15:27:43Z</time>
      </trkpt>
      <trkpt lat="49.20171" lon="-0.45483">
        <ele>115</ele>
        <time>2012-08-16T15:27:45Z</time>
      </trkpt>
      <trkpt lat="49.20175" lon="-0.45493">
        <ele>113</ele>
        <time>2012-08-16T15:27:47Z</time>
      </trkpt>
      <trkpt lat="49.20178" lon="-0.45504">
        <ele>112</ele>
        <time>2012-08-16T15:27:49Z</time>
      </trkpt>
      <trkpt lat="49.2018" lon="-0.45514">
        <ele>112</ele>
        <time>2012-08-16T15:27:51Z</time>
      </trkpt>
      <trkpt lat="49.20178" lon="-0.45524">
        <ele>115</ele>
        <time>2012-08-16T15:27:52Z</time>
      </trkpt>
      <trkpt lat="49.20177" lon="-0.45532">
        <ele>117</ele>
        <time>2012-08-16T15:27:53Z</time>
      </trkpt>
      <trkpt lat="49.20177" lon="-0.4554">
        <ele>118</ele>
        <time>2012-08-16T15:27:54Z</time>
      </trkpt>
      <trkpt lat="49.20178" lon="-0.45548">
        <ele>118</ele>
        <time>2012-08-16T15:27:55Z</time>
      </trkpt>
      <trkpt lat="49.20179" lon="-0.45556">
        <ele>118</ele>
        <time>2012-08-16T15:27:56Z</time>
      </trkpt>
      <trkpt lat="49.2018" lon="-0.45563">
        <ele>118</ele>
        <time>2012-08-16T15:27:57Z</time>
      </trkpt>
      <trkpt lat="49.20182" lon="-0.45576">
        <ele>118</ele>
        <time>2012-08-16T15:27:59Z</time>
      </trkpt>
      <trkpt lat="49.20184" lon="-0.45582">
        <ele>118</ele>
        <time>2012-08-16T15:28:00Z</time>
      </trkpt>
      <trkpt lat="49.20186" lon="-0.45589">
        <ele>118</ele>
        <time>2012-08-16T15:28:01Z</time>
      </trkpt>
      <trkpt lat="49.20187" lon="-0.45596">
        <ele>117</ele>
        <time>2012-08-16T15:28:02Z</time>
      </trkpt>
      <trkpt lat="49.20188" lon="-0.45603">
        <ele>117</ele>
        <time>2012-08-16T15:28:03Z</time>
      </trkpt>
      <trkpt lat="49.20189" lon="-0.4561">
        <ele>117</ele>
        <time>2012-08-16T15:28:04Z</time>
      </trkpt>
      <trkpt lat="49.2019" lon="-0.45618">
        <ele>117</ele>
        <time>2012-08-16T15:28:05Z</time>
      </trkpt>
      <trkpt lat="49.20192" lon="-0.45624">
        <ele>117</ele>
        <time>2012-08-16T15:28:06Z</time>
      </trkpt>
      <trkpt lat="49.20193" lon="-0.45631">
        <ele>117</ele>
        <time>2012-08-16T15:28:07Z</time>
      </trkpt>
      <trkpt lat="49.20196" lon="-0.45645">
        <ele>117</ele>
        <time>2012-08-16T15:28:09Z</time>
      </trkpt>
      <trkpt lat="49.20198" lon="-0.45655">
        <ele>118</ele>
        <time>2012-08-16T15:28:10Z</time>
      </trkpt>
      <trkpt lat="49.202" lon="-0.45667">
        <ele>118</ele>
        <time>2012-08-16T15:28:12Z</time>
      </trkpt>
      <trkpt lat="49.20212" lon="-0.4574">
        <ele>118</ele>
        <time>2012-08-16T15:28:23Z</time>
      </trkpt>
      <trkpt lat="49.20214" lon="-0.45761">
        <ele>118</ele>
        <time>2012-08-16T15:28:26Z</time>
      </trkpt>
      <trkpt lat="49.20218" lon="-0.45794">
        <ele>117</ele>
        <time>2012-08-16T15:28:31Z</time>
      </trkpt>
      <trkpt lat="49.20222" lon="-0.458">
        <ele>116</ele>
        <time>2012-08-16T15:28:33Z</time>
      </trkpt>
      <trkpt lat="49.20224" lon="-0.45814">
        <ele>116</ele>
        <time>2012-08-16T15:28:35Z</time>
      </trkpt>
      <trkpt lat="49.20228" lon="-0.45819">
        <ele>117</ele>
        <time>2012-08-16T15:28:36Z</time>
      </trkpt>
      <trkpt lat="49.2023" lon="-0.45826">
        <ele>117</ele>
        <time>2012-08-16T15:28:37Z</time>
      </trkpt>
      <trkpt lat="49.20231" lon="-0.45832">
        <ele>117</ele>
        <time>2012-08-16T15:28:38Z</time>
      </trkpt>
      <trkpt lat="49.20232" lon="-0.45839">
        <ele>116</ele>
        <time>2012-08-16T15:28:39Z</time>
      </trkpt>
      <trkpt lat="49.20242" lon="-0.45905">
        <ele>116</ele>
        <time>2012-08-16T15:28:49Z</time>
      </trkpt>
      <trkpt lat="49.20242" lon="-0.45912">
        <ele>116</ele>
        <time>2012-08-16T15:28:50Z</time>
      </trkpt>
      <trkpt lat="49.20242" lon="-0.4592">
        <ele>115</ele>
        <time>2012-08-16T15:28:51Z</time>
      </trkpt>
      <trkpt lat="49.20243" lon="-0.45928">
        <ele>115</ele>
        <time>2012-08-16T15:28:52Z</time>
      </trkpt>
      <trkpt lat="49.20245" lon="-0.45936">
        <ele>115</ele>
        <time>2012-08-16T15:28:53Z</time>
      </trkpt>
      <trkpt lat="49.20246" lon="-0.45945">
        <ele>115</ele>
        <time>2012-08-16T15:28:54Z</time>
      </trkpt>
      <trkpt lat="49.20247" lon="-0.45958">
        <ele>114</ele>
        <time>2012-08-16T15:28:56Z</time>
      </trkpt>
      <trkpt lat="49.20247" lon="-0.45966">
        <ele>114</ele>
        <time>2012-08-16T15:28:57Z</time>
      </trkpt>
      <trkpt lat="49.20247" lon="-0.45974">
        <ele>114</ele>
        <time>2012-08-16T15:28:58Z</time>
      </trkpt>
      <trkpt lat="49.20248" lon="-0.45982">
        <ele>114</ele>
        <time>2012-08-16T15:28:59Z</time>
      </trkpt>
      <trkpt lat="49.20249" lon="-0.45994">
        <ele>114</ele>
        <time>2012-08-16T15:29:01Z</time>
      </trkpt>
      <trkpt lat="49.20251" lon="-0.46009">
        <ele>114</ele>
        <time>2012-08-16T15:29:03Z</time>
      </trkpt>
      <trkpt lat="49.20251" lon="-0.46018">
        <ele>115</ele>
        <time>2012-08-16T15:29:04Z</time>
      </trkpt>
      <trkpt lat="49.20251" lon="-0.46024">
        <ele>113</ele>
        <time>2012-08-16T15:29:05Z</time>
      </trkpt>
      <trkpt lat="49.20251" lon="-0.46033">
        <ele>113</ele>
        <time>2012-08-16T15:29:06Z</time>
      </trkpt>
      <trkpt lat="49.20251" lon="-0.4604">
        <ele>112</ele>
        <time>2012-08-16T15:29:07Z</time>
      </trkpt>
      <trkpt lat="49.20252" lon="-0.46046">
        <ele>111</ele>
        <time>2012-08-16T15:29:08Z</time>
      </trkpt>
      <trkpt lat="49.20252" lon="-0.46054">
        <ele>110</ele>
        <time>2012-08-16T15:29:09Z</time>
      </trkpt>
      <trkpt lat="49.20253" lon="-0.4606">
        <ele>110</ele>
        <time>2012-08-16T15:29:10Z</time>
      </trkpt>
      <trkpt lat="49.20253" lon="-0.46067">
        <ele>110</ele>
        <time>2012-08-16T15:29:11Z</time>
      </trkpt>
      <trkpt lat="49.20253" lon="-0.46075">
        <ele>109</ele>
        <time>2012-08-16T15:29:12Z</time>
      </trkpt>
      <trkpt lat="49.20254" lon="-0.46084">
        <ele>109</ele>
        <time>2012-08-16T15:29:13Z</time>
      </trkpt>
      <trkpt lat="49.20253" lon="-0.46094">
        <ele>109</ele>
        <time>2012-08-16T15:29:14Z</time>
      </trkpt>
      <trkpt lat="49.20253" lon="-0.46101">
        <ele>109</ele>
        <time>2012-08-16T15:29:15Z</time>
      </trkpt>
      <trkpt lat="49.20254" lon="-0.46108">
        <ele>109</ele>
        <time>2012-08-16T15:29:16Z</time>
      </trkpt>
      <trkpt lat="49.20254" lon="-0.46115">
        <ele>110</ele>
        <time>2012-08-16T15:29:17Z</time>
      </trkpt>
      <trkpt lat="49.20255" lon="-0.46123">
        <ele>110</ele>
        <time>2012-08-16T15:29:18Z</time>
      </trkpt>
      <trkpt lat="49.20254" lon="-0.46131">
        <ele>110</ele>
        <time>2012-08-16T15:29:19Z</time>
      </trkpt>
      <trkpt lat="49.20254" lon="-0.46139">
        <ele>109</ele>
        <time>2012-08-16T15:29:20Z</time>
      </trkpt>
      <trkpt lat="49.20254" lon="-0.46146">
        <ele>109</ele>
        <time>2012-08-16T15:29:21Z</time>
      </trkpt>
      <trkpt lat="49.20255" lon="-0.46154">
        <ele>109</ele>
        <time>2012-08-16T15:29:22Z</time>
      </trkpt>
      <trkpt lat="49.20254" lon="-0.46163">
        <ele>110</ele>
        <time>2012-08-16T15:29:23Z</time>
      </trkpt>
      <trkpt lat="49.20254" lon="-0.46172">
        <ele>111</ele>
        <time>2012-08-16T15:29:24Z</time>
      </trkpt>
      <trkpt lat="49.20254" lon="-0.46181">
        <ele>110</ele>
        <time>2012-08-16T15:29:25Z</time>
      </trkpt>
      <trkpt lat="49.20253" lon="-0.4619">
        <ele>111</ele>
        <time>2012-08-16T15:29:26Z</time>
      </trkpt>
      <trkpt lat="49.20253" lon="-0.46199">
        <ele>111</ele>
        <time>2012-08-16T15:29:27Z</time>
      </trkpt>
      <trkpt lat="49.20254" lon="-0.46208">
        <ele>111</ele>
        <time>2012-08-16T15:29:28Z</time>
      </trkpt>
      <trkpt lat="49.20254" lon="-0.46217">
        <ele>111</ele>
        <time>2012-08-16T15:29:29Z</time>
      </trkpt>
      <trkpt lat="49.20254" lon="-0.46227">
        <ele>111</ele>
        <time>2012-08-16T15:29:30Z</time>
      </trkpt>
      <trkpt lat="49.20255" lon="-0.46235">
        <ele>111</ele>
        <time>2012-08-16T15:29:31Z</time>
      </trkpt>
      <trkpt lat="49.20255" lon="-0.46243">
        <ele>111</ele>
        <time>2012-08-16T15:29:32Z</time>
      </trkpt>
      <trkpt lat="49.20255" lon="-0.46252">
        <ele>111</ele>
        <time>2012-08-16T15:29:33Z</time>
      </trkpt>
      <trkpt lat="49.20256" lon="-0.46265">
        <ele>111</ele>
        <time>2012-08-16T15:29:35Z</time>
      </trkpt>
      <trkpt lat="49.20254" lon="-0.46279">
        <ele>112</ele>
        <time>2012-08-16T15:29:36Z</time>
      </trkpt>
      <trkpt lat="49.20252" lon="-0.4629">
        <ele>111</ele>
        <time>2012-08-16T15:29:37Z</time>
      </trkpt>
      <trkpt lat="49.2025" lon="-0.46304">
        <ele>111</ele>
        <time>2012-08-16T15:29:39Z</time>
      </trkpt>
      <trkpt lat="49.20249" lon="-0.46312">
        <ele>110</ele>
        <time>2012-08-16T15:29:40Z</time>
      </trkpt>
      <trkpt lat="49.20247" lon="-0.4632">
        <ele>110</ele>
        <time>2012-08-16T15:29:41Z</time>
      </trkpt>
      <trkpt lat="49.20246" lon="-0.4633">
        <ele>111</ele>
        <time>2012-08-16T15:29:42Z</time>
      </trkpt>
      <trkpt lat="49.20244" lon="-0.46339">
        <ele>111</ele>
        <time>2012-08-16T15:29:43Z</time>
      </trkpt>
      <trkpt lat="49.20243" lon="-0.46347">
        <ele>111</ele>
        <time>2012-08-16T15:29:44Z</time>
      </trkpt>
      <trkpt lat="49.20239" lon="-0.46355">
        <ele>111</ele>
        <time>2012-08-16T15:29:45Z</time>
      </trkpt>
      <trkpt lat="49.20237" lon="-0.46364">
        <ele>110</ele>
        <time>2012-08-16T15:29:46Z</time>
      </trkpt>
      <trkpt lat="49.20234" lon="-0.46372">
        <ele>110</ele>
        <time>2012-08-16T15:29:47Z</time>
      </trkpt>
      <trkpt lat="49.20232" lon="-0.46379">
        <ele>110</ele>
        <time>2012-08-16T15:29:48Z</time>
      </trkpt>
      <trkpt lat="49.20234" lon="-0.46392">
        <ele>109</ele>
        <time>2012-08-16T15:29:50Z</time>
      </trkpt>
      <trkpt lat="49.20237" lon="-0.464">
        <ele>109</ele>
        <time>2012-08-16T15:29:51Z</time>
      </trkpt>
      <trkpt lat="49.2024" lon="-0.46407">
        <ele>108</ele>
        <time>2012-08-16T15:29:52Z</time>
      </trkpt>
      <trkpt lat="49.20245" lon="-0.46411">
        <ele>108</ele>
        <time>2012-08-16T15:29:53Z</time>
      </trkpt>
      <trkpt lat="49.20249" lon="-0.46414">
        <ele>108</ele>
        <time>2012-08-16T15:29:54Z</time>
      </trkpt>
      <trkpt lat="49.20253" lon="-0.46418">
        <ele>108</ele>
        <time>2012-08-16T15:29:55Z</time>
      </trkpt>
      <trkpt lat="49.2026" lon="-0.46423">
        <ele>107</ele>
        <time>2012-08-16T15:29:57Z</time>
      </trkpt>
      <trkpt lat="49.20267" lon="-0.46429">
        <ele>108</ele>
        <time>2012-08-16T15:29:59Z</time>
      </trkpt>
      <trkpt lat="49.20273" lon="-0.46435">
        <ele>108</ele>
        <time>2012-08-16T15:30:01Z</time>
      </trkpt>
      <trkpt lat="49.2028" lon="-0.46441">
        <ele>108</ele>
        <time>2012-08-16T15:30:03Z</time>
      </trkpt>
      <trkpt lat="49.20285" lon="-0.46443">
        <ele>108</ele>
        <time>2012-08-16T15:30:04Z</time>
      </trkpt>
      <trkpt lat="49.20289" lon="-0.46447">
        <ele>108</ele>
        <time>2012-08-16T15:30:05Z</time>
      </trkpt>
      <trkpt lat="49.20292" lon="-0.46452">
        <ele>108</ele>
        <time>2012-08-16T15:30:06Z</time>
      </trkpt>
      <trkpt lat="49.203" lon="-0.46456">
        <ele>107</ele>
        <time>2012-08-16T15:30:08Z</time>
      </trkpt>
      <trkpt lat="49.20308" lon="-0.46463">
        <ele>106</ele>
        <time>2012-08-16T15:30:10Z</time>
      </trkpt>
      <trkpt lat="49.20313" lon="-0.46466">
        <ele>106</ele>
        <time>2012-08-16T15:30:11Z</time>
      </trkpt>
      <trkpt lat="49.20317" lon="-0.46469">
        <ele>106</ele>
        <time>2012-08-16T15:30:12Z</time>
      </trkpt>
      <trkpt lat="49.20321" lon="-0.46475">
        <ele>106</ele>
        <time>2012-08-16T15:30:13Z</time>
      </trkpt>
      <trkpt lat="49.20325" lon="-0.46479">
        <ele>107</ele>
        <time>2012-08-16T15:30:14Z</time>
      </trkpt>
      <trkpt lat="49.20333" lon="-0.46485">
        <ele>107</ele>
        <time>2012-08-16T15:30:16Z</time>
      </trkpt>
      <trkpt lat="49.2034" lon="-0.46491">
        <ele>107</ele>
        <time>2012-08-16T15:30:18Z</time>
      </trkpt>
      <trkpt lat="49.20344" lon="-0.46495">
        <ele>106</ele>
        <time>2012-08-16T15:30:19Z</time>
      </trkpt>
      <trkpt lat="49.20349" lon="-0.46497">
        <ele>107</ele>
        <time>2012-08-16T15:30:20Z</time>
      </trkpt>
      <trkpt lat="49.20356" lon="-0.46504">
        <ele>107</ele>
        <time>2012-08-16T15:30:22Z</time>
      </trkpt>
      <trkpt lat="49.20361" lon="-0.46508">
        <ele>106</ele>
        <time>2012-08-16T15:30:23Z</time>
      </trkpt>
      <trkpt lat="49.20366" lon="-0.46513">
        <ele>107</ele>
        <time>2012-08-16T15:30:24Z</time>
      </trkpt>
      <trkpt lat="49.20371" lon="-0.46517">
        <ele>108</ele>
        <time>2012-08-16T15:30:25Z</time>
      </trkpt>
      <trkpt lat="49.20376" lon="-0.46521">
        <ele>108</ele>
        <time>2012-08-16T15:30:26Z</time>
      </trkpt>
      <trkpt lat="49.20381" lon="-0.46526">
        <ele>108</ele>
        <time>2012-08-16T15:30:27Z</time>
      </trkpt>
      <trkpt lat="49.20386" lon="-0.46529">
        <ele>108</ele>
        <time>2012-08-16T15:30:28Z</time>
      </trkpt>
      <trkpt lat="49.20391" lon="-0.46534">
        <ele>108</ele>
        <time>2012-08-16T15:30:29Z</time>
      </trkpt>
      <trkpt lat="49.20395" lon="-0.46537">
        <ele>108</ele>
        <time>2012-08-16T15:30:30Z</time>
      </trkpt>
      <trkpt lat="49.204" lon="-0.46541">
        <ele>108</ele>
        <time>2012-08-16T15:30:31Z</time>
      </trkpt>
      <trkpt lat="49.20405" lon="-0.46544">
        <ele>108</ele>
        <time>2012-08-16T15:30:32Z</time>
      </trkpt>
      <trkpt lat="49.20411" lon="-0.4655">
        <ele>108</ele>
        <time>2012-08-16T15:30:33Z</time>
      </trkpt>
      <trkpt lat="49.20417" lon="-0.46553">
        <ele>108</ele>
        <time>2012-08-16T15:30:34Z</time>
      </trkpt>
      <trkpt lat="49.20422" lon="-0.46557">
        <ele>108</ele>
        <time>2012-08-16T15:30:35Z</time>
      </trkpt>
      <trkpt lat="49.20428" lon="-0.4656">
        <ele>108</ele>
        <time>2012-08-16T15:30:36Z</time>
      </trkpt>
      <trkpt lat="49.20434" lon="-0.46563">
        <ele>109</ele>
        <time>2012-08-16T15:30:37Z</time>
      </trkpt>
      <trkpt lat="49.20438" lon="-0.46565">
        <ele>109</ele>
        <time>2012-08-16T15:30:38Z</time>
      </trkpt>
      <trkpt lat="49.20473" lon="-0.4659">
        <ele>108</ele>
        <time>2012-08-16T15:30:46Z</time>
      </trkpt>
      <trkpt lat="49.20479" lon="-0.46594">
        <ele>109</ele>
        <time>2012-08-16T15:30:47Z</time>
      </trkpt>
      <trkpt lat="49.20483" lon="-0.466">
        <ele>109</ele>
        <time>2012-08-16T15:30:48Z</time>
      </trkpt>
      <trkpt lat="49.20487" lon="-0.46604">
        <ele>109</ele>
        <time>2012-08-16T15:30:49Z</time>
      </trkpt>
      <trkpt lat="49.20496" lon="-0.46608">
        <ele>109</ele>
        <time>2012-08-16T15:30:51Z</time>
      </trkpt>
      <trkpt lat="49.20503" lon="-0.46612">
        <ele>108</ele>
        <time>2012-08-16T15:30:52Z</time>
      </trkpt>
      <trkpt lat="49.20508" lon="-0.46616">
        <ele>108</ele>
        <time>2012-08-16T15:30:53Z</time>
      </trkpt>
      <trkpt lat="49.20512" lon="-0.46619">
        <ele>108</ele>
        <time>2012-08-16T15:30:54Z</time>
      </trkpt>
      <trkpt lat="49.20518" lon="-0.46623">
        <ele>108</ele>
        <time>2012-08-16T15:30:55Z</time>
      </trkpt>
      <trkpt lat="49.20523" lon="-0.46626">
        <ele>108</ele>
        <time>2012-08-16T15:30:56Z</time>
      </trkpt>
      <trkpt lat="49.20527" lon="-0.4663">
        <ele>108</ele>
        <time>2012-08-16T15:30:57Z</time>
      </trkpt>
      <trkpt lat="49.20532" lon="-0.46632">
        <ele>108</ele>
        <time>2012-08-16T15:30:58Z</time>
      </trkpt>
      <trkpt lat="49.20538" lon="-0.46633">
        <ele>108</ele>
        <time>2012-08-16T15:30:59Z</time>
      </trkpt>
      <trkpt lat="49.20677" lon="-0.46747">
        <ele>111</ele>
        <time>2012-08-16T15:31:31Z</time>
      </trkpt>
      <trkpt lat="49.20681" lon="-0.46753">
        <ele>111</ele>
        <time>2012-08-16T15:31:32Z</time>
      </trkpt>
      <trkpt lat="49.20686" lon="-0.46762">
        <ele>111</ele>
        <time>2012-08-16T15:31:33Z</time>
      </trkpt>
      <trkpt lat="49.20693" lon="-0.46764">
        <ele>111</ele>
        <time>2012-08-16T15:31:34Z</time>
      </trkpt>
      <trkpt lat="49.20698" lon="-0.46771">
        <ele>110</ele>
        <time>2012-08-16T15:31:35Z</time>
      </trkpt>
      <trkpt lat="49.20703" lon="-0.46777">
        <ele>109</ele>
        <time>2012-08-16T15:31:36Z</time>
      </trkpt>
      <trkpt lat="49.20708" lon="-0.46781">
        <ele>109</ele>
        <time>2012-08-16T15:31:37Z</time>
      </trkpt>
      <trkpt lat="49.20713" lon="-0.46787">
        <ele>109</ele>
        <time>2012-08-16T15:31:38Z</time>
      </trkpt>
      <trkpt lat="49.20718" lon="-0.46792">
        <ele>109</ele>
        <time>2012-08-16T15:31:39Z</time>
      </trkpt>
      <trkpt lat="49.20723" lon="-0.46796">
        <ele>109</ele>
        <time>2012-08-16T15:31:40Z</time>
      </trkpt>
      <trkpt lat="49.20726" lon="-0.46801">
        <ele>108</ele>
        <time>2012-08-16T15:31:41Z</time>
      </trkpt>
      <trkpt lat="49.20731" lon="-0.46806">
        <ele>109</ele>
        <time>2012-08-16T15:31:42Z</time>
      </trkpt>
      <trkpt lat="49.20736" lon="-0.46812">
        <ele>108</ele>
        <time>2012-08-16T15:31:43Z</time>
      </trkpt>
      <trkpt lat="49.2079" lon="-0.46861">
        <ele>110</ele>
        <time>2012-08-16T15:31:56Z</time>
      </trkpt>
      <trkpt lat="49.20798" lon="-0.46869">
        <ele>110</ele>
        <time>2012-08-16T15:31:58Z</time>
      </trkpt>
      <trkpt lat="49.20805" lon="-0.46876">
        <ele>110</ele>
        <time>2012-08-16T15:32:00Z</time>
      </trkpt>
      <trkpt lat="49.20812" lon="-0.46882">
        <ele>110</ele>
        <time>2012-08-16T15:32:02Z</time>
      </trkpt>
      <trkpt lat="49.20817" lon="-0.46887">
        <ele>110</ele>
        <time>2012-08-16T15:32:03Z</time>
      </trkpt>
      <trkpt lat="49.20824" lon="-0.46892">
        <ele>111</ele>
        <time>2012-08-16T15:32:05Z</time>
      </trkpt>
      <trkpt lat="49.2083" lon="-0.46898">
        <ele>111</ele>
        <time>2012-08-16T15:32:07Z</time>
      </trkpt>
      <trkpt lat="49.20836" lon="-0.46899">
        <ele>111</ele>
        <time>2012-08-16T15:32:08Z</time>
      </trkpt>
      <trkpt lat="49.20843" lon="-0.469">
        <ele>111</ele>
        <time>2012-08-16T15:32:10Z</time>
      </trkpt>
      <trkpt lat="49.20851" lon="-0.46904">
        <ele>111</ele>
        <time>2012-08-16T15:32:12Z</time>
      </trkpt>
      <trkpt lat="49.2086" lon="-0.46906">
        <ele>112</ele>
        <time>2012-08-16T15:32:14Z</time>
      </trkpt>
      <trkpt lat="49.20865" lon="-0.46907">
        <ele>112</ele>
        <time>2012-08-16T15:32:15Z</time>
      </trkpt>
      <trkpt lat="49.2087" lon="-0.4691">
        <ele>112</ele>
        <time>2012-08-16T15:32:16Z</time>
      </trkpt>
      <trkpt lat="49.20884" lon="-0.46917">
        <ele>111</ele>
        <time>2012-08-16T15:32:19Z</time>
      </trkpt>
      <trkpt lat="49.20888" lon="-0.46917">
        <ele>111</ele>
        <time>2012-08-16T15:32:20Z</time>
      </trkpt>
      <trkpt lat="49.20897" lon="-0.46918">
        <ele>112</ele>
        <time>2012-08-16T15:32:22Z</time>
      </trkpt>
      <trkpt lat="49.20907" lon="-0.4692">
        <ele>112</ele>
        <time>2012-08-16T15:32:24Z</time>
      </trkpt>
      <trkpt lat="49.20913" lon="-0.46924">
        <ele>113</ele>
        <time>2012-08-16T15:32:25Z</time>
      </trkpt>
      <trkpt lat="49.2092" lon="-0.46926">
        <ele>113</ele>
        <time>2012-08-16T15:32:26Z</time>
      </trkpt>
      <trkpt lat="49.20925" lon="-0.46927">
        <ele>113</ele>
        <time>2012-08-16T15:32:27Z</time>
      </trkpt>
      <trkpt lat="49.2093" lon="-0.46929">
        <ele>113</ele>
        <time>2012-08-16T15:32:28Z</time>
      </trkpt>
      <trkpt lat="49.20935" lon="-0.46928">
        <ele>113</ele>
        <time>2012-08-16T15:32:29Z</time>
      </trkpt>
      <trkpt lat="49.2094" lon="-0.46929">
        <ele>112</ele>
        <time>2012-08-16T15:32:30Z</time>
      </trkpt>
      <trkpt lat="49.20946" lon="-0.46928">
        <ele>112</ele>
        <time>2012-08-16T15:32:31Z</time>
      </trkpt>
      <trkpt lat="49.20951" lon="-0.4693">
        <ele>113</ele>
        <time>2012-08-16T15:32:32Z</time>
      </trkpt>
      <trkpt lat="49.20956" lon="-0.4693">
        <ele>112</ele>
        <time>2012-08-16T15:32:33Z</time>
      </trkpt>
      <trkpt lat="49.20961" lon="-0.4693">
        <ele>112</ele>
        <time>2012-08-16T15:32:34Z</time>
      </trkpt>
      <trkpt lat="49.20967" lon="-0.46931">
        <ele>112</ele>
        <time>2012-08-16T15:32:35Z</time>
      </trkpt>
      <trkpt lat="49.20973" lon="-0.46934">
        <ele>112</ele>
        <time>2012-08-16T15:32:36Z</time>
      </trkpt>
      <trkpt lat="49.20978" lon="-0.46936">
        <ele>113</ele>
        <time>2012-08-16T15:32:37Z</time>
      </trkpt>
      <trkpt lat="49.20983" lon="-0.46938">
        <ele>113</ele>
        <time>2012-08-16T15:32:38Z</time>
      </trkpt>
      <trkpt lat="49.20989" lon="-0.46938">
        <ele>112</ele>
        <time>2012-08-16T15:32:39Z</time>
      </trkpt>
      <trkpt lat="49.20995" lon="-0.46939">
        <ele>113</ele>
        <time>2012-08-16T15:32:40Z</time>
      </trkpt>
      <trkpt lat="49.21001" lon="-0.4694">
        <ele>113</ele>
        <time>2012-08-16T15:32:41Z</time>
      </trkpt>
      <trkpt lat="49.21006" lon="-0.4694">
        <ele>112</ele>
        <time>2012-08-16T15:32:42Z</time>
      </trkpt>
      <trkpt lat="49.21011" lon="-0.46942">
        <ele>112</ele>
        <time>2012-08-16T15:32:43Z</time>
      </trkpt>
      <trkpt lat="49.21015" lon="-0.46946">
        <ele>112</ele>
        <time>2012-08-16T15:32:44Z</time>
      </trkpt>
      <trkpt lat="49.21017" lon="-0.46953">
        <ele>111</ele>
        <time>2012-08-16T15:32:45Z</time>
      </trkpt>
      <trkpt lat="49.21019" lon="-0.46961">
        <ele>111</ele>
        <time>2012-08-16T15:32:46Z</time>
      </trkpt>
      <trkpt lat="49.21021" lon="-0.46968">
        <ele>111</ele>
        <time>2012-08-16T15:32:47Z</time>
      </trkpt>
      <trkpt lat="49.21022" lon="-0.46977">
        <ele>111</ele>
        <time>2012-08-16T15:32:48Z</time>
      </trkpt>
      <trkpt lat="49.21022" lon="-0.46984">
        <ele>111</ele>
        <time>2012-08-16T15:32:49Z</time>
      </trkpt>
      <trkpt lat="49.21025" lon="-0.47">
        <ele>111</ele>
        <time>2012-08-16T15:32:51Z</time>
      </trkpt>
      <trkpt lat="49.21025" lon="-0.47009">
        <ele>111</ele>
        <time>2012-08-16T15:32:52Z</time>
      </trkpt>
      <trkpt lat="49.21025" lon="-0.47018">
        <ele>111</ele>
        <time>2012-08-16T15:32:53Z</time>
      </trkpt>
      <trkpt lat="49.21026" lon="-0.47025">
        <ele>111</ele>
        <time>2012-08-16T15:32:54Z</time>
      </trkpt>
      <trkpt lat="49.21027" lon="-0.47032">
        <ele>111</ele>
        <time>2012-08-16T15:32:55Z</time>
      </trkpt>
      <trkpt lat="49.21028" lon="-0.4704">
        <ele>110</ele>
        <time>2012-08-16T15:32:56Z</time>
      </trkpt>
      <trkpt lat="49.21029" lon="-0.47046">
        <ele>110</ele>
        <time>2012-08-16T15:32:57Z</time>
      </trkpt>
      <trkpt lat="49.2103" lon="-0.47055">
        <ele>110</ele>
        <time>2012-08-16T15:32:58Z</time>
      </trkpt>
      <trkpt lat="49.21031" lon="-0.47063">
        <ele>109</ele>
        <time>2012-08-16T15:32:59Z</time>
      </trkpt>
      <trkpt lat="49.21032" lon="-0.47072">
        <ele>110</ele>
        <time>2012-08-16T15:33:00Z</time>
      </trkpt>
      <trkpt lat="49.21033" lon="-0.4708">
        <ele>110</ele>
        <time>2012-08-16T15:33:01Z</time>
      </trkpt>
      <trkpt lat="49.21035" lon="-0.47087">
        <ele>110</ele>
        <time>2012-08-16T15:33:02Z</time>
      </trkpt>
      <trkpt lat="49.21037" lon="-0.47094">
        <ele>109</ele>
        <time>2012-08-16T15:33:03Z</time>
      </trkpt>
      <trkpt lat="49.21039" lon="-0.47102">
        <ele>110</ele>
        <time>2012-08-16T15:33:04Z</time>
      </trkpt>
      <trkpt lat="49.2104" lon="-0.4711">
        <ele>110</ele>
        <time>2012-08-16T15:33:05Z</time>
      </trkpt>
      <trkpt lat="49.21043" lon="-0.47116">
        <ele>110</ele>
        <time>2012-08-16T15:33:06Z</time>
      </trkpt>
      <trkpt lat="49.21044" lon="-0.47123">
        <ele>110</ele>
        <time>2012-08-16T15:33:07Z</time>
      </trkpt>
      <trkpt lat="49.21044" lon="-0.4713">
        <ele>110</ele>
        <time>2012-08-16T15:33:08Z</time>
      </trkpt>
      <trkpt lat="49.21044" lon="-0.4714">
        <ele>110</ele>
        <time>2012-08-16T15:33:09Z</time>
      </trkpt>
      <trkpt lat="49.21045" lon="-0.47149">
        <ele>110</ele>
        <time>2012-08-16T15:33:10Z</time>
      </trkpt>
      <trkpt lat="49.21044" lon="-0.4716">
        <ele>109</ele>
        <time>2012-08-16T15:33:11Z</time>
      </trkpt>
      <trkpt lat="49.21046" lon="-0.47167">
        <ele>109</ele>
        <time>2012-08-16T15:33:12Z</time>
      </trkpt>
      <trkpt lat="49.21049" lon="-0.47174">
        <ele>109</ele>
        <time>2012-08-16T15:33:13Z</time>
      </trkpt>
      <trkpt lat="49.21053" lon="-0.47181">
        <ele>109</ele>
        <time>2012-08-16T15:33:14Z</time>
      </trkpt>
      <trkpt lat="49.21056" lon="-0.47187">
        <ele>108</ele>
        <time>2012-08-16T15:33:15Z</time>
      </trkpt>
      <trkpt lat="49.21058" lon="-0.47195">
        <ele>108</ele>
        <time>2012-08-16T15:33:16Z</time>
      </trkpt>
      <trkpt lat="49.21059" lon="-0.47205">
        <ele>109</ele>
        <time>2012-08-16T15:33:17Z</time>
      </trkpt>
      <trkpt lat="49.21061" lon="-0.47214">
        <ele>110</ele>
        <time>2012-08-16T15:33:18Z</time>
      </trkpt>
      <trkpt lat="49.21062" lon="-0.47224">
        <ele>109</ele>
        <time>2012-08-16T15:33:19Z</time>
      </trkpt>
      <trkpt lat="49.21064" lon="-0.47232">
        <ele>109</ele>
        <time>2012-08-16T15:33:20Z</time>
      </trkpt>
      <trkpt lat="49.21069" lon="-0.47238">
        <ele>108</ele>
        <time>2012-08-16T15:33:21Z</time>
      </trkpt>
      <trkpt lat="49.21072" lon="-0.47247">
        <ele>109</ele>
        <time>2012-08-16T15:33:22Z</time>
      </trkpt>
      <trkpt lat="49.21075" lon="-0.47254">
        <ele>109</ele>
        <time>2012-08-16T15:33:23Z</time>
      </trkpt>
      <trkpt lat="49.21079" lon="-0.47262">
        <ele>109</ele>
        <time>2012-08-16T15:33:24Z</time>
      </trkpt>
      <trkpt lat="49.21083" lon="-0.47267">
        <ele>109</ele>
        <time>2012-08-16T15:33:25Z</time>
      </trkpt>
      <trkpt lat="49.21088" lon="-0.47274">
        <ele>109</ele>
        <time>2012-08-16T15:33:26Z</time>
      </trkpt>
      <trkpt lat="49.21091" lon="-0.47279">
        <ele>108</ele>
        <time>2012-08-16T15:33:27Z</time>
      </trkpt>
      <trkpt lat="49.21094" lon="-0.47285">
        <ele>108</ele>
        <time>2012-08-16T15:33:28Z</time>
      </trkpt>
      <trkpt lat="49.21098" lon="-0.47289">
        <ele>108</ele>
        <time>2012-08-16T15:33:29Z</time>
      </trkpt>
      <trkpt lat="49.21102" lon="-0.47296">
        <ele>108</ele>
        <time>2012-08-16T15:33:30Z</time>
      </trkpt>
      <trkpt lat="49.21107" lon="-0.47303">
        <ele>108</ele>
        <time>2012-08-16T15:33:31Z</time>
      </trkpt>
      <trkpt lat="49.21113" lon="-0.47307">
        <ele>107</ele>
        <time>2012-08-16T15:33:32Z</time>
      </trkpt>
      <trkpt lat="49.21118" lon="-0.47314">
        <ele>107</ele>
        <time>2012-08-16T15:33:33Z</time>
      </trkpt>
      <trkpt lat="49.2112" lon="-0.47321">
        <ele>106</ele>
        <time>2012-08-16T15:33:34Z</time>
      </trkpt>
      <trkpt lat="49.21126" lon="-0.47326">
        <ele>107</ele>
        <time>2012-08-16T15:33:35Z</time>
      </trkpt>
      <trkpt lat="49.21128" lon="-0.47333">
        <ele>106</ele>
        <time>2012-08-16T15:33:36Z</time>
      </trkpt>
      <trkpt lat="49.21131" lon="-0.47339">
        <ele>106</ele>
        <time>2012-08-16T15:33:37Z</time>
      </trkpt>
      <trkpt lat="49.21132" lon="-0.4735">
        <ele>105</ele>
        <time>2012-08-16T15:33:38Z</time>
      </trkpt>
      <trkpt lat="49.2113" lon="-0.4736">
        <ele>105</ele>
        <time>2012-08-16T15:33:39Z</time>
      </trkpt>
      <trkpt lat="49.21134" lon="-0.47367">
        <ele>106</ele>
        <time>2012-08-16T15:33:40Z</time>
      </trkpt>
      <trkpt lat="49.21136" lon="-0.47375">
        <ele>106</ele>
        <time>2012-08-16T15:33:41Z</time>
      </trkpt>
      <trkpt lat="49.21138" lon="-0.47383">
        <ele>106</ele>
        <time>2012-08-16T15:33:42Z</time>
      </trkpt>
      <trkpt lat="49.21141" lon="-0.4739">
        <ele>106</ele>
        <time>2012-08-16T15:33:43Z</time>
      </trkpt>
      <trkpt lat="49.21145" lon="-0.474">
        <ele>107</ele>
        <time>2012-08-16T15:33:44Z</time>
      </trkpt>
      <trkpt lat="49.21147" lon="-0.47408">
        <ele>107</ele>
        <time>2012-08-16T15:33:45Z</time>
      </trkpt>
      <trkpt lat="49.2115" lon="-0.47414">
        <ele>107</ele>
        <time>2012-08-16T15:33:46Z</time>
      </trkpt>
      <trkpt lat="49.21155" lon="-0.47424">
        <ele>107</ele>
        <time>2012-08-16T15:33:47Z</time>
      </trkpt>
      <trkpt lat="49.21161" lon="-0.47433">
        <ele>109</ele>
        <time>2012-08-16T15:33:48Z</time>
      </trkpt>
      <trkpt lat="49.21168" lon="-0.47436">
        <ele>106</ele>
        <time>2012-08-16T15:33:49Z</time>
      </trkpt>
      <trkpt lat="49.21171" lon="-0.47444">
        <ele>105</ele>
        <time>2012-08-16T15:33:50Z</time>
      </trkpt>
      <trkpt lat="49.21173" lon="-0.47452">
        <ele>105</ele>
        <time>2012-08-16T15:33:51Z</time>
      </trkpt>
      <trkpt lat="49.21176" lon="-0.47458">
        <ele>104</ele>
        <time>2012-08-16T15:33:52Z</time>
      </trkpt>
      <trkpt lat="49.21178" lon="-0.47465">
        <ele>104</ele>
        <time>2012-08-16T15:33:53Z</time>
      </trkpt>
      <trkpt lat="49.21178" lon="-0.47476">
        <ele>104</ele>
        <time>2012-08-16T15:33:55Z</time>
      </trkpt>
      <trkpt lat="49.21182" lon="-0.47481">
        <ele>103</ele>
        <time>2012-08-16T15:33:58Z</time>
      </trkpt>
      <trkpt lat="49.21188" lon="-0.47477">
        <ele>103</ele>
        <time>2012-08-16T15:34:00Z</time>
      </trkpt>
      <trkpt lat="49.21197" lon="-0.4747">
        <ele>103</ele>
        <time>2012-08-16T15:34:02Z</time>
      </trkpt>
      <trkpt lat="49.21204" lon="-0.47467">
        <ele>102</ele>
        <time>2012-08-16T15:34:03Z</time>
      </trkpt>
      <trkpt lat="49.21213" lon="-0.47468">
        <ele>102</ele>
        <time>2012-08-16T15:34:05Z</time>
      </trkpt>
      <trkpt lat="49.21218" lon="-0.47465">
        <ele>102</ele>
        <time>2012-08-16T15:34:06Z</time>
      </trkpt>
      <trkpt lat="49.21222" lon="-0.47463">
        <ele>102</ele>
        <time>2012-08-16T15:34:07Z</time>
      </trkpt>
      <trkpt lat="49.21227" lon="-0.47458">
        <ele>102</ele>
        <time>2012-08-16T15:34:08Z</time>
      </trkpt>
      <trkpt lat="49.21231" lon="-0.47455">
        <ele>102</ele>
        <time>2012-08-16T15:34:09Z</time>
      </trkpt>
      <trkpt lat="49.21236" lon="-0.4745">
        <ele>102</ele>
        <time>2012-08-16T15:34:10Z</time>
      </trkpt>
      <trkpt lat="49.2124" lon="-0.47445">
        <ele>102</ele>
        <time>2012-08-16T15:34:11Z</time>
      </trkpt>
      <trkpt lat="49.21245" lon="-0.47437">
        <ele>102</ele>
        <time>2012-08-16T15:34:12Z</time>
      </trkpt>
      <trkpt lat="49.2125" lon="-0.47431">
        <ele>102</ele>
        <time>2012-08-16T15:34:13Z</time>
      </trkpt>
      <trkpt lat="49.21255" lon="-0.47425">
        <ele>103</ele>
        <time>2012-08-16T15:34:14Z</time>
      </trkpt>
      <trkpt lat="49.2126" lon="-0.47417">
        <ele>103</ele>
        <time>2012-08-16T15:34:15Z</time>
      </trkpt>
      <trkpt lat="49.21264" lon="-0.47409">
        <ele>103</ele>
        <time>2012-08-16T15:34:16Z</time>
      </trkpt>
      <trkpt lat="49.21269" lon="-0.474">
        <ele>103</ele>
        <time>2012-08-16T15:34:17Z</time>
      </trkpt>
      <trkpt lat="49.21272" lon="-0.47392">
        <ele>102</ele>
        <time>2012-08-16T15:34:18Z</time>
      </trkpt>
      <trkpt lat="49.21276" lon="-0.47384">
        <ele>102</ele>
        <time>2012-08-16T15:34:19Z</time>
      </trkpt>
      <trkpt lat="49.21281" lon="-0.47374">
        <ele>101</ele>
        <time>2012-08-16T15:34:20Z</time>
      </trkpt>
      <trkpt lat="49.21285" lon="-0.47366">
        <ele>102</ele>
        <time>2012-08-16T15:34:21Z</time>
      </trkpt>
      <trkpt lat="49.21288" lon="-0.4736">
        <ele>102</ele>
        <time>2012-08-16T15:34:22Z</time>
      </trkpt>
      <trkpt lat="49.21296" lon="-0.47353">
        <ele>100</ele>
        <time>2012-08-16T15:34:24Z</time>
      </trkpt>
      <trkpt lat="49.213" lon="-0.47351">
        <ele>100</ele>
        <time>2012-08-16T15:34:28Z</time>
      </trkpt>
      <trkpt lat="49.213" lon="-0.47351">
        <ele>100</ele>
        <time>2012-08-16T15:34:28Z</time>
      </trkpt>
      <trkpt lat="49.213" lon="-0.47351">
        <ele>101</ele>
        <time>2012-08-16T15:34:32Z</time>
      </trkpt>
      <trkpt lat="49.21294" lon="-0.47352">
        <ele>98</ele>
        <time>2012-08-16T15:35:02Z</time>
      </trkpt>
      <trkpt lat="49.21289" lon="-0.47347">
        <ele>97</ele>
        <time>2012-08-16T15:35:04Z</time>
      </trkpt>
      <trkpt lat="49.21286" lon="-0.47337">
        <ele>94</ele>
        <time>2012-08-16T15:35:07Z</time>
      </trkpt>
      <trkpt lat="49.21287" lon="-0.47326">
        <ele>94</ele>
        <time>2012-08-16T15:35:09Z</time>
      </trkpt>
      <trkpt lat="49.21288" lon="-0.4732">
        <ele>95</ele>
        <time>2012-08-16T15:35:10Z</time>
      </trkpt>
      <trkpt lat="49.21288" lon="-0.47308">
        <ele>95</ele>
        <time>2012-08-16T15:35:13Z</time>
      </trkpt>
      <trkpt lat="49.21291" lon="-0.47299">
        <ele>95</ele>
        <time>2012-08-16T15:35:15Z</time>
      </trkpt>
      <trkpt lat="49.21292" lon="-0.47292">
        <ele>95</ele>
        <time>2012-08-16T15:35:16Z</time>
      </trkpt>
      <trkpt lat="49.21298" lon="-0.4728">
        <ele>94</ele>
        <time>2012-08-16T15:35:18Z</time>
      </trkpt>
      <trkpt lat="49.21306" lon="-0.47266">
        <ele>95</ele>
        <time>2012-08-16T15:35:20Z</time>
      </trkpt>
      <trkpt lat="49.21309" lon="-0.47259">
        <ele>94</ele>
        <time>2012-08-16T15:35:21Z</time>
      </trkpt>
      <trkpt lat="49.21314" lon="-0.47247">
        <ele>95</ele>
        <time>2012-08-16T15:35:23Z</time>
      </trkpt>
      <trkpt lat="49.21319" lon="-0.47236">
        <ele>94</ele>
        <time>2012-08-16T15:35:25Z</time>
      </trkpt>
      <trkpt lat="49.21323" lon="-0.47224">
        <ele>95</ele>
        <time>2012-08-16T15:35:27Z</time>
      </trkpt>
      <trkpt lat="49.21328" lon="-0.47213">
        <ele>95</ele>
        <time>2012-08-16T15:35:29Z</time>
      </trkpt>
      <trkpt lat="49.21332" lon="-0.47206">
        <ele>95</ele>
        <time>2012-08-16T15:35:30Z</time>
      </trkpt>
      <trkpt lat="49.21335" lon="-0.47199">
        <ele>95</ele>
        <time>2012-08-16T15:35:31Z</time>
      </trkpt>
      <trkpt lat="49.21338" lon="-0.47191">
        <ele>95</ele>
        <time>2012-08-16T15:35:32Z</time>
      </trkpt>
      <trkpt lat="49.21341" lon="-0.47184">
        <ele>95</ele>
        <time>2012-08-16T15:35:33Z</time>
      </trkpt>
      <trkpt lat="49.21345" lon="-0.47175">
        <ele>95</ele>
        <time>2012-08-16T15:35:34Z</time>
      </trkpt>
      <trkpt lat="49.21348" lon="-0.47167">
        <ele>95</ele>
        <time>2012-08-16T15:35:35Z</time>
      </trkpt>
      <trkpt lat="49.21351" lon="-0.47158">
        <ele>94</ele>
        <time>2012-08-16T15:35:36Z</time>
      </trkpt>
      <trkpt lat="49.21355" lon="-0.4715">
        <ele>94</ele>
        <time>2012-08-16T15:35:37Z</time>
      </trkpt>
      <trkpt lat="49.21357" lon="-0.47143">
        <ele>94</ele>
        <time>2012-08-16T15:35:38Z</time>
      </trkpt>
      <trkpt lat="49.2136" lon="-0.47135">
        <ele>94</ele>
        <time>2012-08-16T15:35:39Z</time>
      </trkpt>
      <trkpt lat="49.21365" lon="-0.47126">
        <ele>95</ele>
        <time>2012-08-16T15:35:40Z</time>
      </trkpt>
      <trkpt lat="49.21368" lon="-0.47119">
        <ele>95</ele>
        <time>2012-08-16T15:35:41Z</time>
      </trkpt>
      <trkpt lat="49.2137" lon="-0.47113">
        <ele>95</ele>
        <time>2012-08-16T15:35:42Z</time>
      </trkpt>
      <trkpt lat="49.21377" lon="-0.47105">
        <ele>95</ele>
        <time>2012-08-16T15:35:43Z</time>
      </trkpt>
      <trkpt lat="49.21382" lon="-0.47097">
        <ele>95</ele>
        <time>2012-08-16T15:35:44Z</time>
      </trkpt>
      <trkpt lat="49.21386" lon="-0.4709">
        <ele>95</ele>
        <time>2012-08-16T15:35:45Z</time>
      </trkpt>
      <trkpt lat="49.21386" lon="-0.47082">
        <ele>96</ele>
        <time>2012-08-16T15:35:46Z</time>
      </trkpt>
      <trkpt lat="49.2139" lon="-0.47074">
        <ele>96</ele>
        <time>2012-08-16T15:35:47Z</time>
      </trkpt>
      <trkpt lat="49.21395" lon="-0.47066">
        <ele>96</ele>
        <time>2012-08-16T15:35:48Z</time>
      </trkpt>
      <trkpt lat="49.21398" lon="-0.47058">
        <ele>96</ele>
        <time>2012-08-16T15:35:49Z</time>
      </trkpt>
      <trkpt lat="49.214" lon="-0.47049">
        <ele>95</ele>
        <time>2012-08-16T15:35:50Z</time>
      </trkpt>
      <trkpt lat="49.21403" lon="-0.4704">
        <ele>95</ele>
        <time>2012-08-16T15:35:51Z</time>
      </trkpt>
      <trkpt lat="49.21406" lon="-0.47031">
        <ele>95</ele>
        <time>2012-08-16T15:35:52Z</time>
      </trkpt>
      <trkpt lat="49.21409" lon="-0.47022">
        <ele>95</ele>
        <time>2012-08-16T15:35:53Z</time>
      </trkpt>
      <trkpt lat="49.21412" lon="-0.47014">
        <ele>95</ele>
        <time>2012-08-16T15:35:54Z</time>
      </trkpt>
      <trkpt lat="49.21415" lon="-0.47006">
        <ele>95</ele>
        <time>2012-08-16T15:35:55Z</time>
      </trkpt>
      <trkpt lat="49.21417" lon="-0.46998">
        <ele>95</ele>
        <time>2012-08-16T15:35:56Z</time>
      </trkpt>
      <trkpt lat="49.21418" lon="-0.4699">
        <ele>94</ele>
        <time>2012-08-16T15:35:57Z</time>
      </trkpt>
      <trkpt lat="49.21421" lon="-0.46982">
        <ele>94</ele>
        <time>2012-08-16T15:35:58Z</time>
      </trkpt>
      <trkpt lat="49.21423" lon="-0.46974">
        <ele>95</ele>
        <time>2012-08-16T15:35:59Z</time>
      </trkpt>
      <trkpt lat="49.21429" lon="-0.46961">
        <ele>94</ele>
        <time>2012-08-16T15:36:01Z</time>
      </trkpt>
      <trkpt lat="49.21434" lon="-0.46954">
        <ele>95</ele>
        <time>2012-08-16T15:36:02Z</time>
      </trkpt>
      <trkpt lat="49.21439" lon="-0.46948">
        <ele>95</ele>
        <time>2012-08-16T15:36:03Z</time>
      </trkpt>
      <trkpt lat="49.21443" lon="-0.46944">
        <ele>94</ele>
        <time>2012-08-16T15:36:04Z</time>
      </trkpt>
      <trkpt lat="49.21446" lon="-0.4694">
        <ele>95</ele>
        <time>2012-08-16T15:36:05Z</time>
      </trkpt>
      <trkpt lat="49.21452" lon="-0.46936">
        <ele>94</ele>
        <time>2012-08-16T15:36:06Z</time>
      </trkpt>
      <trkpt lat="49.21458" lon="-0.46932">
        <ele>93</ele>
        <time>2012-08-16T15:36:07Z</time>
      </trkpt>
      <trkpt lat="49.21462" lon="-0.46928">
        <ele>93</ele>
        <time>2012-08-16T15:36:08Z</time>
      </trkpt>
      <trkpt lat="49.21467" lon="-0.46925">
        <ele>92</ele>
        <time>2012-08-16T15:36:09Z</time>
      </trkpt>
      <trkpt lat="49.21472" lon="-0.46921">
        <ele>92</ele>
        <time>2012-08-16T15:36:10Z</time>
      </trkpt>
      <trkpt lat="49.21478" lon="-0.46913">
        <ele>91</ele>
        <time>2012-08-16T15:36:12Z</time>
      </trkpt>
      <trkpt lat="49.21482" lon="-0.4691">
        <ele>90</ele>
        <time>2012-08-16T15:36:13Z</time>
      </trkpt>
      <trkpt lat="49.21486" lon="-0.46905">
        <ele>90</ele>
        <time>2012-08-16T15:36:14Z</time>
      </trkpt>
      <trkpt lat="49.2149" lon="-0.46902">
        <ele>91</ele>
        <time>2012-08-16T15:36:15Z</time>
      </trkpt>
      <trkpt lat="49.21496" lon="-0.46895">
        <ele>91</ele>
        <time>2012-08-16T15:36:17Z</time>
      </trkpt>
      <trkpt lat="49.21502" lon="-0.46888">
        <ele>91</ele>
        <time>2012-08-16T15:36:19Z</time>
      </trkpt>
      <trkpt lat="49.2151" lon="-0.46882">
        <ele>92</ele>
        <time>2012-08-16T15:36:21Z</time>
      </trkpt>
      <trkpt lat="49.21516" lon="-0.46877">
        <ele>92</ele>
        <time>2012-08-16T15:36:23Z</time>
      </trkpt>
      <trkpt lat="49.21521" lon="-0.46873">
        <ele>92</ele>
        <time>2012-08-16T15:36:25Z</time>
      </trkpt>
      <trkpt lat="49.21525" lon="-0.46869">
        <ele>92</ele>
        <time>2012-08-16T15:36:27Z</time>
      </trkpt>
      <trkpt lat="49.21529" lon="-0.46865">
        <ele>92</ele>
        <time>2012-08-16T15:36:29Z</time>
      </trkpt>
      <trkpt lat="49.21533" lon="-0.46859">
        <ele>92</ele>
        <time>2012-08-16T15:36:31Z</time>
      </trkpt>
      <trkpt lat="49.21538" lon="-0.46854">
        <ele>93</ele>
        <time>2012-08-16T15:36:33Z</time>
      </trkpt>
      <trkpt lat="49.21543" lon="-0.46848">
        <ele>92</ele>
        <time>2012-08-16T15:36:35Z</time>
      </trkpt>
      <trkpt lat="49.21547" lon="-0.46845">
        <ele>92</ele>
        <time>2012-08-16T15:36:36Z</time>
      </trkpt>
      <trkpt lat="49.21555" lon="-0.4684">
        <ele>94</ele>
        <time>2012-08-16T15:36:38Z</time>
      </trkpt>
      <trkpt lat="49.2156" lon="-0.46836">
        <ele>94</ele>
        <time>2012-08-16T15:36:39Z</time>
      </trkpt>
      <trkpt lat="49.21566" lon="-0.46831">
        <ele>94</ele>
        <time>2012-08-16T15:36:41Z</time>
      </trkpt>
      <trkpt lat="49.21572" lon="-0.46825">
        <ele>94</ele>
        <time>2012-08-16T15:36:43Z</time>
      </trkpt>
      <trkpt lat="49.21578" lon="-0.46818">
        <ele>94</ele>
        <time>2012-08-16T15:36:45Z</time>
      </trkpt>
      <trkpt lat="49.21583" lon="-0.46816">
        <ele>95</ele>
        <time>2012-08-16T15:36:46Z</time>
      </trkpt>
      <trkpt lat="49.21588" lon="-0.46811">
        <ele>96</ele>
        <time>2012-08-16T15:36:48Z</time>
      </trkpt>
      <trkpt lat="49.21597" lon="-0.46803">
        <ele>96</ele>
        <time>2012-08-16T15:36:50Z</time>
      </trkpt>
      <trkpt lat="49.21602" lon="-0.46799">
        <ele>97</ele>
        <time>2012-08-16T15:36:51Z</time>
      </trkpt>
      <trkpt lat="49.21609" lon="-0.46793">
        <ele>97</ele>
        <time>2012-08-16T15:36:53Z</time>
      </trkpt>
      <trkpt lat="49.21615" lon="-0.4679">
        <ele>98</ele>
        <time>2012-08-16T15:36:54Z</time>
      </trkpt>
      <trkpt lat="49.21619" lon="-0.46786">
        <ele>97</ele>
        <time>2012-08-16T15:36:55Z</time>
      </trkpt>
      <trkpt lat="49.21627" lon="-0.46782">
        <ele>97</ele>
        <time>2012-08-16T15:36:57Z</time>
      </trkpt>
      <trkpt lat="49.21635" lon="-0.46779">
        <ele>96</ele>
        <time>2012-08-16T15:36:59Z</time>
      </trkpt>
      <trkpt lat="49.21644" lon="-0.46776">
        <ele>96</ele>
        <time>2012-08-16T15:37:01Z</time>
      </trkpt>
      <trkpt lat="49.21649" lon="-0.46773">
        <ele>97</ele>
        <time>2012-08-16T15:37:02Z</time>
      </trkpt>
      <trkpt lat="49.21654" lon="-0.46772">
        <ele>96</ele>
        <time>2012-08-16T15:37:03Z</time>
      </trkpt>
      <trkpt lat="49.21663" lon="-0.46771">
        <ele>96</ele>
        <time>2012-08-16T15:37:05Z</time>
      </trkpt>
      <trkpt lat="49.21669" lon="-0.46771">
        <ele>95</ele>
        <time>2012-08-16T15:37:06Z</time>
      </trkpt>
      <trkpt lat="49.21675" lon="-0.46771">
        <ele>95</ele>
        <time>2012-08-16T15:37:07Z</time>
      </trkpt>
      <trkpt lat="49.21683" lon="-0.46772">
        <ele>95</ele>
        <time>2012-08-16T15:37:08Z</time>
      </trkpt>
      <trkpt lat="49.21689" lon="-0.46772">
        <ele>95</ele>
        <time>2012-08-16T15:37:09Z</time>
      </trkpt>
      <trkpt lat="49.21696" lon="-0.46773">
        <ele>95</ele>
        <time>2012-08-16T15:37:10Z</time>
      </trkpt>
      <trkpt lat="49.21703" lon="-0.46773">
        <ele>95</ele>
        <time>2012-08-16T15:37:11Z</time>
      </trkpt>
      <trkpt lat="49.2171" lon="-0.46774">
        <ele>95</ele>
        <time>2012-08-16T15:37:12Z</time>
      </trkpt>
      <trkpt lat="49.21716" lon="-0.46776">
        <ele>95</ele>
        <time>2012-08-16T15:37:13Z</time>
      </trkpt>
      <trkpt lat="49.21723" lon="-0.46777">
        <ele>95</ele>
        <time>2012-08-16T15:37:14Z</time>
      </trkpt>
      <trkpt lat="49.21728" lon="-0.46777">
        <ele>95</ele>
        <time>2012-08-16T15:37:15Z</time>
      </trkpt>
      <trkpt lat="49.21734" lon="-0.46779">
        <ele>95</ele>
        <time>2012-08-16T15:37:16Z</time>
      </trkpt>
      <trkpt lat="49.21741" lon="-0.46778">
        <ele>94</ele>
        <time>2012-08-16T15:37:17Z</time>
      </trkpt>
      <trkpt lat="49.21747" lon="-0.46778">
        <ele>94</ele>
        <time>2012-08-16T15:37:18Z</time>
      </trkpt>
      <trkpt lat="49.21753" lon="-0.46778">
        <ele>94</ele>
        <time>2012-08-16T15:37:19Z</time>
      </trkpt>
      <trkpt lat="49.2176" lon="-0.46778">
        <ele>94</ele>
        <time>2012-08-16T15:37:20Z</time>
      </trkpt>
      <trkpt lat="49.2177" lon="-0.46779">
        <ele>94</ele>
        <time>2012-08-16T15:37:22Z</time>
      </trkpt>
      <trkpt lat="49.21775" lon="-0.46779">
        <ele>93</ele>
        <time>2012-08-16T15:37:23Z</time>
      </trkpt>
      <trkpt lat="49.21784" lon="-0.4678">
        <ele>92</ele>
        <time>2012-08-16T15:37:25Z</time>
      </trkpt>
      <trkpt lat="49.21792" lon="-0.4678">
        <ele>92</ele>
        <time>2012-08-16T15:37:26Z</time>
      </trkpt>
      <trkpt lat="49.21802" lon="-0.46784">
        <ele>94</ele>
        <time>2012-08-16T15:37:28Z</time>
      </trkpt>
      <trkpt lat="49.21805" lon="-0.46794">
        <ele>95</ele>
        <time>2012-08-16T15:37:29Z</time>
      </trkpt>
      <trkpt lat="49.21809" lon="-0.46802">
        <ele>95</ele>
        <time>2012-08-16T15:37:30Z</time>
      </trkpt>
      <trkpt lat="49.21813" lon="-0.46809">
        <ele>95</ele>
        <time>2012-08-16T15:37:31Z</time>
      </trkpt>
      <trkpt lat="49.21815" lon="-0.46816">
        <ele>95</ele>
        <time>2012-08-16T15:37:32Z</time>
      </trkpt>
      <trkpt lat="49.21818" lon="-0.46823">
        <ele>95</ele>
        <time>2012-08-16T15:37:33Z</time>
      </trkpt>
      <trkpt lat="49.2182" lon="-0.4683">
        <ele>95</ele>
        <time>2012-08-16T15:37:34Z</time>
      </trkpt>
      <trkpt lat="49.21826" lon="-0.46837">
        <ele>94</ele>
        <time>2012-08-16T15:37:36Z</time>
      </trkpt>
      <trkpt lat="49.21829" lon="-0.46847">
        <ele>94</ele>
        <time>2012-08-16T15:37:38Z</time>
      </trkpt>
      <trkpt lat="49.21834" lon="-0.46856">
        <ele>94</ele>
        <time>2012-08-16T15:37:40Z</time>
      </trkpt>
      <trkpt lat="49.21841" lon="-0.46865">
        <ele>94</ele>
        <time>2012-08-16T15:37:42Z</time>
      </trkpt>
      <trkpt lat="49.21846" lon="-0.46873">
        <ele>92</ele>
        <time>2012-08-16T15:37:44Z</time>
      </trkpt>
      <trkpt lat="49.21854" lon="-0.46882">
        <ele>91</ele>
        <time>2012-08-16T15:37:46Z</time>
      </trkpt>
      <trkpt lat="49.21859" lon="-0.46893">
        <ele>91</ele>
        <time>2012-08-16T15:37:48Z</time>
      </trkpt>
      <trkpt lat="49.21863" lon="-0.46898">
        <ele>90</ele>
        <time>2012-08-16T15:37:49Z</time>
      </trkpt>
      <trkpt lat="49.21868" lon="-0.46905">
        <ele>90</ele>
        <time>2012-08-16T15:37:51Z</time>
      </trkpt>
      <trkpt lat="49.2187" lon="-0.46912">
        <ele>90</ele>
        <time>2012-08-16T15:37:52Z</time>
      </trkpt>
      <trkpt lat="49.21874" lon="-0.46917">
        <ele>89</ele>
        <time>2012-08-16T15:37:53Z</time>
      </trkpt>
      <trkpt lat="49.21879" lon="-0.46922">
        <ele>90</ele>
        <time>2012-08-16T15:37:54Z</time>
      </trkpt>
      <trkpt lat="49.21882" lon="-0.46927">
        <ele>90</ele>
        <time>2012-08-16T15:37:55Z</time>
      </trkpt>
      <trkpt lat="49.21889" lon="-0.46935">
        <ele>91</ele>
        <time>2012-08-16T15:37:57Z</time>
      </trkpt>
      <trkpt lat="49.21895" lon="-0.4694">
        <ele>90</ele>
        <time>2012-08-16T15:37:59Z</time>
      </trkpt>
      <trkpt lat="49.21897" lon="-0.46953">
        <ele>88</ele>
        <time>2012-08-16T15:38:01Z</time>
      </trkpt>
      <trkpt lat="49.219" lon="-0.46962">
        <ele>86</ele>
        <time>2012-08-16T15:38:03Z</time>
      </trkpt>
      <trkpt lat="49.21904" lon="-0.46968">
        <ele>86</ele>
        <time>2012-08-16T15:38:04Z</time>
      </trkpt>
      <trkpt lat="49.21907" lon="-0.46976">
        <ele>86</ele>
        <time>2012-08-16T15:38:05Z</time>
      </trkpt>
      <trkpt lat="49.21912" lon="-0.46986">
        <ele>85</ele>
        <time>2012-08-16T15:38:07Z</time>
      </trkpt>
      <trkpt lat="49.21916" lon="-0.47">
        <ele>83</ele>
        <time>2012-08-16T15:38:09Z</time>
      </trkpt>
      <trkpt lat="49.2192" lon="-0.47009">
        <ele>84</ele>
        <time>2012-08-16T15:38:11Z</time>
      </trkpt>
      <trkpt lat="49.21924" lon="-0.4702">
        <ele>83</ele>
        <time>2012-08-16T15:38:13Z</time>
      </trkpt>
      <trkpt lat="49.21929" lon="-0.47036">
        <ele>82</ele>
        <time>2012-08-16T15:38:15Z</time>
      </trkpt>
      <trkpt lat="49.21932" lon="-0.47042">
        <ele>83</ele>
        <time>2012-08-16T15:38:16Z</time>
      </trkpt>
      <trkpt lat="49.21934" lon="-0.47049">
        <ele>82</ele>
        <time>2012-08-16T15:38:17Z</time>
      </trkpt>
      <trkpt lat="49.21937" lon="-0.47057">
        <ele>82</ele>
        <time>2012-08-16T15:38:18Z</time>
      </trkpt>
      <trkpt lat="49.21939" lon="-0.47065">
        <ele>83</ele>
        <time>2012-08-16T15:38:19Z</time>
      </trkpt>
      <trkpt lat="49.21942" lon="-0.47073">
        <ele>84</ele>
        <time>2012-08-16T15:38:20Z</time>
      </trkpt>
      <trkpt lat="49.21945" lon="-0.4708">
        <ele>84</ele>
        <time>2012-08-16T15:38:21Z</time>
      </trkpt>
      <trkpt lat="49.21946" lon="-0.47087">
        <ele>84</ele>
        <time>2012-08-16T15:38:22Z</time>
      </trkpt>
      <trkpt lat="49.21949" lon="-0.47094">
        <ele>84</ele>
        <time>2012-08-16T15:38:23Z</time>
      </trkpt>
      <trkpt lat="49.21951" lon="-0.471">
        <ele>85</ele>
        <time>2012-08-16T15:38:24Z</time>
      </trkpt>
      <trkpt lat="49.21954" lon="-0.47105">
        <ele>86</ele>
        <time>2012-08-16T15:38:25Z</time>
      </trkpt>
      <trkpt lat="49.21956" lon="-0.47111">
        <ele>87</ele>
        <time>2012-08-16T15:38:26Z</time>
      </trkpt>
      <trkpt lat="49.2196" lon="-0.47119">
        <ele>89</ele>
        <time>2012-08-16T15:38:28Z</time>
      </trkpt>
      <trkpt lat="49.21964" lon="-0.47125">
        <ele>90</ele>
        <time>2012-08-16T15:38:31Z</time>
      </trkpt>
      <trkpt lat="49.21969" lon="-0.47119">
        <ele>92</ele>
        <time>2012-08-16T15:38:35Z</time>
      </trkpt>
      <trkpt lat="49.21975" lon="-0.47119">
        <ele>91</ele>
        <time>2012-08-16T15:38:38Z</time>
      </trkpt>
      <trkpt lat="49.21979" lon="-0.47122">
        <ele>91</ele>
        <time>2012-08-16T15:38:40Z</time>
      </trkpt>
      <trkpt lat="49.21984" lon="-0.47125">
        <ele>91</ele>
        <time>2012-08-16T15:38:42Z</time>
      </trkpt>
      <trkpt lat="49.21991" lon="-0.47132">
        <ele>90</ele>
        <time>2012-08-16T15:38:44Z</time>
      </trkpt>
      <trkpt lat="49.21996" lon="-0.47139">
        <ele>89</ele>
        <time>2012-08-16T15:38:46Z</time>
      </trkpt>
      <trkpt lat="49.22" lon="-0.4714">
        <ele>88</ele>
        <time>2012-08-16T15:38:48Z</time>
      </trkpt>
      <trkpt lat="49.22" lon="-0.47149">
        <ele>88</ele>
        <time>2012-08-16T15:38:51Z</time>
      </trkpt>
      <trkpt lat="49.21997" lon="-0.47158">
        <ele>87</ele>
        <time>2012-08-16T15:38:53Z</time>
      </trkpt>
      <trkpt lat="49.21994" lon="-0.47168">
        <ele>87</ele>
        <time>2012-08-16T15:38:55Z</time>
      </trkpt>
      <trkpt lat="49.21992" lon="-0.47176">
        <ele>88</ele>
        <time>2012-08-16T15:39:00Z</time>
      </trkpt>
      <trkpt lat="49.21989" lon="-0.47185">
        <ele>87</ele>
        <time>2012-08-16T15:39:02Z</time>
      </trkpt>
      <trkpt lat="49.21984" lon="-0.47193">
        <ele>87</ele>
        <time>2012-08-16T15:39:05Z</time>
      </trkpt>
      <trkpt lat="49.2198" lon="-0.47202">
        <ele>87</ele>
        <time>2012-08-16T15:39:07Z</time>
      </trkpt>
      <trkpt lat="49.21976" lon="-0.47209">
        <ele>86</ele>
        <time>2012-08-16T15:39:09Z</time>
      </trkpt>
      <trkpt lat="49.21974" lon="-0.47216">
        <ele>85</ele>
        <time>2012-08-16T15:39:11Z</time>
      </trkpt>
      <trkpt lat="49.2197" lon="-0.47222">
        <ele>85</ele>
        <time>2012-08-16T15:39:13Z</time>
      </trkpt>
      <trkpt lat="49.21967" lon="-0.47227">
        <ele>85</ele>
        <time>2012-08-16T15:39:14Z</time>
      </trkpt>
      <trkpt lat="49.2196" lon="-0.47234">
        <ele>83</ele>
        <time>2012-08-16T15:39:17Z</time>
      </trkpt>
      <trkpt lat="49.21955" lon="-0.47243">
        <ele>82</ele>
        <time>2012-08-16T15:39:20Z</time>
      </trkpt>
      <trkpt lat="49.21951" lon="-0.4725">
        <ele>81</ele>
        <time>2012-08-16T15:39:22Z</time>
      </trkpt>
      <trkpt lat="49.21946" lon="-0.47256">
        <ele>80</ele>
        <time>2012-08-16T15:39:24Z</time>
      </trkpt>
      <trkpt lat="49.2194" lon="-0.47263">
        <ele>80</ele>
        <time>2012-08-16T15:39:26Z</time>
      </trkpt>
      <trkpt lat="49.21934" lon="-0.47266">
        <ele>79</ele>
        <time>2012-08-16T15:39:28Z</time>
      </trkpt>
      <trkpt lat="49.21926" lon="-0.4727">
        <ele>80</ele>
        <time>2012-08-16T15:39:30Z</time>
      </trkpt>
      <trkpt lat="49.21922" lon="-0.47272">
        <ele>81</ele>
        <time>2012-08-16T15:39:31Z</time>
      </trkpt>
      <trkpt lat="49.21914" lon="-0.47277">
        <ele>83</ele>
        <time>2012-08-16T15:39:33Z</time>
      </trkpt>
      <trkpt lat="49.21907" lon="-0.47281">
        <ele>84</ele>
        <time>2012-08-16T15:39:35Z</time>
      </trkpt>
      <trkpt lat="49.219" lon="-0.47285">
        <ele>85</ele>
        <time>2012-08-16T15:39:37Z</time>
      </trkpt>
      <trkpt lat="49.21895" lon="-0.47287">
        <ele>85</ele>
        <time>2012-08-16T15:39:38Z</time>
      </trkpt>
      <trkpt lat="49.21888" lon="-0.47288">
        <ele>86</ele>
        <time>2012-08-16T15:39:40Z</time>
      </trkpt>
      <trkpt lat="49.21881" lon="-0.47288">
        <ele>87</ele>
        <time>2012-08-16T15:39:42Z</time>
      </trkpt>
      <trkpt lat="49.21874" lon="-0.47292">
        <ele>86</ele>
        <time>2012-08-16T15:39:44Z</time>
      </trkpt>
      <trkpt lat="49.21868" lon="-0.47295">
        <ele>86</ele>
        <time>2012-08-16T15:39:46Z</time>
      </trkpt>
      <trkpt lat="49.21862" lon="-0.47295">
        <ele>87</ele>
        <time>2012-08-16T15:39:48Z</time>
      </trkpt>
      <trkpt lat="49.21855" lon="-0.47294">
        <ele>89</ele>
        <time>2012-08-16T15:39:50Z</time>
      </trkpt>
      <trkpt lat="49.21849" lon="-0.47297">
        <ele>89</ele>
        <time>2012-08-16T15:39:52Z</time>
      </trkpt>
      <trkpt lat="49.21843" lon="-0.473">
        <ele>89</ele>
        <time>2012-08-16T15:39:54Z</time>
      </trkpt>
      <trkpt lat="49.21837" lon="-0.47304">
        <ele>90</ele>
        <time>2012-08-16T15:39:56Z</time>
      </trkpt>
      <trkpt lat="49.21831" lon="-0.47307">
        <ele>91</ele>
        <time>2012-08-16T15:39:58Z</time>
      </trkpt>
      <trkpt lat="49.21824" lon="-0.4731">
        <ele>91</ele>
        <time>2012-08-16T15:40:00Z</time>
      </trkpt>
      <trkpt lat="49.21819" lon="-0.47313">
        <ele>92</ele>
        <time>2012-08-16T15:40:02Z</time>
      </trkpt>
      <trkpt lat="49.21813" lon="-0.47316">
        <ele>93</ele>
        <time>2012-08-16T15:40:05Z</time>
      </trkpt>
      <trkpt lat="49.21808" lon="-0.47319">
        <ele>93</ele>
        <time>2012-08-16T15:40:07Z</time>
      </trkpt>
      <trkpt lat="49.21802" lon="-0.47322">
        <ele>92</ele>
        <time>2012-08-16T15:40:10Z</time>
      </trkpt>
      <trkpt lat="49.21796" lon="-0.47325">
        <ele>93</ele>
        <time>2012-08-16T15:40:12Z</time>
      </trkpt>
      <trkpt lat="49.2179" lon="-0.47328">
        <ele>94</ele>
        <time>2012-08-16T15:40:14Z</time>
      </trkpt>
      <trkpt lat="49.21785" lon="-0.47331">
        <ele>93</ele>
        <time>2012-08-16T15:40:16Z</time>
      </trkpt>
      <trkpt lat="49.2178" lon="-0.47334">
        <ele>93</ele>
        <time>2012-08-16T15:40:18Z</time>
      </trkpt>
      <trkpt lat="49.21775" lon="-0.47337">
        <ele>93</ele>
        <time>2012-08-16T15:40:20Z</time>
      </trkpt>
      <trkpt lat="49.21769" lon="-0.47338">
        <ele>93</ele>
        <time>2012-08-16T15:40:22Z</time>
      </trkpt>
      <trkpt lat="49.21763" lon="-0.47339">
        <ele>93</ele>
        <time>2012-08-16T15:40:24Z</time>
      </trkpt>
      <trkpt lat="49.21758" lon="-0.47341">
        <ele>92</ele>
        <time>2012-08-16T15:40:26Z</time>
      </trkpt>
      <trkpt lat="49.21752" lon="-0.47343">
        <ele>92</ele>
        <time>2012-08-16T15:40:28Z</time>
      </trkpt>
      <trkpt lat="49.21746" lon="-0.47344">
        <ele>92</ele>
        <time>2012-08-16T15:40:30Z</time>
      </trkpt>
      <trkpt lat="49.21738" lon="-0.47349">
        <ele>92</ele>
        <time>2012-08-16T15:40:32Z</time>
      </trkpt>
      <trkpt lat="49.21732" lon="-0.47352">
        <ele>91</ele>
        <time>2012-08-16T15:40:34Z</time>
      </trkpt>
      <trkpt lat="49.21647" lon="-0.47409">
        <ele>95</ele>
        <time>2012-08-16T15:41:06Z</time>
      </trkpt>
      <trkpt lat="49.21641" lon="-0.47411">
        <ele>95</ele>
        <time>2012-08-16T15:41:08Z</time>
      </trkpt>
      <trkpt lat="49.21636" lon="-0.47411">
        <ele>96</ele>
        <time>2012-08-16T15:41:10Z</time>
      </trkpt>
      <trkpt lat="49.2163" lon="-0.47413">
        <ele>96</ele>
        <time>2012-08-16T15:41:13Z</time>
      </trkpt>
      <trkpt lat="49.21624" lon="-0.47418">
        <ele>97</ele>
        <time>2012-08-16T15:41:16Z</time>
      </trkpt>
      <trkpt lat="49.21618" lon="-0.47422">
        <ele>97</ele>
        <time>2012-08-16T15:41:19Z</time>
      </trkpt>
      <trkpt lat="49.21615" lon="-0.47426">
        <ele>96</ele>
        <time>2012-08-16T15:41:21Z</time>
      </trkpt>
      <trkpt lat="49.21617" lon="-0.47433">
        <ele>97</ele>
        <time>2012-08-16T15:41:24Z</time>
      </trkpt>
      <trkpt lat="49.21621" lon="-0.47439">
        <ele>99</ele>
        <time>2012-08-16T15:41:27Z</time>
      </trkpt>
      <trkpt lat="49.21623" lon="-0.47448">
        <ele>98</ele>
        <time>2012-08-16T15:41:30Z</time>
      </trkpt>
      <trkpt lat="49.21628" lon="-0.47454">
        <ele>97</ele>
        <time>2012-08-16T15:41:33Z</time>
      </trkpt>
      <trkpt lat="49.2163" lon="-0.4746">
        <ele>96</ele>
        <time>2012-08-16T15:41:36Z</time>
      </trkpt>
      <trkpt lat="49.21629" lon="-0.47474">
        <ele>94</ele>
        <time>2012-08-16T15:41:39Z</time>
      </trkpt>
      <trkpt lat="49.21628" lon="-0.47485">
        <ele>92</ele>
        <time>2012-08-16T15:41:41Z</time>
      </trkpt>
      <trkpt lat="49.21629" lon="-0.47492">
        <ele>90</ele>
        <time>2012-08-16T15:41:43Z</time>
      </trkpt>
      <trkpt lat="49.2163" lon="-0.475">
        <ele>91</ele>
        <time>2012-08-16T15:41:44Z</time>
      </trkpt>
      <trkpt lat="49.21632" lon="-0.47511">
        <ele>91</ele>
        <time>2012-08-16T15:41:46Z</time>
      </trkpt>
      <trkpt lat="49.21635" lon="-0.4752">
        <ele>90</ele>
        <time>2012-08-16T15:41:48Z</time>
      </trkpt>
      <trkpt lat="49.21637" lon="-0.47527">
        <ele>91</ele>
        <time>2012-08-16T15:41:50Z</time>
      </trkpt>
      <trkpt lat="49.2164" lon="-0.47535">
        <ele>91</ele>
        <time>2012-08-16T15:41:52Z</time>
      </trkpt>
      <trkpt lat="49.21643" lon="-0.47542">
        <ele>92</ele>
        <time>2012-08-16T15:41:54Z</time>
      </trkpt>
      <trkpt lat="49.21645" lon="-0.47549">
        <ele>92</ele>
        <time>2012-08-16T15:41:56Z</time>
      </trkpt>
      <trkpt lat="49.21646" lon="-0.47559">
        <ele>92</ele>
        <time>2012-08-16T15:41:59Z</time>
      </trkpt>
      <trkpt lat="49.21649" lon="-0.47565">
        <ele>92</ele>
        <time>2012-08-16T15:42:01Z</time>
      </trkpt>
      <trkpt lat="49.21651" lon="-0.47574">
        <ele>92</ele>
        <time>2012-08-16T15:42:04Z</time>
      </trkpt>
      <trkpt lat="49.21653" lon="-0.47582">
        <ele>92</ele>
        <time>2012-08-16T15:42:06Z</time>
      </trkpt>
      <trkpt lat="49.21657" lon="-0.47592">
        <ele>93</ele>
        <time>2012-08-16T15:42:09Z</time>
      </trkpt>
      <trkpt lat="49.21659" lon="-0.47598">
        <ele>93</ele>
        <time>2012-08-16T15:42:11Z</time>
      </trkpt>
      <trkpt lat="49.21664" lon="-0.4761">
        <ele>93</ele>
        <time>2012-08-16T15:42:13Z</time>
      </trkpt>
      <trkpt lat="49.21665" lon="-0.47618">
        <ele>94</ele>
        <time>2012-08-16T15:42:14Z</time>
      </trkpt>
      <trkpt lat="49.21669" lon="-0.47627">
        <ele>95</ele>
        <time>2012-08-16T15:42:16Z</time>
      </trkpt>
      <trkpt lat="49.21672" lon="-0.47637">
        <ele>95</ele>
        <time>2012-08-16T15:42:18Z</time>
      </trkpt>
      <trkpt lat="49.21674" lon="-0.47646">
        <ele>96</ele>
        <time>2012-08-16T15:42:20Z</time>
      </trkpt>
      <trkpt lat="49.21676" lon="-0.47655">
        <ele>96</ele>
        <time>2012-08-16T15:42:22Z</time>
      </trkpt>
      <trkpt lat="49.21678" lon="-0.47663">
        <ele>97</ele>
        <time>2012-08-16T15:42:24Z</time>
      </trkpt>
      <trkpt lat="49.21681" lon="-0.47672">
        <ele>96</ele>
        <time>2012-08-16T15:42:26Z</time>
      </trkpt>
      <trkpt lat="49.21683" lon="-0.47681">
        <ele>96</ele>
        <time>2012-08-16T15:42:28Z</time>
      </trkpt>
      <trkpt lat="49.21686" lon="-0.4769">
        <ele>97</ele>
        <time>2012-08-16T15:42:30Z</time>
      </trkpt>
      <trkpt lat="49.21689" lon="-0.47698">
        <ele>97</ele>
        <time>2012-08-16T15:42:32Z</time>
      </trkpt>
      <trkpt lat="49.21692" lon="-0.47707">
        <ele>97</ele>
        <time>2012-08-16T15:42:34Z</time>
      </trkpt>
      <trkpt lat="49.21696" lon="-0.47724">
        <ele>96</ele>
        <time>2012-08-16T15:42:38Z</time>
      </trkpt>
      <trkpt lat="49.21699" lon="-0.47733">
        <ele>97</ele>
        <time>2012-08-16T15:42:40Z</time>
      </trkpt>
      <trkpt lat="49.21701" lon="-0.47743">
        <ele>97</ele>
        <time>2012-08-16T15:42:42Z</time>
      </trkpt>
      <trkpt lat="49.21714" lon="-0.47773">
        <ele>97</ele>
        <time>2012-08-16T15:42:49Z</time>
      </trkpt>
      <trkpt lat="49.21716" lon="-0.47783">
        <ele>96</ele>
        <time>2012-08-16T15:42:52Z</time>
      </trkpt>
      <trkpt lat="49.21717" lon="-0.47791">
        <ele>95</ele>
        <time>2012-08-16T15:42:54Z</time>
      </trkpt>
      <trkpt lat="49.21721" lon="-0.47796">
        <ele>96</ele>
        <time>2012-08-16T15:42:56Z</time>
      </trkpt>
      <trkpt lat="49.21724" lon="-0.47801">
        <ele>97</ele>
        <time>2012-08-16T15:42:58Z</time>
      </trkpt>
      <trkpt lat="49.21728" lon="-0.47809">
        <ele>98</ele>
        <time>2012-08-16T15:43:01Z</time>
      </trkpt>
      <trkpt lat="49.21732" lon="-0.47815">
        <ele>98</ele>
        <time>2012-08-16T15:43:03Z</time>
      </trkpt>
      <trkpt lat="49.21738" lon="-0.47818">
        <ele>98</ele>
        <time>2012-08-16T15:43:06Z</time>
      </trkpt>
      <trkpt lat="49.21744" lon="-0.47817">
        <ele>97</ele>
        <time>2012-08-16T15:43:08Z</time>
      </trkpt>
      <trkpt lat="49.21748" lon="-0.47814">
        <ele>96</ele>
        <time>2012-08-16T15:43:10Z</time>
      </trkpt>
      <trkpt lat="49.21757" lon="-0.4781">
        <ele>95</ele>
        <time>2012-08-16T15:43:12Z</time>
      </trkpt>
      <trkpt lat="49.21763" lon="-0.47808">
        <ele>95</ele>
        <time>2012-08-16T15:43:13Z</time>
      </trkpt>
      <trkpt lat="49.21768" lon="-0.47806">
        <ele>95</ele>
        <time>2012-08-16T15:43:14Z</time>
      </trkpt>
      <trkpt lat="49.21774" lon="-0.47803">
        <ele>95</ele>
        <time>2012-08-16T15:43:15Z</time>
      </trkpt>
      <trkpt lat="49.2178" lon="-0.478">
        <ele>95</ele>
        <time>2012-08-16T15:43:16Z</time>
      </trkpt>
      <trkpt lat="49.21786" lon="-0.47797">
        <ele>95</ele>
        <time>2012-08-16T15:43:17Z</time>
      </trkpt>
      <trkpt lat="49.21793" lon="-0.47794">
        <ele>95</ele>
        <time>2012-08-16T15:43:18Z</time>
      </trkpt>
      <trkpt lat="49.21798" lon="-0.47791">
        <ele>95</ele>
        <time>2012-08-16T15:43:19Z</time>
      </trkpt>
      <trkpt lat="49.21804" lon="-0.47788">
        <ele>95</ele>
        <time>2012-08-16T15:43:20Z</time>
      </trkpt>
      <trkpt lat="49.2181" lon="-0.47785">
        <ele>95</ele>
        <time>2012-08-16T15:43:21Z</time>
      </trkpt>
      <trkpt lat="49.21817" lon="-0.47782">
        <ele>95</ele>
        <time>2012-08-16T15:43:22Z</time>
      </trkpt>
      <trkpt lat="49.21824" lon="-0.4778">
        <ele>94</ele>
        <time>2012-08-16T15:43:23Z</time>
      </trkpt>
      <trkpt lat="49.21832" lon="-0.47777">
        <ele>94</ele>
        <time>2012-08-16T15:43:24Z</time>
      </trkpt>
      <trkpt lat="49.21838" lon="-0.47774">
        <ele>94</ele>
        <time>2012-08-16T15:43:25Z</time>
      </trkpt>
      <trkpt lat="49.21846" lon="-0.47771">
        <ele>95</ele>
        <time>2012-08-16T15:43:26Z</time>
      </trkpt>
      <trkpt lat="49.21852" lon="-0.47768">
        <ele>94</ele>
        <time>2012-08-16T15:43:27Z</time>
      </trkpt>
      <trkpt lat="49.21859" lon="-0.47766">
        <ele>94</ele>
        <time>2012-08-16T15:43:28Z</time>
      </trkpt>
      <trkpt lat="49.21865" lon="-0.47763">
        <ele>94</ele>
        <time>2012-08-16T15:43:29Z</time>
      </trkpt>
      <trkpt lat="49.21873" lon="-0.4776">
        <ele>94</ele>
        <time>2012-08-16T15:43:30Z</time>
      </trkpt>
      <trkpt lat="49.21881" lon="-0.47758">
        <ele>94</ele>
        <time>2012-08-16T15:43:31Z</time>
      </trkpt>
      <trkpt lat="49.21888" lon="-0.47756">
        <ele>94</ele>
        <time>2012-08-16T15:43:32Z</time>
      </trkpt>
      <trkpt lat="49.21895" lon="-0.47757">
        <ele>94</ele>
        <time>2012-08-16T15:43:33Z</time>
      </trkpt>
      <trkpt lat="49.21904" lon="-0.47754">
        <ele>94</ele>
        <time>2012-08-16T15:43:34Z</time>
      </trkpt>
      <trkpt lat="49.2191" lon="-0.47749">
        <ele>94</ele>
        <time>2012-08-16T15:43:35Z</time>
      </trkpt>
      <trkpt lat="49.21919" lon="-0.47745">
        <ele>94</ele>
        <time>2012-08-16T15:43:36Z</time>
      </trkpt>
      <trkpt lat="49.21928" lon="-0.47743">
        <ele>94</ele>
        <time>2012-08-16T15:43:37Z</time>
      </trkpt>
      <trkpt lat="49.21934" lon="-0.47744">
        <ele>93</ele>
        <time>2012-08-16T15:43:38Z</time>
      </trkpt>
      <trkpt lat="49.21942" lon="-0.47743">
        <ele>93</ele>
        <time>2012-08-16T15:43:39Z</time>
      </trkpt>
      <trkpt lat="49.2195" lon="-0.47741">
        <ele>93</ele>
        <time>2012-08-16T15:43:40Z</time>
      </trkpt>
      <trkpt lat="49.21956" lon="-0.4774">
        <ele>92</ele>
        <time>2012-08-16T15:43:41Z</time>
      </trkpt>
      <trkpt lat="49.21964" lon="-0.4774">
        <ele>92</ele>
        <time>2012-08-16T15:43:42Z</time>
      </trkpt>
      <trkpt lat="49.21972" lon="-0.47738">
        <ele>93</ele>
        <time>2012-08-16T15:43:43Z</time>
      </trkpt>
      <trkpt lat="49.2198" lon="-0.47737">
        <ele>92</ele>
        <time>2012-08-16T15:43:44Z</time>
      </trkpt>
      <trkpt lat="49.21988" lon="-0.47735">
        <ele>92</ele>
        <time>2012-08-16T15:43:45Z</time>
      </trkpt>
      <trkpt lat="49.21995" lon="-0.47733">
        <ele>92</ele>
        <time>2012-08-16T15:43:46Z</time>
      </trkpt>
      <trkpt lat="49.22002" lon="-0.47731">
        <ele>92</ele>
        <time>2012-08-16T15:43:47Z</time>
      </trkpt>
      <trkpt lat="49.2201" lon="-0.47728">
        <ele>92</ele>
        <time>2012-08-16T15:43:48Z</time>
      </trkpt>
      <trkpt lat="49.22016" lon="-0.47725">
        <ele>92</ele>
        <time>2012-08-16T15:43:49Z</time>
      </trkpt>
      <trkpt lat="49.22024" lon="-0.47722">
        <ele>92</ele>
        <time>2012-08-16T15:43:50Z</time>
      </trkpt>
      <trkpt lat="49.22031" lon="-0.47719">
        <ele>91</ele>
        <time>2012-08-16T15:43:51Z</time>
      </trkpt>
      <trkpt lat="49.22038" lon="-0.47714">
        <ele>91</ele>
        <time>2012-08-16T15:43:52Z</time>
      </trkpt>
      <trkpt lat="49.22045" lon="-0.4771">
        <ele>91</ele>
        <time>2012-08-16T15:43:53Z</time>
      </trkpt>
      <trkpt lat="49.22051" lon="-0.47708">
        <ele>91</ele>
        <time>2012-08-16T15:43:54Z</time>
      </trkpt>
      <trkpt lat="49.22057" lon="-0.47703">
        <ele>91</ele>
        <time>2012-08-16T15:43:55Z</time>
      </trkpt>
      <trkpt lat="49.22064" lon="-0.47699">
        <ele>91</ele>
        <time>2012-08-16T15:43:56Z</time>
      </trkpt>
      <trkpt lat="49.2207" lon="-0.47694">
        <ele>91</ele>
        <time>2012-08-16T15:43:57Z</time>
      </trkpt>
      <trkpt lat="49.22075" lon="-0.4769">
        <ele>91</ele>
        <time>2012-08-16T15:43:58Z</time>
      </trkpt>
      <trkpt lat="49.2208" lon="-0.47688">
        <ele>91</ele>
        <time>2012-08-16T15:43:59Z</time>
      </trkpt>
      <trkpt lat="49.22087" lon="-0.47685">
        <ele>91</ele>
        <time>2012-08-16T15:44:00Z</time>
      </trkpt>
      <trkpt lat="49.22093" lon="-0.47681">
        <ele>90</ele>
        <time>2012-08-16T15:44:01Z</time>
      </trkpt>
      <trkpt lat="49.221" lon="-0.47677">
        <ele>90</ele>
        <time>2012-08-16T15:44:02Z</time>
      </trkpt>
      <trkpt lat="49.22106" lon="-0.47674">
        <ele>90</ele>
        <time>2012-08-16T15:44:03Z</time>
      </trkpt>
      <trkpt lat="49.22112" lon="-0.47669">
        <ele>90</ele>
        <time>2012-08-16T15:44:04Z</time>
      </trkpt>
      <trkpt lat="49.22117" lon="-0.47663">
        <ele>89</ele>
        <time>2012-08-16T15:44:05Z</time>
      </trkpt>
      <trkpt lat="49.22123" lon="-0.4766">
        <ele>89</ele>
        <time>2012-08-16T15:44:06Z</time>
      </trkpt>
      <trkpt lat="49.22129" lon="-0.47656">
        <ele>89</ele>
        <time>2012-08-16T15:44:07Z</time>
      </trkpt>
      <trkpt lat="49.22136" lon="-0.47655">
        <ele>90</ele>
        <time>2012-08-16T15:44:08Z</time>
      </trkpt>
      <trkpt lat="49.22143" lon="-0.47655">
        <ele>90</ele>
        <time>2012-08-16T15:44:09Z</time>
      </trkpt>
      <trkpt lat="49.2215" lon="-0.47654">
        <ele>90</ele>
        <time>2012-08-16T15:44:10Z</time>
      </trkpt>
      <trkpt lat="49.22157" lon="-0.47654">
        <ele>91</ele>
        <time>2012-08-16T15:44:11Z</time>
      </trkpt>
      <trkpt lat="49.22164" lon="-0.47654">
        <ele>91</ele>
        <time>2012-08-16T15:44:12Z</time>
      </trkpt>
      <trkpt lat="49.2217" lon="-0.47652">
        <ele>91</ele>
        <time>2012-08-16T15:44:13Z</time>
      </trkpt>
      <trkpt lat="49.22175" lon="-0.47649">
        <ele>91</ele>
        <time>2012-08-16T15:44:14Z</time>
      </trkpt>
      <trkpt lat="49.2218" lon="-0.47646">
        <ele>91</ele>
        <time>2012-08-16T15:44:15Z</time>
      </trkpt>
      <trkpt lat="49.22183" lon="-0.47642">
        <ele>91</ele>
        <time>2012-08-16T15:44:16Z</time>
      </trkpt>
      <trkpt lat="49.22188" lon="-0.47638">
        <ele>91</ele>
        <time>2012-08-16T15:44:17Z</time>
      </trkpt>
      <trkpt lat="49.22192" lon="-0.47633">
        <ele>91</ele>
        <time>2012-08-16T15:44:18Z</time>
      </trkpt>
      <trkpt lat="49.22197" lon="-0.47627">
        <ele>91</ele>
        <time>2012-08-16T15:44:19Z</time>
      </trkpt>
      <trkpt lat="49.22203" lon="-0.47625">
        <ele>90</ele>
        <time>2012-08-16T15:44:20Z</time>
      </trkpt>
      <trkpt lat="49.22208" lon="-0.47622">
        <ele>90</ele>
        <time>2012-08-16T15:44:21Z</time>
      </trkpt>
      <trkpt lat="49.22213" lon="-0.47619">
        <ele>90</ele>
        <time>2012-08-16T15:44:22Z</time>
      </trkpt>
      <trkpt lat="49.22222" lon="-0.47616">
        <ele>90</ele>
        <time>2012-08-16T15:44:24Z</time>
      </trkpt>
      <trkpt lat="49.2223" lon="-0.47613">
        <ele>91</ele>
        <time>2012-08-16T15:44:26Z</time>
      </trkpt>
      <trkpt lat="49.22236" lon="-0.47609">
        <ele>91</ele>
        <time>2012-08-16T15:44:28Z</time>
      </trkpt>
      <trkpt lat="49.22236" lon="-0.47609">
        <ele>91</ele>
        <time>2012-08-16T15:44:28Z</time>
      </trkpt>
      <trkpt lat="49.22236" lon="-0.47609">
        <ele>91</ele>
        <time>2012-08-16T15:44:29Z</time>
      </trkpt>
      <trkpt lat="49.22242" lon="-0.47608">
        <ele>90</ele>
        <time>2012-08-16T15:44:30Z</time>
      </trkpt>
      <trkpt lat="49.22247" lon="-0.47608">
        <ele>90</ele>
        <time>2012-08-16T15:44:31Z</time>
      </trkpt>
      <trkpt lat="49.22255" lon="-0.47605">
        <ele>89</ele>
        <time>2012-08-16T15:44:33Z</time>
      </trkpt>
      <trkpt lat="49.22264" lon="-0.47603">
        <ele>88</ele>
        <time>2012-08-16T15:44:35Z</time>
      </trkpt>
      <trkpt lat="49.2227" lon="-0.47604">
        <ele>88</ele>
        <time>2012-08-16T15:44:36Z</time>
      </trkpt>
      <trkpt lat="49.22275" lon="-0.47603">
        <ele>90</ele>
        <time>2012-08-16T15:44:37Z</time>
      </trkpt>
      <trkpt lat="49.22283" lon="-0.47601">
        <ele>90</ele>
        <time>2012-08-16T15:44:39Z</time>
      </trkpt>
      <trkpt lat="49.22289" lon="-0.47601">
        <ele>90</ele>
        <time>2012-08-16T15:44:41Z</time>
      </trkpt>
      <trkpt lat="49.22296" lon="-0.47597">
        <ele>90</ele>
        <time>2012-08-16T15:44:43Z</time>
      </trkpt>
      <trkpt lat="49.22302" lon="-0.47599">
        <ele>90</ele>
        <time>2012-08-16T15:44:48Z</time>
      </trkpt>
      <trkpt lat="49.22314" lon="-0.47596">
        <ele>89</ele>
        <time>2012-08-16T15:44:50Z</time>
      </trkpt>
      <trkpt lat="49.22319" lon="-0.47594">
        <ele>88</ele>
        <time>2012-08-16T15:44:51Z</time>
      </trkpt>
      <trkpt lat="49.22327" lon="-0.47592">
        <ele>88</ele>
        <time>2012-08-16T15:44:53Z</time>
      </trkpt>
      <trkpt lat="49.22334" lon="-0.4759">
        <ele>87</ele>
        <time>2012-08-16T15:44:55Z</time>
      </trkpt>
      <trkpt lat="49.22341" lon="-0.47587">
        <ele>87</ele>
        <time>2012-08-16T15:44:57Z</time>
      </trkpt>
      <trkpt lat="49.22345" lon="-0.4758">
        <ele>87</ele>
        <time>2012-08-16T15:44:59Z</time>
      </trkpt>
      <trkpt lat="49.22351" lon="-0.47574">
        <ele>86</ele>
        <time>2012-08-16T15:45:01Z</time>
      </trkpt>
      <trkpt lat="49.22357" lon="-0.47569">
        <ele>87</ele>
        <time>2012-08-16T15:45:03Z</time>
      </trkpt>
      <trkpt lat="49.22364" lon="-0.47562">
        <ele>86</ele>
        <time>2012-08-16T15:45:05Z</time>
      </trkpt>
      <trkpt lat="49.22367" lon="-0.47558">
        <ele>86</ele>
        <time>2012-08-16T15:45:06Z</time>
      </trkpt>
      <trkpt lat="49.22371" lon="-0.47554">
        <ele>86</ele>
        <time>2012-08-16T15:45:07Z</time>
      </trkpt>
      <trkpt lat="49.22378" lon="-0.47546">
        <ele>86</ele>
        <time>2012-08-16T15:45:09Z</time>
      </trkpt>
      <trkpt lat="49.22385" lon="-0.47545">
        <ele>86</ele>
        <time>2012-08-16T15:45:11Z</time>
      </trkpt>
      <trkpt lat="49.22389" lon="-0.47542">
        <ele>86</ele>
        <time>2012-08-16T15:45:12Z</time>
      </trkpt>
      <trkpt lat="49.22497" lon="-0.47458">
        <ele>90</ele>
        <time>2012-08-16T15:45:44Z</time>
      </trkpt>
      <trkpt lat="49.22504" lon="-0.47455">
        <ele>92</ele>
        <time>2012-08-16T15:45:46Z</time>
      </trkpt>
      <trkpt lat="49.22511" lon="-0.47447">
        <ele>92</ele>
        <time>2012-08-16T15:45:48Z</time>
      </trkpt>
      <trkpt lat="49.22514" lon="-0.47443">
        <ele>92</ele>
        <time>2012-08-16T15:45:49Z</time>
      </trkpt>
      <trkpt lat="49.22518" lon="-0.47438">
        <ele>91</ele>
        <time>2012-08-16T15:45:50Z</time>
      </trkpt>
      <trkpt lat="49.22525" lon="-0.47433">
        <ele>92</ele>
        <time>2012-08-16T15:45:52Z</time>
      </trkpt>
      <trkpt lat="49.22529" lon="-0.4743">
        <ele>92</ele>
        <time>2012-08-16T15:45:53Z</time>
      </trkpt>
      <trkpt lat="49.22535" lon="-0.47427">
        <ele>95</ele>
        <time>2012-08-16T15:45:55Z</time>
      </trkpt>
      <trkpt lat="49.22542" lon="-0.47418">
        <ele>94</ele>
        <time>2012-08-16T15:45:57Z</time>
      </trkpt>
      <trkpt lat="49.22546" lon="-0.47414">
        <ele>94</ele>
        <time>2012-08-16T15:45:59Z</time>
      </trkpt>
      <trkpt lat="49.22553" lon="-0.47408">
        <ele>94</ele>
        <time>2012-08-16T15:46:02Z</time>
      </trkpt>
      <trkpt lat="49.22559" lon="-0.47403">
        <ele>94</ele>
        <time>2012-08-16T15:46:04Z</time>
      </trkpt>
      <trkpt lat="49.22564" lon="-0.47398">
        <ele>94</ele>
        <time>2012-08-16T15:46:06Z</time>
      </trkpt>
      <trkpt lat="49.22706" lon="-0.47292">
        <ele>97</ele>
        <time>2012-08-16T15:47:08Z</time>
      </trkpt>
      <trkpt lat="49.22712" lon="-0.47285">
        <ele>96</ele>
        <time>2012-08-16T15:47:10Z</time>
      </trkpt>
      <trkpt lat="49.22716" lon="-0.4728">
        <ele>97</ele>
        <time>2012-08-16T15:47:12Z</time>
      </trkpt>
      <trkpt lat="49.2272" lon="-0.47277">
        <ele>99</ele>
        <time>2012-08-16T15:47:14Z</time>
      </trkpt>
      <trkpt lat="49.22728" lon="-0.47273">
        <ele>101</ele>
        <time>2012-08-16T15:47:16Z</time>
      </trkpt>
      <trkpt lat="49.22733" lon="-0.4727">
        <ele>100</ele>
        <time>2012-08-16T15:47:18Z</time>
      </trkpt>
      <trkpt lat="49.22738" lon="-0.47266">
        <ele>101</ele>
        <time>2012-08-16T15:47:20Z</time>
      </trkpt>
      <trkpt lat="49.22743" lon="-0.47263">
        <ele>102</ele>
        <time>2012-08-16T15:47:22Z</time>
      </trkpt>
      <trkpt lat="49.22748" lon="-0.47258">
        <ele>102</ele>
        <time>2012-08-16T15:47:24Z</time>
      </trkpt>
      <trkpt lat="49.22754" lon="-0.47252">
        <ele>102</ele>
        <time>2012-08-16T15:47:27Z</time>
      </trkpt>
      <trkpt lat="49.22758" lon="-0.4725">
        <ele>102</ele>
        <time>2012-08-16T15:47:29Z</time>
      </trkpt>
      <trkpt lat="49.22764" lon="-0.47249">
        <ele>102</ele>
        <time>2012-08-16T15:47:31Z</time>
      </trkpt>
      <trkpt lat="49.22769" lon="-0.47245">
        <ele>101</ele>
        <time>2012-08-16T15:47:33Z</time>
      </trkpt>
      <trkpt lat="49.22774" lon="-0.47243">
        <ele>101</ele>
        <time>2012-08-16T15:47:35Z</time>
      </trkpt>
      <trkpt lat="49.22781" lon="-0.4724">
        <ele>101</ele>
        <time>2012-08-16T15:47:37Z</time>
      </trkpt>
      <trkpt lat="49.22787" lon="-0.47237">
        <ele>102</ele>
        <time>2012-08-16T15:47:39Z</time>
      </trkpt>
      <trkpt lat="49.22792" lon="-0.47233">
        <ele>102</ele>
        <time>2012-08-16T15:47:41Z</time>
      </trkpt>
      <trkpt lat="49.22799" lon="-0.47229">
        <ele>102</ele>
        <time>2012-08-16T15:47:43Z</time>
      </trkpt>
      <trkpt lat="49.22805" lon="-0.47224">
        <ele>102</ele>
        <time>2012-08-16T15:47:45Z</time>
      </trkpt>
      <trkpt lat="49.2281" lon="-0.47219">
        <ele>102</ele>
        <time>2012-08-16T15:47:47Z</time>
      </trkpt>
      <trkpt lat="49.22815" lon="-0.47215">
        <ele>102</ele>
        <time>2012-08-16T15:47:49Z</time>
      </trkpt>
      <trkpt lat="49.22822" lon="-0.4721">
        <ele>102</ele>
        <time>2012-08-16T15:47:51Z</time>
      </trkpt>
      <trkpt lat="49.22828" lon="-0.47205">
        <ele>102</ele>
        <time>2012-08-16T15:47:53Z</time>
      </trkpt>
      <trkpt lat="49.22835" lon="-0.47201">
        <ele>101</ele>
        <time>2012-08-16T15:47:55Z</time>
      </trkpt>
      <trkpt lat="49.2284" lon="-0.47198">
        <ele>101</ele>
        <time>2012-08-16T15:47:56Z</time>
      </trkpt>
      <trkpt lat="49.22845" lon="-0.47193">
        <ele>100</ele>
        <time>2012-08-16T15:47:58Z</time>
      </trkpt>
      <trkpt lat="49.22852" lon="-0.47186">
        <ele>99</ele>
        <time>2012-08-16T15:48:00Z</time>
      </trkpt>
      <trkpt lat="49.22859" lon="-0.47185">
        <ele>99</ele>
        <time>2012-08-16T15:48:02Z</time>
      </trkpt>
      <trkpt lat="49.22865" lon="-0.4718">
        <ele>100</ele>
        <time>2012-08-16T15:48:04Z</time>
      </trkpt>
      <trkpt lat="49.22872" lon="-0.47174">
        <ele>100</ele>
        <time>2012-08-16T15:48:06Z</time>
      </trkpt>
      <trkpt lat="49.22876" lon="-0.47171">
        <ele>101</ele>
        <time>2012-08-16T15:48:07Z</time>
      </trkpt>
      <trkpt lat="49.22881" lon="-0.4717">
        <ele>101</ele>
        <time>2012-08-16T15:48:08Z</time>
      </trkpt>
      <trkpt lat="49.22884" lon="-0.47164">
        <ele>101</ele>
        <time>2012-08-16T15:48:09Z</time>
      </trkpt>
      <trkpt lat="49.22892" lon="-0.47159">
        <ele>99</ele>
        <time>2012-08-16T15:48:11Z</time>
      </trkpt>
      <trkpt lat="49.22897" lon="-0.47153">
        <ele>98</ele>
        <time>2012-08-16T15:48:13Z</time>
      </trkpt>
      <trkpt lat="49.22904" lon="-0.47149">
        <ele>98</ele>
        <time>2012-08-16T15:48:15Z</time>
      </trkpt>
      <trkpt lat="49.22911" lon="-0.47143">
        <ele>98</ele>
        <time>2012-08-16T15:48:17Z</time>
      </trkpt>
      <trkpt lat="49.22916" lon="-0.4714">
        <ele>98</ele>
        <time>2012-08-16T15:48:18Z</time>
      </trkpt>
      <trkpt lat="49.22921" lon="-0.47137">
        <ele>98</ele>
        <time>2012-08-16T15:48:19Z</time>
      </trkpt>
      <trkpt lat="49.22925" lon="-0.47134">
        <ele>98</ele>
        <time>2012-08-16T15:48:20Z</time>
      </trkpt>
      <trkpt lat="49.22929" lon="-0.47131">
        <ele>98</ele>
        <time>2012-08-16T15:48:21Z</time>
      </trkpt>
      <trkpt lat="49.22934" lon="-0.47126">
        <ele>99</ele>
        <time>2012-08-16T15:48:22Z</time>
      </trkpt>
      <trkpt lat="49.22938" lon="-0.47123">
        <ele>98</ele>
        <time>2012-08-16T15:48:23Z</time>
      </trkpt>
      <trkpt lat="49.22944" lon="-0.47119">
        <ele>99</ele>
        <time>2012-08-16T15:48:24Z</time>
      </trkpt>
      <trkpt lat="49.22948" lon="-0.47116">
        <ele>99</ele>
        <time>2012-08-16T15:48:25Z</time>
      </trkpt>
      <trkpt lat="49.22953" lon="-0.47112">
        <ele>99</ele>
        <time>2012-08-16T15:48:26Z</time>
      </trkpt>
      <trkpt lat="49.22958" lon="-0.47108">
        <ele>99</ele>
        <time>2012-08-16T15:48:27Z</time>
      </trkpt>
      <trkpt lat="49.22964" lon="-0.47102">
        <ele>98</ele>
        <time>2012-08-16T15:48:29Z</time>
      </trkpt>
      <trkpt lat="49.2297" lon="-0.47099">
        <ele>98</ele>
        <time>2012-08-16T15:48:30Z</time>
      </trkpt>
      <trkpt lat="49.22975" lon="-0.47095">
        <ele>98</ele>
        <time>2012-08-16T15:48:31Z</time>
      </trkpt>
      <trkpt lat="49.2298" lon="-0.47092">
        <ele>99</ele>
        <time>2012-08-16T15:48:32Z</time>
      </trkpt>
      <trkpt lat="49.22987" lon="-0.47085">
        <ele>99</ele>
        <time>2012-08-16T15:48:34Z</time>
      </trkpt>
      <trkpt lat="49.22996" lon="-0.47079">
        <ele>99</ele>
        <time>2012-08-16T15:48:36Z</time>
      </trkpt>
      <trkpt lat="49.23004" lon="-0.47074">
        <ele>98</ele>
        <time>2012-08-16T15:48:38Z</time>
      </trkpt>
      <trkpt lat="49.23008" lon="-0.47071">
        <ele>98</ele>
        <time>2012-08-16T15:48:39Z</time>
      </trkpt>
      <trkpt lat="49.23012" lon="-0.47067">
        <ele>98</ele>
        <time>2012-08-16T15:48:40Z</time>
      </trkpt>
      <trkpt lat="49.23019" lon="-0.4706">
        <ele>97</ele>
        <time>2012-08-16T15:48:42Z</time>
      </trkpt>
      <trkpt lat="49.23028" lon="-0.47053">
        <ele>97</ele>
        <time>2012-08-16T15:48:44Z</time>
      </trkpt>
      <trkpt lat="49.23033" lon="-0.47049">
        <ele>97</ele>
        <time>2012-08-16T15:48:45Z</time>
      </trkpt>
      <trkpt lat="49.23043" lon="-0.47042">
        <ele>97</ele>
        <time>2012-08-16T15:48:47Z</time>
      </trkpt>
      <trkpt lat="49.23048" lon="-0.47038">
        <ele>97</ele>
        <time>2012-08-16T15:48:48Z</time>
      </trkpt>
      <trkpt lat="49.23052" lon="-0.47036">
        <ele>97</ele>
        <time>2012-08-16T15:48:49Z</time>
      </trkpt>
      <trkpt lat="49.23056" lon="-0.47033">
        <ele>97</ele>
        <time>2012-08-16T15:48:50Z</time>
      </trkpt>
      <trkpt lat="49.23064" lon="-0.47026">
        <ele>96</ele>
        <time>2012-08-16T15:48:52Z</time>
      </trkpt>
      <trkpt lat="49.23069" lon="-0.47023">
        <ele>97</ele>
        <time>2012-08-16T15:48:53Z</time>
      </trkpt>
      <trkpt lat="49.23074" lon="-0.47018">
        <ele>97</ele>
        <time>2012-08-16T15:48:54Z</time>
      </trkpt>
      <trkpt lat="49.23078" lon="-0.47015">
        <ele>97</ele>
        <time>2012-08-16T15:48:55Z</time>
      </trkpt>
      <trkpt lat="49.23083" lon="-0.47012">
        <ele>97</ele>
        <time>2012-08-16T15:48:56Z</time>
      </trkpt>
      <trkpt lat="49.23087" lon="-0.47009">
        <ele>97</ele>
        <time>2012-08-16T15:48:57Z</time>
      </trkpt>
      <trkpt lat="49.23092" lon="-0.47006">
        <ele>97</ele>
        <time>2012-08-16T15:48:58Z</time>
      </trkpt>
      <trkpt lat="49.23096" lon="-0.47003">
        <ele>97</ele>
        <time>2012-08-16T15:48:59Z</time>
      </trkpt>
      <trkpt lat="49.23105" lon="-0.46999">
        <ele>97</ele>
        <time>2012-08-16T15:49:01Z</time>
      </trkpt>
      <trkpt lat="49.23109" lon="-0.46997">
        <ele>98</ele>
        <time>2012-08-16T15:49:02Z</time>
      </trkpt>
      <trkpt lat="49.2312" lon="-0.4699">
        <ele>99</ele>
        <time>2012-08-16T15:49:04Z</time>
      </trkpt>
      <trkpt lat="49.23125" lon="-0.46982">
        <ele>98</ele>
        <time>2012-08-16T15:49:06Z</time>
      </trkpt>
      <trkpt lat="49.2313" lon="-0.46978">
        <ele>97</ele>
        <time>2012-08-16T15:49:07Z</time>
      </trkpt>
      <trkpt lat="49.23137" lon="-0.46972">
        <ele>96</ele>
        <time>2012-08-16T15:49:09Z</time>
      </trkpt>
      <trkpt lat="49.23141" lon="-0.46965">
        <ele>96</ele>
        <time>2012-08-16T15:49:11Z</time>
      </trkpt>
      <trkpt lat="49.23146" lon="-0.46963">
        <ele>97</ele>
        <time>2012-08-16T15:49:13Z</time>
      </trkpt>
      <trkpt lat="49.23149" lon="-0.4697">
        <ele>99</ele>
        <time>2012-08-16T15:50:38Z</time>
      </trkpt>
      <trkpt lat="49.23154" lon="-0.46981">
        <ele>98</ele>
        <time>2012-08-16T15:50:40Z</time>
      </trkpt>
      <trkpt lat="49.23159" lon="-0.46991">
        <ele>97</ele>
        <time>2012-08-16T15:50:42Z</time>
      </trkpt>
      <trkpt lat="49.23164" lon="-0.46998">
        <ele>97</ele>
        <time>2012-08-16T15:50:44Z</time>
      </trkpt>
      <trkpt lat="49.23168" lon="-0.47008">
        <ele>96</ele>
        <time>2012-08-16T15:50:46Z</time>
      </trkpt>
      <trkpt lat="49.23173" lon="-0.47018">
        <ele>96</ele>
        <time>2012-08-16T15:50:48Z</time>
      </trkpt>
      <trkpt lat="49.23177" lon="-0.47031">
        <ele>96</ele>
        <time>2012-08-16T15:50:50Z</time>
      </trkpt>
      <trkpt lat="49.2318" lon="-0.47037">
        <ele>96</ele>
        <time>2012-08-16T15:50:51Z</time>
      </trkpt>
      <trkpt lat="49.23185" lon="-0.47048">
        <ele>95</ele>
        <time>2012-08-16T15:50:53Z</time>
      </trkpt>
      <trkpt lat="49.23191" lon="-0.47057">
        <ele>94</ele>
        <time>2012-08-16T15:50:55Z</time>
      </trkpt>
      <trkpt lat="49.23197" lon="-0.47066">
        <ele>93</ele>
        <time>2012-08-16T15:50:57Z</time>
      </trkpt>
      <trkpt lat="49.23203" lon="-0.47076">
        <ele>93</ele>
        <time>2012-08-16T15:50:59Z</time>
      </trkpt>
      <trkpt lat="49.23208" lon="-0.47087">
        <ele>93</ele>
        <time>2012-08-16T15:51:01Z</time>
      </trkpt>
      <trkpt lat="49.23211" lon="-0.47093">
        <ele>93</ele>
        <time>2012-08-16T15:51:02Z</time>
      </trkpt>
      <trkpt lat="49.23213" lon="-0.471">
        <ele>93</ele>
        <time>2012-08-16T15:51:03Z</time>
      </trkpt>
      <trkpt lat="49.23216" lon="-0.47106">
        <ele>92</ele>
        <time>2012-08-16T15:51:04Z</time>
      </trkpt>
      <trkpt lat="49.23218" lon="-0.47113">
        <ele>92</ele>
        <time>2012-08-16T15:51:05Z</time>
      </trkpt>
      <trkpt lat="49.23222" lon="-0.47125">
        <ele>92</ele>
        <time>2012-08-16T15:51:07Z</time>
      </trkpt>
      <trkpt lat="49.23228" lon="-0.47134">
        <ele>92</ele>
        <time>2012-08-16T15:51:09Z</time>
      </trkpt>
      <trkpt lat="49.23231" lon="-0.47147">
        <ele>92</ele>
        <time>2012-08-16T15:51:11Z</time>
      </trkpt>
      <trkpt lat="49.23237" lon="-0.47155">
        <ele>93</ele>
        <time>2012-08-16T15:51:13Z</time>
      </trkpt>
      <trkpt lat="49.2324" lon="-0.47166">
        <ele>93</ele>
        <time>2012-08-16T15:51:15Z</time>
      </trkpt>
      <trkpt lat="49.23242" lon="-0.47172">
        <ele>92</ele>
        <time>2012-08-16T15:51:17Z</time>
      </trkpt>
      <trkpt lat="49.23245" lon="-0.47183">
        <ele>92</ele>
        <time>2012-08-16T15:51:19Z</time>
      </trkpt>
      <trkpt lat="49.23248" lon="-0.47193">
        <ele>91</ele>
        <time>2012-08-16T15:51:21Z</time>
      </trkpt>
      <trkpt lat="49.23254" lon="-0.472">
        <ele>92</ele>
        <time>2012-08-16T15:51:23Z</time>
      </trkpt>
      <trkpt lat="49.23257" lon="-0.47206">
        <ele>91</ele>
        <time>2012-08-16T15:51:24Z</time>
      </trkpt>
      <trkpt lat="49.23261" lon="-0.47212">
        <ele>91</ele>
        <time>2012-08-16T15:51:25Z</time>
      </trkpt>
      <trkpt lat="49.23264" lon="-0.47221">
        <ele>92</ele>
        <time>2012-08-16T15:51:26Z</time>
      </trkpt>
      <trkpt lat="49.23268" lon="-0.47227">
        <ele>92</ele>
        <time>2012-08-16T15:51:27Z</time>
      </trkpt>
      <trkpt lat="49.2327" lon="-0.47235">
        <ele>92</ele>
        <time>2012-08-16T15:51:28Z</time>
      </trkpt>
      <trkpt lat="49.23273" lon="-0.47242">
        <ele>93</ele>
        <time>2012-08-16T15:51:29Z</time>
      </trkpt>
      <trkpt lat="49.23276" lon="-0.47248">
        <ele>93</ele>
        <time>2012-08-16T15:51:30Z</time>
      </trkpt>
      <trkpt lat="49.23278" lon="-0.47256">
        <ele>93</ele>
        <time>2012-08-16T15:51:31Z</time>
      </trkpt>
      <trkpt lat="49.2328" lon="-0.47264">
        <ele>94</ele>
        <time>2012-08-16T15:51:32Z</time>
      </trkpt>
      <trkpt lat="49.23283" lon="-0.47272">
        <ele>94</ele>
        <time>2012-08-16T15:51:33Z</time>
      </trkpt>
      <trkpt lat="49.23287" lon="-0.47282">
        <ele>94</ele>
        <time>2012-08-16T15:51:35Z</time>
      </trkpt>
      <trkpt lat="49.23291" lon="-0.47294">
        <ele>94</ele>
        <time>2012-08-16T15:51:37Z</time>
      </trkpt>
      <trkpt lat="49.23295" lon="-0.47306">
        <ele>94</ele>
        <time>2012-08-16T15:51:39Z</time>
      </trkpt>
      <trkpt lat="49.23299" lon="-0.47316">
        <ele>95</ele>
        <time>2012-08-16T15:51:41Z</time>
      </trkpt>
      <trkpt lat="49.23305" lon="-0.47325">
        <ele>94</ele>
        <time>2012-08-16T15:51:43Z</time>
      </trkpt>
      <trkpt lat="49.2331" lon="-0.47334">
        <ele>96</ele>
        <time>2012-08-16T15:51:45Z</time>
      </trkpt>
      <trkpt lat="49.23315" lon="-0.47344">
        <ele>95</ele>
        <time>2012-08-16T15:51:47Z</time>
      </trkpt>
      <trkpt lat="49.23318" lon="-0.47355">
        <ele>96</ele>
        <time>2012-08-16T15:51:49Z</time>
      </trkpt>
      <trkpt lat="49.23323" lon="-0.47364">
        <ele>96</ele>
        <time>2012-08-16T15:51:51Z</time>
      </trkpt>
      <trkpt lat="49.23327" lon="-0.47374">
        <ele>96</ele>
        <time>2012-08-16T15:51:53Z</time>
      </trkpt>
      <trkpt lat="49.23331" lon="-0.47383">
        <ele>95</ele>
        <time>2012-08-16T15:51:55Z</time>
      </trkpt>
      <trkpt lat="49.23335" lon="-0.47391">
        <ele>95</ele>
        <time>2012-08-16T15:51:57Z</time>
      </trkpt>
      <trkpt lat="49.23339" lon="-0.47403">
        <ele>94</ele>
        <time>2012-08-16T15:51:59Z</time>
      </trkpt>
      <trkpt lat="49.23344" lon="-0.47411">
        <ele>94</ele>
        <time>2012-08-16T15:52:01Z</time>
      </trkpt>
      <trkpt lat="49.23349" lon="-0.4742">
        <ele>94</ele>
        <time>2012-08-16T15:52:03Z</time>
      </trkpt>
      <trkpt lat="49.2335" lon="-0.47429">
        <ele>93</ele>
        <time>2012-08-16T15:52:05Z</time>
      </trkpt>
      <trkpt lat="49.23353" lon="-0.4744">
        <ele>92</ele>
        <time>2012-08-16T15:52:07Z</time>
      </trkpt>
      <trkpt lat="49.23355" lon="-0.4745">
        <ele>92</ele>
        <time>2012-08-16T15:52:09Z</time>
      </trkpt>
      <trkpt lat="49.23355" lon="-0.47457">
        <ele>91</ele>
        <time>2012-08-16T15:52:10Z</time>
      </trkpt>
      <trkpt lat="49.2336" lon="-0.47465">
        <ele>91</ele>
        <time>2012-08-16T15:52:12Z</time>
      </trkpt>
      <trkpt lat="49.23364" lon="-0.47469">
        <ele>92</ele>
        <time>2012-08-16T15:52:13Z</time>
      </trkpt>
      <trkpt lat="49.23367" lon="-0.47481">
        <ele>91</ele>
        <time>2012-08-16T15:52:15Z</time>
      </trkpt>
      <trkpt lat="49.23371" lon="-0.47491">
        <ele>92</ele>
        <time>2012-08-16T15:52:17Z</time>
      </trkpt>
      <trkpt lat="49.23375" lon="-0.47502">
        <ele>92</ele>
        <time>2012-08-16T15:52:19Z</time>
      </trkpt>
      <trkpt lat="49.23378" lon="-0.4751">
        <ele>92</ele>
        <time>2012-08-16T15:52:21Z</time>
      </trkpt>
      <trkpt lat="49.23382" lon="-0.47519">
        <ele>92</ele>
        <time>2012-08-16T15:52:23Z</time>
      </trkpt>
      <trkpt lat="49.23385" lon="-0.47529">
        <ele>92</ele>
        <time>2012-08-16T15:52:25Z</time>
      </trkpt>
      <trkpt lat="49.2339" lon="-0.4754">
        <ele>92</ele>
        <time>2012-08-16T15:52:27Z</time>
      </trkpt>
      <trkpt lat="49.23392" lon="-0.47551">
        <ele>92</ele>
        <time>2012-08-16T15:52:29Z</time>
      </trkpt>
      <trkpt lat="49.23397" lon="-0.47559">
        <ele>92</ele>
        <time>2012-08-16T15:52:31Z</time>
      </trkpt>
      <trkpt lat="49.23402" lon="-0.47569">
        <ele>92</ele>
        <time>2012-08-16T15:52:33Z</time>
      </trkpt>
      <trkpt lat="49.23406" lon="-0.47576">
        <ele>92</ele>
        <time>2012-08-16T15:52:35Z</time>
      </trkpt>
      <trkpt lat="49.2341" lon="-0.47585">
        <ele>92</ele>
        <time>2012-08-16T15:52:37Z</time>
      </trkpt>
      <trkpt lat="49.23412" lon="-0.47594">
        <ele>93</ele>
        <time>2012-08-16T15:52:39Z</time>
      </trkpt>
      <trkpt lat="49.23416" lon="-0.47601">
        <ele>93</ele>
        <time>2012-08-16T15:52:41Z</time>
      </trkpt>
      <trkpt lat="49.23418" lon="-0.47609">
        <ele>92</ele>
        <time>2012-08-16T15:52:43Z</time>
      </trkpt>
      <trkpt lat="49.23422" lon="-0.47617">
        <ele>91</ele>
        <time>2012-08-16T15:52:45Z</time>
      </trkpt>
      <trkpt lat="49.23423" lon="-0.47626">
        <ele>93</ele>
        <time>2012-08-16T15:52:47Z</time>
      </trkpt>
      <trkpt lat="49.23426" lon="-0.47633">
        <ele>93</ele>
        <time>2012-08-16T15:52:49Z</time>
      </trkpt>
      <trkpt lat="49.23428" lon="-0.47643">
        <ele>93</ele>
        <time>2012-08-16T15:52:51Z</time>
      </trkpt>
      <trkpt lat="49.23432" lon="-0.4765">
        <ele>93</ele>
        <time>2012-08-16T15:52:53Z</time>
      </trkpt>
      <trkpt lat="49.23433" lon="-0.47657">
        <ele>94</ele>
        <time>2012-08-16T15:52:55Z</time>
      </trkpt>
      <trkpt lat="49.23446" lon="-0.4768">
        <ele>96</ele>
        <time>2012-08-16T15:53:00Z</time>
      </trkpt>
      <trkpt lat="49.23449" lon="-0.47688">
        <ele>96</ele>
        <time>2012-08-16T15:53:02Z</time>
      </trkpt>
      <trkpt lat="49.23449" lon="-0.47698">
        <ele>96</ele>
        <time>2012-08-16T15:53:04Z</time>
      </trkpt>
      <trkpt lat="49.23454" lon="-0.47705">
        <ele>96</ele>
        <time>2012-08-16T15:53:06Z</time>
      </trkpt>
      <trkpt lat="49.23457" lon="-0.47712">
        <ele>96</ele>
        <time>2012-08-16T15:53:08Z</time>
      </trkpt>
      <trkpt lat="49.2346" lon="-0.47722">
        <ele>96</ele>
        <time>2012-08-16T15:53:10Z</time>
      </trkpt>
      <trkpt lat="49.23467" lon="-0.47754">
        <ele>95</ele>
        <time>2012-08-16T15:53:17Z</time>
      </trkpt>
      <trkpt lat="49.2347" lon="-0.47764">
        <ele>95</ele>
        <time>2012-08-16T15:53:19Z</time>
      </trkpt>
      <trkpt lat="49.23474" lon="-0.47772">
        <ele>95</ele>
        <time>2012-08-16T15:53:21Z</time>
      </trkpt>
      <trkpt lat="49.23477" lon="-0.47781">
        <ele>96</ele>
        <time>2012-08-16T15:53:23Z</time>
      </trkpt>
      <trkpt lat="49.23478" lon="-0.4779">
        <ele>96</ele>
        <time>2012-08-16T15:53:25Z</time>
      </trkpt>
      <trkpt lat="49.2348" lon="-0.47799">
        <ele>96</ele>
        <time>2012-08-16T15:53:27Z</time>
      </trkpt>
      <trkpt lat="49.23482" lon="-0.47809">
        <ele>96</ele>
        <time>2012-08-16T15:53:29Z</time>
      </trkpt>
      <trkpt lat="49.23485" lon="-0.47819">
        <ele>96</ele>
        <time>2012-08-16T15:53:31Z</time>
      </trkpt>
      <trkpt lat="49.23488" lon="-0.47831">
        <ele>96</ele>
        <time>2012-08-16T15:53:33Z</time>
      </trkpt>
      <trkpt lat="49.23493" lon="-0.47854">
        <ele>96</ele>
        <time>2012-08-16T15:53:37Z</time>
      </trkpt>
      <trkpt lat="49.23496" lon="-0.47861">
        <ele>96</ele>
        <time>2012-08-16T15:53:39Z</time>
      </trkpt>
      <trkpt lat="49.23497" lon="-0.47873">
        <ele>95</ele>
        <time>2012-08-16T15:53:41Z</time>
      </trkpt>
      <trkpt lat="49.235" lon="-0.47883">
        <ele>95</ele>
        <time>2012-08-16T15:53:43Z</time>
      </trkpt>
      <trkpt lat="49.23502" lon="-0.47891">
        <ele>96</ele>
        <time>2012-08-16T15:53:45Z</time>
      </trkpt>
      <trkpt lat="49.23505" lon="-0.479">
        <ele>96</ele>
        <time>2012-08-16T15:53:47Z</time>
      </trkpt>
      <trkpt lat="49.23507" lon="-0.47908">
        <ele>95</ele>
        <time>2012-08-16T15:53:49Z</time>
      </trkpt>
      <trkpt lat="49.23509" lon="-0.47919">
        <ele>94</ele>
        <time>2012-08-16T15:53:51Z</time>
      </trkpt>
      <trkpt lat="49.23511" lon="-0.4793">
        <ele>94</ele>
        <time>2012-08-16T15:53:53Z</time>
      </trkpt>
      <trkpt lat="49.23515" lon="-0.4794">
        <ele>94</ele>
        <time>2012-08-16T15:53:55Z</time>
      </trkpt>
      <trkpt lat="49.23517" lon="-0.47947">
        <ele>94</ele>
        <time>2012-08-16T15:53:56Z</time>
      </trkpt>
      <trkpt lat="49.23519" lon="-0.47954">
        <ele>94</ele>
        <time>2012-08-16T15:53:57Z</time>
      </trkpt>
      <trkpt lat="49.23523" lon="-0.47964">
        <ele>94</ele>
        <time>2012-08-16T15:53:59Z</time>
      </trkpt>
      <trkpt lat="49.23525" lon="-0.4797">
        <ele>94</ele>
        <time>2012-08-16T15:54:00Z</time>
      </trkpt>
      <trkpt lat="49.23529" lon="-0.47979">
        <ele>94</ele>
        <time>2012-08-16T15:54:02Z</time>
      </trkpt>
      <trkpt lat="49.23532" lon="-0.47991">
        <ele>94</ele>
        <time>2012-08-16T15:54:04Z</time>
      </trkpt>
      <trkpt lat="49.23535" lon="-0.48">
        <ele>95</ele>
        <time>2012-08-16T15:54:06Z</time>
      </trkpt>
      <trkpt lat="49.23538" lon="-0.4801">
        <ele>94</ele>
        <time>2012-08-16T15:54:08Z</time>
      </trkpt>
      <trkpt lat="49.2354" lon="-0.48021">
        <ele>94</ele>
        <time>2012-08-16T15:54:10Z</time>
      </trkpt>
      <trkpt lat="49.23544" lon="-0.48031">
        <ele>94</ele>
        <time>2012-08-16T15:54:12Z</time>
      </trkpt>
      <trkpt lat="49.23545" lon="-0.48038">
        <ele>94</ele>
        <time>2012-08-16T15:54:13Z</time>
      </trkpt>
      <trkpt lat="49.23547" lon="-0.48045">
        <ele>94</ele>
        <time>2012-08-16T15:54:14Z</time>
      </trkpt>
      <trkpt lat="49.2355" lon="-0.48057">
        <ele>95</ele>
        <time>2012-08-16T15:54:16Z</time>
      </trkpt>
      <trkpt lat="49.23551" lon="-0.48069">
        <ele>95</ele>
        <time>2012-08-16T15:54:18Z</time>
      </trkpt>
      <trkpt lat="49.23554" lon="-0.48079">
        <ele>94</ele>
        <time>2012-08-16T15:54:20Z</time>
      </trkpt>
      <trkpt lat="49.23558" lon="-0.4809">
        <ele>93</ele>
        <time>2012-08-16T15:54:22Z</time>
      </trkpt>
      <trkpt lat="49.23561" lon="-0.481">
        <ele>93</ele>
        <time>2012-08-16T15:54:24Z</time>
      </trkpt>
      <trkpt lat="49.23564" lon="-0.4811">
        <ele>93</ele>
        <time>2012-08-16T15:54:26Z</time>
      </trkpt>
      <trkpt lat="49.23566" lon="-0.48122">
        <ele>94</ele>
        <time>2012-08-16T15:54:28Z</time>
      </trkpt>
      <trkpt lat="49.23567" lon="-0.4813">
        <ele>94</ele>
        <time>2012-08-16T15:54:29Z</time>
      </trkpt>
      <trkpt lat="49.2357" lon="-0.48141">
        <ele>93</ele>
        <time>2012-08-16T15:54:31Z</time>
      </trkpt>
      <trkpt lat="49.23573" lon="-0.48153">
        <ele>93</ele>
        <time>2012-08-16T15:54:33Z</time>
      </trkpt>
      <trkpt lat="49.23574" lon="-0.48159">
        <ele>93</ele>
        <time>2012-08-16T15:54:34Z</time>
      </trkpt>
      <trkpt lat="49.23576" lon="-0.48169">
        <ele>93</ele>
        <time>2012-08-16T15:54:36Z</time>
      </trkpt>
      <trkpt lat="49.23578" lon="-0.48183">
        <ele>94</ele>
        <time>2012-08-16T15:54:38Z</time>
      </trkpt>
      <trkpt lat="49.2358" lon="-0.48194">
        <ele>93</ele>
        <time>2012-08-16T15:54:40Z</time>
      </trkpt>
      <trkpt lat="49.23582" lon="-0.48207">
        <ele>94</ele>
        <time>2012-08-16T15:54:42Z</time>
      </trkpt>
      <trkpt lat="49.23585" lon="-0.4822">
        <ele>93</ele>
        <time>2012-08-16T15:54:44Z</time>
      </trkpt>
      <trkpt lat="49.23587" lon="-0.48232">
        <ele>93</ele>
        <time>2012-08-16T15:54:46Z</time>
      </trkpt>
      <trkpt lat="49.23588" lon="-0.4824">
        <ele>93</ele>
        <time>2012-08-16T15:54:47Z</time>
      </trkpt>
      <trkpt lat="49.2359" lon="-0.48252">
        <ele>94</ele>
        <time>2012-08-16T15:54:49Z</time>
      </trkpt>
      <trkpt lat="49.23594" lon="-0.48263">
        <ele>92</ele>
        <time>2012-08-16T15:54:51Z</time>
      </trkpt>
      <trkpt lat="49.23596" lon="-0.48274">
        <ele>92</ele>
        <time>2012-08-16T15:54:53Z</time>
      </trkpt>
      <trkpt lat="49.23598" lon="-0.48284">
        <ele>93</ele>
        <time>2012-08-16T15:54:55Z</time>
      </trkpt>
      <trkpt lat="49.23604" lon="-0.48282">
        <ele>91</ele>
        <time>2012-08-16T15:55:01Z</time>
      </trkpt>
      <trkpt lat="49.23608" lon="-0.48276">
        <ele>91</ele>
        <time>2012-08-16T15:55:03Z</time>
      </trkpt>
      <trkpt lat="49.23615" lon="-0.48268">
        <ele>89</ele>
        <time>2012-08-16T15:55:05Z</time>
      </trkpt>
      <trkpt lat="49.23618" lon="-0.48265">
        <ele>89</ele>
        <time>2012-08-16T15:55:06Z</time>
      </trkpt>
      <trkpt lat="49.23622" lon="-0.4826">
        <ele>89</ele>
        <time>2012-08-16T15:55:07Z</time>
      </trkpt>
      <trkpt lat="49.23628" lon="-0.48252">
        <ele>89</ele>
        <time>2012-08-16T15:55:09Z</time>
      </trkpt>
      <trkpt lat="49.23633" lon="-0.48245">
        <ele>89</ele>
        <time>2012-08-16T15:55:11Z</time>
      </trkpt>
      <trkpt lat="49.2364" lon="-0.48238">
        <ele>89</ele>
        <time>2012-08-16T15:55:13Z</time>
      </trkpt>
      <trkpt lat="49.23645" lon="-0.48231">
        <ele>89</ele>
        <time>2012-08-16T15:55:15Z</time>
      </trkpt>
      <trkpt lat="49.2365" lon="-0.48227">
        <ele>89</ele>
        <time>2012-08-16T15:55:16Z</time>
      </trkpt>
      <trkpt lat="49.23654" lon="-0.48223">
        <ele>88</ele>
        <time>2012-08-16T15:55:17Z</time>
      </trkpt>
      <trkpt lat="49.23658" lon="-0.48219">
        <ele>88</ele>
        <time>2012-08-16T15:55:18Z</time>
      </trkpt>
      <trkpt lat="49.23662" lon="-0.48213">
        <ele>89</ele>
        <time>2012-08-16T15:55:20Z</time>
      </trkpt>
      <trkpt lat="49.23669" lon="-0.48207">
        <ele>89</ele>
        <time>2012-08-16T15:55:22Z</time>
      </trkpt>
      <trkpt lat="49.23673" lon="-0.48199">
        <ele>89</ele>
        <time>2012-08-16T15:55:24Z</time>
      </trkpt>
      <trkpt lat="49.23681" lon="-0.48193">
        <ele>90</ele>
        <time>2012-08-16T15:55:26Z</time>
      </trkpt>
      <trkpt lat="49.23687" lon="-0.48186">
        <ele>90</ele>
        <time>2012-08-16T15:55:28Z</time>
      </trkpt>
      <trkpt lat="49.23692" lon="-0.48178">
        <ele>90</ele>
        <time>2012-08-16T15:55:30Z</time>
      </trkpt>
      <trkpt lat="49.23698" lon="-0.48172">
        <ele>90</ele>
        <time>2012-08-16T15:55:32Z</time>
      </trkpt>
      <trkpt lat="49.23702" lon="-0.48168">
        <ele>90</ele>
        <time>2012-08-16T15:55:33Z</time>
      </trkpt>
      <trkpt lat="49.23713" lon="-0.48157">
        <ele>91</ele>
        <time>2012-08-16T15:55:37Z</time>
      </trkpt>
      <trkpt lat="49.23717" lon="-0.48153">
        <ele>90</ele>
        <time>2012-08-16T15:55:38Z</time>
      </trkpt>
      <trkpt lat="49.23723" lon="-0.48146">
        <ele>90</ele>
        <time>2012-08-16T15:55:40Z</time>
      </trkpt>
      <trkpt lat="49.23728" lon="-0.48144">
        <ele>91</ele>
        <time>2012-08-16T15:55:42Z</time>
      </trkpt>
      <trkpt lat="49.23734" lon="-0.48139">
        <ele>91</ele>
        <time>2012-08-16T15:55:44Z</time>
      </trkpt>
      <trkpt lat="49.2374" lon="-0.4813">
        <ele>91</ele>
        <time>2012-08-16T15:55:46Z</time>
      </trkpt>
      <trkpt lat="49.23745" lon="-0.48123">
        <ele>91</ele>
        <time>2012-08-16T15:55:48Z</time>
      </trkpt>
      <trkpt lat="49.23751" lon="-0.48116">
        <ele>91</ele>
        <time>2012-08-16T15:55:50Z</time>
      </trkpt>
      <trkpt lat="49.2376" lon="-0.48108">
        <ele>92</ele>
        <time>2012-08-16T15:55:52Z</time>
      </trkpt>
      <trkpt lat="49.23764" lon="-0.48102">
        <ele>92</ele>
        <time>2012-08-16T15:55:54Z</time>
      </trkpt>
      <trkpt lat="49.23771" lon="-0.48095">
        <ele>91</ele>
        <time>2012-08-16T15:55:56Z</time>
      </trkpt>
      <trkpt lat="49.23779" lon="-0.48088">
        <ele>92</ele>
        <time>2012-08-16T15:55:58Z</time>
      </trkpt>
      <trkpt lat="49.23782" lon="-0.48082">
        <ele>92</ele>
        <time>2012-08-16T15:55:59Z</time>
      </trkpt>
      <trkpt lat="49.23786" lon="-0.48075">
        <ele>92</ele>
        <time>2012-08-16T15:56:01Z</time>
      </trkpt>
      <trkpt lat="49.23793" lon="-0.48069">
        <ele>91</ele>
        <time>2012-08-16T15:56:03Z</time>
      </trkpt>
      <trkpt lat="49.23799" lon="-0.48061">
        <ele>91</ele>
        <time>2012-08-16T15:56:05Z</time>
      </trkpt>
      <trkpt lat="49.23803" lon="-0.48057">
        <ele>90</ele>
        <time>2012-08-16T15:56:06Z</time>
      </trkpt>
      <trkpt lat="49.23807" lon="-0.48053">
        <ele>90</ele>
        <time>2012-08-16T15:56:07Z</time>
      </trkpt>
      <trkpt lat="49.23813" lon="-0.48047">
        <ele>91</ele>
        <time>2012-08-16T15:56:09Z</time>
      </trkpt>
      <trkpt lat="49.23821" lon="-0.48041">
        <ele>91</ele>
        <time>2012-08-16T15:56:11Z</time>
      </trkpt>
      <trkpt lat="49.23829" lon="-0.48032">
        <ele>91</ele>
        <time>2012-08-16T15:56:13Z</time>
      </trkpt>
      <trkpt lat="49.23834" lon="-0.48028">
        <ele>91</ele>
        <time>2012-08-16T15:56:14Z</time>
      </trkpt>
      <trkpt lat="49.23849" lon="-0.48013">
        <ele>91</ele>
        <time>2012-08-16T15:56:18Z</time>
      </trkpt>
      <trkpt lat="49.23853" lon="-0.48009">
        <ele>91</ele>
        <time>2012-08-16T15:56:19Z</time>
      </trkpt>
      <trkpt lat="49.23858" lon="-0.48005">
        <ele>92</ele>
        <time>2012-08-16T15:56:20Z</time>
      </trkpt>
      <trkpt lat="49.23861" lon="-0.48">
        <ele>92</ele>
        <time>2012-08-16T15:56:21Z</time>
      </trkpt>
      <trkpt lat="49.23865" lon="-0.47994">
        <ele>92</ele>
        <time>2012-08-16T15:56:22Z</time>
      </trkpt>
      <trkpt lat="49.23873" lon="-0.47987">
        <ele>92</ele>
        <time>2012-08-16T15:56:24Z</time>
      </trkpt>
      <trkpt lat="49.23878" lon="-0.47982">
        <ele>92</ele>
        <time>2012-08-16T15:56:25Z</time>
      </trkpt>
      <trkpt lat="49.23883" lon="-0.47978">
        <ele>92</ele>
        <time>2012-08-16T15:56:26Z</time>
      </trkpt>
      <trkpt lat="49.23887" lon="-0.47974">
        <ele>92</ele>
        <time>2012-08-16T15:56:27Z</time>
      </trkpt>
      <trkpt lat="49.23894" lon="-0.47969">
        <ele>92</ele>
        <time>2012-08-16T15:56:28Z</time>
      </trkpt>
      <trkpt lat="49.23898" lon="-0.47965">
        <ele>92</ele>
        <time>2012-08-16T15:56:29Z</time>
      </trkpt>
      <trkpt lat="49.23905" lon="-0.47956">
        <ele>92</ele>
        <time>2012-08-16T15:56:31Z</time>
      </trkpt>
      <trkpt lat="49.2391" lon="-0.47951">
        <ele>92</ele>
        <time>2012-08-16T15:56:32Z</time>
      </trkpt>
      <trkpt lat="49.23914" lon="-0.47948">
        <ele>92</ele>
        <time>2012-08-16T15:56:33Z</time>
      </trkpt>
      <trkpt lat="49.23918" lon="-0.47944">
        <ele>92</ele>
        <time>2012-08-16T15:56:34Z</time>
      </trkpt>
      <trkpt lat="49.23922" lon="-0.47938">
        <ele>92</ele>
        <time>2012-08-16T15:56:35Z</time>
      </trkpt>
      <trkpt lat="49.23942" lon="-0.47919">
        <ele>93</ele>
        <time>2012-08-16T15:56:39Z</time>
      </trkpt>
      <trkpt lat="49.23947" lon="-0.47912">
        <ele>93</ele>
        <time>2012-08-16T15:56:40Z</time>
      </trkpt>
      <trkpt lat="49.2395" lon="-0.47907">
        <ele>92</ele>
        <time>2012-08-16T15:56:41Z</time>
      </trkpt>
      <trkpt lat="49.23957" lon="-0.47899">
        <ele>92</ele>
        <time>2012-08-16T15:56:43Z</time>
      </trkpt>
      <trkpt lat="49.23964" lon="-0.47891">
        <ele>91</ele>
        <time>2012-08-16T15:56:45Z</time>
      </trkpt>
      <trkpt lat="49.23969" lon="-0.47886">
        <ele>91</ele>
        <time>2012-08-16T15:56:46Z</time>
      </trkpt>
      <trkpt lat="49.23978" lon="-0.47878">
        <ele>91</ele>
        <time>2012-08-16T15:56:48Z</time>
      </trkpt>
      <trkpt lat="49.23991" lon="-0.47866">
        <ele>91</ele>
        <time>2012-08-16T15:56:51Z</time>
      </trkpt>
      <trkpt lat="49.23995" lon="-0.47861">
        <ele>91</ele>
        <time>2012-08-16T15:56:52Z</time>
      </trkpt>
      <trkpt lat="49.24002" lon="-0.47853">
        <ele>91</ele>
        <time>2012-08-16T15:56:54Z</time>
      </trkpt>
      <trkpt lat="49.24006" lon="-0.47849">
        <ele>91</ele>
        <time>2012-08-16T15:56:55Z</time>
      </trkpt>
      <trkpt lat="49.2401" lon="-0.47845">
        <ele>92</ele>
        <time>2012-08-16T15:56:56Z</time>
      </trkpt>
      <trkpt lat="49.24014" lon="-0.4784">
        <ele>92</ele>
        <time>2012-08-16T15:56:57Z</time>
      </trkpt>
      <trkpt lat="49.24019" lon="-0.47835">
        <ele>92</ele>
        <time>2012-08-16T15:56:58Z</time>
      </trkpt>
      <trkpt lat="49.24023" lon="-0.47831">
        <ele>92</ele>
        <time>2012-08-16T15:56:59Z</time>
      </trkpt>
      <trkpt lat="49.24028" lon="-0.47825">
        <ele>93</ele>
        <time>2012-08-16T15:57:00Z</time>
      </trkpt>
      <trkpt lat="49.24034" lon="-0.47818">
        <ele>91</ele>
        <time>2012-08-16T15:57:02Z</time>
      </trkpt>
      <trkpt lat="49.24039" lon="-0.47809">
        <ele>88</ele>
        <time>2012-08-16T15:57:04Z</time>
      </trkpt>
      <trkpt lat="49.24043" lon="-0.47802">
        <ele>86</ele>
        <time>2012-08-16T15:57:06Z</time>
      </trkpt>
      <trkpt lat="49.24049" lon="-0.47803">
        <ele>86</ele>
        <time>2012-08-16T15:57:08Z</time>
      </trkpt>
      <trkpt lat="49.24053" lon="-0.47807">
        <ele>86</ele>
        <time>2012-08-16T15:57:10Z</time>
      </trkpt>
      <trkpt lat="49.24058" lon="-0.47812">
        <ele>86</ele>
        <time>2012-08-16T15:57:12Z</time>
      </trkpt>
      <trkpt lat="49.24063" lon="-0.47818">
        <ele>86</ele>
        <time>2012-08-16T15:57:13Z</time>
      </trkpt>
      <trkpt lat="49.24068" lon="-0.47828">
        <ele>86</ele>
        <time>2012-08-16T15:57:15Z</time>
      </trkpt>
      <trkpt lat="49.24074" lon="-0.47839">
        <ele>86</ele>
        <time>2012-08-16T15:57:17Z</time>
      </trkpt>
      <trkpt lat="49.24077" lon="-0.47845">
        <ele>86</ele>
        <time>2012-08-16T15:57:18Z</time>
      </trkpt>
      <trkpt lat="49.24081" lon="-0.47849">
        <ele>86</ele>
        <time>2012-08-16T15:57:19Z</time>
      </trkpt>
      <trkpt lat="49.24088" lon="-0.47858">
        <ele>86</ele>
        <time>2012-08-16T15:57:21Z</time>
      </trkpt>
      <trkpt lat="49.24094" lon="-0.47867">
        <ele>87</ele>
        <time>2012-08-16T15:57:23Z</time>
      </trkpt>
      <trkpt lat="49.24098" lon="-0.47874">
        <ele>87</ele>
        <time>2012-08-16T15:57:25Z</time>
      </trkpt>
      <trkpt lat="49.24101" lon="-0.47882">
        <ele>87</ele>
        <time>2012-08-16T15:57:27Z</time>
      </trkpt>
      <trkpt lat="49.24105" lon="-0.47886">
        <ele>86</ele>
        <time>2012-08-16T15:57:31Z</time>
      </trkpt>
      <trkpt lat="49.24107" lon="-0.47894">
        <ele>85</ele>
        <time>2012-08-16T15:58:21Z</time>
      </trkpt>
      <trkpt lat="49.2411" lon="-0.479">
        <ele>84</ele>
        <time>2012-08-16T15:58:24Z</time>
      </trkpt>
      <trkpt lat="49.24114" lon="-0.47907">
        <ele>84</ele>
        <time>2012-08-16T15:58:27Z</time>
      </trkpt>
      <trkpt lat="49.24117" lon="-0.47915">
        <ele>84</ele>
        <time>2012-08-16T15:58:29Z</time>
      </trkpt>
      <trkpt lat="49.24121" lon="-0.47923">
        <ele>84</ele>
        <time>2012-08-16T15:58:32Z</time>
      </trkpt>
      <trkpt lat="49.24123" lon="-0.4793">
        <ele>85</ele>
        <time>2012-08-16T15:58:33Z</time>
      </trkpt>
      <trkpt lat="49.24126" lon="-0.47938">
        <ele>84</ele>
        <time>2012-08-16T15:58:35Z</time>
      </trkpt>
      <trkpt lat="49.2413" lon="-0.47948">
        <ele>85</ele>
        <time>2012-08-16T15:58:37Z</time>
      </trkpt>
      <trkpt lat="49.24134" lon="-0.47956">
        <ele>85</ele>
        <time>2012-08-16T15:58:40Z</time>
      </trkpt>
      <trkpt lat="49.24205" lon="-0.48145">
        <ele>90</ele>
        <time>2012-08-16T15:59:31Z</time>
      </trkpt>
      <trkpt lat="49.24208" lon="-0.48154">
        <ele>91</ele>
        <time>2012-08-16T15:59:34Z</time>
      </trkpt>
      <trkpt lat="49.24211" lon="-0.48163">
        <ele>89</ele>
        <time>2012-08-16T15:59:37Z</time>
      </trkpt>
      <trkpt lat="49.24212" lon="-0.48172">
        <ele>89</ele>
        <time>2012-08-16T15:59:39Z</time>
      </trkpt>
      <trkpt lat="49.24216" lon="-0.48177">
        <ele>89</ele>
        <time>2012-08-16T15:59:41Z</time>
      </trkpt>
      <trkpt lat="49.2422" lon="-0.48184">
        <ele>89</ele>
        <time>2012-08-16T15:59:43Z</time>
      </trkpt>
      <trkpt lat="49.24221" lon="-0.4819">
        <ele>90</ele>
        <time>2012-08-16T15:59:45Z</time>
      </trkpt>
      <trkpt lat="49.24263" lon="-0.48289">
        <ele>92</ele>
        <time>2012-08-16T16:00:03Z</time>
      </trkpt>
      <trkpt lat="49.24268" lon="-0.48298">
        <ele>92</ele>
        <time>2012-08-16T16:00:05Z</time>
      </trkpt>
      <trkpt lat="49.2427" lon="-0.48305">
        <ele>91</ele>
        <time>2012-08-16T16:00:06Z</time>
      </trkpt>
      <trkpt lat="49.24273" lon="-0.48311">
        <ele>90</ele>
        <time>2012-08-16T16:00:07Z</time>
      </trkpt>
      <trkpt lat="49.24277" lon="-0.48321">
        <ele>91</ele>
        <time>2012-08-16T16:00:09Z</time>
      </trkpt>
      <trkpt lat="49.24282" lon="-0.48332">
        <ele>91</ele>
        <time>2012-08-16T16:00:11Z</time>
      </trkpt>
      <trkpt lat="49.24301" lon="-0.4837">
        <ele>92</ele>
        <time>2012-08-16T16:00:19Z</time>
      </trkpt>
      <trkpt lat="49.24304" lon="-0.48383">
        <ele>91</ele>
        <time>2012-08-16T16:00:21Z</time>
      </trkpt>
      <trkpt lat="49.24307" lon="-0.48389">
        <ele>91</ele>
        <time>2012-08-16T16:00:22Z</time>
      </trkpt>
      <trkpt lat="49.24312" lon="-0.484">
        <ele>91</ele>
        <time>2012-08-16T16:00:24Z</time>
      </trkpt>
      <trkpt lat="49.24356" lon="-0.48488">
        <ele>90</ele>
        <time>2012-08-16T16:00:43Z</time>
      </trkpt>
      <trkpt lat="49.2436" lon="-0.48496">
        <ele>90</ele>
        <time>2012-08-16T16:00:45Z</time>
      </trkpt>
      <trkpt lat="49.24365" lon="-0.48506">
        <ele>91</ele>
        <time>2012-08-16T16:00:47Z</time>
      </trkpt>
      <trkpt lat="49.2437" lon="-0.48514">
        <ele>92</ele>
        <time>2012-08-16T16:00:49Z</time>
      </trkpt>
      <trkpt lat="49.24374" lon="-0.48523">
        <ele>91</ele>
        <time>2012-08-16T16:00:51Z</time>
      </trkpt>
      <trkpt lat="49.24378" lon="-0.48531">
        <ele>92</ele>
        <time>2012-08-16T16:00:53Z</time>
      </trkpt>
      <trkpt lat="49.24382" lon="-0.4854">
        <ele>93</ele>
        <time>2012-08-16T16:00:55Z</time>
      </trkpt>
      <trkpt lat="49.24386" lon="-0.48549">
        <ele>93</ele>
        <time>2012-08-16T16:00:57Z</time>
      </trkpt>
      <trkpt lat="49.24389" lon="-0.48553">
        <ele>92</ele>
        <time>2012-08-16T16:01:00Z</time>
      </trkpt>
      <trkpt lat="49.24395" lon="-0.48554">
        <ele>93</ele>
        <time>2012-08-16T16:01:05Z</time>
      </trkpt>
      <trkpt lat="49.24399" lon="-0.48552">
        <ele>92</ele>
        <time>2012-08-16T16:01:07Z</time>
      </trkpt>
      <trkpt lat="49.24403" lon="-0.48549">
        <ele>91</ele>
        <time>2012-08-16T16:01:09Z</time>
      </trkpt>
      <trkpt lat="49.24409" lon="-0.48548">
        <ele>90</ele>
        <time>2012-08-16T16:01:12Z</time>
      </trkpt>
      <trkpt lat="49.24416" lon="-0.48547">
        <ele>88</ele>
        <time>2012-08-16T16:01:15Z</time>
      </trkpt>
      <trkpt lat="49.24421" lon="-0.48546">
        <ele>88</ele>
        <time>2012-08-16T16:01:17Z</time>
      </trkpt>
      <trkpt lat="49.24425" lon="-0.48544">
        <ele>87</ele>
        <time>2012-08-16T16:01:19Z</time>
      </trkpt>
      <trkpt lat="49.2443" lon="-0.48542">
        <ele>88</ele>
        <time>2012-08-16T16:01:21Z</time>
      </trkpt>
      <trkpt lat="49.24436" lon="-0.48539">
        <ele>88</ele>
        <time>2012-08-16T16:01:24Z</time>
      </trkpt>
      <trkpt lat="49.24443" lon="-0.48538">
        <ele>87</ele>
        <time>2012-08-16T16:01:26Z</time>
      </trkpt>
      <trkpt lat="49.24449" lon="-0.4854">
        <ele>86</ele>
        <time>2012-08-16T16:01:28Z</time>
      </trkpt>
      <trkpt lat="49.24454" lon="-0.48539">
        <ele>85</ele>
        <time>2012-08-16T16:01:30Z</time>
      </trkpt>
      <trkpt lat="49.2446" lon="-0.48538">
        <ele>86</ele>
        <time>2012-08-16T16:01:32Z</time>
      </trkpt>
      <trkpt lat="49.24465" lon="-0.48536">
        <ele>86</ele>
        <time>2012-08-16T16:01:34Z</time>
      </trkpt>
      <trkpt lat="49.24471" lon="-0.48536">
        <ele>86</ele>
        <time>2012-08-16T16:01:36Z</time>
      </trkpt>
      <trkpt lat="49.24478" lon="-0.48535">
        <ele>87</ele>
        <time>2012-08-16T16:01:39Z</time>
      </trkpt>
      <trkpt lat="49.24484" lon="-0.48534">
        <ele>89</ele>
        <time>2012-08-16T16:01:41Z</time>
      </trkpt>
      <trkpt lat="49.2449" lon="-0.48534">
        <ele>90</ele>
        <time>2012-08-16T16:01:43Z</time>
      </trkpt>
      <trkpt lat="49.24496" lon="-0.48533">
        <ele>89</ele>
        <time>2012-08-16T16:01:45Z</time>
      </trkpt>
      <trkpt lat="49.24502" lon="-0.48529">
        <ele>88</ele>
        <time>2012-08-16T16:01:47Z</time>
      </trkpt>
      <trkpt lat="49.24507" lon="-0.48527">
        <ele>88</ele>
        <time>2012-08-16T16:01:49Z</time>
      </trkpt>
      <trkpt lat="49.24512" lon="-0.48525">
        <ele>87</ele>
        <time>2012-08-16T16:01:51Z</time>
      </trkpt>
      <trkpt lat="49.24516" lon="-0.48524">
        <ele>87</ele>
        <time>2012-08-16T16:01:53Z</time>
      </trkpt>
      <trkpt lat="49.24523" lon="-0.48523">
        <ele>88</ele>
        <time>2012-08-16T16:01:55Z</time>
      </trkpt>
      <trkpt lat="49.24529" lon="-0.48523">
        <ele>88</ele>
        <time>2012-08-16T16:01:57Z</time>
      </trkpt>
      <trkpt lat="49.24536" lon="-0.48522">
        <ele>88</ele>
        <time>2012-08-16T16:01:59Z</time>
      </trkpt>
      <trkpt lat="49.24543" lon="-0.4852">
        <ele>88</ele>
        <time>2012-08-16T16:02:01Z</time>
      </trkpt>
      <trkpt lat="49.24549" lon="-0.48518">
        <ele>87</ele>
        <time>2012-08-16T16:02:03Z</time>
      </trkpt>
      <trkpt lat="49.24554" lon="-0.48518">
        <ele>86</ele>
        <time>2012-08-16T16:02:05Z</time>
      </trkpt>
      <trkpt lat="49.24561" lon="-0.48515">
        <ele>86</ele>
        <time>2012-08-16T16:02:07Z</time>
      </trkpt>
      <trkpt lat="49.24566" lon="-0.48513">
        <ele>86</ele>
        <time>2012-08-16T16:02:09Z</time>
      </trkpt>
      <trkpt lat="49.24572" lon="-0.48513">
        <ele>86</ele>
        <time>2012-08-16T16:02:12Z</time>
      </trkpt>
      <trkpt lat="49.24579" lon="-0.48512">
        <ele>85</ele>
        <time>2012-08-16T16:02:14Z</time>
      </trkpt>
      <trkpt lat="49.24583" lon="-0.48509">
        <ele>85</ele>
        <time>2012-08-16T16:02:16Z</time>
      </trkpt>
      <trkpt lat="49.24588" lon="-0.48507">
        <ele>85</ele>
        <time>2012-08-16T16:02:18Z</time>
      </trkpt>
      <trkpt lat="49.24593" lon="-0.48506">
        <ele>85</ele>
        <time>2012-08-16T16:02:20Z</time>
      </trkpt>
      <trkpt lat="49.246" lon="-0.48508">
        <ele>86</ele>
        <time>2012-08-16T16:02:23Z</time>
      </trkpt>
      <trkpt lat="49.24607" lon="-0.48505">
        <ele>86</ele>
        <time>2012-08-16T16:02:25Z</time>
      </trkpt>
      <trkpt lat="49.24613" lon="-0.48505">
        <ele>87</ele>
        <time>2012-08-16T16:02:27Z</time>
      </trkpt>
      <trkpt lat="49.24617" lon="-0.48502">
        <ele>87</ele>
        <time>2012-08-16T16:02:28Z</time>
      </trkpt>
      <trkpt lat="49.24624" lon="-0.485">
        <ele>87</ele>
        <time>2012-08-16T16:02:30Z</time>
      </trkpt>
      <trkpt lat="49.24628" lon="-0.48498">
        <ele>86</ele>
        <time>2012-08-16T16:02:31Z</time>
      </trkpt>
      <trkpt lat="49.24637" lon="-0.48495">
        <ele>86</ele>
        <time>2012-08-16T16:02:33Z</time>
      </trkpt>
      <trkpt lat="49.24644" lon="-0.48494">
        <ele>86</ele>
        <time>2012-08-16T16:02:36Z</time>
      </trkpt>
      <trkpt lat="49.2465" lon="-0.48494">
        <ele>87</ele>
        <time>2012-08-16T16:02:38Z</time>
      </trkpt>
      <trkpt lat="49.24657" lon="-0.48493">
        <ele>87</ele>
        <time>2012-08-16T16:02:40Z</time>
      </trkpt>
      <trkpt lat="49.24662" lon="-0.48494">
        <ele>86</ele>
        <time>2012-08-16T16:02:41Z</time>
      </trkpt>
      <trkpt lat="49.24672" lon="-0.48493">
        <ele>87</ele>
        <time>2012-08-16T16:02:43Z</time>
      </trkpt>
      <trkpt lat="49.24677" lon="-0.48493">
        <ele>87</ele>
        <time>2012-08-16T16:02:45Z</time>
      </trkpt>
      <trkpt lat="49.24683" lon="-0.48491">
        <ele>87</ele>
        <time>2012-08-16T16:02:47Z</time>
      </trkpt>
      <trkpt lat="49.24687" lon="-0.48489">
        <ele>87</ele>
        <time>2012-08-16T16:02:48Z</time>
      </trkpt>
      <trkpt lat="49.24694" lon="-0.48487">
        <ele>87</ele>
        <time>2012-08-16T16:02:50Z</time>
      </trkpt>
      <trkpt lat="49.24702" lon="-0.48488">
        <ele>88</ele>
        <time>2012-08-16T16:02:52Z</time>
      </trkpt>
      <trkpt lat="49.24707" lon="-0.48488">
        <ele>88</ele>
        <time>2012-08-16T16:02:53Z</time>
      </trkpt>
      <trkpt lat="49.24715" lon="-0.48485">
        <ele>88</ele>
        <time>2012-08-16T16:02:55Z</time>
      </trkpt>
      <trkpt lat="49.24722" lon="-0.48484">
        <ele>89</ele>
        <time>2012-08-16T16:02:57Z</time>
      </trkpt>
      <trkpt lat="49.24729" lon="-0.48479">
        <ele>90</ele>
        <time>2012-08-16T16:02:59Z</time>
      </trkpt>
      <trkpt lat="49.24735" lon="-0.48479">
        <ele>91</ele>
        <time>2012-08-16T16:03:01Z</time>
      </trkpt>
      <trkpt lat="49.24742" lon="-0.48477">
        <ele>91</ele>
        <time>2012-08-16T16:03:03Z</time>
      </trkpt>
      <trkpt lat="49.24748" lon="-0.48474">
        <ele>91</ele>
        <time>2012-08-16T16:03:05Z</time>
      </trkpt>
      <trkpt lat="49.24753" lon="-0.48473">
        <ele>91</ele>
        <time>2012-08-16T16:03:06Z</time>
      </trkpt>
      <trkpt lat="49.2476" lon="-0.48472">
        <ele>91</ele>
        <time>2012-08-16T16:03:08Z</time>
      </trkpt>
      <trkpt lat="49.24767" lon="-0.48471">
        <ele>92</ele>
        <time>2012-08-16T16:03:10Z</time>
      </trkpt>
      <trkpt lat="49.24772" lon="-0.48471">
        <ele>93</ele>
        <time>2012-08-16T16:03:11Z</time>
      </trkpt>
      <trkpt lat="49.24829" lon="-0.48477">
        <ele>102</ele>
        <time>2012-08-16T16:03:30Z</time>
      </trkpt>
      <trkpt lat="49.24824" lon="-0.48656">
        <ele>102</ele>
        <time>2012-08-16T16:04:08Z</time>
      </trkpt>
      <trkpt lat="49.24823" lon="-0.48669">
        <ele>101</ele>
        <time>2012-08-16T16:04:10Z</time>
      </trkpt>
      <trkpt lat="49.24823" lon="-0.48678">
        <ele>101</ele>
        <time>2012-08-16T16:04:12Z</time>
      </trkpt>
      <trkpt lat="49.24821" lon="-0.48686">
        <ele>101</ele>
        <time>2012-08-16T16:04:13Z</time>
      </trkpt>
      <trkpt lat="49.24818" lon="-0.48696">
        <ele>101</ele>
        <time>2012-08-16T16:04:15Z</time>
      </trkpt>
      <trkpt lat="49.24815" lon="-0.48708">
        <ele>101</ele>
        <time>2012-08-16T16:04:17Z</time>
      </trkpt>
      <trkpt lat="49.24815" lon="-0.48717">
        <ele>100</ele>
        <time>2012-08-16T16:04:19Z</time>
      </trkpt>
      <trkpt lat="49.24814" lon="-0.48726">
        <ele>99</ele>
        <time>2012-08-16T16:04:21Z</time>
      </trkpt>
      <trkpt lat="49.24812" lon="-0.48732">
        <ele>100</ele>
        <time>2012-08-16T16:04:22Z</time>
      </trkpt>
      <trkpt lat="49.24809" lon="-0.48743">
        <ele>101</ele>
        <time>2012-08-16T16:04:24Z</time>
      </trkpt>
      <trkpt lat="49.24807" lon="-0.48753">
        <ele>101</ele>
        <time>2012-08-16T16:04:26Z</time>
      </trkpt>
      <trkpt lat="49.24807" lon="-0.48762">
        <ele>101</ele>
        <time>2012-08-16T16:04:28Z</time>
      </trkpt>
      <trkpt lat="49.24805" lon="-0.48773">
        <ele>100</ele>
        <time>2012-08-16T16:04:30Z</time>
      </trkpt>
      <trkpt lat="49.24803" lon="-0.48782">
        <ele>99</ele>
        <time>2012-08-16T16:04:32Z</time>
      </trkpt>
      <trkpt lat="49.248" lon="-0.48792">
        <ele>98</ele>
        <time>2012-08-16T16:04:34Z</time>
      </trkpt>
      <trkpt lat="49.24799" lon="-0.48802">
        <ele>99</ele>
        <time>2012-08-16T16:04:36Z</time>
      </trkpt>
      <trkpt lat="49.24797" lon="-0.48812">
        <ele>99</ele>
        <time>2012-08-16T16:04:38Z</time>
      </trkpt>
      <trkpt lat="49.24796" lon="-0.48823">
        <ele>99</ele>
        <time>2012-08-16T16:04:40Z</time>
      </trkpt>
      <trkpt lat="49.24795" lon="-0.48833">
        <ele>99</ele>
        <time>2012-08-16T16:04:42Z</time>
      </trkpt>
      <trkpt lat="49.24794" lon="-0.48844">
        <ele>98</ele>
        <time>2012-08-16T16:04:44Z</time>
      </trkpt>
      <trkpt lat="49.24793" lon="-0.48854">
        <ele>99</ele>
        <time>2012-08-16T16:04:46Z</time>
      </trkpt>
      <trkpt lat="49.24792" lon="-0.48864">
        <ele>99</ele>
        <time>2012-08-16T16:04:48Z</time>
      </trkpt>
      <trkpt lat="49.24791" lon="-0.48874">
        <ele>100</ele>
        <time>2012-08-16T16:04:50Z</time>
      </trkpt>
      <trkpt lat="49.2479" lon="-0.48883">
        <ele>99</ele>
        <time>2012-08-16T16:04:52Z</time>
      </trkpt>
      <trkpt lat="49.24789" lon="-0.48894">
        <ele>99</ele>
        <time>2012-08-16T16:04:54Z</time>
      </trkpt>
      <trkpt lat="49.24787" lon="-0.48906">
        <ele>100</ele>
        <time>2012-08-16T16:04:56Z</time>
      </trkpt>
      <trkpt lat="49.24786" lon="-0.48915">
        <ele>100</ele>
        <time>2012-08-16T16:04:58Z</time>
      </trkpt>
      <trkpt lat="49.24785" lon="-0.48927">
        <ele>100</ele>
        <time>2012-08-16T16:05:00Z</time>
      </trkpt>
      <trkpt lat="49.24784" lon="-0.48937">
        <ele>100</ele>
        <time>2012-08-16T16:05:02Z</time>
      </trkpt>
      <trkpt lat="49.24783" lon="-0.48946">
        <ele>100</ele>
        <time>2012-08-16T16:05:04Z</time>
      </trkpt>
      <trkpt lat="49.24781" lon="-0.48957">
        <ele>100</ele>
        <time>2012-08-16T16:05:06Z</time>
      </trkpt>
      <trkpt lat="49.24781" lon="-0.48965">
        <ele>100</ele>
        <time>2012-08-16T16:05:08Z</time>
      </trkpt>
      <trkpt lat="49.24779" lon="-0.48976">
        <ele>100</ele>
        <time>2012-08-16T16:05:10Z</time>
      </trkpt>
      <trkpt lat="49.24777" lon="-0.48987">
        <ele>100</ele>
        <time>2012-08-16T16:05:12Z</time>
      </trkpt>
      <trkpt lat="49.24774" lon="-0.48996">
        <ele>100</ele>
        <time>2012-08-16T16:05:14Z</time>
      </trkpt>
      <trkpt lat="49.24774" lon="-0.49006">
        <ele>99</ele>
        <time>2012-08-16T16:05:16Z</time>
      </trkpt>
      <trkpt lat="49.24772" lon="-0.49015">
        <ele>99</ele>
        <time>2012-08-16T16:05:18Z</time>
      </trkpt>
      <trkpt lat="49.24771" lon="-0.49025">
        <ele>99</ele>
        <time>2012-08-16T16:05:20Z</time>
      </trkpt>
      <trkpt lat="49.2477" lon="-0.49034">
        <ele>98</ele>
        <time>2012-08-16T16:05:22Z</time>
      </trkpt>
      <trkpt lat="49.24767" lon="-0.49045">
        <ele>99</ele>
        <time>2012-08-16T16:05:24Z</time>
      </trkpt>
      <trkpt lat="49.24765" lon="-0.49053">
        <ele>98</ele>
        <time>2012-08-16T16:05:26Z</time>
      </trkpt>
      <trkpt lat="49.24764" lon="-0.4906">
        <ele>98</ele>
        <time>2012-08-16T16:05:27Z</time>
      </trkpt>
      <trkpt lat="49.24762" lon="-0.49069">
        <ele>98</ele>
        <time>2012-08-16T16:05:29Z</time>
      </trkpt>
      <trkpt lat="49.24761" lon="-0.49078">
        <ele>98</ele>
        <time>2012-08-16T16:05:31Z</time>
      </trkpt>
      <trkpt lat="49.24758" lon="-0.49088">
        <ele>99</ele>
        <time>2012-08-16T16:05:33Z</time>
      </trkpt>
      <trkpt lat="49.24756" lon="-0.49098">
        <ele>99</ele>
        <time>2012-08-16T16:05:35Z</time>
      </trkpt>
      <trkpt lat="49.24754" lon="-0.49107">
        <ele>99</ele>
        <time>2012-08-16T16:05:37Z</time>
      </trkpt>
      <trkpt lat="49.2475" lon="-0.49118">
        <ele>98</ele>
        <time>2012-08-16T16:05:39Z</time>
      </trkpt>
      <trkpt lat="49.24746" lon="-0.49129">
        <ele>98</ele>
        <time>2012-08-16T16:05:41Z</time>
      </trkpt>
      <trkpt lat="49.24744" lon="-0.49141">
        <ele>98</ele>
        <time>2012-08-16T16:05:43Z</time>
      </trkpt>
      <trkpt lat="49.2474" lon="-0.49151">
        <ele>98</ele>
        <time>2012-08-16T16:05:45Z</time>
      </trkpt>
      <trkpt lat="49.24738" lon="-0.4916">
        <ele>99</ele>
        <time>2012-08-16T16:05:47Z</time>
      </trkpt>
      <trkpt lat="49.24736" lon="-0.49168">
        <ele>98</ele>
        <time>2012-08-16T16:05:49Z</time>
      </trkpt>
      <trkpt lat="49.24734" lon="-0.49178">
        <ele>98</ele>
        <time>2012-08-16T16:05:51Z</time>
      </trkpt>
      <trkpt lat="49.24731" lon="-0.49187">
        <ele>98</ele>
        <time>2012-08-16T16:05:53Z</time>
      </trkpt>
      <trkpt lat="49.24728" lon="-0.49197">
        <ele>98</ele>
        <time>2012-08-16T16:05:55Z</time>
      </trkpt>
      <trkpt lat="49.24724" lon="-0.49208">
        <ele>98</ele>
        <time>2012-08-16T16:05:57Z</time>
      </trkpt>
      <trkpt lat="49.24721" lon="-0.49218">
        <ele>98</ele>
        <time>2012-08-16T16:05:59Z</time>
      </trkpt>
      <trkpt lat="49.2472" lon="-0.49228">
        <ele>99</ele>
        <time>2012-08-16T16:06:01Z</time>
      </trkpt>
      <trkpt lat="49.24717" lon="-0.49238">
        <ele>99</ele>
        <time>2012-08-16T16:06:03Z</time>
      </trkpt>
      <trkpt lat="49.24716" lon="-0.49248">
        <ele>98</ele>
        <time>2012-08-16T16:06:05Z</time>
      </trkpt>
      <trkpt lat="49.24714" lon="-0.49259">
        <ele>98</ele>
        <time>2012-08-16T16:06:07Z</time>
      </trkpt>
      <trkpt lat="49.24712" lon="-0.4927">
        <ele>99</ele>
        <time>2012-08-16T16:06:09Z</time>
      </trkpt>
      <trkpt lat="49.24709" lon="-0.49282">
        <ele>99</ele>
        <time>2012-08-16T16:06:11Z</time>
      </trkpt>
      <trkpt lat="49.24707" lon="-0.49294">
        <ele>100</ele>
        <time>2012-08-16T16:06:13Z</time>
      </trkpt>
      <trkpt lat="49.24705" lon="-0.49304">
        <ele>100</ele>
        <time>2012-08-16T16:06:15Z</time>
      </trkpt>
      <trkpt lat="49.24703" lon="-0.49315">
        <ele>99</ele>
        <time>2012-08-16T16:06:17Z</time>
      </trkpt>
      <trkpt lat="49.24702" lon="-0.49325">
        <ele>99</ele>
        <time>2012-08-16T16:06:19Z</time>
      </trkpt>
      <trkpt lat="49.247" lon="-0.49336">
        <ele>99</ele>
        <time>2012-08-16T16:06:21Z</time>
      </trkpt>
      <trkpt lat="49.24699" lon="-0.49347">
        <ele>100</ele>
        <time>2012-08-16T16:06:23Z</time>
      </trkpt>
      <trkpt lat="49.24697" lon="-0.49356">
        <ele>100</ele>
        <time>2012-08-16T16:06:25Z</time>
      </trkpt>
      <trkpt lat="49.24695" lon="-0.49367">
        <ele>99</ele>
        <time>2012-08-16T16:06:27Z</time>
      </trkpt>
      <trkpt lat="49.24694" lon="-0.49378">
        <ele>99</ele>
        <time>2012-08-16T16:06:29Z</time>
      </trkpt>
      <trkpt lat="49.24692" lon="-0.49388">
        <ele>99</ele>
        <time>2012-08-16T16:06:31Z</time>
      </trkpt>
      <trkpt lat="49.2469" lon="-0.49399">
        <ele>100</ele>
        <time>2012-08-16T16:06:33Z</time>
      </trkpt>
      <trkpt lat="49.2469" lon="-0.4941">
        <ele>100</ele>
        <time>2012-08-16T16:06:35Z</time>
      </trkpt>
      <trkpt lat="49.24689" lon="-0.49419">
        <ele>100</ele>
        <time>2012-08-16T16:06:37Z</time>
      </trkpt>
      <trkpt lat="49.24688" lon="-0.49429">
        <ele>101</ele>
        <time>2012-08-16T16:06:39Z</time>
      </trkpt>
      <trkpt lat="49.24688" lon="-0.4944">
        <ele>101</ele>
        <time>2012-08-16T16:06:41Z</time>
      </trkpt>
      <trkpt lat="49.24686" lon="-0.49451">
        <ele>102</ele>
        <time>2012-08-16T16:06:43Z</time>
      </trkpt>
      <trkpt lat="49.24686" lon="-0.49462">
        <ele>102</ele>
        <time>2012-08-16T16:06:45Z</time>
      </trkpt>
      <trkpt lat="49.24686" lon="-0.49472">
        <ele>102</ele>
        <time>2012-08-16T16:06:47Z</time>
      </trkpt>
      <trkpt lat="49.24685" lon="-0.49484">
        <ele>103</ele>
        <time>2012-08-16T16:06:49Z</time>
      </trkpt>
      <trkpt lat="49.24686" lon="-0.49495">
        <ele>103</ele>
        <time>2012-08-16T16:06:51Z</time>
      </trkpt>
      <trkpt lat="49.24687" lon="-0.49505">
        <ele>103</ele>
        <time>2012-08-16T16:06:53Z</time>
      </trkpt>
      <trkpt lat="49.24688" lon="-0.49516">
        <ele>104</ele>
        <time>2012-08-16T16:06:55Z</time>
      </trkpt>
      <trkpt lat="49.2469" lon="-0.49526">
        <ele>103</ele>
        <time>2012-08-16T16:06:57Z</time>
      </trkpt>
      <trkpt lat="49.2469" lon="-0.49538">
        <ele>104</ele>
        <time>2012-08-16T16:06:59Z</time>
      </trkpt>
      <trkpt lat="49.24691" lon="-0.49549">
        <ele>104</ele>
        <time>2012-08-16T16:07:01Z</time>
      </trkpt>
      <trkpt lat="49.24693" lon="-0.49559">
        <ele>104</ele>
        <time>2012-08-16T16:07:03Z</time>
      </trkpt>
      <trkpt lat="49.24694" lon="-0.49569">
        <ele>104</ele>
        <time>2012-08-16T16:07:05Z</time>
      </trkpt>
      <trkpt lat="49.24696" lon="-0.4958">
        <ele>105</ele>
        <time>2012-08-16T16:07:07Z</time>
      </trkpt>
      <trkpt lat="49.24698" lon="-0.49591">
        <ele>105</ele>
        <time>2012-08-16T16:07:09Z</time>
      </trkpt>
      <trkpt lat="49.247" lon="-0.49602">
        <ele>105</ele>
        <time>2012-08-16T16:07:11Z</time>
      </trkpt>
      <trkpt lat="49.24704" lon="-0.49611">
        <ele>105</ele>
        <time>2012-08-16T16:07:13Z</time>
      </trkpt>
      <trkpt lat="49.24709" lon="-0.49618">
        <ele>105</ele>
        <time>2012-08-16T16:07:15Z</time>
      </trkpt>
      <trkpt lat="49.24712" lon="-0.49626">
        <ele>105</ele>
        <time>2012-08-16T16:07:17Z</time>
      </trkpt>
      <trkpt lat="49.24715" lon="-0.49634">
        <ele>105</ele>
        <time>2012-08-16T16:07:19Z</time>
      </trkpt>
      <trkpt lat="49.24718" lon="-0.49642">
        <ele>106</ele>
        <time>2012-08-16T16:07:21Z</time>
      </trkpt>
      <trkpt lat="49.24724" lon="-0.49651">
        <ele>106</ele>
        <time>2012-08-16T16:07:23Z</time>
      </trkpt>
      <trkpt lat="49.24727" lon="-0.4966">
        <ele>106</ele>
        <time>2012-08-16T16:07:25Z</time>
      </trkpt>
      <trkpt lat="49.24731" lon="-0.49669">
        <ele>106</ele>
        <time>2012-08-16T16:07:27Z</time>
      </trkpt>
      <trkpt lat="49.24735" lon="-0.49678">
        <ele>106</ele>
        <time>2012-08-16T16:07:29Z</time>
      </trkpt>
      <trkpt lat="49.2474" lon="-0.49686">
        <ele>107</ele>
        <time>2012-08-16T16:07:31Z</time>
      </trkpt>
      <trkpt lat="49.24742" lon="-0.49694">
        <ele>107</ele>
        <time>2012-08-16T16:07:33Z</time>
      </trkpt>
      <trkpt lat="49.24747" lon="-0.49701">
        <ele>106</ele>
        <time>2012-08-16T16:07:35Z</time>
      </trkpt>
      <trkpt lat="49.24751" lon="-0.49708">
        <ele>106</ele>
        <time>2012-08-16T16:07:37Z</time>
      </trkpt>
      <trkpt lat="49.24756" lon="-0.49717">
        <ele>105</ele>
        <time>2012-08-16T16:07:39Z</time>
      </trkpt>
      <trkpt lat="49.2476" lon="-0.49725">
        <ele>105</ele>
        <time>2012-08-16T16:07:41Z</time>
      </trkpt>
      <trkpt lat="49.24765" lon="-0.49732">
        <ele>105</ele>
        <time>2012-08-16T16:07:43Z</time>
      </trkpt>
      <trkpt lat="49.2477" lon="-0.49741">
        <ele>105</ele>
        <time>2012-08-16T16:07:45Z</time>
      </trkpt>
      <trkpt lat="49.24773" lon="-0.49749">
        <ele>106</ele>
        <time>2012-08-16T16:07:47Z</time>
      </trkpt>
      <trkpt lat="49.24777" lon="-0.49759">
        <ele>106</ele>
        <time>2012-08-16T16:07:49Z</time>
      </trkpt>
      <trkpt lat="49.24781" lon="-0.49766">
        <ele>106</ele>
        <time>2012-08-16T16:07:51Z</time>
      </trkpt>
      <trkpt lat="49.24784" lon="-0.49773">
        <ele>106</ele>
        <time>2012-08-16T16:07:52Z</time>
      </trkpt>
      <trkpt lat="49.24788" lon="-0.49782">
        <ele>106</ele>
        <time>2012-08-16T16:07:54Z</time>
      </trkpt>
      <trkpt lat="49.24792" lon="-0.49791">
        <ele>106</ele>
        <time>2012-08-16T16:07:56Z</time>
      </trkpt>
      <trkpt lat="49.24796" lon="-0.49797">
        <ele>106</ele>
        <time>2012-08-16T16:07:58Z</time>
      </trkpt>
      <trkpt lat="49.248" lon="-0.49805">
        <ele>105</ele>
        <time>2012-08-16T16:08:00Z</time>
      </trkpt>
      <trkpt lat="49.24804" lon="-0.49813">
        <ele>106</ele>
        <time>2012-08-16T16:08:02Z</time>
      </trkpt>
      <trkpt lat="49.24808" lon="-0.49822">
        <ele>105</ele>
        <time>2012-08-16T16:08:04Z</time>
      </trkpt>
      <trkpt lat="49.24811" lon="-0.4983">
        <ele>105</ele>
        <time>2012-08-16T16:08:06Z</time>
      </trkpt>
      <trkpt lat="49.24813" lon="-0.4984">
        <ele>105</ele>
        <time>2012-08-16T16:08:08Z</time>
      </trkpt>
      <trkpt lat="49.24817" lon="-0.49846">
        <ele>105</ele>
        <time>2012-08-16T16:08:10Z</time>
      </trkpt>
      <trkpt lat="49.24821" lon="-0.49853">
        <ele>105</ele>
        <time>2012-08-16T16:08:12Z</time>
      </trkpt>
      <trkpt lat="49.24827" lon="-0.49859">
        <ele>105</ele>
        <time>2012-08-16T16:08:14Z</time>
      </trkpt>
      <trkpt lat="49.24831" lon="-0.49866">
        <ele>105</ele>
        <time>2012-08-16T16:08:16Z</time>
      </trkpt>
      <trkpt lat="49.24834" lon="-0.49874">
        <ele>106</ele>
        <time>2012-08-16T16:08:18Z</time>
      </trkpt>
      <trkpt lat="49.24836" lon="-0.49882">
        <ele>106</ele>
        <time>2012-08-16T16:08:20Z</time>
      </trkpt>
      <trkpt lat="49.24841" lon="-0.49888">
        <ele>105</ele>
        <time>2012-08-16T16:08:22Z</time>
      </trkpt>
      <trkpt lat="49.24845" lon="-0.49899">
        <ele>106</ele>
        <time>2012-08-16T16:08:24Z</time>
      </trkpt>
      <trkpt lat="49.24849" lon="-0.49906">
        <ele>105</ele>
        <time>2012-08-16T16:08:26Z</time>
      </trkpt>
      <trkpt lat="49.24853" lon="-0.49913">
        <ele>106</ele>
        <time>2012-08-16T16:08:28Z</time>
      </trkpt>
      <trkpt lat="49.24858" lon="-0.49921">
        <ele>105</ele>
        <time>2012-08-16T16:08:30Z</time>
      </trkpt>
      <trkpt lat="49.24862" lon="-0.49929">
        <ele>105</ele>
        <time>2012-08-16T16:08:32Z</time>
      </trkpt>
      <trkpt lat="49.24866" lon="-0.49938">
        <ele>104</ele>
        <time>2012-08-16T16:08:34Z</time>
      </trkpt>
      <trkpt lat="49.2487" lon="-0.49948">
        <ele>104</ele>
        <time>2012-08-16T16:08:36Z</time>
      </trkpt>
      <trkpt lat="49.24874" lon="-0.49956">
        <ele>104</ele>
        <time>2012-08-16T16:08:38Z</time>
      </trkpt>
      <trkpt lat="49.24876" lon="-0.49962">
        <ele>104</ele>
        <time>2012-08-16T16:08:39Z</time>
      </trkpt>
      <trkpt lat="49.24881" lon="-0.49971">
        <ele>105</ele>
        <time>2012-08-16T16:08:41Z</time>
      </trkpt>
      <trkpt lat="49.24886" lon="-0.49979">
        <ele>106</ele>
        <time>2012-08-16T16:08:43Z</time>
      </trkpt>
      <trkpt lat="49.2489" lon="-0.49988">
        <ele>105</ele>
        <time>2012-08-16T16:08:45Z</time>
      </trkpt>
      <trkpt lat="49.24894" lon="-0.49995">
        <ele>105</ele>
        <time>2012-08-16T16:08:47Z</time>
      </trkpt>
      <trkpt lat="49.24898" lon="-0.50003">
        <ele>104</ele>
        <time>2012-08-16T16:08:49Z</time>
      </trkpt>
      <trkpt lat="49.24902" lon="-0.5001">
        <ele>104</ele>
        <time>2012-08-16T16:08:51Z</time>
      </trkpt>
      <trkpt lat="49.24906" lon="-0.50018">
        <ele>105</ele>
        <time>2012-08-16T16:08:53Z</time>
      </trkpt>
      <trkpt lat="49.24909" lon="-0.50026">
        <ele>105</ele>
        <time>2012-08-16T16:08:55Z</time>
      </trkpt>
      <trkpt lat="49.24912" lon="-0.50035">
        <ele>105</ele>
        <time>2012-08-16T16:08:57Z</time>
      </trkpt>
      <trkpt lat="49.24913" lon="-0.50042">
        <ele>105</ele>
        <time>2012-08-16T16:08:58Z</time>
      </trkpt>
      <trkpt lat="49.24916" lon="-0.50056">
        <ele>104</ele>
        <time>2012-08-16T16:09:00Z</time>
      </trkpt>
      <trkpt lat="49.2492" lon="-0.50067">
        <ele>104</ele>
        <time>2012-08-16T16:09:02Z</time>
      </trkpt>
      <trkpt lat="49.24922" lon="-0.50077">
        <ele>104</ele>
        <time>2012-08-16T16:09:04Z</time>
      </trkpt>
      <trkpt lat="49.24925" lon="-0.50086">
        <ele>102</ele>
        <time>2012-08-16T16:09:06Z</time>
      </trkpt>
      <trkpt lat="49.24927" lon="-0.50096">
        <ele>103</ele>
        <time>2012-08-16T16:09:08Z</time>
      </trkpt>
      <trkpt lat="49.2493" lon="-0.50105">
        <ele>105</ele>
        <time>2012-08-16T16:09:10Z</time>
      </trkpt>
      <trkpt lat="49.24933" lon="-0.50115">
        <ele>105</ele>
        <time>2012-08-16T16:09:12Z</time>
      </trkpt>
      <trkpt lat="49.24935" lon="-0.50124">
        <ele>105</ele>
        <time>2012-08-16T16:09:14Z</time>
      </trkpt>
      <trkpt lat="49.24936" lon="-0.50133">
        <ele>104</ele>
        <time>2012-08-16T16:09:16Z</time>
      </trkpt>
      <trkpt lat="49.24938" lon="-0.50142">
        <ele>104</ele>
        <time>2012-08-16T16:09:18Z</time>
      </trkpt>
      <trkpt lat="49.24939" lon="-0.50152">
        <ele>104</ele>
        <time>2012-08-16T16:09:20Z</time>
      </trkpt>
      <trkpt lat="49.24941" lon="-0.5016">
        <ele>104</ele>
        <time>2012-08-16T16:09:22Z</time>
      </trkpt>
      <trkpt lat="49.24942" lon="-0.50169">
        <ele>104</ele>
        <time>2012-08-16T16:09:24Z</time>
      </trkpt>
      <trkpt lat="49.24944" lon="-0.50177">
        <ele>103</ele>
        <time>2012-08-16T16:09:26Z</time>
      </trkpt>
      <trkpt lat="49.24947" lon="-0.50186">
        <ele>104</ele>
        <time>2012-08-16T16:09:28Z</time>
      </trkpt>
      <trkpt lat="49.24948" lon="-0.50195">
        <ele>104</ele>
        <time>2012-08-16T16:09:30Z</time>
      </trkpt>
      <trkpt lat="49.24948" lon="-0.50207">
        <ele>103</ele>
        <time>2012-08-16T16:09:32Z</time>
      </trkpt>
      <trkpt lat="49.24949" lon="-0.50216">
        <ele>103</ele>
        <time>2012-08-16T16:09:34Z</time>
      </trkpt>
      <trkpt lat="49.24951" lon="-0.50225">
        <ele>103</ele>
        <time>2012-08-16T16:09:36Z</time>
      </trkpt>
      <trkpt lat="49.24952" lon="-0.50236">
        <ele>103</ele>
        <time>2012-08-16T16:09:38Z</time>
      </trkpt>
      <trkpt lat="49.24955" lon="-0.50245">
        <ele>103</ele>
        <time>2012-08-16T16:09:40Z</time>
      </trkpt>
      <trkpt lat="49.24956" lon="-0.50255">
        <ele>104</ele>
        <time>2012-08-16T16:09:42Z</time>
      </trkpt>
      <trkpt lat="49.24957" lon="-0.50266">
        <ele>104</ele>
        <time>2012-08-16T16:09:44Z</time>
      </trkpt>
      <trkpt lat="49.24957" lon="-0.50275">
        <ele>104</ele>
        <time>2012-08-16T16:09:46Z</time>
      </trkpt>
      <trkpt lat="49.24958" lon="-0.50284">
        <ele>104</ele>
        <time>2012-08-16T16:09:48Z</time>
      </trkpt>
      <trkpt lat="49.24958" lon="-0.50293">
        <ele>103</ele>
        <time>2012-08-16T16:09:50Z</time>
      </trkpt>
      <trkpt lat="49.24959" lon="-0.50301">
        <ele>103</ele>
        <time>2012-08-16T16:09:52Z</time>
      </trkpt>
      <trkpt lat="49.2496" lon="-0.5031">
        <ele>103</ele>
        <time>2012-08-16T16:09:54Z</time>
      </trkpt>
      <trkpt lat="49.24961" lon="-0.50319">
        <ele>103</ele>
        <time>2012-08-16T16:09:56Z</time>
      </trkpt>
      <trkpt lat="49.24962" lon="-0.50328">
        <ele>104</ele>
        <time>2012-08-16T16:09:58Z</time>
      </trkpt>
      <trkpt lat="49.24962" lon="-0.50336">
        <ele>104</ele>
        <time>2012-08-16T16:10:00Z</time>
      </trkpt>
      <trkpt lat="49.24963" lon="-0.50346">
        <ele>103</ele>
        <time>2012-08-16T16:10:02Z</time>
      </trkpt>
      <trkpt lat="49.24964" lon="-0.50354">
        <ele>104</ele>
        <time>2012-08-16T16:10:04Z</time>
      </trkpt>
      <trkpt lat="49.24965" lon="-0.50362">
        <ele>105</ele>
        <time>2012-08-16T16:10:06Z</time>
      </trkpt>
      <trkpt lat="49.24966" lon="-0.50371">
        <ele>104</ele>
        <time>2012-08-16T16:10:08Z</time>
      </trkpt>
      <trkpt lat="49.24967" lon="-0.50379">
        <ele>104</ele>
        <time>2012-08-16T16:10:10Z</time>
      </trkpt>
      <trkpt lat="49.24968" lon="-0.50386">
        <ele>104</ele>
        <time>2012-08-16T16:10:12Z</time>
      </trkpt>
      <trkpt lat="49.2497" lon="-0.50394">
        <ele>104</ele>
        <time>2012-08-16T16:10:14Z</time>
      </trkpt>
      <trkpt lat="49.24971" lon="-0.50403">
        <ele>105</ele>
        <time>2012-08-16T16:10:16Z</time>
      </trkpt>
      <trkpt lat="49.24971" lon="-0.50412">
        <ele>105</ele>
        <time>2012-08-16T16:10:18Z</time>
      </trkpt>
      <trkpt lat="49.24971" lon="-0.50421">
        <ele>105</ele>
        <time>2012-08-16T16:10:20Z</time>
      </trkpt>
      <trkpt lat="49.24973" lon="-0.50429">
        <ele>105</ele>
        <time>2012-08-16T16:10:22Z</time>
      </trkpt>
      <trkpt lat="49.24973" lon="-0.50439">
        <ele>105</ele>
        <time>2012-08-16T16:10:24Z</time>
      </trkpt>
      <trkpt lat="49.24975" lon="-0.50448">
        <ele>105</ele>
        <time>2012-08-16T16:10:26Z</time>
      </trkpt>
      <trkpt lat="49.24977" lon="-0.50457">
        <ele>105</ele>
        <time>2012-08-16T16:10:28Z</time>
      </trkpt>
      <trkpt lat="49.24977" lon="-0.50468">
        <ele>106</ele>
        <time>2012-08-16T16:10:30Z</time>
      </trkpt>
      <trkpt lat="49.24978" lon="-0.50478">
        <ele>106</ele>
        <time>2012-08-16T16:10:32Z</time>
      </trkpt>
      <trkpt lat="49.24979" lon="-0.50487">
        <ele>107</ele>
        <time>2012-08-16T16:10:34Z</time>
      </trkpt>
      <trkpt lat="49.24979" lon="-0.50496">
        <ele>107</ele>
        <time>2012-08-16T16:10:36Z</time>
      </trkpt>
      <trkpt lat="49.2498" lon="-0.50505">
        <ele>107</ele>
        <time>2012-08-16T16:10:38Z</time>
      </trkpt>
      <trkpt lat="49.24982" lon="-0.50516">
        <ele>107</ele>
        <time>2012-08-16T16:10:40Z</time>
      </trkpt>
      <trkpt lat="49.24982" lon="-0.50524">
        <ele>106</ele>
        <time>2012-08-16T16:10:42Z</time>
      </trkpt>
      <trkpt lat="49.24983" lon="-0.50531">
        <ele>105</ele>
        <time>2012-08-16T16:10:44Z</time>
      </trkpt>
      <trkpt lat="49.24985" lon="-0.5054">
        <ele>105</ele>
        <time>2012-08-16T16:10:46Z</time>
      </trkpt>
      <trkpt lat="49.24987" lon="-0.50548">
        <ele>105</ele>
        <time>2012-08-16T16:10:48Z</time>
      </trkpt>
      <trkpt lat="49.24987" lon="-0.50559">
        <ele>105</ele>
        <time>2012-08-16T16:10:50Z</time>
      </trkpt>
      <trkpt lat="49.24988" lon="-0.50568">
        <ele>105</ele>
        <time>2012-08-16T16:10:52Z</time>
      </trkpt>
      <trkpt lat="49.24989" lon="-0.50577">
        <ele>104</ele>
        <time>2012-08-16T16:10:54Z</time>
      </trkpt>
      <trkpt lat="49.24991" lon="-0.50587">
        <ele>105</ele>
        <time>2012-08-16T16:10:56Z</time>
      </trkpt>
      <trkpt lat="49.24993" lon="-0.50596">
        <ele>104</ele>
        <time>2012-08-16T16:10:58Z</time>
      </trkpt>
      <trkpt lat="49.24995" lon="-0.50605">
        <ele>102</ele>
        <time>2012-08-16T16:11:00Z</time>
      </trkpt>
      <trkpt lat="49.24996" lon="-0.50616">
        <ele>102</ele>
        <time>2012-08-16T16:11:02Z</time>
      </trkpt>
      <trkpt lat="49.24999" lon="-0.50627">
        <ele>101</ele>
        <time>2012-08-16T16:11:04Z</time>
      </trkpt>
      <trkpt lat="49.25002" lon="-0.50638">
        <ele>102</ele>
        <time>2012-08-16T16:11:06Z</time>
      </trkpt>
      <trkpt lat="49.25004" lon="-0.50649">
        <ele>102</ele>
        <time>2012-08-16T16:11:08Z</time>
      </trkpt>
      <trkpt lat="49.25007" lon="-0.5066">
        <ele>102</ele>
        <time>2012-08-16T16:11:10Z</time>
      </trkpt>
      <trkpt lat="49.25009" lon="-0.50671">
        <ele>102</ele>
        <time>2012-08-16T16:11:12Z</time>
      </trkpt>
      <trkpt lat="49.25012" lon="-0.50681">
        <ele>102</ele>
        <time>2012-08-16T16:11:14Z</time>
      </trkpt>
      <trkpt lat="49.25015" lon="-0.50693">
        <ele>102</ele>
        <time>2012-08-16T16:11:16Z</time>
      </trkpt>
      <trkpt lat="49.25017" lon="-0.50703">
        <ele>103</ele>
        <time>2012-08-16T16:11:18Z</time>
      </trkpt>
      <trkpt lat="49.2502" lon="-0.50714">
        <ele>102</ele>
        <time>2012-08-16T16:11:20Z</time>
      </trkpt>
      <trkpt lat="49.25021" lon="-0.50725">
        <ele>103</ele>
        <time>2012-08-16T16:11:22Z</time>
      </trkpt>
      <trkpt lat="49.25024" lon="-0.50736">
        <ele>103</ele>
        <time>2012-08-16T16:11:24Z</time>
      </trkpt>
      <trkpt lat="49.25026" lon="-0.50745">
        <ele>103</ele>
        <time>2012-08-16T16:11:26Z</time>
      </trkpt>
      <trkpt lat="49.25037" lon="-0.50797">
        <ele>103</ele>
        <time>2012-08-16T16:11:35Z</time>
      </trkpt>
      <trkpt lat="49.25038" lon="-0.50804">
        <ele>103</ele>
        <time>2012-08-16T16:11:36Z</time>
      </trkpt>
      <trkpt lat="49.25039" lon="-0.50813">
        <ele>101</ele>
        <time>2012-08-16T16:11:38Z</time>
      </trkpt>
      <trkpt lat="49.2504" lon="-0.50825">
        <ele>101</ele>
        <time>2012-08-16T16:11:40Z</time>
      </trkpt>
      <trkpt lat="49.25042" lon="-0.50836">
        <ele>101</ele>
        <time>2012-08-16T16:11:42Z</time>
      </trkpt>
      <trkpt lat="49.25044" lon="-0.50847">
        <ele>101</ele>
        <time>2012-08-16T16:11:44Z</time>
      </trkpt>
      <trkpt lat="49.25047" lon="-0.50856">
        <ele>102</ele>
        <time>2012-08-16T16:11:46Z</time>
      </trkpt>
      <trkpt lat="49.25049" lon="-0.50865">
        <ele>101</ele>
        <time>2012-08-16T16:11:48Z</time>
      </trkpt>
      <trkpt lat="49.25051" lon="-0.50877">
        <ele>101</ele>
        <time>2012-08-16T16:11:50Z</time>
      </trkpt>
      <trkpt lat="49.25052" lon="-0.5089">
        <ele>102</ele>
        <time>2012-08-16T16:11:52Z</time>
      </trkpt>
      <trkpt lat="49.25055" lon="-0.50899">
        <ele>102</ele>
        <time>2012-08-16T16:11:54Z</time>
      </trkpt>
      <trkpt lat="49.25057" lon="-0.5091">
        <ele>102</ele>
        <time>2012-08-16T16:11:56Z</time>
      </trkpt>
      <trkpt lat="49.2506" lon="-0.5092">
        <ele>103</ele>
        <time>2012-08-16T16:11:58Z</time>
      </trkpt>
      <trkpt lat="49.25061" lon="-0.50931">
        <ele>103</ele>
        <time>2012-08-16T16:12:00Z</time>
      </trkpt>
      <trkpt lat="49.25064" lon="-0.50942">
        <ele>103</ele>
        <time>2012-08-16T16:12:02Z</time>
      </trkpt>
      <trkpt lat="49.25067" lon="-0.50951">
        <ele>103</ele>
        <time>2012-08-16T16:12:04Z</time>
      </trkpt>
      <trkpt lat="49.2507" lon="-0.50964">
        <ele>104</ele>
        <time>2012-08-16T16:12:06Z</time>
      </trkpt>
      <trkpt lat="49.2507" lon="-0.50974">
        <ele>104</ele>
        <time>2012-08-16T16:12:08Z</time>
      </trkpt>
      <trkpt lat="49.25074" lon="-0.50982">
        <ele>105</ele>
        <time>2012-08-16T16:12:10Z</time>
      </trkpt>
      <trkpt lat="49.25075" lon="-0.50994">
        <ele>104</ele>
        <time>2012-08-16T16:12:12Z</time>
      </trkpt>
      <trkpt lat="49.25078" lon="-0.51005">
        <ele>104</ele>
        <time>2012-08-16T16:12:14Z</time>
      </trkpt>
      <trkpt lat="49.2508" lon="-0.51014">
        <ele>104</ele>
        <time>2012-08-16T16:12:16Z</time>
      </trkpt>
      <trkpt lat="49.25082" lon="-0.51025">
        <ele>104</ele>
        <time>2012-08-16T16:12:18Z</time>
      </trkpt>
      <trkpt lat="49.25084" lon="-0.51036">
        <ele>103</ele>
        <time>2012-08-16T16:12:20Z</time>
      </trkpt>
      <trkpt lat="49.25087" lon="-0.51046">
        <ele>103</ele>
        <time>2012-08-16T16:12:22Z</time>
      </trkpt>
      <trkpt lat="49.25089" lon="-0.51056">
        <ele>103</ele>
        <time>2012-08-16T16:12:24Z</time>
      </trkpt>
      <trkpt lat="49.2509" lon="-0.51066">
        <ele>104</ele>
        <time>2012-08-16T16:12:26Z</time>
      </trkpt>
      <trkpt lat="49.25094" lon="-0.51074">
        <ele>105</ele>
        <time>2012-08-16T16:12:28Z</time>
      </trkpt>
      <trkpt lat="49.25095" lon="-0.51083">
        <ele>105</ele>
        <time>2012-08-16T16:12:30Z</time>
      </trkpt>
      <trkpt lat="49.25097" lon="-0.51094">
        <ele>105</ele>
        <time>2012-08-16T16:12:32Z</time>
      </trkpt>
      <trkpt lat="49.25099" lon="-0.51105">
        <ele>105</ele>
        <time>2012-08-16T16:12:34Z</time>
      </trkpt>
      <trkpt lat="49.25102" lon="-0.51116">
        <ele>105</ele>
        <time>2012-08-16T16:12:36Z</time>
      </trkpt>
      <trkpt lat="49.25104" lon="-0.51128">
        <ele>104</ele>
        <time>2012-08-16T16:12:38Z</time>
      </trkpt>
      <trkpt lat="49.25106" lon="-0.51139">
        <ele>104</ele>
        <time>2012-08-16T16:12:40Z</time>
      </trkpt>
      <trkpt lat="49.25108" lon="-0.51149">
        <ele>104</ele>
        <time>2012-08-16T16:12:42Z</time>
      </trkpt>
      <trkpt lat="49.2511" lon="-0.51158">
        <ele>104</ele>
        <time>2012-08-16T16:12:44Z</time>
      </trkpt>
      <trkpt lat="49.25112" lon="-0.51168">
        <ele>104</ele>
        <time>2012-08-16T16:12:46Z</time>
      </trkpt>
      <trkpt lat="49.25114" lon="-0.51179">
        <ele>103</ele>
        <time>2012-08-16T16:12:48Z</time>
      </trkpt>
      <trkpt lat="49.25117" lon="-0.5119">
        <ele>102</ele>
        <time>2012-08-16T16:12:50Z</time>
      </trkpt>
      <trkpt lat="49.25119" lon="-0.51202">
        <ele>102</ele>
        <time>2012-08-16T16:12:52Z</time>
      </trkpt>
      <trkpt lat="49.25121" lon="-0.51214">
        <ele>102</ele>
        <time>2012-08-16T16:12:54Z</time>
      </trkpt>
      <trkpt lat="49.25124" lon="-0.51226">
        <ele>101</ele>
        <time>2012-08-16T16:12:56Z</time>
      </trkpt>
      <trkpt lat="49.25127" lon="-0.51238">
        <ele>101</ele>
        <time>2012-08-16T16:12:58Z</time>
      </trkpt>
      <trkpt lat="49.25129" lon="-0.51249">
        <ele>101</ele>
        <time>2012-08-16T16:13:00Z</time>
      </trkpt>
      <trkpt lat="49.25131" lon="-0.51261">
        <ele>101</ele>
        <time>2012-08-16T16:13:02Z</time>
      </trkpt>
      <trkpt lat="49.25133" lon="-0.51272">
        <ele>100</ele>
        <time>2012-08-16T16:13:04Z</time>
      </trkpt>
      <trkpt lat="49.25134" lon="-0.51285">
        <ele>100</ele>
        <time>2012-08-16T16:13:06Z</time>
      </trkpt>
      <trkpt lat="49.25137" lon="-0.51296">
        <ele>100</ele>
        <time>2012-08-16T16:13:08Z</time>
      </trkpt>
      <trkpt lat="49.2514" lon="-0.51306">
        <ele>100</ele>
        <time>2012-08-16T16:13:10Z</time>
      </trkpt>
      <trkpt lat="49.25141" lon="-0.51313">
        <ele>100</ele>
        <time>2012-08-16T16:13:11Z</time>
      </trkpt>
      <trkpt lat="49.25145" lon="-0.51324">
        <ele>100</ele>
        <time>2012-08-16T16:13:13Z</time>
      </trkpt>
      <trkpt lat="49.25149" lon="-0.51334">
        <ele>99</ele>
        <time>2012-08-16T16:13:15Z</time>
      </trkpt>
      <trkpt lat="49.2515" lon="-0.51349">
        <ele>98</ele>
        <time>2012-08-16T16:13:17Z</time>
      </trkpt>
      <trkpt lat="49.25153" lon="-0.51361">
        <ele>98</ele>
        <time>2012-08-16T16:13:19Z</time>
      </trkpt>
      <trkpt lat="49.25155" lon="-0.51374">
        <ele>99</ele>
        <time>2012-08-16T16:13:21Z</time>
      </trkpt>
      <trkpt lat="49.25158" lon="-0.51386">
        <ele>99</ele>
        <time>2012-08-16T16:13:23Z</time>
      </trkpt>
      <trkpt lat="49.25161" lon="-0.514">
        <ele>98</ele>
        <time>2012-08-16T16:13:25Z</time>
      </trkpt>
      <trkpt lat="49.25162" lon="-0.51408">
        <ele>98</ele>
        <time>2012-08-16T16:13:26Z</time>
      </trkpt>
      <trkpt lat="49.25164" lon="-0.51415">
        <ele>98</ele>
        <time>2012-08-16T16:13:27Z</time>
      </trkpt>
      <trkpt lat="49.25166" lon="-0.51421">
        <ele>98</ele>
        <time>2012-08-16T16:13:28Z</time>
      </trkpt>
      <trkpt lat="49.25168" lon="-0.51432">
        <ele>98</ele>
        <time>2012-08-16T16:13:30Z</time>
      </trkpt>
      <trkpt lat="49.2517" lon="-0.51444">
        <ele>98</ele>
        <time>2012-08-16T16:13:32Z</time>
      </trkpt>
      <trkpt lat="49.25172" lon="-0.51455">
        <ele>99</ele>
        <time>2012-08-16T16:13:34Z</time>
      </trkpt>
      <trkpt lat="49.25174" lon="-0.51465">
        <ele>98</ele>
        <time>2012-08-16T16:13:36Z</time>
      </trkpt>
      <trkpt lat="49.25177" lon="-0.5147">
        <ele>96</ele>
        <time>2012-08-16T16:19:24Z</time>
      </trkpt>
      <trkpt lat="49.25172" lon="-0.51477">
        <ele>95</ele>
        <time>2012-08-16T16:19:27Z</time>
      </trkpt>
      <trkpt lat="49.25167" lon="-0.5148">
        <ele>95</ele>
        <time>2012-08-16T16:19:29Z</time>
      </trkpt>
      <trkpt lat="49.25161" lon="-0.51484">
        <ele>96</ele>
        <time>2012-08-16T16:19:31Z</time>
      </trkpt>
      <trkpt lat="49.25155" lon="-0.51489">
        <ele>97</ele>
        <time>2012-08-16T16:19:33Z</time>
      </trkpt>
      <trkpt lat="49.2515" lon="-0.51496">
        <ele>96</ele>
        <time>2012-08-16T16:19:35Z</time>
      </trkpt>
      <trkpt lat="49.25144" lon="-0.51502">
        <ele>96</ele>
        <time>2012-08-16T16:19:37Z</time>
      </trkpt>
      <trkpt lat="49.25138" lon="-0.51508">
        <ele>95</ele>
        <time>2012-08-16T16:19:39Z</time>
      </trkpt>
      <trkpt lat="49.25133" lon="-0.51514">
        <ele>94</ele>
        <time>2012-08-16T16:19:41Z</time>
      </trkpt>
      <trkpt lat="49.25127" lon="-0.51521">
        <ele>93</ele>
        <time>2012-08-16T16:19:43Z</time>
      </trkpt>
      <trkpt lat="49.25121" lon="-0.5153">
        <ele>93</ele>
        <time>2012-08-16T16:19:45Z</time>
      </trkpt>
      <trkpt lat="49.25116" lon="-0.51535">
        <ele>93</ele>
        <time>2012-08-16T16:19:47Z</time>
      </trkpt>
      <trkpt lat="49.2511" lon="-0.51541">
        <ele>93</ele>
        <time>2012-08-16T16:19:49Z</time>
      </trkpt>
      <trkpt lat="49.25105" lon="-0.51548">
        <ele>93</ele>
        <time>2012-08-16T16:19:51Z</time>
      </trkpt>
      <trkpt lat="49.25098" lon="-0.51555">
        <ele>93</ele>
        <time>2012-08-16T16:19:53Z</time>
      </trkpt>
      <trkpt lat="49.25094" lon="-0.5156">
        <ele>93</ele>
        <time>2012-08-16T16:19:55Z</time>
      </trkpt>
      <trkpt lat="49.25088" lon="-0.51566">
        <ele>94</ele>
        <time>2012-08-16T16:19:57Z</time>
      </trkpt>
      <trkpt lat="49.25082" lon="-0.51574">
        <ele>93</ele>
        <time>2012-08-16T16:19:59Z</time>
      </trkpt>
      <trkpt lat="49.25078" lon="-0.51581">
        <ele>93</ele>
        <time>2012-08-16T16:20:01Z</time>
      </trkpt>
      <trkpt lat="49.25074" lon="-0.51588">
        <ele>93</ele>
        <time>2012-08-16T16:20:03Z</time>
      </trkpt>
      <trkpt lat="49.25071" lon="-0.51596">
        <ele>96</ele>
        <time>2012-08-16T16:20:05Z</time>
      </trkpt>
      <trkpt lat="49.25068" lon="-0.51604">
        <ele>96</ele>
        <time>2012-08-16T16:20:07Z</time>
      </trkpt>
      <trkpt lat="49.25064" lon="-0.51612">
        <ele>96</ele>
        <time>2012-08-16T16:20:09Z</time>
      </trkpt>
      <trkpt lat="49.2506" lon="-0.5162">
        <ele>97</ele>
        <time>2012-08-16T16:20:11Z</time>
      </trkpt>
      <trkpt lat="49.25056" lon="-0.51628">
        <ele>97</ele>
        <time>2012-08-16T16:20:13Z</time>
      </trkpt>
      <trkpt lat="49.25053" lon="-0.51635">
        <ele>97</ele>
        <time>2012-08-16T16:20:15Z</time>
      </trkpt>
      <trkpt lat="49.25051" lon="-0.51643">
        <ele>97</ele>
        <time>2012-08-16T16:20:17Z</time>
      </trkpt>
      <trkpt lat="49.25048" lon="-0.51651">
        <ele>98</ele>
        <time>2012-08-16T16:20:19Z</time>
      </trkpt>
      <trkpt lat="49.25045" lon="-0.51659">
        <ele>98</ele>
        <time>2012-08-16T16:20:21Z</time>
      </trkpt>
      <trkpt lat="49.25042" lon="-0.51668">
        <ele>97</ele>
        <time>2012-08-16T16:20:23Z</time>
      </trkpt>
      <trkpt lat="49.25039" lon="-0.51675">
        <ele>97</ele>
        <time>2012-08-16T16:20:24Z</time>
      </trkpt>
      <trkpt lat="49.25037" lon="-0.51684">
        <ele>97</ele>
        <time>2012-08-16T16:20:26Z</time>
      </trkpt>
      <trkpt lat="49.25035" lon="-0.51695">
        <ele>97</ele>
        <time>2012-08-16T16:20:28Z</time>
      </trkpt>
      <trkpt lat="49.2503" lon="-0.51708">
        <ele>97</ele>
        <time>2012-08-16T16:20:30Z</time>
      </trkpt>
      <trkpt lat="49.25027" lon="-0.51719">
        <ele>96</ele>
        <time>2012-08-16T16:20:32Z</time>
      </trkpt>
      <trkpt lat="49.25025" lon="-0.5173">
        <ele>96</ele>
        <time>2012-08-16T16:20:34Z</time>
      </trkpt>
      <trkpt lat="49.25024" lon="-0.51741">
        <ele>96</ele>
        <time>2012-08-16T16:20:36Z</time>
      </trkpt>
      <trkpt lat="49.25021" lon="-0.51754">
        <ele>96</ele>
        <time>2012-08-16T16:20:38Z</time>
      </trkpt>
      <trkpt lat="49.25016" lon="-0.51766">
        <ele>96</ele>
        <time>2012-08-16T16:20:40Z</time>
      </trkpt>
      <trkpt lat="49.25013" lon="-0.51772">
        <ele>97</ele>
        <time>2012-08-16T16:20:41Z</time>
      </trkpt>
      <trkpt lat="49.25009" lon="-0.51778">
        <ele>96</ele>
        <time>2012-08-16T16:20:42Z</time>
      </trkpt>
      <trkpt lat="49.25005" lon="-0.51789">
        <ele>97</ele>
        <time>2012-08-16T16:20:44Z</time>
      </trkpt>
      <trkpt lat="49.25002" lon="-0.51795">
        <ele>96</ele>
        <time>2012-08-16T16:20:45Z</time>
      </trkpt>
      <trkpt lat="49.25" lon="-0.51802">
        <ele>96</ele>
        <time>2012-08-16T16:20:46Z</time>
      </trkpt>
      <trkpt lat="49.24997" lon="-0.51807">
        <ele>96</ele>
        <time>2012-08-16T16:20:47Z</time>
      </trkpt>
      <trkpt lat="49.24994" lon="-0.51814">
        <ele>96</ele>
        <time>2012-08-16T16:20:48Z</time>
      </trkpt>
      <trkpt lat="49.24992" lon="-0.51823">
        <ele>96</ele>
        <time>2012-08-16T16:20:49Z</time>
      </trkpt>
      <trkpt lat="49.24988" lon="-0.51832">
        <ele>96</ele>
        <time>2012-08-16T16:20:50Z</time>
      </trkpt>
      <trkpt lat="49.24986" lon="-0.5184">
        <ele>96</ele>
        <time>2012-08-16T16:20:51Z</time>
      </trkpt>
      <trkpt lat="49.24983" lon="-0.51849">
        <ele>96</ele>
        <time>2012-08-16T16:20:52Z</time>
      </trkpt>
      <trkpt lat="49.2498" lon="-0.51858">
        <ele>96</ele>
        <time>2012-08-16T16:20:53Z</time>
      </trkpt>
      <trkpt lat="49.24977" lon="-0.51867">
        <ele>96</ele>
        <time>2012-08-16T16:20:54Z</time>
      </trkpt>
      <trkpt lat="49.24973" lon="-0.51877">
        <ele>95</ele>
        <time>2012-08-16T16:20:55Z</time>
      </trkpt>
      <trkpt lat="49.2497" lon="-0.51886">
        <ele>95</ele>
        <time>2012-08-16T16:20:56Z</time>
      </trkpt>
      <trkpt lat="49.24968" lon="-0.51895">
        <ele>95</ele>
        <time>2012-08-16T16:20:57Z</time>
      </trkpt>
      <trkpt lat="49.24964" lon="-0.51902">
        <ele>95</ele>
        <time>2012-08-16T16:20:58Z</time>
      </trkpt>
      <trkpt lat="49.24962" lon="-0.51911">
        <ele>95</ele>
        <time>2012-08-16T16:20:59Z</time>
      </trkpt>
      <trkpt lat="49.24958" lon="-0.5192">
        <ele>95</ele>
        <time>2012-08-16T16:21:00Z</time>
      </trkpt>
      <trkpt lat="49.24955" lon="-0.51928">
        <ele>95</ele>
        <time>2012-08-16T16:21:01Z</time>
      </trkpt>
      <trkpt lat="49.24952" lon="-0.51934">
        <ele>94</ele>
        <time>2012-08-16T16:21:02Z</time>
      </trkpt>
      <trkpt lat="49.24949" lon="-0.51943">
        <ele>94</ele>
        <time>2012-08-16T16:21:03Z</time>
      </trkpt>
      <trkpt lat="49.24946" lon="-0.51953">
        <ele>94</ele>
        <time>2012-08-16T16:21:04Z</time>
      </trkpt>
      <trkpt lat="49.24941" lon="-0.51964">
        <ele>93</ele>
        <time>2012-08-16T16:21:05Z</time>
      </trkpt>
      <trkpt lat="49.24938" lon="-0.51972">
        <ele>93</ele>
        <time>2012-08-16T16:21:06Z</time>
      </trkpt>
      <trkpt lat="49.24934" lon="-0.5198">
        <ele>93</ele>
        <time>2012-08-16T16:21:07Z</time>
      </trkpt>
      <trkpt lat="49.24929" lon="-0.51994">
        <ele>92</ele>
        <time>2012-08-16T16:21:09Z</time>
      </trkpt>
      <trkpt lat="49.24924" lon="-0.52002">
        <ele>92</ele>
        <time>2012-08-16T16:21:10Z</time>
      </trkpt>
      <trkpt lat="49.2492" lon="-0.52011">
        <ele>92</ele>
        <time>2012-08-16T16:21:11Z</time>
      </trkpt>
      <trkpt lat="49.24915" lon="-0.52019">
        <ele>92</ele>
        <time>2012-08-16T16:21:12Z</time>
      </trkpt>
      <trkpt lat="49.2491" lon="-0.52027">
        <ele>92</ele>
        <time>2012-08-16T16:21:13Z</time>
      </trkpt>
      <trkpt lat="49.24906" lon="-0.52035">
        <ele>91</ele>
        <time>2012-08-16T16:21:14Z</time>
      </trkpt>
      <trkpt lat="49.24902" lon="-0.52044">
        <ele>91</ele>
        <time>2012-08-16T16:21:15Z</time>
      </trkpt>
      <trkpt lat="49.24897" lon="-0.52053">
        <ele>91</ele>
        <time>2012-08-16T16:21:16Z</time>
      </trkpt>
      <trkpt lat="49.24893" lon="-0.52062">
        <ele>91</ele>
        <time>2012-08-16T16:21:17Z</time>
      </trkpt>
      <trkpt lat="49.2489" lon="-0.5207">
        <ele>91</ele>
        <time>2012-08-16T16:21:18Z</time>
      </trkpt>
      <trkpt lat="49.24886" lon="-0.52078">
        <ele>91</ele>
        <time>2012-08-16T16:21:19Z</time>
      </trkpt>
      <trkpt lat="49.24883" lon="-0.52087">
        <ele>91</ele>
        <time>2012-08-16T16:21:20Z</time>
      </trkpt>
      <trkpt lat="49.24878" lon="-0.52095">
        <ele>91</ele>
        <time>2012-08-16T16:21:21Z</time>
      </trkpt>
      <trkpt lat="49.24874" lon="-0.52105">
        <ele>91</ele>
        <time>2012-08-16T16:21:22Z</time>
      </trkpt>
      <trkpt lat="49.24869" lon="-0.52114">
        <ele>90</ele>
        <time>2012-08-16T16:21:23Z</time>
      </trkpt>
      <trkpt lat="49.24864" lon="-0.52121">
        <ele>90</ele>
        <time>2012-08-16T16:21:24Z</time>
      </trkpt>
      <trkpt lat="49.2486" lon="-0.52128">
        <ele>89</ele>
        <time>2012-08-16T16:21:25Z</time>
      </trkpt>
      <trkpt lat="49.24856" lon="-0.52135">
        <ele>89</ele>
        <time>2012-08-16T16:21:26Z</time>
      </trkpt>
      <trkpt lat="49.24852" lon="-0.5214">
        <ele>88</ele>
        <time>2012-08-16T16:21:27Z</time>
      </trkpt>
      <trkpt lat="49.24847" lon="-0.52146">
        <ele>88</ele>
        <time>2012-08-16T16:21:28Z</time>
      </trkpt>
      <trkpt lat="49.2484" lon="-0.52153">
        <ele>89</ele>
        <time>2012-08-16T16:21:30Z</time>
      </trkpt>
      <trkpt lat="49.24836" lon="-0.52157">
        <ele>89</ele>
        <time>2012-08-16T16:21:32Z</time>
      </trkpt>
      <trkpt lat="49.24829" lon="-0.52159">
        <ele>89</ele>
        <time>2012-08-16T16:21:34Z</time>
      </trkpt>
      <trkpt lat="49.24822" lon="-0.52162">
        <ele>88</ele>
        <time>2012-08-16T16:21:37Z</time>
      </trkpt>
      <trkpt lat="49.24815" lon="-0.52166">
        <ele>88</ele>
        <time>2012-08-16T16:21:39Z</time>
      </trkpt>
      <trkpt lat="49.24807" lon="-0.52174">
        <ele>88</ele>
        <time>2012-08-16T16:21:41Z</time>
      </trkpt>
      <trkpt lat="49.24801" lon="-0.52179">
        <ele>87</ele>
        <time>2012-08-16T16:21:42Z</time>
      </trkpt>
      <trkpt lat="49.24796" lon="-0.52181">
        <ele>88</ele>
        <time>2012-08-16T16:21:43Z</time>
      </trkpt>
      <trkpt lat="49.24787" lon="-0.52186">
        <ele>87</ele>
        <time>2012-08-16T16:21:45Z</time>
      </trkpt>
      <trkpt lat="49.24782" lon="-0.52189">
        <ele>86</ele>
        <time>2012-08-16T16:21:46Z</time>
      </trkpt>
      <trkpt lat="49.24778" lon="-0.52191">
        <ele>86</ele>
        <time>2012-08-16T16:21:47Z</time>
      </trkpt>
      <trkpt lat="49.2477" lon="-0.52196">
        <ele>86</ele>
        <time>2012-08-16T16:21:49Z</time>
      </trkpt>
      <trkpt lat="49.2476" lon="-0.52197">
        <ele>84</ele>
        <time>2012-08-16T16:21:51Z</time>
      </trkpt>
      <trkpt lat="49.24755" lon="-0.52197">
        <ele>82</ele>
        <time>2012-08-16T16:21:53Z</time>
      </trkpt>
      <trkpt lat="49.24761" lon="-0.52194">
        <ele>80</ele>
        <time>2012-08-16T16:22:01Z</time>
      </trkpt>
      <trkpt lat="49.24766" lon="-0.52189">
        <ele>78</ele>
        <time>2012-08-16T16:22:08Z</time>
      </trkpt>
      <trkpt lat="49.2477" lon="-0.52185">
        <ele>79</ele>
        <time>2012-08-16T16:22:10Z</time>
      </trkpt>
      <trkpt lat="49.24774" lon="-0.52183">
        <ele>78</ele>
        <time>2012-08-16T16:22:12Z</time>
      </trkpt>
      <trkpt lat="49.24781" lon="-0.52181">
        <ele>78</ele>
        <time>2012-08-16T16:22:15Z</time>
      </trkpt>
      <trkpt lat="49.24786" lon="-0.52178">
        <ele>78</ele>
        <time>2012-08-16T16:22:19Z</time>
      </trkpt>
      <trkpt lat="49.24792" lon="-0.52177">
        <ele>79</ele>
        <time>2012-08-16T16:22:22Z</time>
      </trkpt>
      <trkpt lat="49.24797" lon="-0.52175">
        <ele>79</ele>
        <time>2012-08-16T16:22:25Z</time>
      </trkpt>
      <trkpt lat="49.24801" lon="-0.52173">
        <ele>79</ele>
        <time>2012-08-16T16:22:27Z</time>
      </trkpt>
      <trkpt lat="49.24807" lon="-0.5217">
        <ele>79</ele>
        <time>2012-08-16T16:22:30Z</time>
      </trkpt>
      <trkpt lat="49.24814" lon="-0.52167">
        <ele>78</ele>
        <time>2012-08-16T16:22:33Z</time>
      </trkpt>
      <trkpt lat="49.24818" lon="-0.52163">
        <ele>78</ele>
        <time>2012-08-16T16:22:35Z</time>
      </trkpt>
      <trkpt lat="49.24821" lon="-0.52157">
        <ele>76</ele>
        <time>2012-08-16T16:22:37Z</time>
      </trkpt>
      <trkpt lat="49.24825" lon="-0.52156">
        <ele>76</ele>
        <time>2012-08-16T16:22:41Z</time>
      </trkpt>
      <trkpt lat="49.24831" lon="-0.52152">
        <ele>76</ele>
        <time>2012-08-16T16:22:44Z</time>
      </trkpt>
      <trkpt lat="49.24836" lon="-0.52148">
        <ele>76</ele>
        <time>2012-08-16T16:22:46Z</time>
      </trkpt>
      <trkpt lat="49.24841" lon="-0.52144">
        <ele>76</ele>
        <time>2012-08-16T16:22:48Z</time>
      </trkpt>
      <trkpt lat="49.24848" lon="-0.52138">
        <ele>75</ele>
        <time>2012-08-16T16:22:50Z</time>
      </trkpt>
      <trkpt lat="49.24855" lon="-0.52131">
        <ele>74</ele>
        <time>2012-08-16T16:22:52Z</time>
      </trkpt>
      <trkpt lat="49.24861" lon="-0.52126">
        <ele>75</ele>
        <time>2012-08-16T16:22:54Z</time>
      </trkpt>
      <trkpt lat="49.24866" lon="-0.5212">
        <ele>74</ele>
        <time>2012-08-16T16:22:56Z</time>
      </trkpt>
      <trkpt lat="49.24873" lon="-0.52115">
        <ele>75</ele>
        <time>2012-08-16T16:22:58Z</time>
      </trkpt>
      <trkpt lat="49.2488" lon="-0.52108">
        <ele>75</ele>
        <time>2012-08-16T16:23:00Z</time>
      </trkpt>
      <trkpt lat="49.24887" lon="-0.52103">
        <ele>76</ele>
        <time>2012-08-16T16:23:02Z</time>
      </trkpt>
      <trkpt lat="49.24895" lon="-0.52099">
        <ele>78</ele>
        <time>2012-08-16T16:23:04Z</time>
      </trkpt>
      <trkpt lat="49.24902" lon="-0.52093">
        <ele>79</ele>
        <time>2012-08-16T16:23:06Z</time>
      </trkpt>
      <trkpt lat="49.24908" lon="-0.52087">
        <ele>78</ele>
        <time>2012-08-16T16:23:09Z</time>
      </trkpt>
      <trkpt lat="49.24911" lon="-0.52083">
        <ele>78</ele>
        <time>2012-08-16T16:23:11Z</time>
      </trkpt>
      <trkpt lat="49.24917" lon="-0.52076">
        <ele>78</ele>
        <time>2012-08-16T16:23:13Z</time>
      </trkpt>
      <trkpt lat="49.24924" lon="-0.52071">
        <ele>79</ele>
        <time>2012-08-16T16:23:15Z</time>
      </trkpt>
      <trkpt lat="49.24927" lon="-0.52067">
        <ele>78</ele>
        <time>2012-08-16T16:23:17Z</time>
      </trkpt>
      <trkpt lat="49.24931" lon="-0.52061">
        <ele>78</ele>
        <time>2012-08-16T16:23:18Z</time>
      </trkpt>
      <trkpt lat="49.24937" lon="-0.52053">
        <ele>78</ele>
        <time>2012-08-16T16:23:20Z</time>
      </trkpt>
      <trkpt lat="49.24943" lon="-0.52047">
        <ele>78</ele>
        <time>2012-08-16T16:23:22Z</time>
      </trkpt>
      <trkpt lat="49.2495" lon="-0.5204">
        <ele>77</ele>
        <time>2012-08-16T16:23:24Z</time>
      </trkpt>
      <trkpt lat="49.24957" lon="-0.52029">
        <ele>78</ele>
        <time>2012-08-16T16:23:27Z</time>
      </trkpt>
      <trkpt lat="49.24963" lon="-0.52024">
        <ele>78</ele>
        <time>2012-08-16T16:23:29Z</time>
      </trkpt>
      <trkpt lat="49.24969" lon="-0.52019">
        <ele>78</ele>
        <time>2012-08-16T16:23:31Z</time>
      </trkpt>
      <trkpt lat="49.24973" lon="-0.52012">
        <ele>78</ele>
        <time>2012-08-16T16:23:33Z</time>
      </trkpt>
      <trkpt lat="49.24975" lon="-0.52005">
        <ele>78</ele>
        <time>2012-08-16T16:23:35Z</time>
      </trkpt>
      <trkpt lat="49.24996" lon="-0.51983">
        <ele>75</ele>
        <time>2012-08-16T16:23:43Z</time>
      </trkpt>
      <trkpt lat="49.25002" lon="-0.51975">
        <ele>75</ele>
        <time>2012-08-16T16:23:46Z</time>
      </trkpt>
      <trkpt lat="49.25015" lon="-0.51966">
        <ele>75</ele>
        <time>2012-08-16T16:23:50Z</time>
      </trkpt>
      <trkpt lat="49.25021" lon="-0.51959">
        <ele>75</ele>
        <time>2012-08-16T16:23:52Z</time>
      </trkpt>
      <trkpt lat="49.25026" lon="-0.51954">
        <ele>76</ele>
        <time>2012-08-16T16:23:54Z</time>
      </trkpt>
      <trkpt lat="49.25048" lon="-0.51932">
        <ele>76</ele>
        <time>2012-08-16T16:24:02Z</time>
      </trkpt>
      <trkpt lat="49.25053" lon="-0.51929">
        <ele>77</ele>
        <time>2012-08-16T16:24:04Z</time>
      </trkpt>
      <trkpt lat="49.25062" lon="-0.51923">
        <ele>76</ele>
        <time>2012-08-16T16:24:06Z</time>
      </trkpt>
      <trkpt lat="49.25066" lon="-0.51915">
        <ele>77</ele>
        <time>2012-08-16T16:24:08Z</time>
      </trkpt>
      <trkpt lat="49.2507" lon="-0.5191">
        <ele>76</ele>
        <time>2012-08-16T16:24:10Z</time>
      </trkpt>
      <trkpt lat="49.25076" lon="-0.51903">
        <ele>76</ele>
        <time>2012-08-16T16:24:12Z</time>
      </trkpt>
      <trkpt lat="49.25081" lon="-0.51898">
        <ele>77</ele>
        <time>2012-08-16T16:24:13Z</time>
      </trkpt>
      <trkpt lat="49.25087" lon="-0.51892">
        <ele>76</ele>
        <time>2012-08-16T16:24:15Z</time>
      </trkpt>
      <trkpt lat="49.2509" lon="-0.51887">
        <ele>76</ele>
        <time>2012-08-16T16:24:17Z</time>
      </trkpt>
      <trkpt lat="49.25096" lon="-0.5188">
        <ele>75</ele>
        <time>2012-08-16T16:24:20Z</time>
      </trkpt>
      <trkpt lat="49.25102" lon="-0.51876">
        <ele>75</ele>
        <time>2012-08-16T16:24:22Z</time>
      </trkpt>
      <trkpt lat="49.25107" lon="-0.51869">
        <ele>75</ele>
        <time>2012-08-16T16:24:24Z</time>
      </trkpt>
      <trkpt lat="49.25112" lon="-0.51863">
        <ele>75</ele>
        <time>2012-08-16T16:24:26Z</time>
      </trkpt>
      <trkpt lat="49.25117" lon="-0.51858">
        <ele>75</ele>
        <time>2012-08-16T16:24:27Z</time>
      </trkpt>
      <trkpt lat="49.25123" lon="-0.51855">
        <ele>75</ele>
        <time>2012-08-16T16:24:29Z</time>
      </trkpt>
      <trkpt lat="49.2513" lon="-0.51849">
        <ele>73</ele>
        <time>2012-08-16T16:24:32Z</time>
      </trkpt>
      <trkpt lat="49.25135" lon="-0.51842">
        <ele>73</ele>
        <time>2012-08-16T16:24:35Z</time>
      </trkpt>
      <trkpt lat="49.25139" lon="-0.51838">
        <ele>72</ele>
        <time>2012-08-16T16:24:37Z</time>
      </trkpt>
      <trkpt lat="49.25145" lon="-0.51835">
        <ele>72</ele>
        <time>2012-08-16T16:24:40Z</time>
      </trkpt>
      <trkpt lat="49.25149" lon="-0.5183">
        <ele>71</ele>
        <time>2012-08-16T16:24:42Z</time>
      </trkpt>
      <trkpt lat="49.25155" lon="-0.51826">
        <ele>71</ele>
        <time>2012-08-16T16:24:44Z</time>
      </trkpt>
      <trkpt lat="49.25162" lon="-0.51819">
        <ele>71</ele>
        <time>2012-08-16T16:24:46Z</time>
      </trkpt>
      <trkpt lat="49.25168" lon="-0.51813">
        <ele>71</ele>
        <time>2012-08-16T16:24:48Z</time>
      </trkpt>
      <trkpt lat="49.25174" lon="-0.51807">
        <ele>72</ele>
        <time>2012-08-16T16:24:50Z</time>
      </trkpt>
      <trkpt lat="49.2518" lon="-0.518">
        <ele>74</ele>
        <time>2012-08-16T16:24:52Z</time>
      </trkpt>
      <trkpt lat="49.25184" lon="-0.51796">
        <ele>74</ele>
        <time>2012-08-16T16:24:54Z</time>
      </trkpt>
      <trkpt lat="49.25189" lon="-0.5179">
        <ele>74</ele>
        <time>2012-08-16T16:24:56Z</time>
      </trkpt>
      <trkpt lat="49.25194" lon="-0.51784">
        <ele>74</ele>
        <time>2012-08-16T16:24:58Z</time>
      </trkpt>
      <trkpt lat="49.25199" lon="-0.5178">
        <ele>75</ele>
        <time>2012-08-16T16:25:00Z</time>
      </trkpt>
      <trkpt lat="49.25204" lon="-0.51776">
        <ele>76</ele>
        <time>2012-08-16T16:25:02Z</time>
      </trkpt>
      <trkpt lat="49.25207" lon="-0.51769">
        <ele>77</ele>
        <time>2012-08-16T16:25:04Z</time>
      </trkpt>
      <trkpt lat="49.25213" lon="-0.51761">
        <ele>77</ele>
        <time>2012-08-16T16:25:06Z</time>
      </trkpt>
      <trkpt lat="49.25216" lon="-0.51755">
        <ele>78</ele>
        <time>2012-08-16T16:25:08Z</time>
      </trkpt>
      <trkpt lat="49.25223" lon="-0.51747">
        <ele>79</ele>
        <time>2012-08-16T16:25:10Z</time>
      </trkpt>
      <trkpt lat="49.25229" lon="-0.51738">
        <ele>80</ele>
        <time>2012-08-16T16:25:12Z</time>
      </trkpt>
      <trkpt lat="49.25233" lon="-0.51734">
        <ele>80</ele>
        <time>2012-08-16T16:25:13Z</time>
      </trkpt>
      <trkpt lat="49.25244" lon="-0.5172">
        <ele>80</ele>
        <time>2012-08-16T16:25:15Z</time>
      </trkpt>
      <trkpt lat="49.2525" lon="-0.51714">
        <ele>79</ele>
        <time>2012-08-16T16:25:16Z</time>
      </trkpt>
      <trkpt lat="49.25256" lon="-0.51714">
        <ele>80</ele>
        <time>2012-08-16T16:25:19Z</time>
      </trkpt>
      <trkpt lat="49.25259" lon="-0.5172">
        <ele>80</ele>
        <time>2012-08-16T16:25:22Z</time>
      </trkpt>
      <trkpt lat="49.25262" lon="-0.51728">
        <ele>78</ele>
        <time>2012-08-16T16:25:24Z</time>
      </trkpt>
      <trkpt lat="49.25265" lon="-0.51736">
        <ele>78</ele>
        <time>2012-08-16T16:25:26Z</time>
      </trkpt>
      <trkpt lat="49.2527" lon="-0.51742">
        <ele>77</ele>
        <time>2012-08-16T16:25:29Z</time>
      </trkpt>
      <trkpt lat="49.25273" lon="-0.51747">
        <ele>77</ele>
        <time>2012-08-16T16:25:31Z</time>
      </trkpt>
      <trkpt lat="49.25276" lon="-0.51755">
        <ele>78</ele>
        <time>2012-08-16T16:25:34Z</time>
      </trkpt>
      <trkpt lat="49.25279" lon="-0.5176">
        <ele>76</ele>
        <time>2012-08-16T16:25:37Z</time>
      </trkpt>
      <trkpt lat="49.25278" lon="-0.5177">
        <ele>75</ele>
        <time>2012-08-16T16:25:40Z</time>
      </trkpt>
      <trkpt lat="49.25278" lon="-0.51777">
        <ele>74</ele>
        <time>2012-08-16T16:25:43Z</time>
      </trkpt>
      <trkpt lat="49.25279" lon="-0.51785">
        <ele>74</ele>
        <time>2012-08-16T16:25:46Z</time>
      </trkpt>
      <trkpt lat="49.25281" lon="-0.51791">
        <ele>74</ele>
        <time>2012-08-16T16:25:49Z</time>
      </trkpt>
      <trkpt lat="49.25281" lon="-0.51798">
        <ele>74</ele>
        <time>2012-08-16T16:25:51Z</time>
      </trkpt>
      <trkpt lat="49.25282" lon="-0.51808">
        <ele>74</ele>
        <time>2012-08-16T16:25:54Z</time>
      </trkpt>
      <trkpt lat="49.25282" lon="-0.51815">
        <ele>74</ele>
        <time>2012-08-16T16:25:56Z</time>
      </trkpt>
      <trkpt lat="49.25281" lon="-0.51824">
        <ele>73</ele>
        <time>2012-08-16T16:25:58Z</time>
      </trkpt>
      <trkpt lat="49.25281" lon="-0.51832">
        <ele>73</ele>
        <time>2012-08-16T16:26:00Z</time>
      </trkpt>
      <trkpt lat="49.25284" lon="-0.51839">
        <ele>73</ele>
        <time>2012-08-16T16:26:03Z</time>
      </trkpt>
      <trkpt lat="49.25287" lon="-0.51846">
        <ele>71</ele>
        <time>2012-08-16T16:26:06Z</time>
      </trkpt>
      <trkpt lat="49.25287" lon="-0.51854">
        <ele>71</ele>
        <time>2012-08-16T16:26:09Z</time>
      </trkpt>
      <trkpt lat="49.25289" lon="-0.5186">
        <ele>70</ele>
        <time>2012-08-16T16:26:11Z</time>
      </trkpt>
      <trkpt lat="49.25289" lon="-0.51873">
        <ele>69</ele>
        <time>2012-08-16T16:26:13Z</time>
      </trkpt>
      <trkpt lat="49.25288" lon="-0.51884">
        <ele>68</ele>
        <time>2012-08-16T16:26:15Z</time>
      </trkpt>
      <trkpt lat="49.25288" lon="-0.51892">
        <ele>67</ele>
        <time>2012-08-16T16:26:17Z</time>
      </trkpt>
      <trkpt lat="49.25288" lon="-0.51902">
        <ele>67</ele>
        <time>2012-08-16T16:26:19Z</time>
      </trkpt>
      <trkpt lat="49.25287" lon="-0.5191">
        <ele>67</ele>
        <time>2012-08-16T16:26:20Z</time>
      </trkpt>
      <trkpt lat="49.25287" lon="-0.51921">
        <ele>67</ele>
        <time>2012-08-16T16:26:22Z</time>
      </trkpt>
      <trkpt lat="49.25285" lon="-0.51929">
        <ele>67</ele>
        <time>2012-08-16T16:26:25Z</time>
      </trkpt>
      <trkpt lat="49.25286" lon="-0.51937">
        <ele>65</ele>
        <time>2012-08-16T16:26:31Z</time>
      </trkpt>
      <trkpt lat="49.25286" lon="-0.51944">
        <ele>66</ele>
        <time>2012-08-16T16:26:35Z</time>
      </trkpt>
      <trkpt lat="49.25286" lon="-0.51951">
        <ele>65</ele>
        <time>2012-08-16T16:26:39Z</time>
      </trkpt>
      <trkpt lat="49.25287" lon="-0.51959">
        <ele>65</ele>
        <time>2012-08-16T16:26:42Z</time>
      </trkpt>
      <trkpt lat="49.25288" lon="-0.51969">
        <ele>64</ele>
        <time>2012-08-16T16:26:45Z</time>
      </trkpt>
      <trkpt lat="49.25289" lon="-0.51978">
        <ele>66</ele>
        <time>2012-08-16T16:26:48Z</time>
      </trkpt>
      <trkpt lat="49.25288" lon="-0.51986">
        <ele>65</ele>
        <time>2012-08-16T16:26:51Z</time>
      </trkpt>
      <trkpt lat="49.25288" lon="-0.51994">
        <ele>65</ele>
        <time>2012-08-16T16:26:54Z</time>
      </trkpt>
      <trkpt lat="49.25286" lon="-0.52007">
        <ele>65</ele>
        <time>2012-08-16T16:26:57Z</time>
      </trkpt>
      <trkpt lat="49.25286" lon="-0.52015">
        <ele>65</ele>
        <time>2012-08-16T16:26:59Z</time>
      </trkpt>
      <trkpt lat="49.25288" lon="-0.52021">
        <ele>65</ele>
        <time>2012-08-16T16:27:01Z</time>
      </trkpt>
      <trkpt lat="49.25289" lon="-0.52028">
        <ele>67</ele>
        <time>2012-08-16T16:27:05Z</time>
      </trkpt>
      <trkpt lat="49.25289" lon="-0.52042">
        <ele>68</ele>
        <time>2012-08-16T16:27:09Z</time>
      </trkpt>
      <trkpt lat="49.25289" lon="-0.52052">
        <ele>68</ele>
        <time>2012-08-16T16:27:11Z</time>
      </trkpt>
      <trkpt lat="49.25288" lon="-0.5206">
        <ele>68</ele>
        <time>2012-08-16T16:27:14Z</time>
      </trkpt>
      <trkpt lat="49.25284" lon="-0.52073">
        <ele>68</ele>
        <time>2012-08-16T16:27:18Z</time>
      </trkpt>
      <trkpt lat="49.2528" lon="-0.5208">
        <ele>68</ele>
        <time>2012-08-16T16:27:19Z</time>
      </trkpt>
      <trkpt lat="49.25276" lon="-0.52087">
        <ele>67</ele>
        <time>2012-08-16T16:27:21Z</time>
      </trkpt>
      <trkpt lat="49.25272" lon="-0.52097">
        <ele>66</ele>
        <time>2012-08-16T16:27:23Z</time>
      </trkpt>
      <trkpt lat="49.25268" lon="-0.52104">
        <ele>66</ele>
        <time>2012-08-16T16:27:26Z</time>
      </trkpt>
      <trkpt lat="49.25265" lon="-0.52112">
        <ele>66</ele>
        <time>2012-08-16T16:27:29Z</time>
      </trkpt>
      <trkpt lat="49.2526" lon="-0.52117">
        <ele>65</ele>
        <time>2012-08-16T16:27:32Z</time>
      </trkpt>
      <trkpt lat="49.25255" lon="-0.52124">
        <ele>65</ele>
        <time>2012-08-16T16:27:35Z</time>
      </trkpt>
      <trkpt lat="49.25252" lon="-0.52129">
        <ele>65</ele>
        <time>2012-08-16T16:27:37Z</time>
      </trkpt>
      <trkpt lat="49.25248" lon="-0.52133">
        <ele>65</ele>
        <time>2012-08-16T16:27:40Z</time>
      </trkpt>
      <trkpt lat="49.25243" lon="-0.52139">
        <ele>65</ele>
        <time>2012-08-16T16:27:42Z</time>
      </trkpt>
      <trkpt lat="49.25238" lon="-0.52147">
        <ele>65</ele>
        <time>2012-08-16T16:27:45Z</time>
      </trkpt>
      <trkpt lat="49.25232" lon="-0.5215">
        <ele>66</ele>
        <time>2012-08-16T16:27:48Z</time>
      </trkpt>
      <trkpt lat="49.25226" lon="-0.52157">
        <ele>67</ele>
        <time>2012-08-16T16:27:51Z</time>
      </trkpt>
      <trkpt lat="49.25221" lon="-0.52159">
        <ele>66</ele>
        <time>2012-08-16T16:27:53Z</time>
      </trkpt>
      <trkpt lat="49.25216" lon="-0.52165">
        <ele>66</ele>
        <time>2012-08-16T16:27:55Z</time>
      </trkpt>
      <trkpt lat="49.25211" lon="-0.5217">
        <ele>65</ele>
        <time>2012-08-16T16:27:57Z</time>
      </trkpt>
      <trkpt lat="49.25206" lon="-0.52175">
        <ele>65</ele>
        <time>2012-08-16T16:27:59Z</time>
      </trkpt>
      <trkpt lat="49.25202" lon="-0.52179">
        <ele>65</ele>
        <time>2012-08-16T16:28:01Z</time>
      </trkpt>
      <trkpt lat="49.25199" lon="-0.52183">
        <ele>65</ele>
        <time>2012-08-16T16:28:03Z</time>
      </trkpt>
      <trkpt lat="49.25195" lon="-0.52189">
        <ele>64</ele>
        <time>2012-08-16T16:28:05Z</time>
      </trkpt>
      <trkpt lat="49.2519" lon="-0.52193">
        <ele>64</ele>
        <time>2012-08-16T16:28:08Z</time>
      </trkpt>
      <trkpt lat="49.25185" lon="-0.52196">
        <ele>64</ele>
        <time>2012-08-16T16:28:12Z</time>
      </trkpt>
      <trkpt lat="49.25186" lon="-0.52205">
        <ele>68</ele>
        <time>2012-08-16T16:28:55Z</time>
      </trkpt>
      <trkpt lat="49.25186" lon="-0.52214">
        <ele>69</ele>
        <time>2012-08-16T16:28:57Z</time>
      </trkpt>
      <trkpt lat="49.25188" lon="-0.52222">
        <ele>70</ele>
        <time>2012-08-16T16:28:59Z</time>
      </trkpt>
      <trkpt lat="49.2519" lon="-0.5223">
        <ele>70</ele>
        <time>2012-08-16T16:29:01Z</time>
      </trkpt>
      <trkpt lat="49.25193" lon="-0.52236">
        <ele>69</ele>
        <time>2012-08-16T16:29:03Z</time>
      </trkpt>
      <trkpt lat="49.25198" lon="-0.52247">
        <ele>70</ele>
        <time>2012-08-16T16:29:06Z</time>
      </trkpt>
      <trkpt lat="49.25201" lon="-0.52255">
        <ele>71</ele>
        <time>2012-08-16T16:29:08Z</time>
      </trkpt>
      <trkpt lat="49.25205" lon="-0.52263">
        <ele>70</ele>
        <time>2012-08-16T16:29:10Z</time>
      </trkpt>
      <trkpt lat="49.25208" lon="-0.52271">
        <ele>70</ele>
        <time>2012-08-16T16:29:12Z</time>
      </trkpt>
      <trkpt lat="49.25208" lon="-0.52283">
        <ele>70</ele>
        <time>2012-08-16T16:29:14Z</time>
      </trkpt>
      <trkpt lat="49.25208" lon="-0.5229">
        <ele>70</ele>
        <time>2012-08-16T16:29:15Z</time>
      </trkpt>
      <trkpt lat="49.25207" lon="-0.52307">
        <ele>71</ele>
        <time>2012-08-16T16:29:17Z</time>
      </trkpt>
      <trkpt lat="49.25206" lon="-0.52314">
        <ele>72</ele>
        <time>2012-08-16T16:29:18Z</time>
      </trkpt>
      <trkpt lat="49.25209" lon="-0.52323">
        <ele>73</ele>
        <time>2012-08-16T16:29:20Z</time>
      </trkpt>
      <trkpt lat="49.25212" lon="-0.52334">
        <ele>73</ele>
        <time>2012-08-16T16:29:22Z</time>
      </trkpt>
      <trkpt lat="49.25212" lon="-0.52341">
        <ele>73</ele>
        <time>2012-08-16T16:29:23Z</time>
      </trkpt>
      <trkpt lat="49.25244" lon="-0.52438">
        <ele>75</ele>
        <time>2012-08-16T16:29:47Z</time>
      </trkpt>
      <trkpt lat="49.25243" lon="-0.52431">
        <ele>75</ele>
        <time>2012-08-16T16:29:51Z</time>
      </trkpt>
      <trkpt lat="49.25241" lon="-0.52423">
        <ele>75</ele>
        <time>2012-08-16T16:29:53Z</time>
      </trkpt>
      <trkpt lat="49.25238" lon="-0.52415">
        <ele>74</ele>
        <time>2012-08-16T16:29:55Z</time>
      </trkpt>
      <trkpt lat="49.25235" lon="-0.52409">
        <ele>74</ele>
        <time>2012-08-16T16:29:57Z</time>
      </trkpt>
      <trkpt lat="49.25233" lon="-0.52403">
        <ele>73</ele>
        <time>2012-08-16T16:29:59Z</time>
      </trkpt>
      <trkpt lat="49.25231" lon="-0.52395">
        <ele>73</ele>
        <time>2012-08-16T16:30:01Z</time>
      </trkpt>
      <trkpt lat="49.25228" lon="-0.52387">
        <ele>73</ele>
        <time>2012-08-16T16:30:03Z</time>
      </trkpt>
      <trkpt lat="49.25224" lon="-0.52379">
        <ele>73</ele>
        <time>2012-08-16T16:30:05Z</time>
      </trkpt>
      <trkpt lat="49.2522" lon="-0.52371">
        <ele>72</ele>
        <time>2012-08-16T16:30:07Z</time>
      </trkpt>
      <trkpt lat="49.25218" lon="-0.5236">
        <ele>73</ele>
        <time>2012-08-16T16:30:09Z</time>
      </trkpt>
      <trkpt lat="49.25216" lon="-0.52353">
        <ele>74</ele>
        <time>2012-08-16T16:30:10Z</time>
      </trkpt>
      <trkpt lat="49.25212" lon="-0.52344">
        <ele>74</ele>
        <time>2012-08-16T16:30:12Z</time>
      </trkpt>
      <trkpt lat="49.2521" lon="-0.52333">
        <ele>75</ele>
        <time>2012-08-16T16:30:14Z</time>
      </trkpt>
      <trkpt lat="49.25207" lon="-0.52325">
        <ele>74</ele>
        <time>2012-08-16T16:30:16Z</time>
      </trkpt>
      <trkpt lat="49.25204" lon="-0.52316">
        <ele>75</ele>
        <time>2012-08-16T16:30:18Z</time>
      </trkpt>
      <trkpt lat="49.25201" lon="-0.52308">
        <ele>75</ele>
        <time>2012-08-16T16:30:20Z</time>
      </trkpt>
      <trkpt lat="49.25198" lon="-0.52299">
        <ele>75</ele>
        <time>2012-08-16T16:30:22Z</time>
      </trkpt>
      <trkpt lat="49.25195" lon="-0.52288">
        <ele>75</ele>
        <time>2012-08-16T16:30:24Z</time>
      </trkpt>
      <trkpt lat="49.25193" lon="-0.52278">
        <ele>75</ele>
        <time>2012-08-16T16:30:26Z</time>
      </trkpt>
      <trkpt lat="49.2519" lon="-0.52267">
        <ele>75</ele>
        <time>2012-08-16T16:30:28Z</time>
      </trkpt>
      <trkpt lat="49.25188" lon="-0.52261">
        <ele>76</ele>
        <time>2012-08-16T16:30:29Z</time>
      </trkpt>
      <trkpt lat="49.25186" lon="-0.5225">
        <ele>75</ele>
        <time>2012-08-16T16:30:31Z</time>
      </trkpt>
      <trkpt lat="49.25183" lon="-0.52244">
        <ele>75</ele>
        <time>2012-08-16T16:30:32Z</time>
      </trkpt>
      <trkpt lat="49.2518" lon="-0.52231">
        <ele>74</ele>
        <time>2012-08-16T16:30:34Z</time>
      </trkpt>
      <trkpt lat="49.25179" lon="-0.52224">
        <ele>74</ele>
        <time>2012-08-16T16:30:35Z</time>
      </trkpt>
      <trkpt lat="49.25177" lon="-0.52217">
        <ele>74</ele>
        <time>2012-08-16T16:30:36Z</time>
      </trkpt>
      <trkpt lat="49.25175" lon="-0.52211">
        <ele>74</ele>
        <time>2012-08-16T16:30:37Z</time>
      </trkpt>
      <trkpt lat="49.25172" lon="-0.52204">
        <ele>74</ele>
        <time>2012-08-16T16:30:38Z</time>
      </trkpt>
      <trkpt lat="49.2517" lon="-0.52197">
        <ele>74</ele>
        <time>2012-08-16T16:30:39Z</time>
      </trkpt>
      <trkpt lat="49.25168" lon="-0.5219">
        <ele>74</ele>
        <time>2012-08-16T16:30:40Z</time>
      </trkpt>
      <trkpt lat="49.25165" lon="-0.52177">
        <ele>74</ele>
        <time>2012-08-16T16:30:42Z</time>
      </trkpt>
      <trkpt lat="49.25164" lon="-0.5217">
        <ele>73</ele>
        <time>2012-08-16T16:30:43Z</time>
      </trkpt>
      <trkpt lat="49.25162" lon="-0.52164">
        <ele>73</ele>
        <time>2012-08-16T16:30:44Z</time>
      </trkpt>
      <trkpt lat="49.25161" lon="-0.52156">
        <ele>73</ele>
        <time>2012-08-16T16:30:45Z</time>
      </trkpt>
      <trkpt lat="49.2516" lon="-0.52149">
        <ele>72</ele>
        <time>2012-08-16T16:30:46Z</time>
      </trkpt>
      <trkpt lat="49.25158" lon="-0.52142">
        <ele>72</ele>
        <time>2012-08-16T16:30:47Z</time>
      </trkpt>
      <trkpt lat="49.25157" lon="-0.52135">
        <ele>72</ele>
        <time>2012-08-16T16:30:48Z</time>
      </trkpt>
      <trkpt lat="49.25155" lon="-0.52126">
        <ele>73</ele>
        <time>2012-08-16T16:30:49Z</time>
      </trkpt>
      <trkpt lat="49.25154" lon="-0.52118">
        <ele>73</ele>
        <time>2012-08-16T16:30:50Z</time>
      </trkpt>
      <trkpt lat="49.25153" lon="-0.5211">
        <ele>73</ele>
        <time>2012-08-16T16:30:51Z</time>
      </trkpt>
      <trkpt lat="49.2515" lon="-0.52102">
        <ele>73</ele>
        <time>2012-08-16T16:30:52Z</time>
      </trkpt>
      <trkpt lat="49.25149" lon="-0.52095">
        <ele>72</ele>
        <time>2012-08-16T16:30:53Z</time>
      </trkpt>
      <trkpt lat="49.25147" lon="-0.52088">
        <ele>72</ele>
        <time>2012-08-16T16:30:54Z</time>
      </trkpt>
      <trkpt lat="49.25147" lon="-0.52079">
        <ele>72</ele>
        <time>2012-08-16T16:30:55Z</time>
      </trkpt>
      <trkpt lat="49.25146" lon="-0.52071">
        <ele>72</ele>
        <time>2012-08-16T16:30:56Z</time>
      </trkpt>
      <trkpt lat="49.25145" lon="-0.52064">
        <ele>72</ele>
        <time>2012-08-16T16:30:57Z</time>
      </trkpt>
      <trkpt lat="49.25146" lon="-0.52056">
        <ele>72</ele>
        <time>2012-08-16T16:30:58Z</time>
      </trkpt>
      <trkpt lat="49.25146" lon="-0.52046">
        <ele>72</ele>
        <time>2012-08-16T16:30:59Z</time>
      </trkpt>
      <trkpt lat="49.25146" lon="-0.52036">
        <ele>71</ele>
        <time>2012-08-16T16:31:00Z</time>
      </trkpt>
      <trkpt lat="49.25146" lon="-0.52026">
        <ele>70</ele>
        <time>2012-08-16T16:31:01Z</time>
      </trkpt>
      <trkpt lat="49.25147" lon="-0.52018">
        <ele>69</ele>
        <time>2012-08-16T16:31:02Z</time>
      </trkpt>
      <trkpt lat="49.25145" lon="-0.52007">
        <ele>68</ele>
        <time>2012-08-16T16:31:03Z</time>
      </trkpt>
      <trkpt lat="49.25146" lon="-0.51998">
        <ele>68</ele>
        <time>2012-08-16T16:31:04Z</time>
      </trkpt>
      <trkpt lat="49.25146" lon="-0.5199">
        <ele>69</ele>
        <time>2012-08-16T16:31:05Z</time>
      </trkpt>
      <trkpt lat="49.25147" lon="-0.51979">
        <ele>69</ele>
        <time>2012-08-16T16:31:07Z</time>
      </trkpt>
      <trkpt lat="49.25149" lon="-0.51972">
        <ele>69</ele>
        <time>2012-08-16T16:31:09Z</time>
      </trkpt>
      <trkpt lat="49.25152" lon="-0.51964">
        <ele>68</ele>
        <time>2012-08-16T16:31:11Z</time>
      </trkpt>
      <trkpt lat="49.25155" lon="-0.51955">
        <ele>68</ele>
        <time>2012-08-16T16:31:14Z</time>
      </trkpt>
      <trkpt lat="49.25155" lon="-0.51948">
        <ele>67</ele>
        <time>2012-08-16T16:31:18Z</time>
      </trkpt>
      <trkpt lat="49.25154" lon="-0.51936">
        <ele>65</ele>
        <time>2012-08-16T16:32:40Z</time>
      </trkpt>
      <trkpt lat="49.25152" lon="-0.51928">
        <ele>64</ele>
        <time>2012-08-16T16:32:42Z</time>
      </trkpt>
      <trkpt lat="49.25152" lon="-0.51918">
        <ele>64</ele>
        <time>2012-08-16T16:32:44Z</time>
      </trkpt>
      <trkpt lat="49.25152" lon="-0.51911">
        <ele>65</ele>
        <time>2012-08-16T16:32:46Z</time>
      </trkpt>
      <trkpt lat="49.25152" lon="-0.51903">
        <ele>66</ele>
        <time>2012-08-16T16:32:49Z</time>
      </trkpt>
      <trkpt lat="49.25151" lon="-0.51895">
        <ele>68</ele>
        <time>2012-08-16T16:32:53Z</time>
      </trkpt>
      <trkpt lat="49.25147" lon="-0.51889">
        <ele>68</ele>
        <time>2012-08-16T16:32:56Z</time>
      </trkpt>
      <trkpt lat="49.25147" lon="-0.5188">
        <ele>69</ele>
        <time>2012-08-16T16:33:00Z</time>
      </trkpt>
      <trkpt lat="49.25146" lon="-0.51872">
        <ele>69</ele>
        <time>2012-08-16T16:33:03Z</time>
      </trkpt>
      <trkpt lat="49.25148" lon="-0.51864">
        <ele>69</ele>
        <time>2012-08-16T16:33:06Z</time>
      </trkpt>
      <trkpt lat="49.25149" lon="-0.51857">
        <ele>70</ele>
        <time>2012-08-16T16:33:08Z</time>
      </trkpt>
      <trkpt lat="49.25145" lon="-0.51852">
        <ele>69</ele>
        <time>2012-08-16T16:33:11Z</time>
      </trkpt>
      <trkpt lat="49.2514" lon="-0.51852">
        <ele>70</ele>
        <time>2012-08-16T16:33:17Z</time>
      </trkpt>
      <trkpt lat="49.25135" lon="-0.51856">
        <ele>69</ele>
        <time>2012-08-16T16:33:22Z</time>
      </trkpt>
      <trkpt lat="49.25131" lon="-0.51859">
        <ele>69</ele>
        <time>2012-08-16T16:33:25Z</time>
      </trkpt>
      <trkpt lat="49.25125" lon="-0.51864">
        <ele>71</ele>
        <time>2012-08-16T16:33:29Z</time>
      </trkpt>
      <trkpt lat="49.25122" lon="-0.51868">
        <ele>72</ele>
        <time>2012-08-16T16:33:31Z</time>
      </trkpt>
      <trkpt lat="49.25117" lon="-0.51871">
        <ele>72</ele>
        <time>2012-08-16T16:33:33Z</time>
      </trkpt>
      <trkpt lat="49.25111" lon="-0.51876">
        <ele>72</ele>
        <time>2012-08-16T16:33:35Z</time>
      </trkpt>
      <trkpt lat="49.25107" lon="-0.51881">
        <ele>72</ele>
        <time>2012-08-16T16:33:37Z</time>
      </trkpt>
      <trkpt lat="49.25103" lon="-0.51887">
        <ele>71</ele>
        <time>2012-08-16T16:33:40Z</time>
      </trkpt>
      <trkpt lat="49.25096" lon="-0.51893">
        <ele>72</ele>
        <time>2012-08-16T16:33:43Z</time>
      </trkpt>
      <trkpt lat="49.25089" lon="-0.51898">
        <ele>74</ele>
        <time>2012-08-16T16:33:45Z</time>
      </trkpt>
      <trkpt lat="49.25084" lon="-0.51902">
        <ele>74</ele>
        <time>2012-08-16T16:33:48Z</time>
      </trkpt>
      <trkpt lat="49.2508" lon="-0.51906">
        <ele>74</ele>
        <time>2012-08-16T16:33:50Z</time>
      </trkpt>
      <trkpt lat="49.25076" lon="-0.5191">
        <ele>75</ele>
        <time>2012-08-16T16:33:52Z</time>
      </trkpt>
      <trkpt lat="49.25072" lon="-0.51917">
        <ele>74</ele>
        <time>2012-08-16T16:33:55Z</time>
      </trkpt>
      <trkpt lat="49.25067" lon="-0.51921">
        <ele>74</ele>
        <time>2012-08-16T16:33:57Z</time>
      </trkpt>
      <trkpt lat="49.25062" lon="-0.51924">
        <ele>74</ele>
        <time>2012-08-16T16:33:59Z</time>
      </trkpt>
      <trkpt lat="49.25058" lon="-0.51929">
        <ele>75</ele>
        <time>2012-08-16T16:34:02Z</time>
      </trkpt>
      <trkpt lat="49.25054" lon="-0.51933">
        <ele>74</ele>
        <time>2012-08-16T16:34:04Z</time>
      </trkpt>
      <trkpt lat="49.25045" lon="-0.51944">
        <ele>75</ele>
        <time>2012-08-16T16:34:06Z</time>
      </trkpt>
      <trkpt lat="49.25039" lon="-0.51952">
        <ele>76</ele>
        <time>2012-08-16T16:34:08Z</time>
      </trkpt>
      <trkpt lat="49.25036" lon="-0.51958">
        <ele>75</ele>
        <time>2012-08-16T16:34:10Z</time>
      </trkpt>
      <trkpt lat="49.25031" lon="-0.51964">
        <ele>74</ele>
        <time>2012-08-16T16:34:12Z</time>
      </trkpt>
      <trkpt lat="49.25026" lon="-0.51972">
        <ele>75</ele>
        <time>2012-08-16T16:34:14Z</time>
      </trkpt>
      <trkpt lat="49.25023" lon="-0.51978">
        <ele>75</ele>
        <time>2012-08-16T16:34:16Z</time>
      </trkpt>
      <trkpt lat="49.25017" lon="-0.51985">
        <ele>76</ele>
        <time>2012-08-16T16:34:18Z</time>
      </trkpt>
      <trkpt lat="49.25012" lon="-0.51992">
        <ele>77</ele>
        <time>2012-08-16T16:34:20Z</time>
      </trkpt>
      <trkpt lat="49.25008" lon="-0.51998">
        <ele>77</ele>
        <time>2012-08-16T16:34:21Z</time>
      </trkpt>
      <trkpt lat="49.25004" lon="-0.52004">
        <ele>77</ele>
        <time>2012-08-16T16:34:23Z</time>
      </trkpt>
      <trkpt lat="49.24997" lon="-0.52011">
        <ele>77</ele>
        <time>2012-08-16T16:34:25Z</time>
      </trkpt>
      <trkpt lat="49.24993" lon="-0.52018">
        <ele>77</ele>
        <time>2012-08-16T16:34:27Z</time>
      </trkpt>
      <trkpt lat="49.24988" lon="-0.52024">
        <ele>77</ele>
        <time>2012-08-16T16:34:30Z</time>
      </trkpt>
      <trkpt lat="49.24983" lon="-0.52027">
        <ele>78</ele>
        <time>2012-08-16T16:34:32Z</time>
      </trkpt>
      <trkpt lat="49.24977" lon="-0.52033">
        <ele>78</ele>
        <time>2012-08-16T16:34:34Z</time>
      </trkpt>
      <trkpt lat="49.24972" lon="-0.52039">
        <ele>77</ele>
        <time>2012-08-16T16:34:36Z</time>
      </trkpt>
      <trkpt lat="49.24968" lon="-0.52045">
        <ele>78</ele>
        <time>2012-08-16T16:34:39Z</time>
      </trkpt>
      <trkpt lat="49.24964" lon="-0.52048">
        <ele>76</ele>
        <time>2012-08-16T16:34:42Z</time>
      </trkpt>
      <trkpt lat="49.24957" lon="-0.52055">
        <ele>75</ele>
        <time>2012-08-16T16:34:44Z</time>
      </trkpt>
      <trkpt lat="49.2495" lon="-0.52059">
        <ele>74</ele>
        <time>2012-08-16T16:34:47Z</time>
      </trkpt>
      <trkpt lat="49.24944" lon="-0.52062">
        <ele>74</ele>
        <time>2012-08-16T16:34:49Z</time>
      </trkpt>
      <trkpt lat="49.24937" lon="-0.52071">
        <ele>75</ele>
        <time>2012-08-16T16:34:51Z</time>
      </trkpt>
      <trkpt lat="49.24932" lon="-0.52074">
        <ele>75</ele>
        <time>2012-08-16T16:34:53Z</time>
      </trkpt>
      <trkpt lat="49.24925" lon="-0.52079">
        <ele>76</ele>
        <time>2012-08-16T16:34:55Z</time>
      </trkpt>
      <trkpt lat="49.24921" lon="-0.52083">
        <ele>75</ele>
        <time>2012-08-16T16:34:57Z</time>
      </trkpt>
      <trkpt lat="49.24916" lon="-0.52088">
        <ele>76</ele>
        <time>2012-08-16T16:34:59Z</time>
      </trkpt>
      <trkpt lat="49.24911" lon="-0.52093">
        <ele>76</ele>
        <time>2012-08-16T16:35:01Z</time>
      </trkpt>
      <trkpt lat="49.24905" lon="-0.52099">
        <ele>76</ele>
        <time>2012-08-16T16:35:03Z</time>
      </trkpt>
      <trkpt lat="49.24902" lon="-0.52104">
        <ele>75</ele>
        <time>2012-08-16T16:35:05Z</time>
      </trkpt>
      <trkpt lat="49.24896" lon="-0.52108">
        <ele>76</ele>
        <time>2012-08-16T16:35:07Z</time>
      </trkpt>
      <trkpt lat="49.24892" lon="-0.52111">
        <ele>76</ele>
        <time>2012-08-16T16:35:09Z</time>
      </trkpt>
      <trkpt lat="49.24888" lon="-0.52115">
        <ele>76</ele>
        <time>2012-08-16T16:35:11Z</time>
      </trkpt>
      <trkpt lat="49.24882" lon="-0.52121">
        <ele>76</ele>
        <time>2012-08-16T16:35:13Z</time>
      </trkpt>
      <trkpt lat="49.24877" lon="-0.52123">
        <ele>76</ele>
        <time>2012-08-16T16:35:15Z</time>
      </trkpt>
      <trkpt lat="49.24872" lon="-0.52128">
        <ele>76</ele>
        <time>2012-08-16T16:35:17Z</time>
      </trkpt>
      <trkpt lat="49.24866" lon="-0.52132">
        <ele>75</ele>
        <time>2012-08-16T16:35:19Z</time>
      </trkpt>
      <trkpt lat="49.24859" lon="-0.52136">
        <ele>76</ele>
        <time>2012-08-16T16:35:22Z</time>
      </trkpt>
      <trkpt lat="49.24853" lon="-0.52139">
        <ele>76</ele>
        <time>2012-08-16T16:35:24Z</time>
      </trkpt>
      <trkpt lat="49.24846" lon="-0.52142">
        <ele>77</ele>
        <time>2012-08-16T16:35:27Z</time>
      </trkpt>
      <trkpt lat="49.2484" lon="-0.52145">
        <ele>77</ele>
        <time>2012-08-16T16:35:29Z</time>
      </trkpt>
      <trkpt lat="49.24836" lon="-0.52148">
        <ele>77</ele>
        <time>2012-08-16T16:35:31Z</time>
      </trkpt>
      <trkpt lat="49.24829" lon="-0.5215">
        <ele>77</ele>
        <time>2012-08-16T16:35:33Z</time>
      </trkpt>
      <trkpt lat="49.24823" lon="-0.5215">
        <ele>77</ele>
        <time>2012-08-16T16:35:36Z</time>
      </trkpt>
      <trkpt lat="49.24816" lon="-0.52155">
        <ele>77</ele>
        <time>2012-08-16T16:35:38Z</time>
      </trkpt>
      <trkpt lat="49.24811" lon="-0.52158">
        <ele>77</ele>
        <time>2012-08-16T16:35:39Z</time>
      </trkpt>
      <trkpt lat="49.24806" lon="-0.52162">
        <ele>76</ele>
        <time>2012-08-16T16:35:41Z</time>
      </trkpt>
      <trkpt lat="49.24798" lon="-0.52162">
        <ele>75</ele>
        <time>2012-08-16T16:35:43Z</time>
      </trkpt>
      <trkpt lat="49.24794" lon="-0.52166">
        <ele>75</ele>
        <time>2012-08-16T16:35:44Z</time>
      </trkpt>
      <trkpt lat="49.24788" lon="-0.52167">
        <ele>76</ele>
        <time>2012-08-16T16:35:46Z</time>
      </trkpt>
      <trkpt lat="49.24782" lon="-0.52165">
        <ele>75</ele>
        <time>2012-08-16T16:35:49Z</time>
      </trkpt>
      <trkpt lat="49.24777" lon="-0.52164">
        <ele>75</ele>
        <time>2012-08-16T16:35:51Z</time>
      </trkpt>
      <trkpt lat="49.24772" lon="-0.52163">
        <ele>75</ele>
        <time>2012-08-16T16:35:53Z</time>
      </trkpt>
      <trkpt lat="49.24765" lon="-0.52162">
        <ele>74</ele>
        <time>2012-08-16T16:35:55Z</time>
      </trkpt>
      <trkpt lat="49.2476" lon="-0.5216">
        <ele>73</ele>
        <time>2012-08-16T16:35:57Z</time>
      </trkpt>
      <trkpt lat="49.24754" lon="-0.52156">
        <ele>73</ele>
        <time>2012-08-16T16:36:00Z</time>
      </trkpt>
      <trkpt lat="49.24749" lon="-0.52153">
        <ele>73</ele>
        <time>2012-08-16T16:36:02Z</time>
      </trkpt>
      <trkpt lat="49.24744" lon="-0.52148">
        <ele>74</ele>
        <time>2012-08-16T16:36:05Z</time>
      </trkpt>
      <trkpt lat="49.2474" lon="-0.52144">
        <ele>74</ele>
        <time>2012-08-16T16:36:07Z</time>
      </trkpt>
      <trkpt lat="49.24733" lon="-0.5214">
        <ele>73</ele>
        <time>2012-08-16T16:36:10Z</time>
      </trkpt>
      <trkpt lat="49.24728" lon="-0.52137">
        <ele>73</ele>
        <time>2012-08-16T16:36:12Z</time>
      </trkpt>
      <trkpt lat="49.24724" lon="-0.52133">
        <ele>77</ele>
        <time>2012-08-16T16:36:14Z</time>
      </trkpt>
      <trkpt lat="49.24719" lon="-0.52131">
        <ele>79</ele>
        <time>2012-08-16T16:36:16Z</time>
      </trkpt>
      <trkpt lat="49.24714" lon="-0.52129">
        <ele>79</ele>
        <time>2012-08-16T16:36:19Z</time>
      </trkpt>
      <trkpt lat="49.24707" lon="-0.52128">
        <ele>78</ele>
        <time>2012-08-16T16:36:22Z</time>
      </trkpt>
      <trkpt lat="49.247" lon="-0.52123">
        <ele>77</ele>
        <time>2012-08-16T16:36:24Z</time>
      </trkpt>
      <trkpt lat="49.24695" lon="-0.5212">
        <ele>77</ele>
        <time>2012-08-16T16:36:25Z</time>
      </trkpt>
      <trkpt lat="49.24687" lon="-0.52114">
        <ele>76</ele>
        <time>2012-08-16T16:36:27Z</time>
      </trkpt>
      <trkpt lat="49.24683" lon="-0.52108">
        <ele>76</ele>
        <time>2012-08-16T16:36:28Z</time>
      </trkpt>
      <trkpt lat="49.24678" lon="-0.52104">
        <ele>76</ele>
        <time>2012-08-16T16:36:29Z</time>
      </trkpt>
      <trkpt lat="49.24674" lon="-0.521">
        <ele>75</ele>
        <time>2012-08-16T16:36:30Z</time>
      </trkpt>
      <trkpt lat="49.24669" lon="-0.52094">
        <ele>76</ele>
        <time>2012-08-16T16:36:31Z</time>
      </trkpt>
      <trkpt lat="49.2466" lon="-0.52088">
        <ele>76</ele>
        <time>2012-08-16T16:36:32Z</time>
      </trkpt>
      <trkpt lat="49.24653" lon="-0.5208">
        <ele>77</ele>
        <time>2012-08-16T16:36:33Z</time>
      </trkpt>
      <trkpt lat="49.24645" lon="-0.52073">
        <ele>76</ele>
        <time>2012-08-16T16:36:34Z</time>
      </trkpt>
      <trkpt lat="49.24638" lon="-0.52066">
        <ele>75</ele>
        <time>2012-08-16T16:36:35Z</time>
      </trkpt>
      <trkpt lat="49.24632" lon="-0.52058">
        <ele>75</ele>
        <time>2012-08-16T16:36:36Z</time>
      </trkpt>
      <trkpt lat="49.24625" lon="-0.52051">
        <ele>76</ele>
        <time>2012-08-16T16:36:37Z</time>
      </trkpt>
      <trkpt lat="49.24618" lon="-0.5204">
        <ele>78</ele>
        <time>2012-08-16T16:36:38Z</time>
      </trkpt>
      <trkpt lat="49.24614" lon="-0.52034">
        <ele>79</ele>
        <time>2012-08-16T16:36:39Z</time>
      </trkpt>
      <trkpt lat="49.24609" lon="-0.52028">
        <ele>80</ele>
        <time>2012-08-16T16:36:40Z</time>
      </trkpt>
      <trkpt lat="49.24605" lon="-0.52024">
        <ele>80</ele>
        <time>2012-08-16T16:36:41Z</time>
      </trkpt>
      <trkpt lat="49.246" lon="-0.52019">
        <ele>79</ele>
        <time>2012-08-16T16:36:42Z</time>
      </trkpt>
      <trkpt lat="49.24596" lon="-0.52014">
        <ele>79</ele>
        <time>2012-08-16T16:36:43Z</time>
      </trkpt>
      <trkpt lat="49.2459" lon="-0.52006">
        <ele>79</ele>
        <time>2012-08-16T16:36:45Z</time>
      </trkpt>
      <trkpt lat="49.24584" lon="-0.51999">
        <ele>81</ele>
        <time>2012-08-16T16:36:47Z</time>
      </trkpt>
      <trkpt lat="49.24578" lon="-0.51996">
        <ele>82</ele>
        <time>2012-08-16T16:36:49Z</time>
      </trkpt>
      <trkpt lat="49.24573" lon="-0.5199">
        <ele>83</ele>
        <time>2012-08-16T16:36:51Z</time>
      </trkpt>
      <trkpt lat="49.24568" lon="-0.51988">
        <ele>83</ele>
        <time>2012-08-16T16:36:53Z</time>
      </trkpt>
      <trkpt lat="49.24562" lon="-0.51984">
        <ele>83</ele>
        <time>2012-08-16T16:36:55Z</time>
      </trkpt>
      <trkpt lat="49.24557" lon="-0.51981">
        <ele>82</ele>
        <time>2012-08-16T16:36:57Z</time>
      </trkpt>
      <trkpt lat="49.2455" lon="-0.5198">
        <ele>82</ele>
        <time>2012-08-16T16:36:59Z</time>
      </trkpt>
      <trkpt lat="49.24544" lon="-0.51976">
        <ele>82</ele>
        <time>2012-08-16T16:37:01Z</time>
      </trkpt>
      <trkpt lat="49.24537" lon="-0.51974">
        <ele>81</ele>
        <time>2012-08-16T16:37:03Z</time>
      </trkpt>
      <trkpt lat="49.24532" lon="-0.51972">
        <ele>81</ele>
        <time>2012-08-16T16:37:04Z</time>
      </trkpt>
      <trkpt lat="49.24526" lon="-0.5197">
        <ele>81</ele>
        <time>2012-08-16T16:37:06Z</time>
      </trkpt>
      <trkpt lat="49.24518" lon="-0.51966">
        <ele>81</ele>
        <time>2012-08-16T16:37:08Z</time>
      </trkpt>
      <trkpt lat="49.24512" lon="-0.51966">
        <ele>81</ele>
        <time>2012-08-16T16:37:09Z</time>
      </trkpt>
      <trkpt lat="49.24504" lon="-0.51961">
        <ele>82</ele>
        <time>2012-08-16T16:37:11Z</time>
      </trkpt>
      <trkpt lat="49.24496" lon="-0.51961">
        <ele>82</ele>
        <time>2012-08-16T16:37:13Z</time>
      </trkpt>
      <trkpt lat="49.24488" lon="-0.51964">
        <ele>82</ele>
        <time>2012-08-16T16:37:15Z</time>
      </trkpt>
      <trkpt lat="49.24482" lon="-0.51969">
        <ele>83</ele>
        <time>2012-08-16T16:37:17Z</time>
      </trkpt>
      <trkpt lat="49.24475" lon="-0.51975">
        <ele>82</ele>
        <time>2012-08-16T16:37:19Z</time>
      </trkpt>
      <trkpt lat="49.24468" lon="-0.51981">
        <ele>82</ele>
        <time>2012-08-16T16:37:21Z</time>
      </trkpt>
      <trkpt lat="49.24463" lon="-0.51983">
        <ele>82</ele>
        <time>2012-08-16T16:37:22Z</time>
      </trkpt>
      <trkpt lat="49.24459" lon="-0.51986">
        <ele>82</ele>
        <time>2012-08-16T16:37:23Z</time>
      </trkpt>
      <trkpt lat="49.24455" lon="-0.5199">
        <ele>81</ele>
        <time>2012-08-16T16:37:24Z</time>
      </trkpt>
      <trkpt lat="49.24448" lon="-0.51995">
        <ele>81</ele>
        <time>2012-08-16T16:37:26Z</time>
      </trkpt>
      <trkpt lat="49.24441" lon="-0.52">
        <ele>81</ele>
        <time>2012-08-16T16:37:28Z</time>
      </trkpt>
      <trkpt lat="49.24435" lon="-0.52002">
        <ele>80</ele>
        <time>2012-08-16T16:37:30Z</time>
      </trkpt>
      <trkpt lat="49.2443" lon="-0.52002">
        <ele>81</ele>
        <time>2012-08-16T16:37:32Z</time>
      </trkpt>
      <trkpt lat="49.24425" lon="-0.52002">
        <ele>80</ele>
        <time>2012-08-16T16:37:34Z</time>
      </trkpt>
      <trkpt lat="49.24419" lon="-0.52003">
        <ele>81</ele>
        <time>2012-08-16T16:37:36Z</time>
      </trkpt>
      <trkpt lat="49.24411" lon="-0.52005">
        <ele>80</ele>
        <time>2012-08-16T16:37:38Z</time>
      </trkpt>
      <trkpt lat="49.24402" lon="-0.52008">
        <ele>78</ele>
        <time>2012-08-16T16:37:40Z</time>
      </trkpt>
      <trkpt lat="49.24397" lon="-0.52008">
        <ele>78</ele>
        <time>2012-08-16T16:37:41Z</time>
      </trkpt>
      <trkpt lat="49.24389" lon="-0.52008">
        <ele>78</ele>
        <time>2012-08-16T16:37:43Z</time>
      </trkpt>
      <trkpt lat="49.24383" lon="-0.52008">
        <ele>77</ele>
        <time>2012-08-16T16:37:45Z</time>
      </trkpt>
      <trkpt lat="49.24375" lon="-0.52006">
        <ele>77</ele>
        <time>2012-08-16T16:37:47Z</time>
      </trkpt>
      <trkpt lat="49.24368" lon="-0.52005">
        <ele>77</ele>
        <time>2012-08-16T16:37:49Z</time>
      </trkpt>
      <trkpt lat="49.24359" lon="-0.52003">
        <ele>78</ele>
        <time>2012-08-16T16:37:51Z</time>
      </trkpt>
      <trkpt lat="49.24355" lon="-0.51999">
        <ele>77</ele>
        <time>2012-08-16T16:37:52Z</time>
      </trkpt>
      <trkpt lat="49.2435" lon="-0.51996">
        <ele>77</ele>
        <time>2012-08-16T16:37:53Z</time>
      </trkpt>
      <trkpt lat="49.24342" lon="-0.51994">
        <ele>78</ele>
        <time>2012-08-16T16:37:55Z</time>
      </trkpt>
      <trkpt lat="49.24336" lon="-0.51993">
        <ele>78</ele>
        <time>2012-08-16T16:37:57Z</time>
      </trkpt>
      <trkpt lat="49.24328" lon="-0.51991">
        <ele>77</ele>
        <time>2012-08-16T16:37:59Z</time>
      </trkpt>
      <trkpt lat="49.24321" lon="-0.51992">
        <ele>77</ele>
        <time>2012-08-16T16:38:01Z</time>
      </trkpt>
      <trkpt lat="49.24313" lon="-0.5199">
        <ele>78</ele>
        <time>2012-08-16T16:38:03Z</time>
      </trkpt>
      <trkpt lat="49.24306" lon="-0.51989">
        <ele>77</ele>
        <time>2012-08-16T16:38:05Z</time>
      </trkpt>
      <trkpt lat="49.24298" lon="-0.51984">
        <ele>77</ele>
        <time>2012-08-16T16:38:07Z</time>
      </trkpt>
      <trkpt lat="49.2429" lon="-0.51982">
        <ele>76</ele>
        <time>2012-08-16T16:38:09Z</time>
      </trkpt>
      <trkpt lat="49.24281" lon="-0.5198">
        <ele>76</ele>
        <time>2012-08-16T16:38:11Z</time>
      </trkpt>
      <trkpt lat="49.24274" lon="-0.51978">
        <ele>76</ele>
        <time>2012-08-16T16:38:13Z</time>
      </trkpt>
      <trkpt lat="49.2427" lon="-0.51976">
        <ele>76</ele>
        <time>2012-08-16T16:38:14Z</time>
      </trkpt>
      <trkpt lat="49.24261" lon="-0.51977">
        <ele>78</ele>
        <time>2012-08-16T16:38:16Z</time>
      </trkpt>
      <trkpt lat="49.24254" lon="-0.51978">
        <ele>78</ele>
        <time>2012-08-16T16:38:18Z</time>
      </trkpt>
      <trkpt lat="49.24247" lon="-0.51981">
        <ele>77</ele>
        <time>2012-08-16T16:38:20Z</time>
      </trkpt>
      <trkpt lat="49.24238" lon="-0.51982">
        <ele>78</ele>
        <time>2012-08-16T16:38:22Z</time>
      </trkpt>
      <trkpt lat="49.24233" lon="-0.51982">
        <ele>80</ele>
        <time>2012-08-16T16:38:23Z</time>
      </trkpt>
      <trkpt lat="49.24225" lon="-0.51985">
        <ele>79</ele>
        <time>2012-08-16T16:38:25Z</time>
      </trkpt>
      <trkpt lat="49.2422" lon="-0.51986">
        <ele>79</ele>
        <time>2012-08-16T16:38:26Z</time>
      </trkpt>
      <trkpt lat="49.24213" lon="-0.51988">
        <ele>80</ele>
        <time>2012-08-16T16:38:28Z</time>
      </trkpt>
      <trkpt lat="49.24206" lon="-0.51989">
        <ele>81</ele>
        <time>2012-08-16T16:38:30Z</time>
      </trkpt>
      <trkpt lat="49.24199" lon="-0.5199">
        <ele>81</ele>
        <time>2012-08-16T16:38:32Z</time>
      </trkpt>
      <trkpt lat="49.24194" lon="-0.51991">
        <ele>81</ele>
        <time>2012-08-16T16:38:34Z</time>
      </trkpt>
      <trkpt lat="49.24188" lon="-0.51988">
        <ele>82</ele>
        <time>2012-08-16T16:38:36Z</time>
      </trkpt>
      <trkpt lat="49.24182" lon="-0.51986">
        <ele>82</ele>
        <time>2012-08-16T16:38:38Z</time>
      </trkpt>
      <trkpt lat="49.24176" lon="-0.51983">
        <ele>82</ele>
        <time>2012-08-16T16:38:40Z</time>
      </trkpt>
      <trkpt lat="49.24172" lon="-0.51977">
        <ele>81</ele>
        <time>2012-08-16T16:38:42Z</time>
      </trkpt>
      <trkpt lat="49.24168" lon="-0.5197">
        <ele>82</ele>
        <time>2012-08-16T16:38:44Z</time>
      </trkpt>
      <trkpt lat="49.24163" lon="-0.51964">
        <ele>82</ele>
        <time>2012-08-16T16:38:46Z</time>
      </trkpt>
      <trkpt lat="49.24157" lon="-0.51961">
        <ele>81</ele>
        <time>2012-08-16T16:38:49Z</time>
      </trkpt>
      <trkpt lat="49.24153" lon="-0.51957">
        <ele>81</ele>
        <time>2012-08-16T16:38:52Z</time>
      </trkpt>
      <trkpt lat="49.24148" lon="-0.51954">
        <ele>81</ele>
        <time>2012-08-16T16:38:54Z</time>
      </trkpt>
      <trkpt lat="49.24143" lon="-0.51948">
        <ele>80</ele>
        <time>2012-08-16T16:38:56Z</time>
      </trkpt>
      <trkpt lat="49.24137" lon="-0.51946">
        <ele>80</ele>
        <time>2012-08-16T16:38:58Z</time>
      </trkpt>
      <trkpt lat="49.24133" lon="-0.51942">
        <ele>80</ele>
        <time>2012-08-16T16:39:00Z</time>
      </trkpt>
      <trkpt lat="49.24128" lon="-0.51939">
        <ele>80</ele>
        <time>2012-08-16T16:39:02Z</time>
      </trkpt>
      <trkpt lat="49.24122" lon="-0.51935">
        <ele>81</ele>
        <time>2012-08-16T16:39:04Z</time>
      </trkpt>
      <trkpt lat="49.24116" lon="-0.51932">
        <ele>81</ele>
        <time>2012-08-16T16:39:06Z</time>
      </trkpt>
      <trkpt lat="49.2411" lon="-0.51928">
        <ele>81</ele>
        <time>2012-08-16T16:39:08Z</time>
      </trkpt>
      <trkpt lat="49.24106" lon="-0.51924">
        <ele>81</ele>
        <time>2012-08-16T16:39:10Z</time>
      </trkpt>
      <trkpt lat="49.24098" lon="-0.5192">
        <ele>80</ele>
        <time>2012-08-16T16:39:12Z</time>
      </trkpt>
      <trkpt lat="49.24093" lon="-0.51915">
        <ele>80</ele>
        <time>2012-08-16T16:39:14Z</time>
      </trkpt>
      <trkpt lat="49.24087" lon="-0.51911">
        <ele>79</ele>
        <time>2012-08-16T16:39:16Z</time>
      </trkpt>
      <trkpt lat="49.2408" lon="-0.51908">
        <ele>79</ele>
        <time>2012-08-16T16:39:18Z</time>
      </trkpt>
      <trkpt lat="49.24073" lon="-0.51903">
        <ele>79</ele>
        <time>2012-08-16T16:39:20Z</time>
      </trkpt>
      <trkpt lat="49.24068" lon="-0.519">
        <ele>79</ele>
        <time>2012-08-16T16:39:22Z</time>
      </trkpt>
      <trkpt lat="49.24062" lon="-0.51896">
        <ele>79</ele>
        <time>2012-08-16T16:39:24Z</time>
      </trkpt>
      <trkpt lat="49.24055" lon="-0.51896">
        <ele>79</ele>
        <time>2012-08-16T16:39:26Z</time>
      </trkpt>
      <trkpt lat="49.24049" lon="-0.51894">
        <ele>78</ele>
        <time>2012-08-16T16:39:28Z</time>
      </trkpt>
      <trkpt lat="49.24042" lon="-0.51892">
        <ele>77</ele>
        <time>2012-08-16T16:39:30Z</time>
      </trkpt>
      <trkpt lat="49.24034" lon="-0.51891">
        <ele>77</ele>
        <time>2012-08-16T16:39:32Z</time>
      </trkpt>
      <trkpt lat="49.24028" lon="-0.51882">
        <ele>77</ele>
        <time>2012-08-16T16:39:34Z</time>
      </trkpt>
      <trkpt lat="49.24024" lon="-0.51873">
        <ele>79</ele>
        <time>2012-08-16T16:39:36Z</time>
      </trkpt>
      <trkpt lat="49.24022" lon="-0.51865">
        <ele>80</ele>
        <time>2012-08-16T16:39:38Z</time>
      </trkpt>
      <trkpt lat="49.24021" lon="-0.51858">
        <ele>81</ele>
        <time>2012-08-16T16:39:40Z</time>
      </trkpt>
      <trkpt lat="49.24021" lon="-0.51851">
        <ele>82</ele>
        <time>2012-08-16T16:39:43Z</time>
      </trkpt>
      <trkpt lat="49.24024" lon="-0.51842">
        <ele>83</ele>
        <time>2012-08-16T16:39:46Z</time>
      </trkpt>
      <trkpt lat="49.24027" lon="-0.51833">
        <ele>84</ele>
        <time>2012-08-16T16:39:50Z</time>
      </trkpt>
      <trkpt lat="49.24028" lon="-0.51826">
        <ele>84</ele>
        <time>2012-08-16T16:39:52Z</time>
      </trkpt>
      <trkpt lat="49.24032" lon="-0.51821">
        <ele>86</ele>
        <time>2012-08-16T16:39:54Z</time>
      </trkpt>
      <trkpt lat="49.24031" lon="-0.51813">
        <ele>87</ele>
        <time>2012-08-16T16:39:57Z</time>
      </trkpt>
      <trkpt lat="49.2403" lon="-0.51805">
        <ele>87</ele>
        <time>2012-08-16T16:40:01Z</time>
      </trkpt>
      <trkpt lat="49.24032" lon="-0.51797">
        <ele>88</ele>
        <time>2012-08-16T16:40:04Z</time>
      </trkpt>
      <trkpt lat="49.24032" lon="-0.51789">
        <ele>89</ele>
        <time>2012-08-16T16:40:09Z</time>
      </trkpt>
      <trkpt lat="49.24034" lon="-0.51782">
        <ele>89</ele>
        <time>2012-08-16T16:40:12Z</time>
      </trkpt>
      <trkpt lat="49.24034" lon="-0.51782">
        <ele>89</ele>
        <time>2012-08-16T16:40:12Z</time>
      </trkpt>
      <trkpt lat="49.24034" lon="-0.51782">
        <ele>89</ele>
        <time>2012-08-16T16:40:13Z</time>
      </trkpt>
      <trkpt lat="49.24034" lon="-0.51775">
        <ele>90</ele>
        <time>2012-08-16T16:40:17Z</time>
      </trkpt>
      <trkpt lat="49.24035" lon="-0.51765">
        <ele>90</ele>
        <time>2012-08-16T16:40:20Z</time>
      </trkpt>
      <trkpt lat="49.24036" lon="-0.51755">
        <ele>90</ele>
        <time>2012-08-16T16:40:23Z</time>
      </trkpt>
      <trkpt lat="49.24038" lon="-0.51748">
        <ele>90</ele>
        <time>2012-08-16T16:40:26Z</time>
      </trkpt>
      <trkpt lat="49.24039" lon="-0.5174">
        <ele>92</ele>
        <time>2012-08-16T16:40:29Z</time>
      </trkpt>
      <trkpt lat="49.2404" lon="-0.51731">
        <ele>91</ele>
        <time>2012-08-16T16:40:32Z</time>
      </trkpt>
      <trkpt lat="49.2404" lon="-0.51724">
        <ele>93</ele>
        <time>2012-08-16T16:40:35Z</time>
      </trkpt>
      <trkpt lat="49.24042" lon="-0.51716">
        <ele>92</ele>
        <time>2012-08-16T16:40:38Z</time>
      </trkpt>
      <trkpt lat="49.24043" lon="-0.51709">
        <ele>93</ele>
        <time>2012-08-16T16:40:40Z</time>
      </trkpt>
      <trkpt lat="49.24046" lon="-0.51701">
        <ele>94</ele>
        <time>2012-08-16T16:40:44Z</time>
      </trkpt>
      <trkpt lat="49.24048" lon="-0.51694">
        <ele>94</ele>
        <time>2012-08-16T16:40:47Z</time>
      </trkpt>
      <trkpt lat="49.24048" lon="-0.51687">
        <ele>94</ele>
        <time>2012-08-16T16:40:50Z</time>
      </trkpt>
      <trkpt lat="49.24045" lon="-0.51678">
        <ele>95</ele>
        <time>2012-08-16T16:40:53Z</time>
      </trkpt>
      <trkpt lat="49.24048" lon="-0.5167">
        <ele>94</ele>
        <time>2012-08-16T16:40:56Z</time>
      </trkpt>
      <trkpt lat="49.2405" lon="-0.51662">
        <ele>95</ele>
        <time>2012-08-16T16:41:00Z</time>
      </trkpt>
      <trkpt lat="49.24049" lon="-0.51656">
        <ele>95</ele>
        <time>2012-08-16T16:41:04Z</time>
      </trkpt>
      <trkpt lat="49.24049" lon="-0.51649">
        <ele>96</ele>
        <time>2012-08-16T16:41:07Z</time>
      </trkpt>
      <trkpt lat="49.24049" lon="-0.5164">
        <ele>97</ele>
        <time>2012-08-16T16:41:11Z</time>
      </trkpt>
      <trkpt lat="49.24051" lon="-0.51632">
        <ele>97</ele>
        <time>2012-08-16T16:41:13Z</time>
      </trkpt>
      <trkpt lat="49.24052" lon="-0.51622">
        <ele>96</ele>
        <time>2012-08-16T16:41:16Z</time>
      </trkpt>
      <trkpt lat="49.24052" lon="-0.51615">
        <ele>96</ele>
        <time>2012-08-16T16:41:19Z</time>
      </trkpt>
      <trkpt lat="49.24053" lon="-0.51608">
        <ele>97</ele>
        <time>2012-08-16T16:41:21Z</time>
      </trkpt>
      <trkpt lat="49.24055" lon="-0.51598">
        <ele>98</ele>
        <time>2012-08-16T16:41:24Z</time>
      </trkpt>
      <trkpt lat="49.24056" lon="-0.5159">
        <ele>99</ele>
        <time>2012-08-16T16:41:28Z</time>
      </trkpt>
      <trkpt lat="49.24057" lon="-0.51582">
        <ele>100</ele>
        <time>2012-08-16T16:41:32Z</time>
      </trkpt>
      <trkpt lat="49.24058" lon="-0.51574">
        <ele>100</ele>
        <time>2012-08-16T16:41:34Z</time>
      </trkpt>
      <trkpt lat="49.2406" lon="-0.51565">
        <ele>101</ele>
        <time>2012-08-16T16:41:37Z</time>
      </trkpt>
      <trkpt lat="49.24061" lon="-0.51556">
        <ele>101</ele>
        <time>2012-08-16T16:41:40Z</time>
      </trkpt>
      <trkpt lat="49.24062" lon="-0.51549">
        <ele>103</ele>
        <time>2012-08-16T16:41:43Z</time>
      </trkpt>
      <trkpt lat="49.24061" lon="-0.51541">
        <ele>102</ele>
        <time>2012-08-16T16:41:47Z</time>
      </trkpt>
      <trkpt lat="49.24062" lon="-0.51533">
        <ele>101</ele>
        <time>2012-08-16T16:41:50Z</time>
      </trkpt>
      <trkpt lat="49.24062" lon="-0.51525">
        <ele>101</ele>
        <time>2012-08-16T16:41:53Z</time>
      </trkpt>
      <trkpt lat="49.24063" lon="-0.51517">
        <ele>100</ele>
        <time>2012-08-16T16:41:56Z</time>
      </trkpt>
      <trkpt lat="49.24063" lon="-0.51509">
        <ele>101</ele>
        <time>2012-08-16T16:41:59Z</time>
      </trkpt>
      <trkpt lat="49.24065" lon="-0.51502">
        <ele>100</ele>
        <time>2012-08-16T16:42:01Z</time>
      </trkpt>
      <trkpt lat="49.24064" lon="-0.51495">
        <ele>101</ele>
        <time>2012-08-16T16:42:05Z</time>
      </trkpt>
      <trkpt lat="49.24064" lon="-0.51488">
        <ele>100</ele>
        <time>2012-08-16T16:42:07Z</time>
      </trkpt>
      <trkpt lat="49.24064" lon="-0.51481">
        <ele>100</ele>
        <time>2012-08-16T16:42:09Z</time>
      </trkpt>
      <trkpt lat="49.24065" lon="-0.51473">
        <ele>100</ele>
        <time>2012-08-16T16:42:12Z</time>
      </trkpt>
      <trkpt lat="49.24066" lon="-0.51464">
        <ele>100</ele>
        <time>2012-08-16T16:42:14Z</time>
      </trkpt>
      <trkpt lat="49.24067" lon="-0.51456">
        <ele>99</ele>
        <time>2012-08-16T16:42:16Z</time>
      </trkpt>
      <trkpt lat="49.24067" lon="-0.51449">
        <ele>99</ele>
        <time>2012-08-16T16:42:18Z</time>
      </trkpt>
      <trkpt lat="49.24068" lon="-0.5141">
        <ele>102</ele>
        <time>2012-08-16T16:42:33Z</time>
      </trkpt>
      <trkpt lat="49.2407" lon="-0.51403">
        <ele>103</ele>
        <time>2012-08-16T16:42:34Z</time>
      </trkpt>
      <trkpt lat="49.2407" lon="-0.51396">
        <ele>104</ele>
        <time>2012-08-16T16:42:36Z</time>
      </trkpt>
      <trkpt lat="49.24068" lon="-0.5139">
        <ele>105</ele>
        <time>2012-08-16T16:42:38Z</time>
      </trkpt>
      <trkpt lat="49.24066" lon="-0.51383">
        <ele>104</ele>
        <time>2012-08-16T16:42:40Z</time>
      </trkpt>
      <trkpt lat="49.24064" lon="-0.51374">
        <ele>103</ele>
        <time>2012-08-16T16:42:43Z</time>
      </trkpt>
      <trkpt lat="49.24063" lon="-0.51368">
        <ele>102</ele>
        <time>2012-08-16T16:42:45Z</time>
      </trkpt>
      <trkpt lat="49.24062" lon="-0.51358">
        <ele>102</ele>
        <time>2012-08-16T16:42:48Z</time>
      </trkpt>
      <trkpt lat="49.24059" lon="-0.51348">
        <ele>101</ele>
        <time>2012-08-16T16:42:51Z</time>
      </trkpt>
      <trkpt lat="49.24058" lon="-0.51338">
        <ele>101</ele>
        <time>2012-08-16T16:42:54Z</time>
      </trkpt>
      <trkpt lat="49.24057" lon="-0.5133">
        <ele>101</ele>
        <time>2012-08-16T16:42:57Z</time>
      </trkpt>
      <trkpt lat="49.24056" lon="-0.51322">
        <ele>102</ele>
        <time>2012-08-16T16:43:00Z</time>
      </trkpt>
      <trkpt lat="49.24056" lon="-0.51314">
        <ele>102</ele>
        <time>2012-08-16T16:43:03Z</time>
      </trkpt>
      <trkpt lat="49.24056" lon="-0.51305">
        <ele>104</ele>
        <time>2012-08-16T16:43:06Z</time>
      </trkpt>
      <trkpt lat="49.24054" lon="-0.51296">
        <ele>104</ele>
        <time>2012-08-16T16:43:09Z</time>
      </trkpt>
      <trkpt lat="49.24053" lon="-0.51287">
        <ele>105</ele>
        <time>2012-08-16T16:43:12Z</time>
      </trkpt>
      <trkpt lat="49.24052" lon="-0.5128">
        <ele>105</ele>
        <time>2012-08-16T16:43:14Z</time>
      </trkpt>
      <trkpt lat="49.24051" lon="-0.51271">
        <ele>105</ele>
        <time>2012-08-16T16:43:17Z</time>
      </trkpt>
      <trkpt lat="49.24049" lon="-0.51261">
        <ele>104</ele>
        <time>2012-08-16T16:43:20Z</time>
      </trkpt>
      <trkpt lat="49.24048" lon="-0.51253">
        <ele>106</ele>
        <time>2012-08-16T16:43:22Z</time>
      </trkpt>
      <trkpt lat="49.24046" lon="-0.51244">
        <ele>106</ele>
        <time>2012-08-16T16:43:25Z</time>
      </trkpt>
      <trkpt lat="49.24045" lon="-0.51235">
        <ele>105</ele>
        <time>2012-08-16T16:43:27Z</time>
      </trkpt>
      <trkpt lat="49.24044" lon="-0.51228">
        <ele>104</ele>
        <time>2012-08-16T16:43:29Z</time>
      </trkpt>
      <trkpt lat="49.24043" lon="-0.5122">
        <ele>106</ele>
        <time>2012-08-16T16:43:31Z</time>
      </trkpt>
      <trkpt lat="49.24042" lon="-0.51214">
        <ele>106</ele>
        <time>2012-08-16T16:43:33Z</time>
      </trkpt>
      <trkpt lat="49.2404" lon="-0.51206">
        <ele>106</ele>
        <time>2012-08-16T16:43:35Z</time>
      </trkpt>
      <trkpt lat="49.24039" lon="-0.51199">
        <ele>106</ele>
        <time>2012-08-16T16:43:37Z</time>
      </trkpt>
      <trkpt lat="49.24038" lon="-0.51191">
        <ele>107</ele>
        <time>2012-08-16T16:43:40Z</time>
      </trkpt>
      <trkpt lat="49.24038" lon="-0.51181">
        <ele>107</ele>
        <time>2012-08-16T16:43:42Z</time>
      </trkpt>
      <trkpt lat="49.24037" lon="-0.51174">
        <ele>107</ele>
        <time>2012-08-16T16:43:44Z</time>
      </trkpt>
      <trkpt lat="49.24036" lon="-0.51166">
        <ele>107</ele>
        <time>2012-08-16T16:43:46Z</time>
      </trkpt>
      <trkpt lat="49.2403" lon="-0.51129">
        <ele>106</ele>
        <time>2012-08-16T16:43:57Z</time>
      </trkpt>
      <trkpt lat="49.2403" lon="-0.51122">
        <ele>106</ele>
        <time>2012-08-16T16:43:59Z</time>
      </trkpt>
      <trkpt lat="49.24028" lon="-0.51113">
        <ele>106</ele>
        <time>2012-08-16T16:44:01Z</time>
      </trkpt>
      <trkpt lat="49.24027" lon="-0.51106">
        <ele>105</ele>
        <time>2012-08-16T16:44:03Z</time>
      </trkpt>
      <trkpt lat="49.24026" lon="-0.51098">
        <ele>104</ele>
        <time>2012-08-16T16:44:05Z</time>
      </trkpt>
      <trkpt lat="49.24026" lon="-0.5109">
        <ele>104</ele>
        <time>2012-08-16T16:44:07Z</time>
      </trkpt>
      <trkpt lat="49.24024" lon="-0.5108">
        <ele>104</ele>
        <time>2012-08-16T16:44:09Z</time>
      </trkpt>
      <trkpt lat="49.24023" lon="-0.51071">
        <ele>105</ele>
        <time>2012-08-16T16:44:11Z</time>
      </trkpt>
      <trkpt lat="49.24021" lon="-0.51033">
        <ele>105</ele>
        <time>2012-08-16T16:44:19Z</time>
      </trkpt>
      <trkpt lat="49.23975" lon="-0.50731">
        <ele>105</ele>
        <time>2012-08-16T16:45:18Z</time>
      </trkpt>
      <trkpt lat="49.23974" lon="-0.50717">
        <ele>105</ele>
        <time>2012-08-16T16:45:20Z</time>
      </trkpt>
      <trkpt lat="49.23971" lon="-0.50704">
        <ele>105</ele>
        <time>2012-08-16T16:45:22Z</time>
      </trkpt>
      <trkpt lat="49.2396" lon="-0.50626">
        <ele>106</ele>
        <time>2012-08-16T16:45:35Z</time>
      </trkpt>
      <trkpt lat="49.23957" lon="-0.50616">
        <ele>106</ele>
        <time>2012-08-16T16:45:37Z</time>
      </trkpt>
      <trkpt lat="49.23954" lon="-0.50604">
        <ele>106</ele>
        <time>2012-08-16T16:45:39Z</time>
      </trkpt>
      <trkpt lat="49.23953" lon="-0.50592">
        <ele>107</ele>
        <time>2012-08-16T16:45:41Z</time>
      </trkpt>
      <trkpt lat="49.23946" lon="-0.5055">
        <ele>107</ele>
        <time>2012-08-16T16:45:48Z</time>
      </trkpt>
      <trkpt lat="49.23898" lon="-0.50291">
        <ele>107</ele>
        <time>2012-08-16T16:46:31Z</time>
      </trkpt>
      <trkpt lat="49.23898" lon="-0.5028">
        <ele>107</ele>
        <time>2012-08-16T16:46:33Z</time>
      </trkpt>
      <trkpt lat="49.23896" lon="-0.50267">
        <ele>104</ele>
        <time>2012-08-16T16:46:35Z</time>
      </trkpt>
      <trkpt lat="49.23895" lon="-0.50254">
        <ele>104</ele>
        <time>2012-08-16T16:46:37Z</time>
      </trkpt>
      <trkpt lat="49.23893" lon="-0.50243">
        <ele>104</ele>
        <time>2012-08-16T16:46:39Z</time>
      </trkpt>
      <trkpt lat="49.23891" lon="-0.50232">
        <ele>103</ele>
        <time>2012-08-16T16:46:41Z</time>
      </trkpt>
      <trkpt lat="49.23889" lon="-0.50221">
        <ele>103</ele>
        <time>2012-08-16T16:46:43Z</time>
      </trkpt>
      <trkpt lat="49.23887" lon="-0.50208">
        <ele>104</ele>
        <time>2012-08-16T16:46:45Z</time>
      </trkpt>
      <trkpt lat="49.23885" lon="-0.50197">
        <ele>105</ele>
        <time>2012-08-16T16:46:47Z</time>
      </trkpt>
      <trkpt lat="49.23883" lon="-0.50185">
        <ele>105</ele>
        <time>2012-08-16T16:46:49Z</time>
      </trkpt>
      <trkpt lat="49.23882" lon="-0.50174">
        <ele>106</ele>
        <time>2012-08-16T16:46:51Z</time>
      </trkpt>
      <trkpt lat="49.23881" lon="-0.50163">
        <ele>107</ele>
        <time>2012-08-16T16:46:53Z</time>
      </trkpt>
      <trkpt lat="49.23879" lon="-0.50151">
        <ele>107</ele>
        <time>2012-08-16T16:46:55Z</time>
      </trkpt>
      <trkpt lat="49.23877" lon="-0.50139">
        <ele>108</ele>
        <time>2012-08-16T16:46:57Z</time>
      </trkpt>
      <trkpt lat="49.23875" lon="-0.50127">
        <ele>108</ele>
        <time>2012-08-16T16:46:59Z</time>
      </trkpt>
      <trkpt lat="49.23873" lon="-0.50117">
        <ele>106</ele>
        <time>2012-08-16T16:47:01Z</time>
      </trkpt>
      <trkpt lat="49.23873" lon="-0.50106">
        <ele>106</ele>
        <time>2012-08-16T16:47:03Z</time>
      </trkpt>
      <trkpt lat="49.2387" lon="-0.50094">
        <ele>106</ele>
        <time>2012-08-16T16:47:05Z</time>
      </trkpt>
      <trkpt lat="49.23869" lon="-0.50082">
        <ele>106</ele>
        <time>2012-08-16T16:47:07Z</time>
      </trkpt>
      <trkpt lat="49.23868" lon="-0.50072">
        <ele>106</ele>
        <time>2012-08-16T16:47:09Z</time>
      </trkpt>
      <trkpt lat="49.23866" lon="-0.50063">
        <ele>106</ele>
        <time>2012-08-16T16:47:11Z</time>
      </trkpt>
      <trkpt lat="49.23721" lon="-0.49256">
        <ele>102</ele>
        <time>2012-08-16T16:49:33Z</time>
      </trkpt>
      <trkpt lat="49.2372" lon="-0.49243">
        <ele>101</ele>
        <time>2012-08-16T16:49:35Z</time>
      </trkpt>
      <trkpt lat="49.23719" lon="-0.49236">
        <ele>101</ele>
        <time>2012-08-16T16:49:36Z</time>
      </trkpt>
      <trkpt lat="49.23717" lon="-0.49229">
        <ele>101</ele>
        <time>2012-08-16T16:49:37Z</time>
      </trkpt>
      <trkpt lat="49.23716" lon="-0.49222">
        <ele>99</ele>
        <time>2012-08-16T16:49:38Z</time>
      </trkpt>
      <trkpt lat="49.23714" lon="-0.49215">
        <ele>98</ele>
        <time>2012-08-16T16:49:39Z</time>
      </trkpt>
      <trkpt lat="49.23713" lon="-0.49208">
        <ele>98</ele>
        <time>2012-08-16T16:49:40Z</time>
      </trkpt>
      <trkpt lat="49.23712" lon="-0.49201">
        <ele>98</ele>
        <time>2012-08-16T16:49:41Z</time>
      </trkpt>
      <trkpt lat="49.2371" lon="-0.49188">
        <ele>98</ele>
        <time>2012-08-16T16:49:43Z</time>
      </trkpt>
      <trkpt lat="49.23708" lon="-0.49175">
        <ele>100</ele>
        <time>2012-08-16T16:49:45Z</time>
      </trkpt>
      <trkpt lat="49.23708" lon="-0.49168">
        <ele>100</ele>
        <time>2012-08-16T16:49:46Z</time>
      </trkpt>
      <trkpt lat="49.23707" lon="-0.49161">
        <ele>101</ele>
        <time>2012-08-16T16:49:47Z</time>
      </trkpt>
      <trkpt lat="49.23705" lon="-0.49148">
        <ele>100</ele>
        <time>2012-08-16T16:49:49Z</time>
      </trkpt>
      <trkpt lat="49.23704" lon="-0.49141">
        <ele>101</ele>
        <time>2012-08-16T16:49:50Z</time>
      </trkpt>
      <trkpt lat="49.23702" lon="-0.49128">
        <ele>101</ele>
        <time>2012-08-16T16:49:52Z</time>
      </trkpt>
      <trkpt lat="49.237" lon="-0.49121">
        <ele>101</ele>
        <time>2012-08-16T16:49:53Z</time>
      </trkpt>
      <trkpt lat="49.23699" lon="-0.49114">
        <ele>101</ele>
        <time>2012-08-16T16:49:54Z</time>
      </trkpt>
      <trkpt lat="49.23697" lon="-0.49101">
        <ele>101</ele>
        <time>2012-08-16T16:49:56Z</time>
      </trkpt>
      <trkpt lat="49.23696" lon="-0.49094">
        <ele>101</ele>
        <time>2012-08-16T16:49:57Z</time>
      </trkpt>
      <trkpt lat="49.23695" lon="-0.49086">
        <ele>100</ele>
        <time>2012-08-16T16:49:58Z</time>
      </trkpt>
      <trkpt lat="49.23694" lon="-0.4908">
        <ele>100</ele>
        <time>2012-08-16T16:49:59Z</time>
      </trkpt>
      <trkpt lat="49.23691" lon="-0.49066">
        <ele>100</ele>
        <time>2012-08-16T16:50:01Z</time>
      </trkpt>
      <trkpt lat="49.23685" lon="-0.49034">
        <ele>99</ele>
        <time>2012-08-16T16:50:06Z</time>
      </trkpt>
      <trkpt lat="49.23683" lon="-0.49027">
        <ele>99</ele>
        <time>2012-08-16T16:50:07Z</time>
      </trkpt>
      <trkpt lat="49.23681" lon="-0.49018">
        <ele>99</ele>
        <time>2012-08-16T16:50:08Z</time>
      </trkpt>
      <trkpt lat="49.23677" lon="-0.49008">
        <ele>98</ele>
        <time>2012-08-16T16:50:10Z</time>
      </trkpt>
      <trkpt lat="49.23675" lon="-0.48998">
        <ele>98</ele>
        <time>2012-08-16T16:50:12Z</time>
      </trkpt>
      <trkpt lat="49.23673" lon="-0.48988">
        <ele>98</ele>
        <time>2012-08-16T16:50:14Z</time>
      </trkpt>
      <trkpt lat="49.23673" lon="-0.48981">
        <ele>98</ele>
        <time>2012-08-16T16:50:15Z</time>
      </trkpt>
      <trkpt lat="49.23671" lon="-0.4897">
        <ele>98</ele>
        <time>2012-08-16T16:50:17Z</time>
      </trkpt>
      <trkpt lat="49.23669" lon="-0.48959">
        <ele>98</ele>
        <time>2012-08-16T16:50:19Z</time>
      </trkpt>
      <trkpt lat="49.23667" lon="-0.48948">
        <ele>99</ele>
        <time>2012-08-16T16:50:21Z</time>
      </trkpt>
      <trkpt lat="49.23634" lon="-0.48674">
        <ele>95</ele>
        <time>2012-08-16T16:51:00Z</time>
      </trkpt>
      <trkpt lat="49.23633" lon="-0.48667">
        <ele>94</ele>
        <time>2012-08-16T16:51:01Z</time>
      </trkpt>
      <trkpt lat="49.23631" lon="-0.4866">
        <ele>94</ele>
        <time>2012-08-16T16:51:02Z</time>
      </trkpt>
      <trkpt lat="49.23631" lon="-0.48646">
        <ele>94</ele>
        <time>2012-08-16T16:51:04Z</time>
      </trkpt>
      <trkpt lat="49.23629" lon="-0.48633">
        <ele>94</ele>
        <time>2012-08-16T16:51:06Z</time>
      </trkpt>
      <trkpt lat="49.23628" lon="-0.48626">
        <ele>94</ele>
        <time>2012-08-16T16:51:07Z</time>
      </trkpt>
      <trkpt lat="49.23625" lon="-0.48613">
        <ele>94</ele>
        <time>2012-08-16T16:51:09Z</time>
      </trkpt>
      <trkpt lat="49.23624" lon="-0.48606">
        <ele>94</ele>
        <time>2012-08-16T16:51:10Z</time>
      </trkpt>
      <trkpt lat="49.23623" lon="-0.48599">
        <ele>94</ele>
        <time>2012-08-16T16:51:11Z</time>
      </trkpt>
      <trkpt lat="49.23621" lon="-0.48586">
        <ele>93</ele>
        <time>2012-08-16T16:51:13Z</time>
      </trkpt>
      <trkpt lat="49.2362" lon="-0.48573">
        <ele>94</ele>
        <time>2012-08-16T16:51:15Z</time>
      </trkpt>
      <trkpt lat="49.23623" lon="-0.48566">
        <ele>95</ele>
        <time>2012-08-16T16:51:16Z</time>
      </trkpt>
      <trkpt lat="49.23623" lon="-0.48553">
        <ele>95</ele>
        <time>2012-08-16T16:51:18Z</time>
      </trkpt>
      <trkpt lat="49.23622" lon="-0.48541">
        <ele>93</ele>
        <time>2012-08-16T16:51:20Z</time>
      </trkpt>
      <trkpt lat="49.23622" lon="-0.48532">
        <ele>93</ele>
        <time>2012-08-16T16:51:22Z</time>
      </trkpt>
      <trkpt lat="49.23624" lon="-0.4852">
        <ele>93</ele>
        <time>2012-08-16T16:51:24Z</time>
      </trkpt>
      <trkpt lat="49.23625" lon="-0.48508">
        <ele>92</ele>
        <time>2012-08-16T16:51:26Z</time>
      </trkpt>
      <trkpt lat="49.23625" lon="-0.48494">
        <ele>92</ele>
        <time>2012-08-16T16:51:28Z</time>
      </trkpt>
      <trkpt lat="49.23627" lon="-0.48483">
        <ele>92</ele>
        <time>2012-08-16T16:51:30Z</time>
      </trkpt>
      <trkpt lat="49.23627" lon="-0.48471">
        <ele>91</ele>
        <time>2012-08-16T16:51:32Z</time>
      </trkpt>
      <trkpt lat="49.23628" lon="-0.48461">
        <ele>90</ele>
        <time>2012-08-16T16:51:34Z</time>
      </trkpt>
      <trkpt lat="49.23629" lon="-0.48449">
        <ele>91</ele>
        <time>2012-08-16T16:51:36Z</time>
      </trkpt>
      <trkpt lat="49.23629" lon="-0.4844">
        <ele>91</ele>
        <time>2012-08-16T16:51:38Z</time>
      </trkpt>
      <trkpt lat="49.23629" lon="-0.4843">
        <ele>92</ele>
        <time>2012-08-16T16:51:40Z</time>
      </trkpt>
      <trkpt lat="49.23629" lon="-0.48422">
        <ele>91</ele>
        <time>2012-08-16T16:51:42Z</time>
      </trkpt>
      <trkpt lat="49.23628" lon="-0.48415">
        <ele>92</ele>
        <time>2012-08-16T16:51:44Z</time>
      </trkpt>
      <trkpt lat="49.23629" lon="-0.48406">
        <ele>94</ele>
        <time>2012-08-16T16:51:46Z</time>
      </trkpt>
      <trkpt lat="49.2363" lon="-0.48397">
        <ele>94</ele>
        <time>2012-08-16T16:51:48Z</time>
      </trkpt>
      <trkpt lat="49.23628" lon="-0.48388">
        <ele>94</ele>
        <time>2012-08-16T16:51:50Z</time>
      </trkpt>
      <trkpt lat="49.23624" lon="-0.4838">
        <ele>94</ele>
        <time>2012-08-16T16:51:52Z</time>
      </trkpt>
      <trkpt lat="49.23621" lon="-0.4837">
        <ele>94</ele>
        <time>2012-08-16T16:51:54Z</time>
      </trkpt>
      <trkpt lat="49.23619" lon="-0.48361">
        <ele>93</ele>
        <time>2012-08-16T16:51:56Z</time>
      </trkpt>
      <trkpt lat="49.23617" lon="-0.48354">
        <ele>93</ele>
        <time>2012-08-16T16:51:58Z</time>
      </trkpt>
      <trkpt lat="49.23617" lon="-0.48346">
        <ele>92</ele>
        <time>2012-08-16T16:52:00Z</time>
      </trkpt>
      <trkpt lat="49.23615" lon="-0.48336">
        <ele>92</ele>
        <time>2012-08-16T16:52:02Z</time>
      </trkpt>
      <trkpt lat="49.23611" lon="-0.48328">
        <ele>91</ele>
        <time>2012-08-16T16:52:04Z</time>
      </trkpt>
      <trkpt lat="49.23608" lon="-0.48316">
        <ele>93</ele>
        <time>2012-08-16T16:52:06Z</time>
      </trkpt>
      <trkpt lat="49.23606" lon="-0.48306">
        <ele>93</ele>
        <time>2012-08-16T16:52:08Z</time>
      </trkpt>
      <trkpt lat="49.23603" lon="-0.48295">
        <ele>93</ele>
        <time>2012-08-16T16:52:10Z</time>
      </trkpt>
      <trkpt lat="49.23602" lon="-0.48285">
        <ele>93</ele>
        <time>2012-08-16T16:52:12Z</time>
      </trkpt>
      <trkpt lat="49.236" lon="-0.48273">
        <ele>92</ele>
        <time>2012-08-16T16:52:14Z</time>
      </trkpt>
      <trkpt lat="49.23599" lon="-0.48264">
        <ele>93</ele>
        <time>2012-08-16T16:52:16Z</time>
      </trkpt>
      <trkpt lat="49.23598" lon="-0.48254">
        <ele>92</ele>
        <time>2012-08-16T16:52:18Z</time>
      </trkpt>
      <trkpt lat="49.23597" lon="-0.48245">
        <ele>91</ele>
        <time>2012-08-16T16:52:20Z</time>
      </trkpt>
      <trkpt lat="49.23594" lon="-0.48237">
        <ele>91</ele>
        <time>2012-08-16T16:52:22Z</time>
      </trkpt>
      <trkpt lat="49.23593" lon="-0.48229">
        <ele>91</ele>
        <time>2012-08-16T16:52:24Z</time>
      </trkpt>
      <trkpt lat="49.23591" lon="-0.48219">
        <ele>90</ele>
        <time>2012-08-16T16:52:26Z</time>
      </trkpt>
      <trkpt lat="49.23589" lon="-0.48211">
        <ele>89</ele>
        <time>2012-08-16T16:52:28Z</time>
      </trkpt>
      <trkpt lat="49.23586" lon="-0.48201">
        <ele>91</ele>
        <time>2012-08-16T16:52:30Z</time>
      </trkpt>
      <trkpt lat="49.23584" lon="-0.48189">
        <ele>91</ele>
        <time>2012-08-16T16:52:32Z</time>
      </trkpt>
      <trkpt lat="49.23582" lon="-0.48179">
        <ele>91</ele>
        <time>2012-08-16T16:52:34Z</time>
      </trkpt>
      <trkpt lat="49.23579" lon="-0.48171">
        <ele>91</ele>
        <time>2012-08-16T16:52:36Z</time>
      </trkpt>
      <trkpt lat="49.23578" lon="-0.48162">
        <ele>92</ele>
        <time>2012-08-16T16:52:38Z</time>
      </trkpt>
      <trkpt lat="49.23576" lon="-0.48154">
        <ele>91</ele>
        <time>2012-08-16T16:52:40Z</time>
      </trkpt>
      <trkpt lat="49.23574" lon="-0.48144">
        <ele>92</ele>
        <time>2012-08-16T16:52:42Z</time>
      </trkpt>
      <trkpt lat="49.23571" lon="-0.48134">
        <ele>92</ele>
        <time>2012-08-16T16:52:44Z</time>
      </trkpt>
      <trkpt lat="49.23568" lon="-0.48124">
        <ele>92</ele>
        <time>2012-08-16T16:52:46Z</time>
      </trkpt>
      <trkpt lat="49.23566" lon="-0.48114">
        <ele>91</ele>
        <time>2012-08-16T16:52:48Z</time>
      </trkpt>
      <trkpt lat="49.23566" lon="-0.48103">
        <ele>94</ele>
        <time>2012-08-16T16:52:50Z</time>
      </trkpt>
      <trkpt lat="49.23563" lon="-0.48094">
        <ele>95</ele>
        <time>2012-08-16T16:52:52Z</time>
      </trkpt>
      <trkpt lat="49.2356" lon="-0.48085">
        <ele>95</ele>
        <time>2012-08-16T16:52:54Z</time>
      </trkpt>
      <trkpt lat="49.23558" lon="-0.48076">
        <ele>96</ele>
        <time>2012-08-16T16:52:56Z</time>
      </trkpt>
      <trkpt lat="49.23557" lon="-0.48067">
        <ele>95</ele>
        <time>2012-08-16T16:52:58Z</time>
      </trkpt>
      <trkpt lat="49.23555" lon="-0.48058">
        <ele>95</ele>
        <time>2012-08-16T16:53:00Z</time>
      </trkpt>
      <trkpt lat="49.23553" lon="-0.4805">
        <ele>95</ele>
        <time>2012-08-16T16:53:02Z</time>
      </trkpt>
      <trkpt lat="49.23551" lon="-0.48041">
        <ele>95</ele>
        <time>2012-08-16T16:53:04Z</time>
      </trkpt>
      <trkpt lat="49.23548" lon="-0.48034">
        <ele>95</ele>
        <time>2012-08-16T16:53:06Z</time>
      </trkpt>
      <trkpt lat="49.23546" lon="-0.48025">
        <ele>95</ele>
        <time>2012-08-16T16:53:08Z</time>
      </trkpt>
      <trkpt lat="49.23544" lon="-0.48017">
        <ele>94</ele>
        <time>2012-08-16T16:53:10Z</time>
      </trkpt>
      <trkpt lat="49.23541" lon="-0.48009">
        <ele>94</ele>
        <time>2012-08-16T16:53:12Z</time>
      </trkpt>
      <trkpt lat="49.23537" lon="-0.47998">
        <ele>94</ele>
        <time>2012-08-16T16:53:14Z</time>
      </trkpt>
      <trkpt lat="49.23535" lon="-0.47987">
        <ele>94</ele>
        <time>2012-08-16T16:53:16Z</time>
      </trkpt>
      <trkpt lat="49.23532" lon="-0.47979">
        <ele>94</ele>
        <time>2012-08-16T16:53:18Z</time>
      </trkpt>
      <trkpt lat="49.2353" lon="-0.4797">
        <ele>93</ele>
        <time>2012-08-16T16:53:20Z</time>
      </trkpt>
      <trkpt lat="49.23527" lon="-0.47961">
        <ele>93</ele>
        <time>2012-08-16T16:53:22Z</time>
      </trkpt>
      <trkpt lat="49.23524" lon="-0.47952">
        <ele>94</ele>
        <time>2012-08-16T16:53:24Z</time>
      </trkpt>
      <trkpt lat="49.23522" lon="-0.47943">
        <ele>94</ele>
        <time>2012-08-16T16:53:26Z</time>
      </trkpt>
      <trkpt lat="49.23521" lon="-0.47935">
        <ele>95</ele>
        <time>2012-08-16T16:53:28Z</time>
      </trkpt>
      <trkpt lat="49.23519" lon="-0.47927">
        <ele>95</ele>
        <time>2012-08-16T16:53:30Z</time>
      </trkpt>
      <trkpt lat="49.23516" lon="-0.47917">
        <ele>95</ele>
        <time>2012-08-16T16:53:32Z</time>
      </trkpt>
      <trkpt lat="49.23513" lon="-0.47906">
        <ele>94</ele>
        <time>2012-08-16T16:53:34Z</time>
      </trkpt>
      <trkpt lat="49.23511" lon="-0.47897">
        <ele>95</ele>
        <time>2012-08-16T16:53:36Z</time>
      </trkpt>
      <trkpt lat="49.23508" lon="-0.47889">
        <ele>94</ele>
        <time>2012-08-16T16:53:38Z</time>
      </trkpt>
      <trkpt lat="49.23506" lon="-0.4788">
        <ele>94</ele>
        <time>2012-08-16T16:53:40Z</time>
      </trkpt>
      <trkpt lat="49.23504" lon="-0.47872">
        <ele>94</ele>
        <time>2012-08-16T16:53:42Z</time>
      </trkpt>
      <trkpt lat="49.23501" lon="-0.47864">
        <ele>95</ele>
        <time>2012-08-16T16:53:44Z</time>
      </trkpt>
      <trkpt lat="49.23499" lon="-0.47856">
        <ele>95</ele>
        <time>2012-08-16T16:53:46Z</time>
      </trkpt>
      <trkpt lat="49.23498" lon="-0.47847">
        <ele>96</ele>
        <time>2012-08-16T16:53:48Z</time>
      </trkpt>
      <trkpt lat="49.23495" lon="-0.47838">
        <ele>97</ele>
        <time>2012-08-16T16:53:50Z</time>
      </trkpt>
      <trkpt lat="49.23493" lon="-0.47829">
        <ele>97</ele>
        <time>2012-08-16T16:53:52Z</time>
      </trkpt>
      <trkpt lat="49.2349" lon="-0.47822">
        <ele>97</ele>
        <time>2012-08-16T16:53:54Z</time>
      </trkpt>
      <trkpt lat="49.23488" lon="-0.47811">
        <ele>97</ele>
        <time>2012-08-16T16:53:56Z</time>
      </trkpt>
      <trkpt lat="49.23485" lon="-0.47802">
        <ele>96</ele>
        <time>2012-08-16T16:53:58Z</time>
      </trkpt>
      <trkpt lat="49.23483" lon="-0.47792">
        <ele>96</ele>
        <time>2012-08-16T16:54:00Z</time>
      </trkpt>
      <trkpt lat="49.23481" lon="-0.47782">
        <ele>96</ele>
        <time>2012-08-16T16:54:02Z</time>
      </trkpt>
      <trkpt lat="49.23478" lon="-0.47774">
        <ele>96</ele>
        <time>2012-08-16T16:54:04Z</time>
      </trkpt>
      <trkpt lat="49.23476" lon="-0.47764">
        <ele>96</ele>
        <time>2012-08-16T16:54:06Z</time>
      </trkpt>
      <trkpt lat="49.23473" lon="-0.47756">
        <ele>96</ele>
        <time>2012-08-16T16:54:08Z</time>
      </trkpt>
      <trkpt lat="49.23469" lon="-0.47747">
        <ele>96</ele>
        <time>2012-08-16T16:54:10Z</time>
      </trkpt>
      <trkpt lat="49.23467" lon="-0.47737">
        <ele>95</ele>
        <time>2012-08-16T16:54:12Z</time>
      </trkpt>
      <trkpt lat="49.23463" lon="-0.47728">
        <ele>95</ele>
        <time>2012-08-16T16:54:14Z</time>
      </trkpt>
      <trkpt lat="49.23461" lon="-0.47721">
        <ele>95</ele>
        <time>2012-08-16T16:54:16Z</time>
      </trkpt>
      <trkpt lat="49.23458" lon="-0.47714">
        <ele>95</ele>
        <time>2012-08-16T16:54:18Z</time>
      </trkpt>
      <trkpt lat="49.23455" lon="-0.47706">
        <ele>95</ele>
        <time>2012-08-16T16:54:20Z</time>
      </trkpt>
      <trkpt lat="49.23452" lon="-0.47697">
        <ele>95</ele>
        <time>2012-08-16T16:54:22Z</time>
      </trkpt>
      <trkpt lat="49.23448" lon="-0.47688">
        <ele>95</ele>
        <time>2012-08-16T16:54:24Z</time>
      </trkpt>
      <trkpt lat="49.23444" lon="-0.47677">
        <ele>95</ele>
        <time>2012-08-16T16:54:26Z</time>
      </trkpt>
      <trkpt lat="49.23439" lon="-0.47668">
        <ele>96</ele>
        <time>2012-08-16T16:54:28Z</time>
      </trkpt>
      <trkpt lat="49.23436" lon="-0.47659">
        <ele>95</ele>
        <time>2012-08-16T16:54:30Z</time>
      </trkpt>
      <trkpt lat="49.23434" lon="-0.47653">
        <ele>95</ele>
        <time>2012-08-16T16:54:31Z</time>
      </trkpt>
      <trkpt lat="49.23431" lon="-0.47647">
        <ele>94</ele>
        <time>2012-08-16T16:54:32Z</time>
      </trkpt>
      <trkpt lat="49.23427" lon="-0.47635">
        <ele>94</ele>
        <time>2012-08-16T16:54:34Z</time>
      </trkpt>
      <trkpt lat="49.23424" lon="-0.47625">
        <ele>94</ele>
        <time>2012-08-16T16:54:36Z</time>
      </trkpt>
      <trkpt lat="49.23421" lon="-0.47616">
        <ele>95</ele>
        <time>2012-08-16T16:54:38Z</time>
      </trkpt>
      <trkpt lat="49.23417" lon="-0.47607">
        <ele>94</ele>
        <time>2012-08-16T16:54:40Z</time>
      </trkpt>
      <trkpt lat="49.23412" lon="-0.47598">
        <ele>93</ele>
        <time>2012-08-16T16:54:42Z</time>
      </trkpt>
      <trkpt lat="49.23408" lon="-0.47587">
        <ele>91</ele>
        <time>2012-08-16T16:54:44Z</time>
      </trkpt>
      <trkpt lat="49.23403" lon="-0.47576">
        <ele>90</ele>
        <time>2012-08-16T16:54:46Z</time>
      </trkpt>
      <trkpt lat="49.234" lon="-0.47567">
        <ele>89</ele>
        <time>2012-08-16T16:54:48Z</time>
      </trkpt>
      <trkpt lat="49.23397" lon="-0.47561">
        <ele>89</ele>
        <time>2012-08-16T16:54:49Z</time>
      </trkpt>
      <trkpt lat="49.23394" lon="-0.47551">
        <ele>89</ele>
        <time>2012-08-16T16:54:51Z</time>
      </trkpt>
      <trkpt lat="49.2339" lon="-0.47543">
        <ele>88</ele>
        <time>2012-08-16T16:54:53Z</time>
      </trkpt>
      <trkpt lat="49.23387" lon="-0.47534">
        <ele>88</ele>
        <time>2012-08-16T16:54:55Z</time>
      </trkpt>
      <trkpt lat="49.23385" lon="-0.47526">
        <ele>88</ele>
        <time>2012-08-16T16:54:57Z</time>
      </trkpt>
      <trkpt lat="49.23381" lon="-0.47516">
        <ele>88</ele>
        <time>2012-08-16T16:54:59Z</time>
      </trkpt>
      <trkpt lat="49.23378" lon="-0.47508">
        <ele>88</ele>
        <time>2012-08-16T16:55:01Z</time>
      </trkpt>
      <trkpt lat="49.23374" lon="-0.47499">
        <ele>88</ele>
        <time>2012-08-16T16:55:03Z</time>
      </trkpt>
      <trkpt lat="49.23371" lon="-0.47492">
        <ele>87</ele>
        <time>2012-08-16T16:55:05Z</time>
      </trkpt>
      <trkpt lat="49.23368" lon="-0.47483">
        <ele>88</ele>
        <time>2012-08-16T16:55:07Z</time>
      </trkpt>
      <trkpt lat="49.23365" lon="-0.47475">
        <ele>88</ele>
        <time>2012-08-16T16:55:09Z</time>
      </trkpt>
      <trkpt lat="49.23361" lon="-0.47468">
        <ele>88</ele>
        <time>2012-08-16T16:55:11Z</time>
      </trkpt>
      <trkpt lat="49.23358" lon="-0.4746">
        <ele>89</ele>
        <time>2012-08-16T16:55:13Z</time>
      </trkpt>
      <trkpt lat="49.23355" lon="-0.47451">
        <ele>90</ele>
        <time>2012-08-16T16:55:16Z</time>
      </trkpt>
      <trkpt lat="49.23353" lon="-0.47444">
        <ele>90</ele>
        <time>2012-08-16T16:55:18Z</time>
      </trkpt>
      <trkpt lat="49.23349" lon="-0.47438">
        <ele>91</ele>
        <time>2012-08-16T16:55:20Z</time>
      </trkpt>
      <trkpt lat="49.23346" lon="-0.4743">
        <ele>92</ele>
        <time>2012-08-16T16:55:22Z</time>
      </trkpt>
      <trkpt lat="49.23344" lon="-0.47424">
        <ele>93</ele>
        <time>2012-08-16T16:55:24Z</time>
      </trkpt>
      <trkpt lat="49.23342" lon="-0.47417">
        <ele>93</ele>
        <time>2012-08-16T16:55:26Z</time>
      </trkpt>
      <trkpt lat="49.23338" lon="-0.47408">
        <ele>93</ele>
        <time>2012-08-16T16:55:28Z</time>
      </trkpt>
      <trkpt lat="49.23336" lon="-0.47401">
        <ele>93</ele>
        <time>2012-08-16T16:55:30Z</time>
      </trkpt>
      <trkpt lat="49.23332" lon="-0.47392">
        <ele>92</ele>
        <time>2012-08-16T16:55:32Z</time>
      </trkpt>
      <trkpt lat="49.23328" lon="-0.47383">
        <ele>93</ele>
        <time>2012-08-16T16:55:34Z</time>
      </trkpt>
      <trkpt lat="49.23324" lon="-0.47374">
        <ele>93</ele>
        <time>2012-08-16T16:55:36Z</time>
      </trkpt>
      <trkpt lat="49.23321" lon="-0.47366">
        <ele>94</ele>
        <time>2012-08-16T16:55:38Z</time>
      </trkpt>
      <trkpt lat="49.23318" lon="-0.47358">
        <ele>93</ele>
        <time>2012-08-16T16:55:40Z</time>
      </trkpt>
      <trkpt lat="49.23315" lon="-0.47351">
        <ele>93</ele>
        <time>2012-08-16T16:55:42Z</time>
      </trkpt>
      <trkpt lat="49.23312" lon="-0.47342">
        <ele>94</ele>
        <time>2012-08-16T16:55:44Z</time>
      </trkpt>
      <trkpt lat="49.2331" lon="-0.47334">
        <ele>93</ele>
        <time>2012-08-16T16:55:46Z</time>
      </trkpt>
      <trkpt lat="49.23307" lon="-0.47328">
        <ele>93</ele>
        <time>2012-08-16T16:55:48Z</time>
      </trkpt>
      <trkpt lat="49.23302" lon="-0.47317">
        <ele>95</ele>
        <time>2012-08-16T16:55:50Z</time>
      </trkpt>
      <trkpt lat="49.23299" lon="-0.47308">
        <ele>96</ele>
        <time>2012-08-16T16:55:52Z</time>
      </trkpt>
      <trkpt lat="49.23296" lon="-0.47302">
        <ele>96</ele>
        <time>2012-08-16T16:55:54Z</time>
      </trkpt>
      <trkpt lat="49.23294" lon="-0.47295">
        <ele>96</ele>
        <time>2012-08-16T16:55:56Z</time>
      </trkpt>
      <trkpt lat="49.23291" lon="-0.47287">
        <ele>96</ele>
        <time>2012-08-16T16:55:58Z</time>
      </trkpt>
      <trkpt lat="49.23287" lon="-0.47281">
        <ele>97</ele>
        <time>2012-08-16T16:56:00Z</time>
      </trkpt>
      <trkpt lat="49.23284" lon="-0.47274">
        <ele>97</ele>
        <time>2012-08-16T16:56:02Z</time>
      </trkpt>
      <trkpt lat="49.2328" lon="-0.47265">
        <ele>97</ele>
        <time>2012-08-16T16:56:04Z</time>
      </trkpt>
      <trkpt lat="49.23277" lon="-0.47258">
        <ele>97</ele>
        <time>2012-08-16T16:56:06Z</time>
      </trkpt>
      <trkpt lat="49.23274" lon="-0.4725">
        <ele>96</ele>
        <time>2012-08-16T16:56:08Z</time>
      </trkpt>
      <trkpt lat="49.23271" lon="-0.47243">
        <ele>96</ele>
        <time>2012-08-16T16:56:10Z</time>
      </trkpt>
      <trkpt lat="49.23268" lon="-0.47235">
        <ele>95</ele>
        <time>2012-08-16T16:56:12Z</time>
      </trkpt>
      <trkpt lat="49.23265" lon="-0.47226">
        <ele>95</ele>
        <time>2012-08-16T16:56:14Z</time>
      </trkpt>
      <trkpt lat="49.23262" lon="-0.47218">
        <ele>95</ele>
        <time>2012-08-16T16:56:16Z</time>
      </trkpt>
      <trkpt lat="49.23259" lon="-0.47208">
        <ele>96</ele>
        <time>2012-08-16T16:56:18Z</time>
      </trkpt>
      <trkpt lat="49.23254" lon="-0.47198">
        <ele>96</ele>
        <time>2012-08-16T16:56:20Z</time>
      </trkpt>
      <trkpt lat="49.23249" lon="-0.47189">
        <ele>96</ele>
        <time>2012-08-16T16:56:22Z</time>
      </trkpt>
      <trkpt lat="49.23246" lon="-0.4718">
        <ele>95</ele>
        <time>2012-08-16T16:56:24Z</time>
      </trkpt>
      <trkpt lat="49.23243" lon="-0.4717">
        <ele>95</ele>
        <time>2012-08-16T16:56:26Z</time>
      </trkpt>
      <trkpt lat="49.23239" lon="-0.47161">
        <ele>95</ele>
        <time>2012-08-16T16:56:28Z</time>
      </trkpt>
      <trkpt lat="49.23236" lon="-0.47153">
        <ele>96</ele>
        <time>2012-08-16T16:56:30Z</time>
      </trkpt>
      <trkpt lat="49.23233" lon="-0.47144">
        <ele>95</ele>
        <time>2012-08-16T16:56:32Z</time>
      </trkpt>
      <trkpt lat="49.2323" lon="-0.47135">
        <ele>94</ele>
        <time>2012-08-16T16:56:34Z</time>
      </trkpt>
      <trkpt lat="49.23226" lon="-0.47126">
        <ele>93</ele>
        <time>2012-08-16T16:56:36Z</time>
      </trkpt>
      <trkpt lat="49.23222" lon="-0.47117">
        <ele>94</ele>
        <time>2012-08-16T16:56:38Z</time>
      </trkpt>
      <trkpt lat="49.23218" lon="-0.47108">
        <ele>95</ele>
        <time>2012-08-16T16:56:40Z</time>
      </trkpt>
      <trkpt lat="49.23215" lon="-0.471">
        <ele>96</ele>
        <time>2012-08-16T16:56:42Z</time>
      </trkpt>
      <trkpt lat="49.23211" lon="-0.4709">
        <ele>96</ele>
        <time>2012-08-16T16:56:44Z</time>
      </trkpt>
      <trkpt lat="49.23206" lon="-0.4708">
        <ele>97</ele>
        <time>2012-08-16T16:56:46Z</time>
      </trkpt>
      <trkpt lat="49.23196" lon="-0.47048">
        <ele>99</ele>
        <time>2012-08-16T16:56:52Z</time>
      </trkpt>
      <trkpt lat="49.23195" lon="-0.4704">
        <ele>101</ele>
        <time>2012-08-16T16:56:57Z</time>
      </trkpt>
      <trkpt lat="49.2319" lon="-0.47037">
        <ele>94</ele>
        <time>2012-08-16T17:00:49Z</time>
      </trkpt>
      <trkpt lat="49.23187" lon="-0.47029">
        <ele>93</ele>
        <time>2012-08-16T17:00:51Z</time>
      </trkpt>
      <trkpt lat="49.23182" lon="-0.47022">
        <ele>94</ele>
        <time>2012-08-16T17:00:53Z</time>
      </trkpt>
      <trkpt lat="49.23177" lon="-0.47014">
        <ele>92</ele>
        <time>2012-08-16T17:00:55Z</time>
      </trkpt>
      <trkpt lat="49.23174" lon="-0.47006">
        <ele>92</ele>
        <time>2012-08-16T17:00:57Z</time>
      </trkpt>
      <trkpt lat="49.23169" lon="-0.46996">
        <ele>92</ele>
        <time>2012-08-16T17:00:59Z</time>
      </trkpt>
      <trkpt lat="49.23166" lon="-0.46988">
        <ele>93</ele>
        <time>2012-08-16T17:01:01Z</time>
      </trkpt>
      <trkpt lat="49.23161" lon="-0.4698">
        <ele>93</ele>
        <time>2012-08-16T17:01:03Z</time>
      </trkpt>
      <trkpt lat="49.23158" lon="-0.4697">
        <ele>94</ele>
        <time>2012-08-16T17:01:05Z</time>
      </trkpt>
      <trkpt lat="49.23158" lon="-0.4696">
        <ele>95</ele>
        <time>2012-08-16T17:01:07Z</time>
      </trkpt>
      <trkpt lat="49.23159" lon="-0.46952">
        <ele>94</ele>
        <time>2012-08-16T17:01:09Z</time>
      </trkpt>
      <trkpt lat="49.2316" lon="-0.46944">
        <ele>95</ele>
        <time>2012-08-16T17:01:29Z</time>
      </trkpt>
      <trkpt lat="49.23163" lon="-0.46939">
        <ele>93</ele>
        <time>2012-08-16T17:01:31Z</time>
      </trkpt>
      <trkpt lat="49.23167" lon="-0.46933">
        <ele>91</ele>
        <time>2012-08-16T17:01:33Z</time>
      </trkpt>
      <trkpt lat="49.23171" lon="-0.46925">
        <ele>91</ele>
        <time>2012-08-16T17:01:35Z</time>
      </trkpt>
      <trkpt lat="49.23175" lon="-0.46917">
        <ele>91</ele>
        <time>2012-08-16T17:01:37Z</time>
      </trkpt>
      <trkpt lat="49.23183" lon="-0.46905">
        <ele>91</ele>
        <time>2012-08-16T17:01:39Z</time>
      </trkpt>
      <trkpt lat="49.23187" lon="-0.46899">
        <ele>91</ele>
        <time>2012-08-16T17:01:40Z</time>
      </trkpt>
      <trkpt lat="49.23191" lon="-0.46894">
        <ele>92</ele>
        <time>2012-08-16T17:01:41Z</time>
      </trkpt>
      <trkpt lat="49.23195" lon="-0.46889">
        <ele>93</ele>
        <time>2012-08-16T17:01:42Z</time>
      </trkpt>
      <trkpt lat="49.23199" lon="-0.46883">
        <ele>93</ele>
        <time>2012-08-16T17:01:43Z</time>
      </trkpt>
      <trkpt lat="49.23203" lon="-0.46877">
        <ele>93</ele>
        <time>2012-08-16T17:01:44Z</time>
      </trkpt>
      <trkpt lat="49.23206" lon="-0.4687">
        <ele>92</ele>
        <time>2012-08-16T17:01:45Z</time>
      </trkpt>
      <trkpt lat="49.2321" lon="-0.46865">
        <ele>92</ele>
        <time>2012-08-16T17:01:46Z</time>
      </trkpt>
      <trkpt lat="49.23214" lon="-0.46859">
        <ele>93</ele>
        <time>2012-08-16T17:01:47Z</time>
      </trkpt>
      <trkpt lat="49.23218" lon="-0.46852">
        <ele>93</ele>
        <time>2012-08-16T17:01:48Z</time>
      </trkpt>
      <trkpt lat="49.23221" lon="-0.46845">
        <ele>94</ele>
        <time>2012-08-16T17:01:49Z</time>
      </trkpt>
      <trkpt lat="49.23225" lon="-0.46838">
        <ele>94</ele>
        <time>2012-08-16T17:01:50Z</time>
      </trkpt>
      <trkpt lat="49.23229" lon="-0.46832">
        <ele>94</ele>
        <time>2012-08-16T17:01:51Z</time>
      </trkpt>
      <trkpt lat="49.23233" lon="-0.46826">
        <ele>94</ele>
        <time>2012-08-16T17:01:52Z</time>
      </trkpt>
      <trkpt lat="49.23236" lon="-0.4682">
        <ele>94</ele>
        <time>2012-08-16T17:01:53Z</time>
      </trkpt>
      <trkpt lat="49.23239" lon="-0.46813">
        <ele>94</ele>
        <time>2012-08-16T17:01:54Z</time>
      </trkpt>
      <trkpt lat="49.23242" lon="-0.46807">
        <ele>93</ele>
        <time>2012-08-16T17:01:55Z</time>
      </trkpt>
      <trkpt lat="49.23247" lon="-0.468">
        <ele>93</ele>
        <time>2012-08-16T17:01:56Z</time>
      </trkpt>
      <trkpt lat="49.2325" lon="-0.46793">
        <ele>93</ele>
        <time>2012-08-16T17:01:57Z</time>
      </trkpt>
      <trkpt lat="49.23254" lon="-0.46787">
        <ele>94</ele>
        <time>2012-08-16T17:01:58Z</time>
      </trkpt>
      <trkpt lat="49.23258" lon="-0.4678">
        <ele>94</ele>
        <time>2012-08-16T17:01:59Z</time>
      </trkpt>
      <trkpt lat="49.23262" lon="-0.46774">
        <ele>94</ele>
        <time>2012-08-16T17:02:00Z</time>
      </trkpt>
      <trkpt lat="49.23265" lon="-0.46768">
        <ele>94</ele>
        <time>2012-08-16T17:02:01Z</time>
      </trkpt>
      <trkpt lat="49.23268" lon="-0.46761">
        <ele>95</ele>
        <time>2012-08-16T17:02:02Z</time>
      </trkpt>
      <trkpt lat="49.23271" lon="-0.46755">
        <ele>95</ele>
        <time>2012-08-16T17:02:03Z</time>
      </trkpt>
      <trkpt lat="49.23274" lon="-0.46748">
        <ele>95</ele>
        <time>2012-08-16T17:02:04Z</time>
      </trkpt>
      <trkpt lat="49.23277" lon="-0.46741">
        <ele>95</ele>
        <time>2012-08-16T17:02:05Z</time>
      </trkpt>
      <trkpt lat="49.23279" lon="-0.46733">
        <ele>95</ele>
        <time>2012-08-16T17:02:06Z</time>
      </trkpt>
      <trkpt lat="49.2328" lon="-0.46726">
        <ele>95</ele>
        <time>2012-08-16T17:02:07Z</time>
      </trkpt>
      <trkpt lat="49.23282" lon="-0.46718">
        <ele>95</ele>
        <time>2012-08-16T17:02:08Z</time>
      </trkpt>
      <trkpt lat="49.23283" lon="-0.46711">
        <ele>95</ele>
        <time>2012-08-16T17:02:09Z</time>
      </trkpt>
      <trkpt lat="49.23285" lon="-0.46703">
        <ele>95</ele>
        <time>2012-08-16T17:02:10Z</time>
      </trkpt>
      <trkpt lat="49.23287" lon="-0.46696">
        <ele>96</ele>
        <time>2012-08-16T17:02:11Z</time>
      </trkpt>
      <trkpt lat="49.23289" lon="-0.46689">
        <ele>96</ele>
        <time>2012-08-16T17:02:12Z</time>
      </trkpt>
      <trkpt lat="49.23291" lon="-0.46682">
        <ele>96</ele>
        <time>2012-08-16T17:02:13Z</time>
      </trkpt>
      <trkpt lat="49.23292" lon="-0.46674">
        <ele>96</ele>
        <time>2012-08-16T17:02:14Z</time>
      </trkpt>
      <trkpt lat="49.23293" lon="-0.46667">
        <ele>96</ele>
        <time>2012-08-16T17:02:15Z</time>
      </trkpt>
      <trkpt lat="49.23294" lon="-0.4666">
        <ele>96</ele>
        <time>2012-08-16T17:02:16Z</time>
      </trkpt>
      <trkpt lat="49.23296" lon="-0.46653">
        <ele>96</ele>
        <time>2012-08-16T17:02:17Z</time>
      </trkpt>
      <trkpt lat="49.23298" lon="-0.46646">
        <ele>96</ele>
        <time>2012-08-16T17:02:18Z</time>
      </trkpt>
      <trkpt lat="49.23298" lon="-0.46639">
        <ele>96</ele>
        <time>2012-08-16T17:02:19Z</time>
      </trkpt>
      <trkpt lat="49.23298" lon="-0.46632">
        <ele>96</ele>
        <time>2012-08-16T17:02:20Z</time>
      </trkpt>
      <trkpt lat="49.23295" lon="-0.46625">
        <ele>96</ele>
        <time>2012-08-16T17:02:21Z</time>
      </trkpt>
      <trkpt lat="49.2329" lon="-0.46611">
        <ele>96</ele>
        <time>2012-08-16T17:02:23Z</time>
      </trkpt>
      <trkpt lat="49.23287" lon="-0.46604">
        <ele>96</ele>
        <time>2012-08-16T17:02:24Z</time>
      </trkpt>
      <trkpt lat="49.23285" lon="-0.46598">
        <ele>96</ele>
        <time>2012-08-16T17:02:25Z</time>
      </trkpt>
      <trkpt lat="49.23282" lon="-0.46592">
        <ele>96</ele>
        <time>2012-08-16T17:02:26Z</time>
      </trkpt>
      <trkpt lat="49.23277" lon="-0.46579">
        <ele>95</ele>
        <time>2012-08-16T17:02:28Z</time>
      </trkpt>
      <trkpt lat="49.23274" lon="-0.46572">
        <ele>95</ele>
        <time>2012-08-16T17:02:29Z</time>
      </trkpt>
      <trkpt lat="49.2327" lon="-0.46565">
        <ele>94</ele>
        <time>2012-08-16T17:02:30Z</time>
      </trkpt>
      <trkpt lat="49.23267" lon="-0.46558">
        <ele>95</ele>
        <time>2012-08-16T17:02:31Z</time>
      </trkpt>
      <trkpt lat="49.23264" lon="-0.46551">
        <ele>95</ele>
        <time>2012-08-16T17:02:32Z</time>
      </trkpt>
      <trkpt lat="49.23262" lon="-0.46545">
        <ele>95</ele>
        <time>2012-08-16T17:02:33Z</time>
      </trkpt>
      <trkpt lat="49.23259" lon="-0.46539">
        <ele>95</ele>
        <time>2012-08-16T17:02:34Z</time>
      </trkpt>
      <trkpt lat="49.23255" lon="-0.46527">
        <ele>95</ele>
        <time>2012-08-16T17:02:36Z</time>
      </trkpt>
      <trkpt lat="49.23252" lon="-0.46521">
        <ele>95</ele>
        <time>2012-08-16T17:02:37Z</time>
      </trkpt>
      <trkpt lat="49.23249" lon="-0.46515">
        <ele>95</ele>
        <time>2012-08-16T17:02:38Z</time>
      </trkpt>
      <trkpt lat="49.23247" lon="-0.46507">
        <ele>95</ele>
        <time>2012-08-16T17:02:39Z</time>
      </trkpt>
      <trkpt lat="49.23242" lon="-0.46496">
        <ele>95</ele>
        <time>2012-08-16T17:02:41Z</time>
      </trkpt>
      <trkpt lat="49.23238" lon="-0.46486">
        <ele>94</ele>
        <time>2012-08-16T17:02:43Z</time>
      </trkpt>
      <trkpt lat="49.23235" lon="-0.46478">
        <ele>94</ele>
        <time>2012-08-16T17:02:45Z</time>
      </trkpt>
      <trkpt lat="49.2324" lon="-0.46485">
        <ele>93</ele>
        <time>2012-08-16T17:02:50Z</time>
      </trkpt>
      <trkpt lat="49.23243" lon="-0.46494">
        <ele>93</ele>
        <time>2012-08-16T17:02:52Z</time>
      </trkpt>
      <trkpt lat="49.23247" lon="-0.46504">
        <ele>93</ele>
        <time>2012-08-16T17:02:54Z</time>
      </trkpt>
      <trkpt lat="49.2325" lon="-0.46512">
        <ele>92</ele>
        <time>2012-08-16T17:02:56Z</time>
      </trkpt>
      <trkpt lat="49.23255" lon="-0.46522">
        <ele>92</ele>
        <time>2012-08-16T17:02:58Z</time>
      </trkpt>
      <trkpt lat="49.2326" lon="-0.4653">
        <ele>93</ele>
        <time>2012-08-16T17:03:00Z</time>
      </trkpt>
      <trkpt lat="49.23264" lon="-0.4654">
        <ele>94</ele>
        <time>2012-08-16T17:03:02Z</time>
      </trkpt>
      <trkpt lat="49.23266" lon="-0.46551">
        <ele>94</ele>
        <time>2012-08-16T17:03:04Z</time>
      </trkpt>
      <trkpt lat="49.23269" lon="-0.46562">
        <ele>94</ele>
        <time>2012-08-16T17:03:06Z</time>
      </trkpt>
      <trkpt lat="49.23272" lon="-0.46572">
        <ele>95</ele>
        <time>2012-08-16T17:03:08Z</time>
      </trkpt>
      <trkpt lat="49.23277" lon="-0.46582">
        <ele>95</ele>
        <time>2012-08-16T17:03:10Z</time>
      </trkpt>
      <trkpt lat="49.23281" lon="-0.46592">
        <ele>95</ele>
        <time>2012-08-16T17:03:12Z</time>
      </trkpt>
      <trkpt lat="49.23284" lon="-0.46601">
        <ele>96</ele>
        <time>2012-08-16T17:03:14Z</time>
      </trkpt>
      <trkpt lat="49.23288" lon="-0.46611">
        <ele>96</ele>
        <time>2012-08-16T17:03:16Z</time>
      </trkpt>
      <trkpt lat="49.23292" lon="-0.46619">
        <ele>97</ele>
        <time>2012-08-16T17:03:18Z</time>
      </trkpt>
      <trkpt lat="49.23298" lon="-0.4662">
        <ele>97</ele>
        <time>2012-08-16T17:03:20Z</time>
      </trkpt>
      <trkpt lat="49.23304" lon="-0.46617">
        <ele>97</ele>
        <time>2012-08-16T17:03:22Z</time>
      </trkpt>
      <trkpt lat="49.23309" lon="-0.46611">
        <ele>97</ele>
        <time>2012-08-16T17:03:24Z</time>
      </trkpt>
      <trkpt lat="49.23311" lon="-0.46605">
        <ele>97</ele>
        <time>2012-08-16T17:03:25Z</time>
      </trkpt>
      <trkpt lat="49.23312" lon="-0.46597">
        <ele>98</ele>
        <time>2012-08-16T17:03:26Z</time>
      </trkpt>
      <trkpt lat="49.23313" lon="-0.4659">
        <ele>98</ele>
        <time>2012-08-16T17:03:27Z</time>
      </trkpt>
      <trkpt lat="49.23314" lon="-0.46583">
        <ele>98</ele>
        <time>2012-08-16T17:03:28Z</time>
      </trkpt>
      <trkpt lat="49.23316" lon="-0.46575">
        <ele>98</ele>
        <time>2012-08-16T17:03:29Z</time>
      </trkpt>
      <trkpt lat="49.23315" lon="-0.46562">
        <ele>97</ele>
        <time>2012-08-16T17:03:31Z</time>
      </trkpt>
      <trkpt lat="49.23315" lon="-0.46555">
        <ele>97</ele>
        <time>2012-08-16T17:03:32Z</time>
      </trkpt>
      <trkpt lat="49.23316" lon="-0.46548">
        <ele>97</ele>
        <time>2012-08-16T17:03:33Z</time>
      </trkpt>
      <trkpt lat="49.23316" lon="-0.46541">
        <ele>97</ele>
        <time>2012-08-16T17:03:34Z</time>
      </trkpt>
      <trkpt lat="49.23317" lon="-0.46534">
        <ele>97</ele>
        <time>2012-08-16T17:03:35Z</time>
      </trkpt>
      <trkpt lat="49.23317" lon="-0.46526">
        <ele>96</ele>
        <time>2012-08-16T17:03:36Z</time>
      </trkpt>
      <trkpt lat="49.23316" lon="-0.46518">
        <ele>96</ele>
        <time>2012-08-16T17:03:37Z</time>
      </trkpt>
      <trkpt lat="49.23317" lon="-0.4651">
        <ele>96</ele>
        <time>2012-08-16T17:03:38Z</time>
      </trkpt>
      <trkpt lat="49.23318" lon="-0.46504">
        <ele>96</ele>
        <time>2012-08-16T17:03:39Z</time>
      </trkpt>
      <trkpt lat="49.23318" lon="-0.46496">
        <ele>96</ele>
        <time>2012-08-16T17:03:40Z</time>
      </trkpt>
      <trkpt lat="49.2332" lon="-0.46488">
        <ele>96</ele>
        <time>2012-08-16T17:03:41Z</time>
      </trkpt>
      <trkpt lat="49.23321" lon="-0.46482">
        <ele>97</ele>
        <time>2012-08-16T17:03:42Z</time>
      </trkpt>
      <trkpt lat="49.23322" lon="-0.46474">
        <ele>97</ele>
        <time>2012-08-16T17:03:43Z</time>
      </trkpt>
      <trkpt lat="49.23324" lon="-0.46467">
        <ele>97</ele>
        <time>2012-08-16T17:03:44Z</time>
      </trkpt>
      <trkpt lat="49.23326" lon="-0.46455">
        <ele>95</ele>
        <time>2012-08-16T17:03:46Z</time>
      </trkpt>
      <trkpt lat="49.23328" lon="-0.46449">
        <ele>95</ele>
        <time>2012-08-16T17:03:47Z</time>
      </trkpt>
      <trkpt lat="49.23331" lon="-0.46444">
        <ele>94</ele>
        <time>2012-08-16T17:03:48Z</time>
      </trkpt>
      <trkpt lat="49.23338" lon="-0.46434">
        <ele>94</ele>
        <time>2012-08-16T17:03:50Z</time>
      </trkpt>
      <trkpt lat="49.23342" lon="-0.4643">
        <ele>93</ele>
        <time>2012-08-16T17:03:51Z</time>
      </trkpt>
      <trkpt lat="49.23348" lon="-0.46422">
        <ele>92</ele>
        <time>2012-08-16T17:03:53Z</time>
      </trkpt>
      <trkpt lat="49.23356" lon="-0.46416">
        <ele>92</ele>
        <time>2012-08-16T17:03:55Z</time>
      </trkpt>
      <trkpt lat="49.2336" lon="-0.46413">
        <ele>92</ele>
        <time>2012-08-16T17:03:56Z</time>
      </trkpt>
      <trkpt lat="49.23366" lon="-0.46411">
        <ele>91</ele>
        <time>2012-08-16T17:03:57Z</time>
      </trkpt>
      <trkpt lat="49.2337" lon="-0.46408">
        <ele>91</ele>
        <time>2012-08-16T17:03:58Z</time>
      </trkpt>
      <trkpt lat="49.23374" lon="-0.46405">
        <ele>91</ele>
        <time>2012-08-16T17:03:59Z</time>
      </trkpt>
      <trkpt lat="49.23379" lon="-0.46401">
        <ele>91</ele>
        <time>2012-08-16T17:04:00Z</time>
      </trkpt>
      <trkpt lat="49.23381" lon="-0.46395">
        <ele>92</ele>
        <time>2012-08-16T17:04:01Z</time>
      </trkpt>
      <trkpt lat="49.23383" lon="-0.46388">
        <ele>92</ele>
        <time>2012-08-16T17:04:02Z</time>
      </trkpt>
      <trkpt lat="49.23385" lon="-0.46381">
        <ele>93</ele>
        <time>2012-08-16T17:04:03Z</time>
      </trkpt>
      <trkpt lat="49.23384" lon="-0.46374">
        <ele>92</ele>
        <time>2012-08-16T17:04:04Z</time>
      </trkpt>
      <trkpt lat="49.23383" lon="-0.46367">
        <ele>92</ele>
        <time>2012-08-16T17:04:05Z</time>
      </trkpt>
      <trkpt lat="49.23381" lon="-0.4636">
        <ele>92</ele>
        <time>2012-08-16T17:04:06Z</time>
      </trkpt>
      <trkpt lat="49.2338" lon="-0.46353">
        <ele>92</ele>
        <time>2012-08-16T17:04:07Z</time>
      </trkpt>
      <trkpt lat="49.23379" lon="-0.46345">
        <ele>91</ele>
        <time>2012-08-16T17:04:08Z</time>
      </trkpt>
      <trkpt lat="49.23376" lon="-0.46338">
        <ele>91</ele>
        <time>2012-08-16T17:04:09Z</time>
      </trkpt>
      <trkpt lat="49.23374" lon="-0.46331">
        <ele>91</ele>
        <time>2012-08-16T17:04:10Z</time>
      </trkpt>
      <trkpt lat="49.23372" lon="-0.46324">
        <ele>91</ele>
        <time>2012-08-16T17:04:11Z</time>
      </trkpt>
      <trkpt lat="49.23368" lon="-0.46317">
        <ele>91</ele>
        <time>2012-08-16T17:04:12Z</time>
      </trkpt>
      <trkpt lat="49.23366" lon="-0.4631">
        <ele>91</ele>
        <time>2012-08-16T17:04:13Z</time>
      </trkpt>
      <trkpt lat="49.23364" lon="-0.46302">
        <ele>92</ele>
        <time>2012-08-16T17:04:14Z</time>
      </trkpt>
      <trkpt lat="49.23362" lon="-0.46295">
        <ele>92</ele>
        <time>2012-08-16T17:04:15Z</time>
      </trkpt>
      <trkpt lat="49.2336" lon="-0.46289">
        <ele>92</ele>
        <time>2012-08-16T17:04:16Z</time>
      </trkpt>
      <trkpt lat="49.23356" lon="-0.46276">
        <ele>93</ele>
        <time>2012-08-16T17:04:18Z</time>
      </trkpt>
      <trkpt lat="49.23353" lon="-0.46269">
        <ele>92</ele>
        <time>2012-08-16T17:04:19Z</time>
      </trkpt>
      <trkpt lat="49.2335" lon="-0.46263">
        <ele>91</ele>
        <time>2012-08-16T17:04:20Z</time>
      </trkpt>
      <trkpt lat="49.23347" lon="-0.46257">
        <ele>91</ele>
        <time>2012-08-16T17:04:21Z</time>
      </trkpt>
      <trkpt lat="49.23344" lon="-0.4625">
        <ele>91</ele>
        <time>2012-08-16T17:04:22Z</time>
      </trkpt>
      <trkpt lat="49.23341" lon="-0.46244">
        <ele>92</ele>
        <time>2012-08-16T17:04:23Z</time>
      </trkpt>
      <trkpt lat="49.23335" lon="-0.46236">
        <ele>92</ele>
        <time>2012-08-16T17:04:25Z</time>
      </trkpt>
      <trkpt lat="49.23327" lon="-0.46236">
        <ele>91</ele>
        <time>2012-08-16T17:04:27Z</time>
      </trkpt>
      <trkpt lat="49.23323" lon="-0.46241">
        <ele>91</ele>
        <time>2012-08-16T17:04:28Z</time>
      </trkpt>
      <trkpt lat="49.23314" lon="-0.46248">
        <ele>91</ele>
        <time>2012-08-16T17:04:30Z</time>
      </trkpt>
      <trkpt lat="49.2331" lon="-0.4625">
        <ele>91</ele>
        <time>2012-08-16T17:04:31Z</time>
      </trkpt>
      <trkpt lat="49.23301" lon="-0.46255">
        <ele>91</ele>
        <time>2012-08-16T17:04:33Z</time>
      </trkpt>
      <trkpt lat="49.23296" lon="-0.46256">
        <ele>91</ele>
        <time>2012-08-16T17:04:34Z</time>
      </trkpt>
      <trkpt lat="49.23287" lon="-0.46258">
        <ele>91</ele>
        <time>2012-08-16T17:04:36Z</time>
      </trkpt>
      <trkpt lat="49.23278" lon="-0.46257">
        <ele>91</ele>
        <time>2012-08-16T17:04:38Z</time>
      </trkpt>
      <trkpt lat="49.23274" lon="-0.46254">
        <ele>91</ele>
        <time>2012-08-16T17:04:39Z</time>
      </trkpt>
      <trkpt lat="49.23269" lon="-0.4625">
        <ele>91</ele>
        <time>2012-08-16T17:04:40Z</time>
      </trkpt>
      <trkpt lat="49.23265" lon="-0.46244">
        <ele>91</ele>
        <time>2012-08-16T17:04:41Z</time>
      </trkpt>
      <trkpt lat="49.2326" lon="-0.46234">
        <ele>90</ele>
        <time>2012-08-16T17:04:43Z</time>
      </trkpt>
      <trkpt lat="49.23252" lon="-0.46226">
        <ele>90</ele>
        <time>2012-08-16T17:04:45Z</time>
      </trkpt>
      <trkpt lat="49.23247" lon="-0.46221">
        <ele>90</ele>
        <time>2012-08-16T17:04:46Z</time>
      </trkpt>
      <trkpt lat="49.23242" lon="-0.4622">
        <ele>91</ele>
        <time>2012-08-16T17:04:47Z</time>
      </trkpt>
      <trkpt lat="49.23237" lon="-0.46219">
        <ele>91</ele>
        <time>2012-08-16T17:04:48Z</time>
      </trkpt>
      <trkpt lat="49.23228" lon="-0.46221">
        <ele>91</ele>
        <time>2012-08-16T17:04:50Z</time>
      </trkpt>
      <trkpt lat="49.23224" lon="-0.46225">
        <ele>91</ele>
        <time>2012-08-16T17:04:51Z</time>
      </trkpt>
      <trkpt lat="49.23219" lon="-0.46227">
        <ele>91</ele>
        <time>2012-08-16T17:04:52Z</time>
      </trkpt>
      <trkpt lat="49.2321" lon="-0.46233">
        <ele>91</ele>
        <time>2012-08-16T17:04:54Z</time>
      </trkpt>
      <trkpt lat="49.23205" lon="-0.46235">
        <ele>92</ele>
        <time>2012-08-16T17:04:55Z</time>
      </trkpt>
      <trkpt lat="49.23197" lon="-0.46239">
        <ele>93</ele>
        <time>2012-08-16T17:04:57Z</time>
      </trkpt>
      <trkpt lat="49.23192" lon="-0.46243">
        <ele>92</ele>
        <time>2012-08-16T17:04:58Z</time>
      </trkpt>
      <trkpt lat="49.23188" lon="-0.46246">
        <ele>92</ele>
        <time>2012-08-16T17:04:59Z</time>
      </trkpt>
      <trkpt lat="49.23183" lon="-0.46249">
        <ele>92</ele>
        <time>2012-08-16T17:05:00Z</time>
      </trkpt>
      <trkpt lat="49.23178" lon="-0.46251">
        <ele>93</ele>
        <time>2012-08-16T17:05:01Z</time>
      </trkpt>
      <trkpt lat="49.23173" lon="-0.46255">
        <ele>93</ele>
        <time>2012-08-16T17:05:02Z</time>
      </trkpt>
      <trkpt lat="49.23168" lon="-0.4626">
        <ele>93</ele>
        <time>2012-08-16T17:05:03Z</time>
      </trkpt>
      <trkpt lat="49.23163" lon="-0.46262">
        <ele>93</ele>
        <time>2012-08-16T17:05:04Z</time>
      </trkpt>
      <trkpt lat="49.23158" lon="-0.46265">
        <ele>93</ele>
        <time>2012-08-16T17:05:05Z</time>
      </trkpt>
      <trkpt lat="49.23153" lon="-0.46268">
        <ele>93</ele>
        <time>2012-08-16T17:05:06Z</time>
      </trkpt>
      <trkpt lat="49.23148" lon="-0.46271">
        <ele>93</ele>
        <time>2012-08-16T17:05:07Z</time>
      </trkpt>
      <trkpt lat="49.23144" lon="-0.46274">
        <ele>93</ele>
        <time>2012-08-16T17:05:08Z</time>
      </trkpt>
      <trkpt lat="49.23134" lon="-0.4628">
        <ele>92</ele>
        <time>2012-08-16T17:05:10Z</time>
      </trkpt>
      <trkpt lat="49.2313" lon="-0.46283">
        <ele>92</ele>
        <time>2012-08-16T17:05:11Z</time>
      </trkpt>
      <trkpt lat="49.23125" lon="-0.46286">
        <ele>92</ele>
        <time>2012-08-16T17:05:12Z</time>
      </trkpt>
      <trkpt lat="49.2312" lon="-0.46289">
        <ele>92</ele>
        <time>2012-08-16T17:05:13Z</time>
      </trkpt>
      <trkpt lat="49.23116" lon="-0.46292">
        <ele>92</ele>
        <time>2012-08-16T17:05:14Z</time>
      </trkpt>
      <trkpt lat="49.2311" lon="-0.46294">
        <ele>92</ele>
        <time>2012-08-16T17:05:15Z</time>
      </trkpt>
      <trkpt lat="49.23105" lon="-0.46297">
        <ele>92</ele>
        <time>2012-08-16T17:05:16Z</time>
      </trkpt>
      <trkpt lat="49.23101" lon="-0.463">
        <ele>93</ele>
        <time>2012-08-16T17:05:17Z</time>
      </trkpt>
      <trkpt lat="49.23096" lon="-0.46302">
        <ele>94</ele>
        <time>2012-08-16T17:05:18Z</time>
      </trkpt>
      <trkpt lat="49.23092" lon="-0.46304">
        <ele>94</ele>
        <time>2012-08-16T17:05:19Z</time>
      </trkpt>
      <trkpt lat="49.23087" lon="-0.46307">
        <ele>95</ele>
        <time>2012-08-16T17:05:20Z</time>
      </trkpt>
      <trkpt lat="49.23082" lon="-0.4631">
        <ele>95</ele>
        <time>2012-08-16T17:05:21Z</time>
      </trkpt>
      <trkpt lat="49.23077" lon="-0.46313">
        <ele>95</ele>
        <time>2012-08-16T17:05:23Z</time>
      </trkpt>
      <trkpt lat="49.23072" lon="-0.46315">
        <ele>95</ele>
        <time>2012-08-16T17:05:27Z</time>
      </trkpt>
      <trkpt lat="49.23067" lon="-0.4631">
        <ele>94</ele>
        <time>2012-08-16T17:05:29Z</time>
      </trkpt>
      <trkpt lat="49.23063" lon="-0.46306">
        <ele>92</ele>
        <time>2012-08-16T17:05:31Z</time>
      </trkpt>
      <trkpt lat="49.23062" lon="-0.46299">
        <ele>91</ele>
        <time>2012-08-16T17:05:33Z</time>
      </trkpt>
      <trkpt lat="49.23059" lon="-0.46288">
        <ele>90</ele>
        <time>2012-08-16T17:05:35Z</time>
      </trkpt>
      <trkpt lat="49.23054" lon="-0.46276">
        <ele>91</ele>
        <time>2012-08-16T17:05:37Z</time>
      </trkpt>
      <trkpt lat="49.23051" lon="-0.46269">
        <ele>91</ele>
        <time>2012-08-16T17:05:38Z</time>
      </trkpt>
      <trkpt lat="49.23049" lon="-0.46262">
        <ele>90</ele>
        <time>2012-08-16T17:05:39Z</time>
      </trkpt>
      <trkpt lat="49.23046" lon="-0.46255">
        <ele>91</ele>
        <time>2012-08-16T17:05:40Z</time>
      </trkpt>
      <trkpt lat="49.23042" lon="-0.46249">
        <ele>92</ele>
        <time>2012-08-16T17:05:41Z</time>
      </trkpt>
      <trkpt lat="49.2304" lon="-0.46242">
        <ele>92</ele>
        <time>2012-08-16T17:05:42Z</time>
      </trkpt>
      <trkpt lat="49.23037" lon="-0.46235">
        <ele>91</ele>
        <time>2012-08-16T17:05:43Z</time>
      </trkpt>
      <trkpt lat="49.23034" lon="-0.46229">
        <ele>91</ele>
        <time>2012-08-16T17:05:44Z</time>
      </trkpt>
      <trkpt lat="49.23031" lon="-0.46222">
        <ele>91</ele>
        <time>2012-08-16T17:05:45Z</time>
      </trkpt>
      <trkpt lat="49.23028" lon="-0.46215">
        <ele>91</ele>
        <time>2012-08-16T17:05:46Z</time>
      </trkpt>
      <trkpt lat="49.23025" lon="-0.46209">
        <ele>91</ele>
        <time>2012-08-16T17:05:47Z</time>
      </trkpt>
      <trkpt lat="49.23021" lon="-0.46203">
        <ele>91</ele>
        <time>2012-08-16T17:05:48Z</time>
      </trkpt>
      <trkpt lat="49.23018" lon="-0.46197">
        <ele>91</ele>
        <time>2012-08-16T17:05:49Z</time>
      </trkpt>
      <trkpt lat="49.23012" lon="-0.4619">
        <ele>90</ele>
        <time>2012-08-16T17:05:51Z</time>
      </trkpt>
      <trkpt lat="49.23008" lon="-0.46186">
        <ele>90</ele>
        <time>2012-08-16T17:05:52Z</time>
      </trkpt>
      <trkpt lat="49.23004" lon="-0.46182">
        <ele>90</ele>
        <time>2012-08-16T17:05:53Z</time>
      </trkpt>
      <trkpt lat="49.22996" lon="-0.46177">
        <ele>89</ele>
        <time>2012-08-16T17:05:55Z</time>
      </trkpt>
      <trkpt lat="49.22991" lon="-0.46174">
        <ele>89</ele>
        <time>2012-08-16T17:05:56Z</time>
      </trkpt>
      <trkpt lat="49.22986" lon="-0.4617">
        <ele>89</ele>
        <time>2012-08-16T17:05:57Z</time>
      </trkpt>
      <trkpt lat="49.22981" lon="-0.46166">
        <ele>89</ele>
        <time>2012-08-16T17:05:58Z</time>
      </trkpt>
      <trkpt lat="49.22975" lon="-0.46161">
        <ele>89</ele>
        <time>2012-08-16T17:05:59Z</time>
      </trkpt>
      <trkpt lat="49.22971" lon="-0.46156">
        <ele>88</ele>
        <time>2012-08-16T17:06:00Z</time>
      </trkpt>
      <trkpt lat="49.22967" lon="-0.4615">
        <ele>88</ele>
        <time>2012-08-16T17:06:01Z</time>
      </trkpt>
      <trkpt lat="49.22962" lon="-0.46144">
        <ele>88</ele>
        <time>2012-08-16T17:06:02Z</time>
      </trkpt>
      <trkpt lat="49.22959" lon="-0.46138">
        <ele>88</ele>
        <time>2012-08-16T17:06:03Z</time>
      </trkpt>
      <trkpt lat="49.22955" lon="-0.46131">
        <ele>88</ele>
        <time>2012-08-16T17:06:04Z</time>
      </trkpt>
      <trkpt lat="49.22951" lon="-0.46123">
        <ele>89</ele>
        <time>2012-08-16T17:06:05Z</time>
      </trkpt>
      <trkpt lat="49.22947" lon="-0.46116">
        <ele>89</ele>
        <time>2012-08-16T17:06:06Z</time>
      </trkpt>
      <trkpt lat="49.22944" lon="-0.4611">
        <ele>89</ele>
        <time>2012-08-16T17:06:07Z</time>
      </trkpt>
      <trkpt lat="49.2294" lon="-0.46104">
        <ele>89</ele>
        <time>2012-08-16T17:06:08Z</time>
      </trkpt>
      <trkpt lat="49.22938" lon="-0.46098">
        <ele>89</ele>
        <time>2012-08-16T17:06:09Z</time>
      </trkpt>
      <trkpt lat="49.22933" lon="-0.46086">
        <ele>89</ele>
        <time>2012-08-16T17:06:11Z</time>
      </trkpt>
      <trkpt lat="49.2293" lon="-0.4608">
        <ele>89</ele>
        <time>2012-08-16T17:06:12Z</time>
      </trkpt>
      <trkpt lat="49.22928" lon="-0.46073">
        <ele>89</ele>
        <time>2012-08-16T17:06:13Z</time>
      </trkpt>
      <trkpt lat="49.22922" lon="-0.46064">
        <ele>90</ele>
        <time>2012-08-16T17:06:15Z</time>
      </trkpt>
      <trkpt lat="49.22917" lon="-0.46056">
        <ele>89</ele>
        <time>2012-08-16T17:06:17Z</time>
      </trkpt>
      <trkpt lat="49.22911" lon="-0.46046">
        <ele>89</ele>
        <time>2012-08-16T17:06:19Z</time>
      </trkpt>
      <trkpt lat="49.22906" lon="-0.46037">
        <ele>89</ele>
        <time>2012-08-16T17:06:21Z</time>
      </trkpt>
      <trkpt lat="49.22899" lon="-0.46028">
        <ele>88</ele>
        <time>2012-08-16T17:06:23Z</time>
      </trkpt>
      <trkpt lat="49.22893" lon="-0.46022">
        <ele>90</ele>
        <time>2012-08-16T17:06:25Z</time>
      </trkpt>
      <trkpt lat="49.22887" lon="-0.46016">
        <ele>91</ele>
        <time>2012-08-16T17:06:27Z</time>
      </trkpt>
      <trkpt lat="49.22884" lon="-0.46009">
        <ele>91</ele>
        <time>2012-08-16T17:06:29Z</time>
      </trkpt>
      <trkpt lat="49.22879" lon="-0.46">
        <ele>92</ele>
        <time>2012-08-16T17:06:31Z</time>
      </trkpt>
      <trkpt lat="49.22874" lon="-0.45992">
        <ele>93</ele>
        <time>2012-08-16T17:06:33Z</time>
      </trkpt>
      <trkpt lat="49.2287" lon="-0.45984">
        <ele>94</ele>
        <time>2012-08-16T17:06:35Z</time>
      </trkpt>
      <trkpt lat="49.22865" lon="-0.45978">
        <ele>93</ele>
        <time>2012-08-16T17:06:37Z</time>
      </trkpt>
      <trkpt lat="49.22859" lon="-0.45972">
        <ele>93</ele>
        <time>2012-08-16T17:06:39Z</time>
      </trkpt>
      <trkpt lat="49.22855" lon="-0.45966">
        <ele>93</ele>
        <time>2012-08-16T17:06:41Z</time>
      </trkpt>
      <trkpt lat="49.2285" lon="-0.45959">
        <ele>92</ele>
        <time>2012-08-16T17:06:43Z</time>
      </trkpt>
      <trkpt lat="49.22846" lon="-0.4595">
        <ele>92</ele>
        <time>2012-08-16T17:06:45Z</time>
      </trkpt>
      <trkpt lat="49.2284" lon="-0.45943">
        <ele>92</ele>
        <time>2012-08-16T17:06:47Z</time>
      </trkpt>
      <trkpt lat="49.22835" lon="-0.45936">
        <ele>93</ele>
        <time>2012-08-16T17:06:49Z</time>
      </trkpt>
      <trkpt lat="49.2283" lon="-0.45926">
        <ele>94</ele>
        <time>2012-08-16T17:06:51Z</time>
      </trkpt>
      <trkpt lat="49.22824" lon="-0.45919">
        <ele>93</ele>
        <time>2012-08-16T17:06:54Z</time>
      </trkpt>
      <trkpt lat="49.2282" lon="-0.45914">
        <ele>93</ele>
        <time>2012-08-16T17:06:56Z</time>
      </trkpt>
      <trkpt lat="49.22816" lon="-0.45909">
        <ele>92</ele>
        <time>2012-08-16T17:06:58Z</time>
      </trkpt>
      <trkpt lat="49.22812" lon="-0.45904">
        <ele>92</ele>
        <time>2012-08-16T17:07:00Z</time>
      </trkpt>
      <trkpt lat="49.22807" lon="-0.45899">
        <ele>92</ele>
        <time>2012-08-16T17:07:02Z</time>
      </trkpt>
      <trkpt lat="49.22804" lon="-0.45894">
        <ele>92</ele>
        <time>2012-08-16T17:07:04Z</time>
      </trkpt>
      <trkpt lat="49.22799" lon="-0.45888">
        <ele>93</ele>
        <time>2012-08-16T17:07:06Z</time>
      </trkpt>
      <trkpt lat="49.22792" lon="-0.45883">
        <ele>94</ele>
        <time>2012-08-16T17:07:09Z</time>
      </trkpt>
      <trkpt lat="49.22787" lon="-0.45882">
        <ele>97</ele>
        <time>2012-08-16T17:07:11Z</time>
      </trkpt>
      <trkpt lat="49.22782" lon="-0.45882">
        <ele>98</ele>
        <time>2012-08-16T17:07:13Z</time>
      </trkpt>
      <trkpt lat="49.22776" lon="-0.45886">
        <ele>98</ele>
        <time>2012-08-16T17:07:15Z</time>
      </trkpt>
      <trkpt lat="49.22772" lon="-0.45891">
        <ele>99</ele>
        <time>2012-08-16T17:07:17Z</time>
      </trkpt>
      <trkpt lat="49.22768" lon="-0.45895">
        <ele>100</ele>
        <time>2012-08-16T17:07:19Z</time>
      </trkpt>
      <trkpt lat="49.22762" lon="-0.45899">
        <ele>100</ele>
        <time>2012-08-16T17:07:21Z</time>
      </trkpt>
      <trkpt lat="49.22757" lon="-0.45904">
        <ele>101</ele>
        <time>2012-08-16T17:07:23Z</time>
      </trkpt>
      <trkpt lat="49.22752" lon="-0.45908">
        <ele>100</ele>
        <time>2012-08-16T17:07:25Z</time>
      </trkpt>
      <trkpt lat="49.22747" lon="-0.4591">
        <ele>99</ele>
        <time>2012-08-16T17:07:27Z</time>
      </trkpt>
      <trkpt lat="49.22743" lon="-0.45914">
        <ele>99</ele>
        <time>2012-08-16T17:07:29Z</time>
      </trkpt>
      <trkpt lat="49.22738" lon="-0.45919">
        <ele>98</ele>
        <time>2012-08-16T17:07:31Z</time>
      </trkpt>
      <trkpt lat="49.22733" lon="-0.45924">
        <ele>98</ele>
        <time>2012-08-16T17:07:33Z</time>
      </trkpt>
      <trkpt lat="49.22728" lon="-0.45926">
        <ele>99</ele>
        <time>2012-08-16T17:07:35Z</time>
      </trkpt>
      <trkpt lat="49.22724" lon="-0.4593">
        <ele>100</ele>
        <time>2012-08-16T17:07:37Z</time>
      </trkpt>
      <trkpt lat="49.22719" lon="-0.45936">
        <ele>100</ele>
        <time>2012-08-16T17:07:39Z</time>
      </trkpt>
      <trkpt lat="49.22714" lon="-0.45942">
        <ele>99</ele>
        <time>2012-08-16T17:07:41Z</time>
      </trkpt>
      <trkpt lat="49.2271" lon="-0.45952">
        <ele>97</ele>
        <time>2012-08-16T17:07:43Z</time>
      </trkpt>
      <trkpt lat="49.22708" lon="-0.45961">
        <ele>96</ele>
        <time>2012-08-16T17:07:45Z</time>
      </trkpt>
      <trkpt lat="49.22705" lon="-0.45971">
        <ele>95</ele>
        <time>2012-08-16T17:07:47Z</time>
      </trkpt>
      <trkpt lat="49.22706" lon="-0.45982">
        <ele>94</ele>
        <time>2012-08-16T17:07:49Z</time>
      </trkpt>
      <trkpt lat="49.22705" lon="-0.45993">
        <ele>94</ele>
        <time>2012-08-16T17:07:51Z</time>
      </trkpt>
      <trkpt lat="49.22703" lon="-0.46005">
        <ele>93</ele>
        <time>2012-08-16T17:07:53Z</time>
      </trkpt>
      <trkpt lat="49.22699" lon="-0.46016">
        <ele>93</ele>
        <time>2012-08-16T17:07:55Z</time>
      </trkpt>
      <trkpt lat="49.22693" lon="-0.46026">
        <ele>93</ele>
        <time>2012-08-16T17:07:57Z</time>
      </trkpt>
      <trkpt lat="49.22686" lon="-0.46032">
        <ele>93</ele>
        <time>2012-08-16T17:07:59Z</time>
      </trkpt>
      <trkpt lat="49.22682" lon="-0.46035">
        <ele>92</ele>
        <time>2012-08-16T17:08:00Z</time>
      </trkpt>
      <trkpt lat="49.22676" lon="-0.4604">
        <ele>92</ele>
        <time>2012-08-16T17:08:02Z</time>
      </trkpt>
      <trkpt lat="49.2267" lon="-0.46045">
        <ele>92</ele>
        <time>2012-08-16T17:08:04Z</time>
      </trkpt>
      <trkpt lat="49.22663" lon="-0.4605">
        <ele>93</ele>
        <time>2012-08-16T17:08:06Z</time>
      </trkpt>
      <trkpt lat="49.22657" lon="-0.46055">
        <ele>93</ele>
        <time>2012-08-16T17:08:08Z</time>
      </trkpt>
      <trkpt lat="49.22652" lon="-0.46057">
        <ele>93</ele>
        <time>2012-08-16T17:08:10Z</time>
      </trkpt>
      <trkpt lat="49.22646" lon="-0.46062">
        <ele>93</ele>
        <time>2012-08-16T17:08:12Z</time>
      </trkpt>
      <trkpt lat="49.2264" lon="-0.46066">
        <ele>93</ele>
        <time>2012-08-16T17:08:14Z</time>
      </trkpt>
      <trkpt lat="49.22633" lon="-0.46071">
        <ele>92</ele>
        <time>2012-08-16T17:08:16Z</time>
      </trkpt>
      <trkpt lat="49.22627" lon="-0.46079">
        <ele>93</ele>
        <time>2012-08-16T17:08:18Z</time>
      </trkpt>
      <trkpt lat="49.22621" lon="-0.46085">
        <ele>92</ele>
        <time>2012-08-16T17:08:20Z</time>
      </trkpt>
      <trkpt lat="49.22616" lon="-0.46087">
        <ele>92</ele>
        <time>2012-08-16T17:08:21Z</time>
      </trkpt>
      <trkpt lat="49.22612" lon="-0.46092">
        <ele>93</ele>
        <time>2012-08-16T17:08:22Z</time>
      </trkpt>
      <trkpt lat="49.22606" lon="-0.46098">
        <ele>94</ele>
        <time>2012-08-16T17:08:24Z</time>
      </trkpt>
      <trkpt lat="49.22601" lon="-0.46102">
        <ele>94</ele>
        <time>2012-08-16T17:08:25Z</time>
      </trkpt>
      <trkpt lat="49.22595" lon="-0.46108">
        <ele>94</ele>
        <time>2012-08-16T17:08:27Z</time>
      </trkpt>
      <trkpt lat="49.22588" lon="-0.46114">
        <ele>94</ele>
        <time>2012-08-16T17:08:29Z</time>
      </trkpt>
      <trkpt lat="49.22583" lon="-0.46118">
        <ele>95</ele>
        <time>2012-08-16T17:08:30Z</time>
      </trkpt>
      <trkpt lat="49.22579" lon="-0.4612">
        <ele>94</ele>
        <time>2012-08-16T17:08:31Z</time>
      </trkpt>
      <trkpt lat="49.22573" lon="-0.46123">
        <ele>94</ele>
        <time>2012-08-16T17:08:33Z</time>
      </trkpt>
      <trkpt lat="49.22566" lon="-0.46119">
        <ele>95</ele>
        <time>2012-08-16T17:08:36Z</time>
      </trkpt>
      <trkpt lat="49.22564" lon="-0.46112">
        <ele>95</ele>
        <time>2012-08-16T17:08:38Z</time>
      </trkpt>
      <trkpt lat="49.22561" lon="-0.46106">
        <ele>96</ele>
        <time>2012-08-16T17:08:40Z</time>
      </trkpt>
      <trkpt lat="49.22559" lon="-0.46098">
        <ele>97</ele>
        <time>2012-08-16T17:08:42Z</time>
      </trkpt>
      <trkpt lat="49.22557" lon="-0.4609">
        <ele>97</ele>
        <time>2012-08-16T17:08:44Z</time>
      </trkpt>
      <trkpt lat="49.22555" lon="-0.4608">
        <ele>97</ele>
        <time>2012-08-16T17:08:47Z</time>
      </trkpt>
      <trkpt lat="49.22552" lon="-0.46071">
        <ele>98</ele>
        <time>2012-08-16T17:08:49Z</time>
      </trkpt>
      <trkpt lat="49.22551" lon="-0.46064">
        <ele>97</ele>
        <time>2012-08-16T17:08:51Z</time>
      </trkpt>
      <trkpt lat="49.22549" lon="-0.46055">
        <ele>99</ele>
        <time>2012-08-16T17:08:53Z</time>
      </trkpt>
      <trkpt lat="49.22547" lon="-0.46048">
        <ele>99</ele>
        <time>2012-08-16T17:08:55Z</time>
      </trkpt>
      <trkpt lat="49.22544" lon="-0.46041">
        <ele>98</ele>
        <time>2012-08-16T17:08:57Z</time>
      </trkpt>
      <trkpt lat="49.22542" lon="-0.46035">
        <ele>97</ele>
        <time>2012-08-16T17:08:59Z</time>
      </trkpt>
      <trkpt lat="49.22539" lon="-0.46028">
        <ele>96</ele>
        <time>2012-08-16T17:09:01Z</time>
      </trkpt>
      <trkpt lat="49.22536" lon="-0.46019">
        <ele>96</ele>
        <time>2012-08-16T17:09:04Z</time>
      </trkpt>
      <trkpt lat="49.22534" lon="-0.46012">
        <ele>97</ele>
        <time>2012-08-16T17:09:06Z</time>
      </trkpt>
      <trkpt lat="49.22532" lon="-0.46004">
        <ele>97</ele>
        <time>2012-08-16T17:09:09Z</time>
      </trkpt>
      <trkpt lat="49.22528" lon="-0.45996">
        <ele>97</ele>
        <time>2012-08-16T17:09:12Z</time>
      </trkpt>
      <trkpt lat="49.22527" lon="-0.45988">
        <ele>97</ele>
        <time>2012-08-16T17:09:16Z</time>
      </trkpt>
      <trkpt lat="49.22525" lon="-0.45978">
        <ele>98</ele>
        <time>2012-08-16T17:09:19Z</time>
      </trkpt>
      <trkpt lat="49.22522" lon="-0.45969">
        <ele>99</ele>
        <time>2012-08-16T17:09:22Z</time>
      </trkpt>
      <trkpt lat="49.22521" lon="-0.45959">
        <ele>101</ele>
        <time>2012-08-16T17:09:25Z</time>
      </trkpt>
      <trkpt lat="49.22519" lon="-0.45949">
        <ele>102</ele>
        <time>2012-08-16T17:09:28Z</time>
      </trkpt>
      <trkpt lat="49.22518" lon="-0.45939">
        <ele>102</ele>
        <time>2012-08-16T17:09:31Z</time>
      </trkpt>
      <trkpt lat="49.22516" lon="-0.4593">
        <ele>103</ele>
        <time>2012-08-16T17:09:34Z</time>
      </trkpt>
      <trkpt lat="49.22513" lon="-0.4592">
        <ele>103</ele>
        <time>2012-08-16T17:09:37Z</time>
      </trkpt>
      <trkpt lat="49.22512" lon="-0.45914">
        <ele>103</ele>
        <time>2012-08-16T17:09:39Z</time>
      </trkpt>
      <trkpt lat="49.22511" lon="-0.45906">
        <ele>103</ele>
        <time>2012-08-16T17:09:41Z</time>
      </trkpt>
      <trkpt lat="49.22508" lon="-0.45897">
        <ele>104</ele>
        <time>2012-08-16T17:09:44Z</time>
      </trkpt>
      <trkpt lat="49.22506" lon="-0.45887">
        <ele>104</ele>
        <time>2012-08-16T17:09:47Z</time>
      </trkpt>
      <trkpt lat="49.22506" lon="-0.4588">
        <ele>104</ele>
        <time>2012-08-16T17:09:49Z</time>
      </trkpt>
      <trkpt lat="49.22505" lon="-0.45873">
        <ele>104</ele>
        <time>2012-08-16T17:09:51Z</time>
      </trkpt>
      <trkpt lat="49.22503" lon="-0.45865">
        <ele>105</ele>
        <time>2012-08-16T17:09:53Z</time>
      </trkpt>
      <trkpt lat="49.22502" lon="-0.45858">
        <ele>105</ele>
        <time>2012-08-16T17:09:55Z</time>
      </trkpt>
      <trkpt lat="49.22499" lon="-0.45849">
        <ele>106</ele>
        <time>2012-08-16T17:09:58Z</time>
      </trkpt>
      <trkpt lat="49.22498" lon="-0.45841">
        <ele>105</ele>
        <time>2012-08-16T17:10:00Z</time>
      </trkpt>
      <trkpt lat="49.22496" lon="-0.45833">
        <ele>105</ele>
        <time>2012-08-16T17:10:02Z</time>
      </trkpt>
      <trkpt lat="49.22492" lon="-0.45823">
        <ele>105</ele>
        <time>2012-08-16T17:10:04Z</time>
      </trkpt>
      <trkpt lat="49.22489" lon="-0.45814">
        <ele>105</ele>
        <time>2012-08-16T17:10:06Z</time>
      </trkpt>
      <trkpt lat="49.22488" lon="-0.45803">
        <ele>105</ele>
        <time>2012-08-16T17:10:08Z</time>
      </trkpt>
      <trkpt lat="49.22486" lon="-0.45791">
        <ele>104</ele>
        <time>2012-08-16T17:10:10Z</time>
      </trkpt>
      <trkpt lat="49.22484" lon="-0.45779">
        <ele>105</ele>
        <time>2012-08-16T17:10:12Z</time>
      </trkpt>
      <trkpt lat="49.22482" lon="-0.45767">
        <ele>105</ele>
        <time>2012-08-16T17:10:14Z</time>
      </trkpt>
      <trkpt lat="49.2248" lon="-0.45755">
        <ele>105</ele>
        <time>2012-08-16T17:10:16Z</time>
      </trkpt>
      <trkpt lat="49.2248" lon="-0.45748">
        <ele>105</ele>
        <time>2012-08-16T17:10:17Z</time>
      </trkpt>
      <trkpt lat="49.22478" lon="-0.45741">
        <ele>105</ele>
        <time>2012-08-16T17:10:18Z</time>
      </trkpt>
      <trkpt lat="49.22476" lon="-0.45728">
        <ele>104</ele>
        <time>2012-08-16T17:10:20Z</time>
      </trkpt>
      <trkpt lat="49.22473" lon="-0.45717">
        <ele>103</ele>
        <time>2012-08-16T17:10:22Z</time>
      </trkpt>
      <trkpt lat="49.2247" lon="-0.45705">
        <ele>103</ele>
        <time>2012-08-16T17:10:24Z</time>
      </trkpt>
      <trkpt lat="49.22467" lon="-0.45692">
        <ele>103</ele>
        <time>2012-08-16T17:10:26Z</time>
      </trkpt>
      <trkpt lat="49.22464" lon="-0.4568">
        <ele>102</ele>
        <time>2012-08-16T17:10:28Z</time>
      </trkpt>
      <trkpt lat="49.22463" lon="-0.45673">
        <ele>101</ele>
        <time>2012-08-16T17:10:29Z</time>
      </trkpt>
      <trkpt lat="49.2246" lon="-0.4566">
        <ele>101</ele>
        <time>2012-08-16T17:10:31Z</time>
      </trkpt>
      <trkpt lat="49.22459" lon="-0.45648">
        <ele>101</ele>
        <time>2012-08-16T17:10:33Z</time>
      </trkpt>
      <trkpt lat="49.22457" lon="-0.45641">
        <ele>101</ele>
        <time>2012-08-16T17:10:34Z</time>
      </trkpt>
      <trkpt lat="49.22454" lon="-0.45629">
        <ele>101</ele>
        <time>2012-08-16T17:10:36Z</time>
      </trkpt>
      <trkpt lat="49.22452" lon="-0.45616">
        <ele>100</ele>
        <time>2012-08-16T17:10:38Z</time>
      </trkpt>
      <trkpt lat="49.22449" lon="-0.45603">
        <ele>100</ele>
        <time>2012-08-16T17:10:40Z</time>
      </trkpt>
      <trkpt lat="49.22447" lon="-0.45596">
        <ele>100</ele>
        <time>2012-08-16T17:10:41Z</time>
      </trkpt>
      <trkpt lat="49.22446" lon="-0.45589">
        <ele>100</ele>
        <time>2012-08-16T17:10:42Z</time>
      </trkpt>
      <trkpt lat="49.22444" lon="-0.45575">
        <ele>100</ele>
        <time>2012-08-16T17:10:44Z</time>
      </trkpt>
      <trkpt lat="49.22442" lon="-0.45568">
        <ele>99</ele>
        <time>2012-08-16T17:10:45Z</time>
      </trkpt>
      <trkpt lat="49.22441" lon="-0.45561">
        <ele>99</ele>
        <time>2012-08-16T17:10:46Z</time>
      </trkpt>
      <trkpt lat="49.2244" lon="-0.45554">
        <ele>99</ele>
        <time>2012-08-16T17:10:47Z</time>
      </trkpt>
      <trkpt lat="49.22438" lon="-0.45546">
        <ele>99</ele>
        <time>2012-08-16T17:10:48Z</time>
      </trkpt>
      <trkpt lat="49.22437" lon="-0.4554">
        <ele>99</ele>
        <time>2012-08-16T17:10:49Z</time>
      </trkpt>
      <trkpt lat="49.22435" lon="-0.45532">
        <ele>98</ele>
        <time>2012-08-16T17:10:50Z</time>
      </trkpt>
      <trkpt lat="49.22434" lon="-0.45524">
        <ele>99</ele>
        <time>2012-08-16T17:10:51Z</time>
      </trkpt>
      <trkpt lat="49.22432" lon="-0.45518">
        <ele>98</ele>
        <time>2012-08-16T17:10:52Z</time>
      </trkpt>
      <trkpt lat="49.22431" lon="-0.4551">
        <ele>99</ele>
        <time>2012-08-16T17:10:53Z</time>
      </trkpt>
      <trkpt lat="49.22428" lon="-0.45497">
        <ele>98</ele>
        <time>2012-08-16T17:10:55Z</time>
      </trkpt>
      <trkpt lat="49.22427" lon="-0.4549">
        <ele>98</ele>
        <time>2012-08-16T17:10:56Z</time>
      </trkpt>
      <trkpt lat="49.22425" lon="-0.45483">
        <ele>98</ele>
        <time>2012-08-16T17:10:57Z</time>
      </trkpt>
      <trkpt lat="49.22424" lon="-0.45476">
        <ele>97</ele>
        <time>2012-08-16T17:10:58Z</time>
      </trkpt>
      <trkpt lat="49.22423" lon="-0.45469">
        <ele>97</ele>
        <time>2012-08-16T17:10:59Z</time>
      </trkpt>
      <trkpt lat="49.22422" lon="-0.45462">
        <ele>97</ele>
        <time>2012-08-16T17:11:00Z</time>
      </trkpt>
      <trkpt lat="49.2242" lon="-0.45455">
        <ele>97</ele>
        <time>2012-08-16T17:11:01Z</time>
      </trkpt>
      <trkpt lat="49.22419" lon="-0.45448">
        <ele>97</ele>
        <time>2012-08-16T17:11:02Z</time>
      </trkpt>
      <trkpt lat="49.22417" lon="-0.45441">
        <ele>96</ele>
        <time>2012-08-16T17:11:03Z</time>
      </trkpt>
      <trkpt lat="49.22415" lon="-0.45434">
        <ele>96</ele>
        <time>2012-08-16T17:11:04Z</time>
      </trkpt>
      <trkpt lat="49.22414" lon="-0.45428">
        <ele>96</ele>
        <time>2012-08-16T17:11:05Z</time>
      </trkpt>
      <trkpt lat="49.22412" lon="-0.4542">
        <ele>96</ele>
        <time>2012-08-16T17:11:06Z</time>
      </trkpt>
      <trkpt lat="49.2241" lon="-0.45414">
        <ele>96</ele>
        <time>2012-08-16T17:11:07Z</time>
      </trkpt>
      <trkpt lat="49.22408" lon="-0.45401">
        <ele>96</ele>
        <time>2012-08-16T17:11:09Z</time>
      </trkpt>
      <trkpt lat="49.22406" lon="-0.45394">
        <ele>97</ele>
        <time>2012-08-16T17:11:10Z</time>
      </trkpt>
      <trkpt lat="49.22403" lon="-0.45381">
        <ele>97</ele>
        <time>2012-08-16T17:11:12Z</time>
      </trkpt>
      <trkpt lat="49.224" lon="-0.45368">
        <ele>97</ele>
        <time>2012-08-16T17:11:14Z</time>
      </trkpt>
      <trkpt lat="49.22397" lon="-0.45361">
        <ele>97</ele>
        <time>2012-08-16T17:11:15Z</time>
      </trkpt>
      <trkpt lat="49.22395" lon="-0.45354">
        <ele>97</ele>
        <time>2012-08-16T17:11:16Z</time>
      </trkpt>
      <trkpt lat="49.22394" lon="-0.45347">
        <ele>96</ele>
        <time>2012-08-16T17:11:17Z</time>
      </trkpt>
      <trkpt lat="49.22392" lon="-0.4534">
        <ele>96</ele>
        <time>2012-08-16T17:11:18Z</time>
      </trkpt>
      <trkpt lat="49.2239" lon="-0.45333">
        <ele>96</ele>
        <time>2012-08-16T17:11:19Z</time>
      </trkpt>
      <trkpt lat="49.22388" lon="-0.45326">
        <ele>96</ele>
        <time>2012-08-16T17:11:20Z</time>
      </trkpt>
      <trkpt lat="49.22386" lon="-0.4532">
        <ele>96</ele>
        <time>2012-08-16T17:11:21Z</time>
      </trkpt>
      <trkpt lat="49.22384" lon="-0.45313">
        <ele>96</ele>
        <time>2012-08-16T17:11:22Z</time>
      </trkpt>
      <trkpt lat="49.2238" lon="-0.453">
        <ele>96</ele>
        <time>2012-08-16T17:11:24Z</time>
      </trkpt>
      <trkpt lat="49.22376" lon="-0.45287">
        <ele>96</ele>
        <time>2012-08-16T17:11:26Z</time>
      </trkpt>
      <trkpt lat="49.22372" lon="-0.45277">
        <ele>96</ele>
        <time>2012-08-16T17:11:28Z</time>
      </trkpt>
      <trkpt lat="49.22369" lon="-0.45267">
        <ele>97</ele>
        <time>2012-08-16T17:11:30Z</time>
      </trkpt>
      <trkpt lat="49.22366" lon="-0.45261">
        <ele>97</ele>
        <time>2012-08-16T17:11:31Z</time>
      </trkpt>
      <trkpt lat="49.22362" lon="-0.4525">
        <ele>97</ele>
        <time>2012-08-16T17:11:33Z</time>
      </trkpt>
      <trkpt lat="49.22358" lon="-0.4524">
        <ele>97</ele>
        <time>2012-08-16T17:11:35Z</time>
      </trkpt>
      <trkpt lat="49.22354" lon="-0.45231">
        <ele>97</ele>
        <time>2012-08-16T17:11:37Z</time>
      </trkpt>
      <trkpt lat="49.22352" lon="-0.45221">
        <ele>97</ele>
        <time>2012-08-16T17:11:39Z</time>
      </trkpt>
      <trkpt lat="49.22349" lon="-0.45211">
        <ele>97</ele>
        <time>2012-08-16T17:11:41Z</time>
      </trkpt>
      <trkpt lat="49.22346" lon="-0.45201">
        <ele>98</ele>
        <time>2012-08-16T17:11:43Z</time>
      </trkpt>
      <trkpt lat="49.22344" lon="-0.4519">
        <ele>98</ele>
        <time>2012-08-16T17:11:45Z</time>
      </trkpt>
      <trkpt lat="49.22342" lon="-0.45182">
        <ele>98</ele>
        <time>2012-08-16T17:11:47Z</time>
      </trkpt>
      <trkpt lat="49.22338" lon="-0.45175">
        <ele>99</ele>
        <time>2012-08-16T17:11:50Z</time>
      </trkpt>
      <trkpt lat="49.22336" lon="-0.45166">
        <ele>99</ele>
        <time>2012-08-16T17:11:53Z</time>
      </trkpt>
      <trkpt lat="49.22334" lon="-0.45159">
        <ele>98</ele>
        <time>2012-08-16T17:11:55Z</time>
      </trkpt>
      <trkpt lat="49.22331" lon="-0.45151">
        <ele>100</ele>
        <time>2012-08-16T17:11:58Z</time>
      </trkpt>
      <trkpt lat="49.22329" lon="-0.45144">
        <ele>101</ele>
        <time>2012-08-16T17:12:00Z</time>
      </trkpt>
      <trkpt lat="49.22327" lon="-0.45137">
        <ele>101</ele>
        <time>2012-08-16T17:12:02Z</time>
      </trkpt>
      <trkpt lat="49.22323" lon="-0.45129">
        <ele>102</ele>
        <time>2012-08-16T17:12:05Z</time>
      </trkpt>
      <trkpt lat="49.2232" lon="-0.45121">
        <ele>103</ele>
        <time>2012-08-16T17:12:08Z</time>
      </trkpt>
      <trkpt lat="49.22316" lon="-0.45113">
        <ele>103</ele>
        <time>2012-08-16T17:12:11Z</time>
      </trkpt>
      <trkpt lat="49.22313" lon="-0.45107">
        <ele>103</ele>
        <time>2012-08-16T17:12:13Z</time>
      </trkpt>
      <trkpt lat="49.22311" lon="-0.451">
        <ele>103</ele>
        <time>2012-08-16T17:12:15Z</time>
      </trkpt>
      <trkpt lat="49.22308" lon="-0.45094">
        <ele>103</ele>
        <time>2012-08-16T17:12:17Z</time>
      </trkpt>
      <trkpt lat="49.22306" lon="-0.45088">
        <ele>103</ele>
        <time>2012-08-16T17:12:19Z</time>
      </trkpt>
      <trkpt lat="49.22302" lon="-0.4508">
        <ele>103</ele>
        <time>2012-08-16T17:12:22Z</time>
      </trkpt>
      <trkpt lat="49.22299" lon="-0.45072">
        <ele>104</ele>
        <time>2012-08-16T17:12:25Z</time>
      </trkpt>
      <trkpt lat="49.22295" lon="-0.45064">
        <ele>104</ele>
        <time>2012-08-16T17:12:28Z</time>
      </trkpt>
      <trkpt lat="49.22292" lon="-0.45057">
        <ele>104</ele>
        <time>2012-08-16T17:12:31Z</time>
      </trkpt>
      <trkpt lat="49.2229" lon="-0.4505">
        <ele>105</ele>
        <time>2012-08-16T17:12:33Z</time>
      </trkpt>
      <trkpt lat="49.22286" lon="-0.45042">
        <ele>105</ele>
        <time>2012-08-16T17:12:36Z</time>
      </trkpt>
      <trkpt lat="49.22283" lon="-0.45034">
        <ele>105</ele>
        <time>2012-08-16T17:12:39Z</time>
      </trkpt>
      <trkpt lat="49.2228" lon="-0.45028">
        <ele>105</ele>
        <time>2012-08-16T17:12:41Z</time>
      </trkpt>
      <trkpt lat="49.22277" lon="-0.4502">
        <ele>105</ele>
        <time>2012-08-16T17:12:44Z</time>
      </trkpt>
      <trkpt lat="49.22274" lon="-0.45012">
        <ele>105</ele>
        <time>2012-08-16T17:12:47Z</time>
      </trkpt>
      <trkpt lat="49.2227" lon="-0.45006">
        <ele>106</ele>
        <time>2012-08-16T17:12:50Z</time>
      </trkpt>
      <trkpt lat="49.22268" lon="-0.44998">
        <ele>107</ele>
        <time>2012-08-16T17:12:53Z</time>
      </trkpt>
      <trkpt lat="49.22264" lon="-0.44991">
        <ele>106</ele>
        <time>2012-08-16T17:12:56Z</time>
      </trkpt>
      <trkpt lat="49.22261" lon="-0.44985">
        <ele>107</ele>
        <time>2012-08-16T17:12:58Z</time>
      </trkpt>
      <trkpt lat="49.22259" lon="-0.44979">
        <ele>107</ele>
        <time>2012-08-16T17:13:00Z</time>
      </trkpt>
      <trkpt lat="49.22255" lon="-0.44972">
        <ele>107</ele>
        <time>2012-08-16T17:13:03Z</time>
      </trkpt>
      <trkpt lat="49.22252" lon="-0.44964">
        <ele>108</ele>
        <time>2012-08-16T17:13:06Z</time>
      </trkpt>
      <trkpt lat="49.22248" lon="-0.44958">
        <ele>108</ele>
        <time>2012-08-16T17:13:09Z</time>
      </trkpt>
      <trkpt lat="49.22246" lon="-0.44951">
        <ele>108</ele>
        <time>2012-08-16T17:13:11Z</time>
      </trkpt>
      <trkpt lat="49.22244" lon="-0.44943">
        <ele>109</ele>
        <time>2012-08-16T17:13:14Z</time>
      </trkpt>
      <trkpt lat="49.22241" lon="-0.44936">
        <ele>110</ele>
        <time>2012-08-16T17:13:17Z</time>
      </trkpt>
      <trkpt lat="49.22238" lon="-0.44928">
        <ele>109</ele>
        <time>2012-08-16T17:13:20Z</time>
      </trkpt>
      <trkpt lat="49.22235" lon="-0.44921">
        <ele>110</ele>
        <time>2012-08-16T17:13:22Z</time>
      </trkpt>
      <trkpt lat="49.22231" lon="-0.44915">
        <ele>110</ele>
        <time>2012-08-16T17:13:25Z</time>
      </trkpt>
      <trkpt lat="49.22227" lon="-0.44907">
        <ele>111</ele>
        <time>2012-08-16T17:13:28Z</time>
      </trkpt>
      <trkpt lat="49.22225" lon="-0.449">
        <ele>110</ele>
        <time>2012-08-16T17:13:30Z</time>
      </trkpt>
      <trkpt lat="49.22222" lon="-0.44895">
        <ele>110</ele>
        <time>2012-08-16T17:13:32Z</time>
      </trkpt>
      <trkpt lat="49.22219" lon="-0.44889">
        <ele>110</ele>
        <time>2012-08-16T17:13:34Z</time>
      </trkpt>
      <trkpt lat="49.22216" lon="-0.44882">
        <ele>111</ele>
        <time>2012-08-16T17:13:36Z</time>
      </trkpt>
      <trkpt lat="49.22211" lon="-0.44874">
        <ele>111</ele>
        <time>2012-08-16T17:13:39Z</time>
      </trkpt>
      <trkpt lat="49.22209" lon="-0.44868">
        <ele>111</ele>
        <time>2012-08-16T17:13:41Z</time>
      </trkpt>
      <trkpt lat="49.22205" lon="-0.44862">
        <ele>111</ele>
        <time>2012-08-16T17:13:43Z</time>
      </trkpt>
      <trkpt lat="49.22203" lon="-0.44854">
        <ele>111</ele>
        <time>2012-08-16T17:13:45Z</time>
      </trkpt>
      <trkpt lat="49.222" lon="-0.44849">
        <ele>111</ele>
        <time>2012-08-16T17:13:47Z</time>
      </trkpt>
      <trkpt lat="49.22196" lon="-0.44842">
        <ele>111</ele>
        <time>2012-08-16T17:13:49Z</time>
      </trkpt>
      <trkpt lat="49.22192" lon="-0.44835">
        <ele>111</ele>
        <time>2012-08-16T17:13:51Z</time>
      </trkpt>
      <trkpt lat="49.2219" lon="-0.44829">
        <ele>111</ele>
        <time>2012-08-16T17:13:53Z</time>
      </trkpt>
      <trkpt lat="49.22186" lon="-0.44821">
        <ele>112</ele>
        <time>2012-08-16T17:13:56Z</time>
      </trkpt>
      <trkpt lat="49.22182" lon="-0.44815">
        <ele>113</ele>
        <time>2012-08-16T17:13:58Z</time>
      </trkpt>
      <trkpt lat="49.22179" lon="-0.44808">
        <ele>113</ele>
        <time>2012-08-16T17:14:00Z</time>
      </trkpt>
      <trkpt lat="49.22176" lon="-0.44801">
        <ele>114</ele>
        <time>2012-08-16T17:14:02Z</time>
      </trkpt>
      <trkpt lat="49.22172" lon="-0.44796">
        <ele>114</ele>
        <time>2012-08-16T17:14:04Z</time>
      </trkpt>
      <trkpt lat="49.22169" lon="-0.4479">
        <ele>115</ele>
        <time>2012-08-16T17:14:06Z</time>
      </trkpt>
      <trkpt lat="49.22165" lon="-0.44786">
        <ele>115</ele>
        <time>2012-08-16T17:14:08Z</time>
      </trkpt>
      <trkpt lat="49.22159" lon="-0.44785">
        <ele>114</ele>
        <time>2012-08-16T17:14:10Z</time>
      </trkpt>
      <trkpt lat="49.22152" lon="-0.44788">
        <ele>113</ele>
        <time>2012-08-16T17:14:12Z</time>
      </trkpt>
      <trkpt lat="49.22146" lon="-0.44793">
        <ele>113</ele>
        <time>2012-08-16T17:14:14Z</time>
      </trkpt>
      <trkpt lat="49.22141" lon="-0.44798">
        <ele>112</ele>
        <time>2012-08-16T17:14:16Z</time>
      </trkpt>
      <trkpt lat="49.22135" lon="-0.44803">
        <ele>111</ele>
        <time>2012-08-16T17:14:18Z</time>
      </trkpt>
      <trkpt lat="49.22129" lon="-0.44807">
        <ele>111</ele>
        <time>2012-08-16T17:14:20Z</time>
      </trkpt>
      <trkpt lat="49.22122" lon="-0.44813">
        <ele>110</ele>
        <time>2012-08-16T17:14:22Z</time>
      </trkpt>
      <trkpt lat="49.22115" lon="-0.44817">
        <ele>110</ele>
        <time>2012-08-16T17:14:24Z</time>
      </trkpt>
      <trkpt lat="49.22109" lon="-0.44821">
        <ele>110</ele>
        <time>2012-08-16T17:14:26Z</time>
      </trkpt>
      <trkpt lat="49.22102" lon="-0.44828">
        <ele>109</ele>
        <time>2012-08-16T17:14:28Z</time>
      </trkpt>
      <trkpt lat="49.22095" lon="-0.44832">
        <ele>109</ele>
        <time>2012-08-16T17:14:30Z</time>
      </trkpt>
      <trkpt lat="49.22088" lon="-0.44837">
        <ele>109</ele>
        <time>2012-08-16T17:14:32Z</time>
      </trkpt>
      <trkpt lat="49.22081" lon="-0.44843">
        <ele>109</ele>
        <time>2012-08-16T17:14:34Z</time>
      </trkpt>
      <trkpt lat="49.22073" lon="-0.44848">
        <ele>109</ele>
        <time>2012-08-16T17:14:36Z</time>
      </trkpt>
      <trkpt lat="49.22067" lon="-0.44853">
        <ele>109</ele>
        <time>2012-08-16T17:14:38Z</time>
      </trkpt>
      <trkpt lat="49.2206" lon="-0.44858">
        <ele>109</ele>
        <time>2012-08-16T17:14:40Z</time>
      </trkpt>
      <trkpt lat="49.22053" lon="-0.44863">
        <ele>109</ele>
        <time>2012-08-16T17:14:42Z</time>
      </trkpt>
      <trkpt lat="49.22046" lon="-0.44869">
        <ele>109</ele>
        <time>2012-08-16T17:14:44Z</time>
      </trkpt>
      <trkpt lat="49.22039" lon="-0.44872">
        <ele>109</ele>
        <time>2012-08-16T17:14:46Z</time>
      </trkpt>
      <trkpt lat="49.22034" lon="-0.44874">
        <ele>109</ele>
        <time>2012-08-16T17:14:47Z</time>
      </trkpt>
      <trkpt lat="49.22027" lon="-0.44879">
        <ele>109</ele>
        <time>2012-08-16T17:14:49Z</time>
      </trkpt>
      <trkpt lat="49.22019" lon="-0.44882">
        <ele>109</ele>
        <time>2012-08-16T17:14:51Z</time>
      </trkpt>
      <trkpt lat="49.22011" lon="-0.44886">
        <ele>109</ele>
        <time>2012-08-16T17:14:53Z</time>
      </trkpt>
      <trkpt lat="49.22006" lon="-0.44888">
        <ele>109</ele>
        <time>2012-08-16T17:14:54Z</time>
      </trkpt>
      <trkpt lat="49.22002" lon="-0.4489">
        <ele>109</ele>
        <time>2012-08-16T17:14:55Z</time>
      </trkpt>
      <trkpt lat="49.21994" lon="-0.44893">
        <ele>109</ele>
        <time>2012-08-16T17:14:57Z</time>
      </trkpt>
      <trkpt lat="49.21986" lon="-0.44897">
        <ele>109</ele>
        <time>2012-08-16T17:14:59Z</time>
      </trkpt>
      <trkpt lat="49.21977" lon="-0.44901">
        <ele>109</ele>
        <time>2012-08-16T17:15:01Z</time>
      </trkpt>
      <trkpt lat="49.21969" lon="-0.44904">
        <ele>109</ele>
        <time>2012-08-16T17:15:03Z</time>
      </trkpt>
      <trkpt lat="49.21957" lon="-0.44909">
        <ele>109</ele>
        <time>2012-08-16T17:15:06Z</time>
      </trkpt>
      <trkpt lat="49.21948" lon="-0.44912">
        <ele>109</ele>
        <time>2012-08-16T17:15:08Z</time>
      </trkpt>
      <trkpt lat="49.2194" lon="-0.44915">
        <ele>109</ele>
        <time>2012-08-16T17:15:10Z</time>
      </trkpt>
      <trkpt lat="49.21934" lon="-0.44919">
        <ele>108</ele>
        <time>2012-08-16T17:15:12Z</time>
      </trkpt>
      <trkpt lat="49.21926" lon="-0.44923">
        <ele>109</ele>
        <time>2012-08-16T17:15:14Z</time>
      </trkpt>
      <trkpt lat="49.2192" lon="-0.44923">
        <ele>109</ele>
        <time>2012-08-16T17:15:16Z</time>
      </trkpt>
      <trkpt lat="49.21915" lon="-0.4492">
        <ele>109</ele>
        <time>2012-08-16T17:15:18Z</time>
      </trkpt>
      <trkpt lat="49.21911" lon="-0.44914">
        <ele>109</ele>
        <time>2012-08-16T17:15:20Z</time>
      </trkpt>
      <trkpt lat="49.21908" lon="-0.44906">
        <ele>110</ele>
        <time>2012-08-16T17:15:22Z</time>
      </trkpt>
      <trkpt lat="49.21903" lon="-0.44897">
        <ele>110</ele>
        <time>2012-08-16T17:15:24Z</time>
      </trkpt>
      <trkpt lat="49.219" lon="-0.44888">
        <ele>111</ele>
        <time>2012-08-16T17:15:26Z</time>
      </trkpt>
      <trkpt lat="49.21895" lon="-0.44881">
        <ele>112</ele>
        <time>2012-08-16T17:15:28Z</time>
      </trkpt>
      <trkpt lat="49.21892" lon="-0.44873">
        <ele>112</ele>
        <time>2012-08-16T17:15:30Z</time>
      </trkpt>
      <trkpt lat="49.21887" lon="-0.44865">
        <ele>112</ele>
        <time>2012-08-16T17:15:32Z</time>
      </trkpt>
      <trkpt lat="49.21883" lon="-0.44857">
        <ele>111</ele>
        <time>2012-08-16T17:15:34Z</time>
      </trkpt>
      <trkpt lat="49.21877" lon="-0.44845">
        <ele>112</ele>
        <time>2012-08-16T17:15:37Z</time>
      </trkpt>
      <trkpt lat="49.21873" lon="-0.44836">
        <ele>112</ele>
        <time>2012-08-16T17:15:39Z</time>
      </trkpt>
      <trkpt lat="49.2187" lon="-0.44827">
        <ele>112</ele>
        <time>2012-08-16T17:15:41Z</time>
      </trkpt>
      <trkpt lat="49.21866" lon="-0.44819">
        <ele>112</ele>
        <time>2012-08-16T17:15:43Z</time>
      </trkpt>
      <trkpt lat="49.21863" lon="-0.44809">
        <ele>113</ele>
        <time>2012-08-16T17:15:45Z</time>
      </trkpt>
      <trkpt lat="49.21859" lon="-0.448">
        <ele>113</ele>
        <time>2012-08-16T17:15:47Z</time>
      </trkpt>
      <trkpt lat="49.21856" lon="-0.4479">
        <ele>113</ele>
        <time>2012-08-16T17:15:49Z</time>
      </trkpt>
      <trkpt lat="49.21852" lon="-0.4478">
        <ele>113</ele>
        <time>2012-08-16T17:15:51Z</time>
      </trkpt>
      <trkpt lat="49.21849" lon="-0.44771">
        <ele>113</ele>
        <time>2012-08-16T17:15:53Z</time>
      </trkpt>
      <trkpt lat="49.21845" lon="-0.44763">
        <ele>112</ele>
        <time>2012-08-16T17:15:55Z</time>
      </trkpt>
      <trkpt lat="49.21841" lon="-0.44755">
        <ele>111</ele>
        <time>2012-08-16T17:15:57Z</time>
      </trkpt>
      <trkpt lat="49.21838" lon="-0.44745">
        <ele>113</ele>
        <time>2012-08-16T17:15:59Z</time>
      </trkpt>
      <trkpt lat="49.21836" lon="-0.44735">
        <ele>113</ele>
        <time>2012-08-16T17:16:01Z</time>
      </trkpt>
      <trkpt lat="49.21833" lon="-0.44725">
        <ele>113</ele>
        <time>2012-08-16T17:16:03Z</time>
      </trkpt>
      <trkpt lat="49.21829" lon="-0.44716">
        <ele>112</ele>
        <time>2012-08-16T17:16:05Z</time>
      </trkpt>
      <trkpt lat="49.21826" lon="-0.44708">
        <ele>112</ele>
        <time>2012-08-16T17:16:07Z</time>
      </trkpt>
      <trkpt lat="49.21822" lon="-0.44698">
        <ele>112</ele>
        <time>2012-08-16T17:16:09Z</time>
      </trkpt>
      <trkpt lat="49.2182" lon="-0.44688">
        <ele>112</ele>
        <time>2012-08-16T17:16:11Z</time>
      </trkpt>
      <trkpt lat="49.21817" lon="-0.44679">
        <ele>112</ele>
        <time>2012-08-16T17:16:13Z</time>
      </trkpt>
      <trkpt lat="49.21814" lon="-0.4467">
        <ele>112</ele>
        <time>2012-08-16T17:16:15Z</time>
      </trkpt>
      <trkpt lat="49.21811" lon="-0.44661">
        <ele>113</ele>
        <time>2012-08-16T17:16:17Z</time>
      </trkpt>
      <trkpt lat="49.21809" lon="-0.44653">
        <ele>112</ele>
        <time>2012-08-16T17:16:19Z</time>
      </trkpt>
      <trkpt lat="49.21806" lon="-0.44644">
        <ele>112</ele>
        <time>2012-08-16T17:16:21Z</time>
      </trkpt>
      <trkpt lat="49.21802" lon="-0.44631">
        <ele>113</ele>
        <time>2012-08-16T17:16:23Z</time>
      </trkpt>
      <trkpt lat="49.21797" lon="-0.44624">
        <ele>113</ele>
        <time>2012-08-16T17:16:27Z</time>
      </trkpt>
      <trkpt lat="49.21794" lon="-0.44617">
        <ele>113</ele>
        <time>2012-08-16T17:16:28Z</time>
      </trkpt>
      <trkpt lat="49.21791" lon="-0.44607">
        <ele>114</ele>
        <time>2012-08-16T17:16:30Z</time>
      </trkpt>
      <trkpt lat="49.21789" lon="-0.446">
        <ele>114</ele>
        <time>2012-08-16T17:16:31Z</time>
      </trkpt>
      <trkpt lat="49.21786" lon="-0.4459">
        <ele>113</ele>
        <time>2012-08-16T17:16:33Z</time>
      </trkpt>
      <trkpt lat="49.21782" lon="-0.4458">
        <ele>114</ele>
        <time>2012-08-16T17:16:35Z</time>
      </trkpt>
      <trkpt lat="49.21778" lon="-0.44571">
        <ele>114</ele>
        <time>2012-08-16T17:16:37Z</time>
      </trkpt>
      <trkpt lat="49.21774" lon="-0.44561">
        <ele>114</ele>
        <time>2012-08-16T17:16:39Z</time>
      </trkpt>
      <trkpt lat="49.2177" lon="-0.4455">
        <ele>114</ele>
        <time>2012-08-16T17:16:41Z</time>
      </trkpt>
      <trkpt lat="49.21767" lon="-0.44542">
        <ele>115</ele>
        <time>2012-08-16T17:16:43Z</time>
      </trkpt>
      <trkpt lat="49.21763" lon="-0.44534">
        <ele>115</ele>
        <time>2012-08-16T17:16:45Z</time>
      </trkpt>
      <trkpt lat="49.2176" lon="-0.44524">
        <ele>115</ele>
        <time>2012-08-16T17:16:47Z</time>
      </trkpt>
      <trkpt lat="49.21755" lon="-0.44514">
        <ele>115</ele>
        <time>2012-08-16T17:16:49Z</time>
      </trkpt>
      <trkpt lat="49.2175" lon="-0.44505">
        <ele>115</ele>
        <time>2012-08-16T17:16:51Z</time>
      </trkpt>
      <trkpt lat="49.21746" lon="-0.44495">
        <ele>115</ele>
        <time>2012-08-16T17:16:53Z</time>
      </trkpt>
      <trkpt lat="49.21741" lon="-0.44484">
        <ele>115</ele>
        <time>2012-08-16T17:16:55Z</time>
      </trkpt>
      <trkpt lat="49.21736" lon="-0.44474">
        <ele>115</ele>
        <time>2012-08-16T17:16:57Z</time>
      </trkpt>
      <trkpt lat="49.21732" lon="-0.44465">
        <ele>115</ele>
        <time>2012-08-16T17:16:59Z</time>
      </trkpt>
      <trkpt lat="49.2173" lon="-0.44456">
        <ele>115</ele>
        <time>2012-08-16T17:17:01Z</time>
      </trkpt>
      <trkpt lat="49.21726" lon="-0.44446">
        <ele>115</ele>
        <time>2012-08-16T17:17:03Z</time>
      </trkpt>
      <trkpt lat="49.21723" lon="-0.44437">
        <ele>116</ele>
        <time>2012-08-16T17:17:05Z</time>
      </trkpt>
      <trkpt lat="49.21718" lon="-0.44427">
        <ele>116</ele>
        <time>2012-08-16T17:17:07Z</time>
      </trkpt>
      <trkpt lat="49.21717" lon="-0.44418">
        <ele>116</ele>
        <time>2012-08-16T17:17:08Z</time>
      </trkpt>
      <trkpt lat="49.21713" lon="-0.44409">
        <ele>116</ele>
        <time>2012-08-16T17:17:10Z</time>
      </trkpt>
      <trkpt lat="49.21709" lon="-0.444">
        <ele>116</ele>
        <time>2012-08-16T17:17:12Z</time>
      </trkpt>
      <trkpt lat="49.21706" lon="-0.44391">
        <ele>117</ele>
        <time>2012-08-16T17:17:14Z</time>
      </trkpt>
      <trkpt lat="49.21702" lon="-0.44382">
        <ele>117</ele>
        <time>2012-08-16T17:17:16Z</time>
      </trkpt>
      <trkpt lat="49.21698" lon="-0.44372">
        <ele>117</ele>
        <time>2012-08-16T17:17:18Z</time>
      </trkpt>
      <trkpt lat="49.21695" lon="-0.44363">
        <ele>117</ele>
        <time>2012-08-16T17:17:20Z</time>
      </trkpt>
      <trkpt lat="49.21692" lon="-0.44354">
        <ele>118</ele>
        <time>2012-08-16T17:17:22Z</time>
      </trkpt>
      <trkpt lat="49.21687" lon="-0.44346">
        <ele>118</ele>
        <time>2012-08-16T17:17:24Z</time>
      </trkpt>
      <trkpt lat="49.21683" lon="-0.44337">
        <ele>118</ele>
        <time>2012-08-16T17:17:26Z</time>
      </trkpt>
      <trkpt lat="49.2168" lon="-0.44329">
        <ele>118</ele>
        <time>2012-08-16T17:17:28Z</time>
      </trkpt>
      <trkpt lat="49.21678" lon="-0.44321">
        <ele>118</ele>
        <time>2012-08-16T17:17:30Z</time>
      </trkpt>
      <trkpt lat="49.21674" lon="-0.44312">
        <ele>119</ele>
        <time>2012-08-16T17:17:32Z</time>
      </trkpt>
      <trkpt lat="49.21671" lon="-0.44305">
        <ele>118</ele>
        <time>2012-08-16T17:17:34Z</time>
      </trkpt>
      <trkpt lat="49.21668" lon="-0.44297">
        <ele>118</ele>
        <time>2012-08-16T17:17:36Z</time>
      </trkpt>
      <trkpt lat="49.21665" lon="-0.44289">
        <ele>118</ele>
        <time>2012-08-16T17:17:38Z</time>
      </trkpt>
      <trkpt lat="49.21661" lon="-0.44279">
        <ele>119</ele>
        <time>2012-08-16T17:17:40Z</time>
      </trkpt>
      <trkpt lat="49.21657" lon="-0.4427">
        <ele>119</ele>
        <time>2012-08-16T17:17:42Z</time>
      </trkpt>
      <trkpt lat="49.21653" lon="-0.4426">
        <ele>119</ele>
        <time>2012-08-16T17:17:44Z</time>
      </trkpt>
      <trkpt lat="49.21649" lon="-0.4425">
        <ele>119</ele>
        <time>2012-08-16T17:17:46Z</time>
      </trkpt>
      <trkpt lat="49.21646" lon="-0.44239">
        <ele>119</ele>
        <time>2012-08-16T17:17:48Z</time>
      </trkpt>
      <trkpt lat="49.21642" lon="-0.44228">
        <ele>119</ele>
        <time>2012-08-16T17:17:50Z</time>
      </trkpt>
      <trkpt lat="49.21638" lon="-0.44218">
        <ele>119</ele>
        <time>2012-08-16T17:17:52Z</time>
      </trkpt>
      <trkpt lat="49.21635" lon="-0.44206">
        <ele>119</ele>
        <time>2012-08-16T17:17:54Z</time>
      </trkpt>
      <trkpt lat="49.21632" lon="-0.442">
        <ele>119</ele>
        <time>2012-08-16T17:17:55Z</time>
      </trkpt>
      <trkpt lat="49.21628" lon="-0.44188">
        <ele>119</ele>
        <time>2012-08-16T17:17:57Z</time>
      </trkpt>
      <trkpt lat="49.21624" lon="-0.44176">
        <ele>119</ele>
        <time>2012-08-16T17:17:59Z</time>
      </trkpt>
      <trkpt lat="49.21621" lon="-0.44166">
        <ele>119</ele>
        <time>2012-08-16T17:18:01Z</time>
      </trkpt>
      <trkpt lat="49.21617" lon="-0.44155">
        <ele>119</ele>
        <time>2012-08-16T17:18:03Z</time>
      </trkpt>
      <trkpt lat="49.21613" lon="-0.44144">
        <ele>119</ele>
        <time>2012-08-16T17:18:05Z</time>
      </trkpt>
      <trkpt lat="49.21609" lon="-0.44134">
        <ele>119</ele>
        <time>2012-08-16T17:18:07Z</time>
      </trkpt>
      <trkpt lat="49.21605" lon="-0.44123">
        <ele>119</ele>
        <time>2012-08-16T17:18:09Z</time>
      </trkpt>
      <trkpt lat="49.21602" lon="-0.44116">
        <ele>119</ele>
        <time>2012-08-16T17:18:10Z</time>
      </trkpt>
      <trkpt lat="49.216" lon="-0.44105">
        <ele>118</ele>
        <time>2012-08-16T17:18:12Z</time>
      </trkpt>
      <trkpt lat="49.21596" lon="-0.44092">
        <ele>118</ele>
        <time>2012-08-16T17:18:14Z</time>
      </trkpt>
      <trkpt lat="49.21594" lon="-0.44086">
        <ele>118</ele>
        <time>2012-08-16T17:18:15Z</time>
      </trkpt>
      <trkpt lat="49.21591" lon="-0.44072">
        <ele>118</ele>
        <time>2012-08-16T17:18:17Z</time>
      </trkpt>
      <trkpt lat="49.21587" lon="-0.44061">
        <ele>118</ele>
        <time>2012-08-16T17:18:19Z</time>
      </trkpt>
      <trkpt lat="49.21584" lon="-0.44049">
        <ele>118</ele>
        <time>2012-08-16T17:18:21Z</time>
      </trkpt>
      <trkpt lat="49.21581" lon="-0.44038">
        <ele>118</ele>
        <time>2012-08-16T17:18:23Z</time>
      </trkpt>
      <trkpt lat="49.21579" lon="-0.44031">
        <ele>118</ele>
        <time>2012-08-16T17:18:24Z</time>
      </trkpt>
      <trkpt lat="49.21577" lon="-0.4402">
        <ele>118</ele>
        <time>2012-08-16T17:18:26Z</time>
      </trkpt>
      <trkpt lat="49.21574" lon="-0.44011">
        <ele>117</ele>
        <time>2012-08-16T17:18:27Z</time>
      </trkpt>
      <trkpt lat="49.21568" lon="-0.44">
        <ele>117</ele>
        <time>2012-08-16T17:18:29Z</time>
      </trkpt>
      <trkpt lat="49.21565" lon="-0.43987">
        <ele>116</ele>
        <time>2012-08-16T17:18:31Z</time>
      </trkpt>
      <trkpt lat="49.21562" lon="-0.43975">
        <ele>116</ele>
        <time>2012-08-16T17:18:33Z</time>
      </trkpt>
      <trkpt lat="49.21561" lon="-0.43963">
        <ele>117</ele>
        <time>2012-08-16T17:18:35Z</time>
      </trkpt>
      <trkpt lat="49.2156" lon="-0.43948">
        <ele>117</ele>
        <time>2012-08-16T17:18:37Z</time>
      </trkpt>
      <trkpt lat="49.2156" lon="-0.43941">
        <ele>117</ele>
        <time>2012-08-16T17:18:38Z</time>
      </trkpt>
      <trkpt lat="49.2156" lon="-0.43934">
        <ele>117</ele>
        <time>2012-08-16T17:18:39Z</time>
      </trkpt>
      <trkpt lat="49.21561" lon="-0.43927">
        <ele>116</ele>
        <time>2012-08-16T17:18:40Z</time>
      </trkpt>
      <trkpt lat="49.21562" lon="-0.43914">
        <ele>116</ele>
        <time>2012-08-16T17:18:42Z</time>
      </trkpt>
      <trkpt lat="49.21562" lon="-0.43906">
        <ele>116</ele>
        <time>2012-08-16T17:18:43Z</time>
      </trkpt>
      <trkpt lat="49.21562" lon="-0.43899">
        <ele>116</ele>
        <time>2012-08-16T17:18:44Z</time>
      </trkpt>
      <trkpt lat="49.21561" lon="-0.4389">
        <ele>116</ele>
        <time>2012-08-16T17:18:45Z</time>
      </trkpt>
      <trkpt lat="49.21561" lon="-0.43882">
        <ele>116</ele>
        <time>2012-08-16T17:18:46Z</time>
      </trkpt>
      <trkpt lat="49.2156" lon="-0.43868">
        <ele>116</ele>
        <time>2012-08-16T17:18:48Z</time>
      </trkpt>
      <trkpt lat="49.21557" lon="-0.43854">
        <ele>116</ele>
        <time>2012-08-16T17:18:50Z</time>
      </trkpt>
      <trkpt lat="49.21555" lon="-0.43838">
        <ele>116</ele>
        <time>2012-08-16T17:18:52Z</time>
      </trkpt>
      <trkpt lat="49.21555" lon="-0.43832">
        <ele>117</ele>
        <time>2012-08-16T17:18:53Z</time>
      </trkpt>
      <trkpt lat="49.21553" lon="-0.43825">
        <ele>117</ele>
        <time>2012-08-16T17:18:54Z</time>
      </trkpt>
      <trkpt lat="49.21552" lon="-0.43818">
        <ele>117</ele>
        <time>2012-08-16T17:18:55Z</time>
      </trkpt>
      <trkpt lat="49.21551" lon="-0.43806">
        <ele>117</ele>
        <time>2012-08-16T17:18:57Z</time>
      </trkpt>
      <trkpt lat="49.21549" lon="-0.43792">
        <ele>117</ele>
        <time>2012-08-16T17:18:59Z</time>
      </trkpt>
      <trkpt lat="49.21548" lon="-0.43785">
        <ele>116</ele>
        <time>2012-08-16T17:19:00Z</time>
      </trkpt>
      <trkpt lat="49.21547" lon="-0.43778">
        <ele>116</ele>
        <time>2012-08-16T17:19:01Z</time>
      </trkpt>
      <trkpt lat="49.21545" lon="-0.43768">
        <ele>116</ele>
        <time>2012-08-16T17:19:03Z</time>
      </trkpt>
      <trkpt lat="49.21543" lon="-0.43756">
        <ele>115</ele>
        <time>2012-08-16T17:19:05Z</time>
      </trkpt>
      <trkpt lat="49.21541" lon="-0.43744">
        <ele>115</ele>
        <time>2012-08-16T17:19:07Z</time>
      </trkpt>
      <trkpt lat="49.21541" lon="-0.43732">
        <ele>115</ele>
        <time>2012-08-16T17:19:09Z</time>
      </trkpt>
      <trkpt lat="49.21539" lon="-0.43722">
        <ele>115</ele>
        <time>2012-08-16T17:19:11Z</time>
      </trkpt>
      <trkpt lat="49.21538" lon="-0.43712">
        <ele>115</ele>
        <time>2012-08-16T17:19:13Z</time>
      </trkpt>
      <trkpt lat="49.21536" lon="-0.43704">
        <ele>115</ele>
        <time>2012-08-16T17:19:15Z</time>
      </trkpt>
      <trkpt lat="49.21534" lon="-0.43695">
        <ele>115</ele>
        <time>2012-08-16T17:19:17Z</time>
      </trkpt>
      <trkpt lat="49.21533" lon="-0.43684">
        <ele>117</ele>
        <time>2012-08-16T17:19:19Z</time>
      </trkpt>
      <trkpt lat="49.21532" lon="-0.43673">
        <ele>117</ele>
        <time>2012-08-16T17:19:21Z</time>
      </trkpt>
      <trkpt lat="49.2153" lon="-0.43661">
        <ele>117</ele>
        <time>2012-08-16T17:19:23Z</time>
      </trkpt>
      <trkpt lat="49.21528" lon="-0.43649">
        <ele>117</ele>
        <time>2012-08-16T17:19:25Z</time>
      </trkpt>
      <trkpt lat="49.21526" lon="-0.43636">
        <ele>116</ele>
        <time>2012-08-16T17:19:27Z</time>
      </trkpt>
      <trkpt lat="49.21525" lon="-0.43623">
        <ele>116</ele>
        <time>2012-08-16T17:19:29Z</time>
      </trkpt>
      <trkpt lat="49.21524" lon="-0.4361">
        <ele>116</ele>
        <time>2012-08-16T17:19:31Z</time>
      </trkpt>
      <trkpt lat="49.21524" lon="-0.43603">
        <ele>116</ele>
        <time>2012-08-16T17:19:32Z</time>
      </trkpt>
      <trkpt lat="49.21523" lon="-0.43596">
        <ele>116</ele>
        <time>2012-08-16T17:19:33Z</time>
      </trkpt>
      <trkpt lat="49.21524" lon="-0.43588">
        <ele>116</ele>
        <time>2012-08-16T17:19:34Z</time>
      </trkpt>
      <trkpt lat="49.21524" lon="-0.43582">
        <ele>116</ele>
        <time>2012-08-16T17:19:35Z</time>
      </trkpt>
      <trkpt lat="49.21524" lon="-0.43574">
        <ele>116</ele>
        <time>2012-08-16T17:19:36Z</time>
      </trkpt>
      <trkpt lat="49.21524" lon="-0.43566">
        <ele>116</ele>
        <time>2012-08-16T17:19:37Z</time>
      </trkpt>
      <trkpt lat="49.21524" lon="-0.43559">
        <ele>116</ele>
        <time>2012-08-16T17:19:38Z</time>
      </trkpt>
      <trkpt lat="49.21524" lon="-0.43551">
        <ele>115</ele>
        <time>2012-08-16T17:19:39Z</time>
      </trkpt>
      <trkpt lat="49.21524" lon="-0.43544">
        <ele>115</ele>
        <time>2012-08-16T17:19:40Z</time>
      </trkpt>
      <trkpt lat="49.21525" lon="-0.43536">
        <ele>115</ele>
        <time>2012-08-16T17:19:41Z</time>
      </trkpt>
      <trkpt lat="49.21526" lon="-0.4353">
        <ele>115</ele>
        <time>2012-08-16T17:19:42Z</time>
      </trkpt>
      <trkpt lat="49.21525" lon="-0.43522">
        <ele>115</ele>
        <time>2012-08-16T17:19:43Z</time>
      </trkpt>
      <trkpt lat="49.21525" lon="-0.43509">
        <ele>116</ele>
        <time>2012-08-16T17:19:45Z</time>
      </trkpt>
      <trkpt lat="49.21525" lon="-0.43502">
        <ele>116</ele>
        <time>2012-08-16T17:19:46Z</time>
      </trkpt>
      <trkpt lat="49.21525" lon="-0.43489">
        <ele>116</ele>
        <time>2012-08-16T17:19:48Z</time>
      </trkpt>
      <trkpt lat="49.21527" lon="-0.43476">
        <ele>115</ele>
        <time>2012-08-16T17:19:50Z</time>
      </trkpt>
      <trkpt lat="49.21531" lon="-0.43465">
        <ele>115</ele>
        <time>2012-08-16T17:19:52Z</time>
      </trkpt>
      <trkpt lat="49.21537" lon="-0.43457">
        <ele>114</ele>
        <time>2012-08-16T17:19:54Z</time>
      </trkpt>
      <trkpt lat="49.21543" lon="-0.43449">
        <ele>113</ele>
        <time>2012-08-16T17:19:56Z</time>
      </trkpt>
      <trkpt lat="49.21547" lon="-0.43444">
        <ele>113</ele>
        <time>2012-08-16T17:19:57Z</time>
      </trkpt>
      <trkpt lat="49.21552" lon="-0.43441">
        <ele>113</ele>
        <time>2012-08-16T17:19:58Z</time>
      </trkpt>
      <trkpt lat="49.21556" lon="-0.43431">
        <ele>115</ele>
        <time>2012-08-16T17:20:00Z</time>
      </trkpt>
      <trkpt lat="49.21557" lon="-0.43418">
        <ele>115</ele>
        <time>2012-08-16T17:20:02Z</time>
      </trkpt>
      <trkpt lat="49.21553" lon="-0.43408">
        <ele>115</ele>
        <time>2012-08-16T17:20:04Z</time>
      </trkpt>
      <trkpt lat="49.21549" lon="-0.43403">
        <ele>114</ele>
        <time>2012-08-16T17:20:05Z</time>
      </trkpt>
      <trkpt lat="49.21547" lon="-0.43396">
        <ele>114</ele>
        <time>2012-08-16T17:20:06Z</time>
      </trkpt>
      <trkpt lat="49.21541" lon="-0.43386">
        <ele>114</ele>
        <time>2012-08-16T17:20:08Z</time>
      </trkpt>
      <trkpt lat="49.21535" lon="-0.43377">
        <ele>114</ele>
        <time>2012-08-16T17:20:10Z</time>
      </trkpt>
      <trkpt lat="49.2153" lon="-0.43366">
        <ele>114</ele>
        <time>2012-08-16T17:20:12Z</time>
      </trkpt>
      <trkpt lat="49.21527" lon="-0.4336">
        <ele>113</ele>
        <time>2012-08-16T17:20:13Z</time>
      </trkpt>
      <trkpt lat="49.21521" lon="-0.43351">
        <ele>112</ele>
        <time>2012-08-16T17:20:15Z</time>
      </trkpt>
      <trkpt lat="49.21519" lon="-0.43345">
        <ele>112</ele>
        <time>2012-08-16T17:20:16Z</time>
      </trkpt>
      <trkpt lat="49.21514" lon="-0.43333">
        <ele>112</ele>
        <time>2012-08-16T17:20:18Z</time>
      </trkpt>
      <trkpt lat="49.21509" lon="-0.43323">
        <ele>113</ele>
        <time>2012-08-16T17:20:20Z</time>
      </trkpt>
      <trkpt lat="49.21505" lon="-0.43313">
        <ele>112</ele>
        <time>2012-08-16T17:20:22Z</time>
      </trkpt>
      <trkpt lat="49.21501" lon="-0.43302">
        <ele>112</ele>
        <time>2012-08-16T17:20:24Z</time>
      </trkpt>
      <trkpt lat="49.21499" lon="-0.43295">
        <ele>112</ele>
        <time>2012-08-16T17:20:25Z</time>
      </trkpt>
      <trkpt lat="49.21496" lon="-0.43288">
        <ele>113</ele>
        <time>2012-08-16T17:20:26Z</time>
      </trkpt>
      <trkpt lat="49.21492" lon="-0.43278">
        <ele>113</ele>
        <time>2012-08-16T17:20:28Z</time>
      </trkpt>
      <trkpt lat="49.21489" lon="-0.43266">
        <ele>114</ele>
        <time>2012-08-16T17:20:30Z</time>
      </trkpt>
      <trkpt lat="49.21484" lon="-0.43254">
        <ele>113</ele>
        <time>2012-08-16T17:20:32Z</time>
      </trkpt>
      <trkpt lat="49.21478" lon="-0.43241">
        <ele>113</ele>
        <time>2012-08-16T17:20:34Z</time>
      </trkpt>
      <trkpt lat="49.21476" lon="-0.43234">
        <ele>113</ele>
        <time>2012-08-16T17:20:35Z</time>
      </trkpt>
      <trkpt lat="49.21473" lon="-0.43228">
        <ele>114</ele>
        <time>2012-08-16T17:20:36Z</time>
      </trkpt>
      <trkpt lat="49.2147" lon="-0.43222">
        <ele>114</ele>
        <time>2012-08-16T17:20:37Z</time>
      </trkpt>
      <trkpt lat="49.21466" lon="-0.43208">
        <ele>114</ele>
        <time>2012-08-16T17:20:39Z</time>
      </trkpt>
      <trkpt lat="49.21461" lon="-0.432">
        <ele>113</ele>
        <time>2012-08-16T17:20:41Z</time>
      </trkpt>
      <trkpt lat="49.21458" lon="-0.43194">
        <ele>113</ele>
        <time>2012-08-16T17:20:42Z</time>
      </trkpt>
      <trkpt lat="49.21453" lon="-0.43182">
        <ele>112</ele>
        <time>2012-08-16T17:20:44Z</time>
      </trkpt>
      <trkpt lat="49.21448" lon="-0.43173">
        <ele>112</ele>
        <time>2012-08-16T17:20:46Z</time>
      </trkpt>
      <trkpt lat="49.21445" lon="-0.43167">
        <ele>112</ele>
        <time>2012-08-16T17:20:47Z</time>
      </trkpt>
      <trkpt lat="49.21442" lon="-0.43161">
        <ele>112</ele>
        <time>2012-08-16T17:20:48Z</time>
      </trkpt>
      <trkpt lat="49.21437" lon="-0.43152">
        <ele>112</ele>
        <time>2012-08-16T17:20:50Z</time>
      </trkpt>
      <trkpt lat="49.21434" lon="-0.43145">
        <ele>113</ele>
        <time>2012-08-16T17:20:51Z</time>
      </trkpt>
      <trkpt lat="49.2143" lon="-0.43136">
        <ele>113</ele>
        <time>2012-08-16T17:20:52Z</time>
      </trkpt>
      <trkpt lat="49.21426" lon="-0.43126">
        <ele>113</ele>
        <time>2012-08-16T17:20:53Z</time>
      </trkpt>
      <trkpt lat="49.21424" lon="-0.43119">
        <ele>113</ele>
        <time>2012-08-16T17:20:54Z</time>
      </trkpt>
      <trkpt lat="49.21421" lon="-0.43111">
        <ele>113</ele>
        <time>2012-08-16T17:20:55Z</time>
      </trkpt>
      <trkpt lat="49.21418" lon="-0.43105">
        <ele>113</ele>
        <time>2012-08-16T17:20:56Z</time>
      </trkpt>
      <trkpt lat="49.21415" lon="-0.43099">
        <ele>113</ele>
        <time>2012-08-16T17:20:57Z</time>
      </trkpt>
      <trkpt lat="49.21412" lon="-0.43093">
        <ele>113</ele>
        <time>2012-08-16T17:20:58Z</time>
      </trkpt>
      <trkpt lat="49.2141" lon="-0.43086">
        <ele>113</ele>
        <time>2012-08-16T17:20:59Z</time>
      </trkpt>
      <trkpt lat="49.21403" lon="-0.43075">
        <ele>113</ele>
        <time>2012-08-16T17:21:01Z</time>
      </trkpt>
      <trkpt lat="49.21401" lon="-0.43069">
        <ele>113</ele>
        <time>2012-08-16T17:21:02Z</time>
      </trkpt>
      <trkpt lat="49.21399" lon="-0.43062">
        <ele>113</ele>
        <time>2012-08-16T17:21:03Z</time>
      </trkpt>
      <trkpt lat="49.21396" lon="-0.43056">
        <ele>113</ele>
        <time>2012-08-16T17:21:04Z</time>
      </trkpt>
      <trkpt lat="49.21393" lon="-0.43049">
        <ele>113</ele>
        <time>2012-08-16T17:21:05Z</time>
      </trkpt>
      <trkpt lat="49.2139" lon="-0.43043">
        <ele>113</ele>
        <time>2012-08-16T17:21:06Z</time>
      </trkpt>
      <trkpt lat="49.21388" lon="-0.43036">
        <ele>113</ele>
        <time>2012-08-16T17:21:07Z</time>
      </trkpt>
      <trkpt lat="49.21382" lon="-0.43025">
        <ele>114</ele>
        <time>2012-08-16T17:21:09Z</time>
      </trkpt>
      <trkpt lat="49.2138" lon="-0.43018">
        <ele>114</ele>
        <time>2012-08-16T17:21:10Z</time>
      </trkpt>
      <trkpt lat="49.21377" lon="-0.43011">
        <ele>114</ele>
        <time>2012-08-16T17:21:11Z</time>
      </trkpt>
      <trkpt lat="49.21374" lon="-0.43005">
        <ele>114</ele>
        <time>2012-08-16T17:21:12Z</time>
      </trkpt>
      <trkpt lat="49.21372" lon="-0.42998">
        <ele>114</ele>
        <time>2012-08-16T17:21:13Z</time>
      </trkpt>
      <trkpt lat="49.21369" lon="-0.42992">
        <ele>114</ele>
        <time>2012-08-16T17:21:14Z</time>
      </trkpt>
      <trkpt lat="49.21366" lon="-0.42986">
        <ele>114</ele>
        <time>2012-08-16T17:21:15Z</time>
      </trkpt>
      <trkpt lat="49.21362" lon="-0.42975">
        <ele>113</ele>
        <time>2012-08-16T17:21:17Z</time>
      </trkpt>
      <trkpt lat="49.21359" lon="-0.42967">
        <ele>114</ele>
        <time>2012-08-16T17:21:18Z</time>
      </trkpt>
      <trkpt lat="49.21354" lon="-0.42956">
        <ele>113</ele>
        <time>2012-08-16T17:21:20Z</time>
      </trkpt>
      <trkpt lat="49.21348" lon="-0.42943">
        <ele>113</ele>
        <time>2012-08-16T17:21:22Z</time>
      </trkpt>
      <trkpt lat="49.21343" lon="-0.42933">
        <ele>113</ele>
        <time>2012-08-16T17:21:24Z</time>
      </trkpt>
      <trkpt lat="49.21338" lon="-0.42923">
        <ele>113</ele>
        <time>2012-08-16T17:21:26Z</time>
      </trkpt>
      <trkpt lat="49.21334" lon="-0.42911">
        <ele>113</ele>
        <time>2012-08-16T17:21:28Z</time>
      </trkpt>
      <trkpt lat="49.2133" lon="-0.429">
        <ele>113</ele>
        <time>2012-08-16T17:21:30Z</time>
      </trkpt>
      <trkpt lat="49.21327" lon="-0.42894">
        <ele>113</ele>
        <time>2012-08-16T17:21:31Z</time>
      </trkpt>
      <trkpt lat="49.21324" lon="-0.42883">
        <ele>114</ele>
        <time>2012-08-16T17:21:33Z</time>
      </trkpt>
      <trkpt lat="49.21319" lon="-0.42872">
        <ele>113</ele>
        <time>2012-08-16T17:21:35Z</time>
      </trkpt>
      <trkpt lat="49.21314" lon="-0.42861">
        <ele>114</ele>
        <time>2012-08-16T17:21:37Z</time>
      </trkpt>
      <trkpt lat="49.2131" lon="-0.42851">
        <ele>114</ele>
        <time>2012-08-16T17:21:39Z</time>
      </trkpt>
      <trkpt lat="49.21307" lon="-0.42839">
        <ele>116</ele>
        <time>2012-08-16T17:21:41Z</time>
      </trkpt>
      <trkpt lat="49.21304" lon="-0.42828">
        <ele>116</ele>
        <time>2012-08-16T17:21:43Z</time>
      </trkpt>
      <trkpt lat="49.213" lon="-0.42817">
        <ele>116</ele>
        <time>2012-08-16T17:21:45Z</time>
      </trkpt>
      <trkpt lat="49.21296" lon="-0.42808">
        <ele>117</ele>
        <time>2012-08-16T17:21:47Z</time>
      </trkpt>
      <trkpt lat="49.21293" lon="-0.42801">
        <ele>117</ele>
        <time>2012-08-16T17:21:48Z</time>
      </trkpt>
      <trkpt lat="49.21291" lon="-0.42795">
        <ele>117</ele>
        <time>2012-08-16T17:21:49Z</time>
      </trkpt>
      <trkpt lat="49.21287" lon="-0.42785">
        <ele>117</ele>
        <time>2012-08-16T17:21:51Z</time>
      </trkpt>
      <trkpt lat="49.21284" lon="-0.42779">
        <ele>117</ele>
        <time>2012-08-16T17:21:52Z</time>
      </trkpt>
      <trkpt lat="49.21278" lon="-0.42764">
        <ele>119</ele>
        <time>2012-08-16T17:21:55Z</time>
      </trkpt>
      <trkpt lat="49.21275" lon="-0.42754">
        <ele>119</ele>
        <time>2012-08-16T17:21:57Z</time>
      </trkpt>
      <trkpt lat="49.21272" lon="-0.42748">
        <ele>119</ele>
        <time>2012-08-16T17:21:58Z</time>
      </trkpt>
      <trkpt lat="49.21269" lon="-0.42742">
        <ele>118</ele>
        <time>2012-08-16T17:21:59Z</time>
      </trkpt>
      <trkpt lat="49.21264" lon="-0.42731">
        <ele>119</ele>
        <time>2012-08-16T17:22:01Z</time>
      </trkpt>
      <trkpt lat="49.21262" lon="-0.42725">
        <ele>119</ele>
        <time>2012-08-16T17:22:02Z</time>
      </trkpt>
      <trkpt lat="49.21258" lon="-0.42713">
        <ele>120</ele>
        <time>2012-08-16T17:22:04Z</time>
      </trkpt>
      <trkpt lat="49.21253" lon="-0.42705">
        <ele>119</ele>
        <time>2012-08-16T17:22:06Z</time>
      </trkpt>
      <trkpt lat="49.21248" lon="-0.42702">
        <ele>119</ele>
        <time>2012-08-16T17:22:07Z</time>
      </trkpt>
      <trkpt lat="49.21244" lon="-0.42701">
        <ele>119</ele>
        <time>2012-08-16T17:22:08Z</time>
      </trkpt>
      <trkpt lat="49.21239" lon="-0.427">
        <ele>119</ele>
        <time>2012-08-16T17:22:09Z</time>
      </trkpt>
      <trkpt lat="49.21234" lon="-0.42701">
        <ele>119</ele>
        <time>2012-08-16T17:22:10Z</time>
      </trkpt>
      <trkpt lat="49.21226" lon="-0.42705">
        <ele>119</ele>
        <time>2012-08-16T17:22:12Z</time>
      </trkpt>
      <trkpt lat="49.21218" lon="-0.4271">
        <ele>119</ele>
        <time>2012-08-16T17:22:14Z</time>
      </trkpt>
      <trkpt lat="49.2121" lon="-0.42713">
        <ele>119</ele>
        <time>2012-08-16T17:22:16Z</time>
      </trkpt>
      <trkpt lat="49.21201" lon="-0.42716">
        <ele>119</ele>
        <time>2012-08-16T17:22:18Z</time>
      </trkpt>
      <trkpt lat="49.21192" lon="-0.42715">
        <ele>118</ele>
        <time>2012-08-16T17:22:20Z</time>
      </trkpt>
      <trkpt lat="49.21186" lon="-0.42714">
        <ele>118</ele>
        <time>2012-08-16T17:22:21Z</time>
      </trkpt>
      <trkpt lat="49.21181" lon="-0.42712">
        <ele>118</ele>
        <time>2012-08-16T17:22:22Z</time>
      </trkpt>
      <trkpt lat="49.21176" lon="-0.42712">
        <ele>118</ele>
        <time>2012-08-16T17:22:23Z</time>
      </trkpt>
      <trkpt lat="49.21171" lon="-0.42712">
        <ele>118</ele>
        <time>2012-08-16T17:22:24Z</time>
      </trkpt>
      <trkpt lat="49.21166" lon="-0.42712">
        <ele>118</ele>
        <time>2012-08-16T17:22:25Z</time>
      </trkpt>
      <trkpt lat="49.21162" lon="-0.42713">
        <ele>118</ele>
        <time>2012-08-16T17:22:26Z</time>
      </trkpt>
      <trkpt lat="49.21157" lon="-0.42714">
        <ele>118</ele>
        <time>2012-08-16T17:22:27Z</time>
      </trkpt>
      <trkpt lat="49.21149" lon="-0.42718">
        <ele>118</ele>
        <time>2012-08-16T17:22:29Z</time>
      </trkpt>
      <trkpt lat="49.21145" lon="-0.42721">
        <ele>118</ele>
        <time>2012-08-16T17:22:30Z</time>
      </trkpt>
      <trkpt lat="49.21137" lon="-0.4273">
        <ele>118</ele>
        <time>2012-08-16T17:22:32Z</time>
      </trkpt>
      <trkpt lat="49.21129" lon="-0.42738">
        <ele>117</ele>
        <time>2012-08-16T17:22:34Z</time>
      </trkpt>
      <trkpt lat="49.21121" lon="-0.42745">
        <ele>117</ele>
        <time>2012-08-16T17:22:36Z</time>
      </trkpt>
      <trkpt lat="49.21117" lon="-0.42749">
        <ele>117</ele>
        <time>2012-08-16T17:22:37Z</time>
      </trkpt>
      <trkpt lat="49.21113" lon="-0.42752">
        <ele>117</ele>
        <time>2012-08-16T17:22:38Z</time>
      </trkpt>
      <trkpt lat="49.21108" lon="-0.42755">
        <ele>117</ele>
        <time>2012-08-16T17:22:39Z</time>
      </trkpt>
      <trkpt lat="49.21104" lon="-0.42758">
        <ele>117</ele>
        <time>2012-08-16T17:22:40Z</time>
      </trkpt>
      <trkpt lat="49.211" lon="-0.42762">
        <ele>117</ele>
        <time>2012-08-16T17:22:41Z</time>
      </trkpt>
      <trkpt lat="49.21095" lon="-0.42766">
        <ele>117</ele>
        <time>2012-08-16T17:22:42Z</time>
      </trkpt>
      <trkpt lat="49.21088" lon="-0.42772">
        <ele>117</ele>
        <time>2012-08-16T17:22:44Z</time>
      </trkpt>
      <trkpt lat="49.21083" lon="-0.42775">
        <ele>117</ele>
        <time>2012-08-16T17:22:45Z</time>
      </trkpt>
      <trkpt lat="49.21079" lon="-0.42778">
        <ele>116</ele>
        <time>2012-08-16T17:22:46Z</time>
      </trkpt>
      <trkpt lat="49.21071" lon="-0.42785">
        <ele>116</ele>
        <time>2012-08-16T17:22:48Z</time>
      </trkpt>
      <trkpt lat="49.21066" lon="-0.42788">
        <ele>116</ele>
        <time>2012-08-16T17:22:49Z</time>
      </trkpt>
      <trkpt lat="49.21062" lon="-0.42791">
        <ele>115</ele>
        <time>2012-08-16T17:22:50Z</time>
      </trkpt>
      <trkpt lat="49.21054" lon="-0.42798">
        <ele>115</ele>
        <time>2012-08-16T17:22:52Z</time>
      </trkpt>
      <trkpt lat="49.2105" lon="-0.42801">
        <ele>114</ele>
        <time>2012-08-16T17:22:53Z</time>
      </trkpt>
      <trkpt lat="49.21046" lon="-0.42804">
        <ele>114</ele>
        <time>2012-08-16T17:22:54Z</time>
      </trkpt>
      <trkpt lat="49.21041" lon="-0.42807">
        <ele>114</ele>
        <time>2012-08-16T17:22:55Z</time>
      </trkpt>
      <trkpt lat="49.21037" lon="-0.4281">
        <ele>113</ele>
        <time>2012-08-16T17:22:56Z</time>
      </trkpt>
      <trkpt lat="49.2103" lon="-0.42815">
        <ele>113</ele>
        <time>2012-08-16T17:22:58Z</time>
      </trkpt>
      <trkpt lat="49.21025" lon="-0.42819">
        <ele>113</ele>
        <time>2012-08-16T17:22:59Z</time>
      </trkpt>
      <trkpt lat="49.21017" lon="-0.42825">
        <ele>113</ele>
        <time>2012-08-16T17:23:01Z</time>
      </trkpt>
      <trkpt lat="49.2101" lon="-0.42831">
        <ele>113</ele>
        <time>2012-08-16T17:23:03Z</time>
      </trkpt>
      <trkpt lat="49.21002" lon="-0.42839">
        <ele>113</ele>
        <time>2012-08-16T17:23:05Z</time>
      </trkpt>
      <trkpt lat="49.20994" lon="-0.42845">
        <ele>112</ele>
        <time>2012-08-16T17:23:07Z</time>
      </trkpt>
      <trkpt lat="49.20986" lon="-0.42851">
        <ele>112</ele>
        <time>2012-08-16T17:23:09Z</time>
      </trkpt>
      <trkpt lat="49.20978" lon="-0.42857">
        <ele>113</ele>
        <time>2012-08-16T17:23:11Z</time>
      </trkpt>
      <trkpt lat="49.20974" lon="-0.4286">
        <ele>113</ele>
        <time>2012-08-16T17:23:12Z</time>
      </trkpt>
      <trkpt lat="49.20969" lon="-0.42863">
        <ele>113</ele>
        <time>2012-08-16T17:23:13Z</time>
      </trkpt>
      <trkpt lat="49.20961" lon="-0.42868">
        <ele>112</ele>
        <time>2012-08-16T17:23:15Z</time>
      </trkpt>
      <trkpt lat="49.20953" lon="-0.42874">
        <ele>113</ele>
        <time>2012-08-16T17:23:17Z</time>
      </trkpt>
      <trkpt lat="49.20949" lon="-0.42878">
        <ele>113</ele>
        <time>2012-08-16T17:23:18Z</time>
      </trkpt>
      <trkpt lat="49.20941" lon="-0.42883">
        <ele>113</ele>
        <time>2012-08-16T17:23:20Z</time>
      </trkpt>
      <trkpt lat="49.20933" lon="-0.42888">
        <ele>113</ele>
        <time>2012-08-16T17:23:22Z</time>
      </trkpt>
      <trkpt lat="49.20925" lon="-0.42896">
        <ele>113</ele>
        <time>2012-08-16T17:23:24Z</time>
      </trkpt>
      <trkpt lat="49.20917" lon="-0.42901">
        <ele>113</ele>
        <time>2012-08-16T17:23:26Z</time>
      </trkpt>
      <trkpt lat="49.20911" lon="-0.4291">
        <ele>112</ele>
        <time>2012-08-16T17:23:28Z</time>
      </trkpt>
      <trkpt lat="49.20909" lon="-0.42917">
        <ele>112</ele>
        <time>2012-08-16T17:23:29Z</time>
      </trkpt>
      <trkpt lat="49.20906" lon="-0.42923">
        <ele>112</ele>
        <time>2012-08-16T17:23:30Z</time>
      </trkpt>
      <trkpt lat="49.20904" lon="-0.42929">
        <ele>112</ele>
        <time>2012-08-16T17:23:31Z</time>
      </trkpt>
      <trkpt lat="49.209" lon="-0.42934">
        <ele>112</ele>
        <time>2012-08-16T17:23:32Z</time>
      </trkpt>
      <trkpt lat="49.20894" lon="-0.42935">
        <ele>111</ele>
        <time>2012-08-16T17:23:33Z</time>
      </trkpt>
      <trkpt lat="49.2089" lon="-0.42934">
        <ele>111</ele>
        <time>2012-08-16T17:23:34Z</time>
      </trkpt>
      <trkpt lat="49.2088" lon="-0.42936">
        <ele>111</ele>
        <time>2012-08-16T17:23:36Z</time>
      </trkpt>
      <trkpt lat="49.20875" lon="-0.42938">
        <ele>111</ele>
        <time>2012-08-16T17:23:37Z</time>
      </trkpt>
      <trkpt lat="49.20871" lon="-0.42941">
        <ele>111</ele>
        <time>2012-08-16T17:23:38Z</time>
      </trkpt>
      <trkpt lat="49.20863" lon="-0.42948">
        <ele>112</ele>
        <time>2012-08-16T17:23:40Z</time>
      </trkpt>
      <trkpt lat="49.20859" lon="-0.42952">
        <ele>112</ele>
        <time>2012-08-16T17:23:41Z</time>
      </trkpt>
      <trkpt lat="49.20855" lon="-0.42957">
        <ele>111</ele>
        <time>2012-08-16T17:23:42Z</time>
      </trkpt>
      <trkpt lat="49.2085" lon="-0.4296">
        <ele>112</ele>
        <time>2012-08-16T17:23:43Z</time>
      </trkpt>
      <trkpt lat="49.2084" lon="-0.42967">
        <ele>111</ele>
        <time>2012-08-16T17:23:45Z</time>
      </trkpt>
      <trkpt lat="49.20836" lon="-0.4297">
        <ele>111</ele>
        <time>2012-08-16T17:23:46Z</time>
      </trkpt>
      <trkpt lat="49.20831" lon="-0.42974">
        <ele>112</ele>
        <time>2012-08-16T17:23:47Z</time>
      </trkpt>
      <trkpt lat="49.20826" lon="-0.42978">
        <ele>111</ele>
        <time>2012-08-16T17:23:48Z</time>
      </trkpt>
      <trkpt lat="49.20821" lon="-0.42981">
        <ele>111</ele>
        <time>2012-08-16T17:23:49Z</time>
      </trkpt>
      <trkpt lat="49.20817" lon="-0.42986">
        <ele>110</ele>
        <time>2012-08-16T17:23:50Z</time>
      </trkpt>
      <trkpt lat="49.20812" lon="-0.42989">
        <ele>110</ele>
        <time>2012-08-16T17:23:51Z</time>
      </trkpt>
      <trkpt lat="49.20807" lon="-0.42992">
        <ele>111</ele>
        <time>2012-08-16T17:23:52Z</time>
      </trkpt>
      <trkpt lat="49.20803" lon="-0.42995">
        <ele>111</ele>
        <time>2012-08-16T17:23:53Z</time>
      </trkpt>
      <trkpt lat="49.20798" lon="-0.42999">
        <ele>111</ele>
        <time>2012-08-16T17:23:54Z</time>
      </trkpt>
      <trkpt lat="49.20794" lon="-0.43002">
        <ele>111</ele>
        <time>2012-08-16T17:23:55Z</time>
      </trkpt>
      <trkpt lat="49.20785" lon="-0.43009">
        <ele>111</ele>
        <time>2012-08-16T17:23:57Z</time>
      </trkpt>
      <trkpt lat="49.20781" lon="-0.43012">
        <ele>110</ele>
        <time>2012-08-16T17:23:58Z</time>
      </trkpt>
      <trkpt lat="49.20777" lon="-0.43016">
        <ele>110</ele>
        <time>2012-08-16T17:23:59Z</time>
      </trkpt>
      <trkpt lat="49.20773" lon="-0.43019">
        <ele>110</ele>
        <time>2012-08-16T17:24:00Z</time>
      </trkpt>
      <trkpt lat="49.20768" lon="-0.43022">
        <ele>111</ele>
        <time>2012-08-16T17:24:01Z</time>
      </trkpt>
      <trkpt lat="49.20764" lon="-0.43026">
        <ele>111</ele>
        <time>2012-08-16T17:24:02Z</time>
      </trkpt>
      <trkpt lat="49.2076" lon="-0.4303">
        <ele>111</ele>
        <time>2012-08-16T17:24:03Z</time>
      </trkpt>
      <trkpt lat="49.20755" lon="-0.43034">
        <ele>111</ele>
        <time>2012-08-16T17:24:04Z</time>
      </trkpt>
      <trkpt lat="49.2075" lon="-0.43038">
        <ele>111</ele>
        <time>2012-08-16T17:24:05Z</time>
      </trkpt>
      <trkpt lat="49.20746" lon="-0.43041">
        <ele>111</ele>
        <time>2012-08-16T17:24:06Z</time>
      </trkpt>
      <trkpt lat="49.20742" lon="-0.43046">
        <ele>111</ele>
        <time>2012-08-16T17:24:07Z</time>
      </trkpt>
      <trkpt lat="49.20737" lon="-0.43051">
        <ele>111</ele>
        <time>2012-08-16T17:24:08Z</time>
      </trkpt>
      <trkpt lat="49.20732" lon="-0.43056">
        <ele>111</ele>
        <time>2012-08-16T17:24:09Z</time>
      </trkpt>
      <trkpt lat="49.20728" lon="-0.4306">
        <ele>112</ele>
        <time>2012-08-16T17:24:10Z</time>
      </trkpt>
      <trkpt lat="49.20723" lon="-0.43062">
        <ele>112</ele>
        <time>2012-08-16T17:24:11Z</time>
      </trkpt>
      <trkpt lat="49.20719" lon="-0.43067">
        <ele>112</ele>
        <time>2012-08-16T17:24:12Z</time>
      </trkpt>
      <trkpt lat="49.20715" lon="-0.43071">
        <ele>112</ele>
        <time>2012-08-16T17:24:13Z</time>
      </trkpt>
      <trkpt lat="49.20711" lon="-0.43076">
        <ele>112</ele>
        <time>2012-08-16T17:24:14Z</time>
      </trkpt>
      <trkpt lat="49.20703" lon="-0.43085">
        <ele>111</ele>
        <time>2012-08-16T17:24:16Z</time>
      </trkpt>
      <trkpt lat="49.20698" lon="-0.4309">
        <ele>111</ele>
        <time>2012-08-16T17:24:17Z</time>
      </trkpt>
      <trkpt lat="49.20695" lon="-0.43094">
        <ele>111</ele>
        <time>2012-08-16T17:24:18Z</time>
      </trkpt>
      <trkpt lat="49.2069" lon="-0.43098">
        <ele>112</ele>
        <time>2012-08-16T17:24:19Z</time>
      </trkpt>
      <trkpt lat="49.20684" lon="-0.43106">
        <ele>112</ele>
        <time>2012-08-16T17:24:21Z</time>
      </trkpt>
      <trkpt lat="49.20678" lon="-0.43112">
        <ele>112</ele>
        <time>2012-08-16T17:24:23Z</time>
      </trkpt>
      <trkpt lat="49.20672" lon="-0.43119">
        <ele>112</ele>
        <time>2012-08-16T17:24:25Z</time>
      </trkpt>
      <trkpt lat="49.20666" lon="-0.43125">
        <ele>112</ele>
        <time>2012-08-16T17:24:27Z</time>
      </trkpt>
      <trkpt lat="49.20662" lon="-0.43128">
        <ele>113</ele>
        <time>2012-08-16T17:24:29Z</time>
      </trkpt>
      <trkpt lat="49.20656" lon="-0.43129">
        <ele>113</ele>
        <time>2012-08-16T17:24:32Z</time>
      </trkpt>
      <trkpt lat="49.20652" lon="-0.43122">
        <ele>112</ele>
        <time>2012-08-16T17:24:34Z</time>
      </trkpt>
      <trkpt lat="49.20651" lon="-0.43112">
        <ele>114</ele>
        <time>2012-08-16T17:24:36Z</time>
      </trkpt>
      <trkpt lat="49.2065" lon="-0.43102">
        <ele>115</ele>
        <time>2012-08-16T17:24:38Z</time>
      </trkpt>
      <trkpt lat="49.20648" lon="-0.43091">
        <ele>115</ele>
        <time>2012-08-16T17:24:40Z</time>
      </trkpt>
      <trkpt lat="49.20645" lon="-0.4308">
        <ele>115</ele>
        <time>2012-08-16T17:24:42Z</time>
      </trkpt>
      <trkpt lat="49.20643" lon="-0.43068">
        <ele>115</ele>
        <time>2012-08-16T17:24:44Z</time>
      </trkpt>
      <trkpt lat="49.20641" lon="-0.43057">
        <ele>115</ele>
        <time>2012-08-16T17:24:46Z</time>
      </trkpt>
      <trkpt lat="49.20638" lon="-0.43046">
        <ele>115</ele>
        <time>2012-08-16T17:24:48Z</time>
      </trkpt>
      <trkpt lat="49.20636" lon="-0.43036">
        <ele>116</ele>
        <time>2012-08-16T17:24:50Z</time>
      </trkpt>
      <trkpt lat="49.20633" lon="-0.43025">
        <ele>116</ele>
        <time>2012-08-16T17:24:52Z</time>
      </trkpt>
      <trkpt lat="49.20632" lon="-0.43014">
        <ele>116</ele>
        <time>2012-08-16T17:24:54Z</time>
      </trkpt>
      <trkpt lat="49.20628" lon="-0.43004">
        <ele>117</ele>
        <time>2012-08-16T17:24:56Z</time>
      </trkpt>
      <trkpt lat="49.20624" lon="-0.42992">
        <ele>117</ele>
        <time>2012-08-16T17:24:58Z</time>
      </trkpt>
      <trkpt lat="49.20621" lon="-0.42981">
        <ele>117</ele>
        <time>2012-08-16T17:25:00Z</time>
      </trkpt>
      <trkpt lat="49.20618" lon="-0.4297">
        <ele>116</ele>
        <time>2012-08-16T17:25:02Z</time>
      </trkpt>
      <trkpt lat="49.20616" lon="-0.42964">
        <ele>117</ele>
        <time>2012-08-16T17:25:03Z</time>
      </trkpt>
      <trkpt lat="49.20613" lon="-0.42952">
        <ele>117</ele>
        <time>2012-08-16T17:25:05Z</time>
      </trkpt>
      <trkpt lat="49.2061" lon="-0.42941">
        <ele>118</ele>
        <time>2012-08-16T17:25:07Z</time>
      </trkpt>
      <trkpt lat="49.20608" lon="-0.4293">
        <ele>119</ele>
        <time>2012-08-16T17:25:09Z</time>
      </trkpt>
      <trkpt lat="49.20605" lon="-0.42918">
        <ele>120</ele>
        <time>2012-08-16T17:25:11Z</time>
      </trkpt>
      <trkpt lat="49.20602" lon="-0.42907">
        <ele>119</ele>
        <time>2012-08-16T17:25:13Z</time>
      </trkpt>
      <trkpt lat="49.206" lon="-0.42896">
        <ele>119</ele>
        <time>2012-08-16T17:25:15Z</time>
      </trkpt>
      <trkpt lat="49.20595" lon="-0.42886">
        <ele>118</ele>
        <time>2012-08-16T17:25:17Z</time>
      </trkpt>
      <trkpt lat="49.20591" lon="-0.42876">
        <ele>119</ele>
        <time>2012-08-16T17:25:19Z</time>
      </trkpt>
      <trkpt lat="49.20588" lon="-0.42866">
        <ele>119</ele>
        <time>2012-08-16T17:25:21Z</time>
      </trkpt>
      <trkpt lat="49.20585" lon="-0.42856">
        <ele>119</ele>
        <time>2012-08-16T17:25:23Z</time>
      </trkpt>
      <trkpt lat="49.20583" lon="-0.42846">
        <ele>119</ele>
        <time>2012-08-16T17:25:25Z</time>
      </trkpt>
      <trkpt lat="49.2058" lon="-0.42835">
        <ele>119</ele>
        <time>2012-08-16T17:25:27Z</time>
      </trkpt>
      <trkpt lat="49.20578" lon="-0.42826">
        <ele>119</ele>
        <time>2012-08-16T17:25:29Z</time>
      </trkpt>
      <trkpt lat="49.20575" lon="-0.42814">
        <ele>118</ele>
        <time>2012-08-16T17:25:31Z</time>
      </trkpt>
      <trkpt lat="49.20572" lon="-0.42804">
        <ele>118</ele>
        <time>2012-08-16T17:25:33Z</time>
      </trkpt>
      <trkpt lat="49.20572" lon="-0.42792">
        <ele>118</ele>
        <time>2012-08-16T17:25:35Z</time>
      </trkpt>
      <trkpt lat="49.2057" lon="-0.42782">
        <ele>119</ele>
        <time>2012-08-16T17:25:37Z</time>
      </trkpt>
      <trkpt lat="49.20567" lon="-0.42774">
        <ele>119</ele>
        <time>2012-08-16T17:25:39Z</time>
      </trkpt>
      <trkpt lat="49.20562" lon="-0.42766">
        <ele>120</ele>
        <time>2012-08-16T17:25:41Z</time>
      </trkpt>
      <trkpt lat="49.20561" lon="-0.42754">
        <ele>120</ele>
        <time>2012-08-16T17:25:43Z</time>
      </trkpt>
      <trkpt lat="49.2056" lon="-0.42742">
        <ele>120</ele>
        <time>2012-08-16T17:25:45Z</time>
      </trkpt>
      <trkpt lat="49.20558" lon="-0.42729">
        <ele>121</ele>
        <time>2012-08-16T17:25:47Z</time>
      </trkpt>
      <trkpt lat="49.20554" lon="-0.42721">
        <ele>122</ele>
        <time>2012-08-16T17:25:49Z</time>
      </trkpt>
      <trkpt lat="49.20549" lon="-0.42713">
        <ele>122</ele>
        <time>2012-08-16T17:25:51Z</time>
      </trkpt>
      <trkpt lat="49.20544" lon="-0.42704">
        <ele>122</ele>
        <time>2012-08-16T17:25:53Z</time>
      </trkpt>
      <trkpt lat="49.20539" lon="-0.42696">
        <ele>122</ele>
        <time>2012-08-16T17:25:55Z</time>
      </trkpt>
      <trkpt lat="49.20536" lon="-0.42685">
        <ele>122</ele>
        <time>2012-08-16T17:25:57Z</time>
      </trkpt>
      <trkpt lat="49.20534" lon="-0.42674">
        <ele>122</ele>
        <time>2012-08-16T17:25:59Z</time>
      </trkpt>
      <trkpt lat="49.20531" lon="-0.42663">
        <ele>122</ele>
        <time>2012-08-16T17:26:01Z</time>
      </trkpt>
      <trkpt lat="49.20529" lon="-0.42652">
        <ele>123</ele>
        <time>2012-08-16T17:26:03Z</time>
      </trkpt>
      <trkpt lat="49.20525" lon="-0.42641">
        <ele>123</ele>
        <time>2012-08-16T17:26:05Z</time>
      </trkpt>
      <trkpt lat="49.20522" lon="-0.42632">
        <ele>123</ele>
        <time>2012-08-16T17:26:07Z</time>
      </trkpt>
      <trkpt lat="49.20517" lon="-0.42622">
        <ele>124</ele>
        <time>2012-08-16T17:26:09Z</time>
      </trkpt>
      <trkpt lat="49.20513" lon="-0.42611">
        <ele>123</ele>
        <time>2012-08-16T17:26:11Z</time>
      </trkpt>
      <trkpt lat="49.20509" lon="-0.42601">
        <ele>124</ele>
        <time>2012-08-16T17:26:13Z</time>
      </trkpt>
      <trkpt lat="49.20505" lon="-0.42591">
        <ele>124</ele>
        <time>2012-08-16T17:26:15Z</time>
      </trkpt>
      <trkpt lat="49.20502" lon="-0.42582">
        <ele>124</ele>
        <time>2012-08-16T17:26:17Z</time>
      </trkpt>
      <trkpt lat="49.20498" lon="-0.42571">
        <ele>124</ele>
        <time>2012-08-16T17:26:19Z</time>
      </trkpt>
      <trkpt lat="49.20494" lon="-0.42561">
        <ele>124</ele>
        <time>2012-08-16T17:26:21Z</time>
      </trkpt>
      <trkpt lat="49.20489" lon="-0.4255">
        <ele>124</ele>
        <time>2012-08-16T17:26:23Z</time>
      </trkpt>
      <trkpt lat="49.20485" lon="-0.42541">
        <ele>124</ele>
        <time>2012-08-16T17:26:25Z</time>
      </trkpt>
      <trkpt lat="49.20482" lon="-0.42535">
        <ele>124</ele>
        <time>2012-08-16T17:26:26Z</time>
      </trkpt>
      <trkpt lat="49.20478" lon="-0.42523">
        <ele>123</ele>
        <time>2012-08-16T17:26:28Z</time>
      </trkpt>
      <trkpt lat="49.20476" lon="-0.42516">
        <ele>123</ele>
        <time>2012-08-16T17:26:29Z</time>
      </trkpt>
      <trkpt lat="49.20473" lon="-0.42508">
        <ele>124</ele>
        <time>2012-08-16T17:26:31Z</time>
      </trkpt>
      <trkpt lat="49.20468" lon="-0.42497">
        <ele>123</ele>
        <time>2012-08-16T17:26:33Z</time>
      </trkpt>
      <trkpt lat="49.20465" lon="-0.42487">
        <ele>124</ele>
        <time>2012-08-16T17:26:35Z</time>
      </trkpt>
      <trkpt lat="49.20461" lon="-0.42475">
        <ele>123</ele>
        <time>2012-08-16T17:26:37Z</time>
      </trkpt>
      <trkpt lat="49.20457" lon="-0.42464">
        <ele>123</ele>
        <time>2012-08-16T17:26:39Z</time>
      </trkpt>
      <trkpt lat="49.20453" lon="-0.42451">
        <ele>123</ele>
        <time>2012-08-16T17:26:41Z</time>
      </trkpt>
      <trkpt lat="49.2045" lon="-0.42444">
        <ele>123</ele>
        <time>2012-08-16T17:26:43Z</time>
      </trkpt>
      <trkpt lat="49.20446" lon="-0.42433">
        <ele>124</ele>
        <time>2012-08-16T17:26:45Z</time>
      </trkpt>
      <trkpt lat="49.20442" lon="-0.42424">
        <ele>124</ele>
        <time>2012-08-16T17:26:47Z</time>
      </trkpt>
      <trkpt lat="49.20437" lon="-0.42414">
        <ele>124</ele>
        <time>2012-08-16T17:26:49Z</time>
      </trkpt>
      <trkpt lat="49.20434" lon="-0.42404">
        <ele>124</ele>
        <time>2012-08-16T17:26:51Z</time>
      </trkpt>
      <trkpt lat="49.20431" lon="-0.42397">
        <ele>124</ele>
        <time>2012-08-16T17:26:52Z</time>
      </trkpt>
      <trkpt lat="49.20429" lon="-0.4239">
        <ele>124</ele>
        <time>2012-08-16T17:26:53Z</time>
      </trkpt>
      <trkpt lat="49.20426" lon="-0.4238">
        <ele>124</ele>
        <time>2012-08-16T17:26:55Z</time>
      </trkpt>
      <trkpt lat="49.20421" lon="-0.42369">
        <ele>124</ele>
        <time>2012-08-16T17:26:57Z</time>
      </trkpt>
      <trkpt lat="49.20417" lon="-0.42359">
        <ele>124</ele>
        <time>2012-08-16T17:26:59Z</time>
      </trkpt>
      <trkpt lat="49.20414" lon="-0.42352">
        <ele>124</ele>
        <time>2012-08-16T17:27:01Z</time>
      </trkpt>
      <trkpt lat="49.20411" lon="-0.42345">
        <ele>124</ele>
        <time>2012-08-16T17:27:02Z</time>
      </trkpt>
      <trkpt lat="49.20409" lon="-0.42339">
        <ele>124</ele>
        <time>2012-08-16T17:27:03Z</time>
      </trkpt>
      <trkpt lat="49.20405" lon="-0.42328">
        <ele>124</ele>
        <time>2012-08-16T17:27:05Z</time>
      </trkpt>
      <trkpt lat="49.20401" lon="-0.42318">
        <ele>124</ele>
        <time>2012-08-16T17:27:07Z</time>
      </trkpt>
      <trkpt lat="49.20398" lon="-0.42309">
        <ele>124</ele>
        <time>2012-08-16T17:27:09Z</time>
      </trkpt>
      <trkpt lat="49.20393" lon="-0.42299">
        <ele>124</ele>
        <time>2012-08-16T17:27:11Z</time>
      </trkpt>
      <trkpt lat="49.20382" lon="-0.42259">
        <ele>124</ele>
        <time>2012-08-16T17:27:17Z</time>
      </trkpt>
      <trkpt lat="49.20377" lon="-0.42248">
        <ele>125</ele>
        <time>2012-08-16T17:27:19Z</time>
      </trkpt>
      <trkpt lat="49.20374" lon="-0.42242">
        <ele>124</ele>
        <time>2012-08-16T17:27:20Z</time>
      </trkpt>
      <trkpt lat="49.20372" lon="-0.42235">
        <ele>124</ele>
        <time>2012-08-16T17:27:21Z</time>
      </trkpt>
      <trkpt lat="49.2037" lon="-0.42229">
        <ele>124</ele>
        <time>2012-08-16T17:27:22Z</time>
      </trkpt>
      <trkpt lat="49.20366" lon="-0.4222">
        <ele>124</ele>
        <time>2012-08-16T17:27:24Z</time>
      </trkpt>
      <trkpt lat="49.20362" lon="-0.42207">
        <ele>124</ele>
        <time>2012-08-16T17:27:26Z</time>
      </trkpt>
      <trkpt lat="49.20357" lon="-0.42196">
        <ele>123</ele>
        <time>2012-08-16T17:27:28Z</time>
      </trkpt>
      <trkpt lat="49.20353" lon="-0.42187">
        <ele>123</ele>
        <time>2012-08-16T17:27:30Z</time>
      </trkpt>
      <trkpt lat="49.20348" lon="-0.42175">
        <ele>123</ele>
        <time>2012-08-16T17:27:32Z</time>
      </trkpt>
      <trkpt lat="49.20344" lon="-0.42164">
        <ele>123</ele>
        <time>2012-08-16T17:27:34Z</time>
      </trkpt>
      <trkpt lat="49.2034" lon="-0.42151">
        <ele>123</ele>
        <time>2012-08-16T17:27:36Z</time>
      </trkpt>
      <trkpt lat="49.20337" lon="-0.42142">
        <ele>123</ele>
        <time>2012-08-16T17:27:37Z</time>
      </trkpt>
      <trkpt lat="49.20334" lon="-0.42136">
        <ele>123</ele>
        <time>2012-08-16T17:27:38Z</time>
      </trkpt>
      <trkpt lat="49.20332" lon="-0.4213">
        <ele>123</ele>
        <time>2012-08-16T17:27:39Z</time>
      </trkpt>
      <trkpt lat="49.20327" lon="-0.42118">
        <ele>123</ele>
        <time>2012-08-16T17:27:41Z</time>
      </trkpt>
      <trkpt lat="49.20326" lon="-0.42111">
        <ele>123</ele>
        <time>2012-08-16T17:27:42Z</time>
      </trkpt>
      <trkpt lat="49.20321" lon="-0.42098">
        <ele>123</ele>
        <time>2012-08-16T17:27:44Z</time>
      </trkpt>
      <trkpt lat="49.20317" lon="-0.42085">
        <ele>124</ele>
        <time>2012-08-16T17:27:46Z</time>
      </trkpt>
      <trkpt lat="49.20312" lon="-0.42074">
        <ele>124</ele>
        <time>2012-08-16T17:27:48Z</time>
      </trkpt>
      <trkpt lat="49.20309" lon="-0.42068">
        <ele>123</ele>
        <time>2012-08-16T17:27:49Z</time>
      </trkpt>
      <trkpt lat="49.20307" lon="-0.42061">
        <ele>123</ele>
        <time>2012-08-16T17:27:50Z</time>
      </trkpt>
      <trkpt lat="49.20304" lon="-0.42055">
        <ele>123</ele>
        <time>2012-08-16T17:27:51Z</time>
      </trkpt>
      <trkpt lat="49.20302" lon="-0.42048">
        <ele>123</ele>
        <time>2012-08-16T17:27:52Z</time>
      </trkpt>
      <trkpt lat="49.20297" lon="-0.42036">
        <ele>123</ele>
        <time>2012-08-16T17:27:54Z</time>
      </trkpt>
      <trkpt lat="49.20292" lon="-0.42024">
        <ele>123</ele>
        <time>2012-08-16T17:27:56Z</time>
      </trkpt>
      <trkpt lat="49.2029" lon="-0.42016">
        <ele>123</ele>
        <time>2012-08-16T17:27:57Z</time>
      </trkpt>
      <trkpt lat="49.20288" lon="-0.42008">
        <ele>123</ele>
        <time>2012-08-16T17:27:58Z</time>
      </trkpt>
      <trkpt lat="49.20283" lon="-0.41995">
        <ele>123</ele>
        <time>2012-08-16T17:28:00Z</time>
      </trkpt>
      <trkpt lat="49.20281" lon="-0.41988">
        <ele>123</ele>
        <time>2012-08-16T17:28:01Z</time>
      </trkpt>
      <trkpt lat="49.20279" lon="-0.41982">
        <ele>123</ele>
        <time>2012-08-16T17:28:02Z</time>
      </trkpt>
      <trkpt lat="49.20277" lon="-0.41975">
        <ele>123</ele>
        <time>2012-08-16T17:28:03Z</time>
      </trkpt>
      <trkpt lat="49.20274" lon="-0.4197">
        <ele>123</ele>
        <time>2012-08-16T17:28:04Z</time>
      </trkpt>
      <trkpt lat="49.20272" lon="-0.41963">
        <ele>123</ele>
        <time>2012-08-16T17:28:05Z</time>
      </trkpt>
      <trkpt lat="49.20269" lon="-0.41956">
        <ele>123</ele>
        <time>2012-08-16T17:28:06Z</time>
      </trkpt>
      <trkpt lat="49.20266" lon="-0.41949">
        <ele>123</ele>
        <time>2012-08-16T17:28:07Z</time>
      </trkpt>
      <trkpt lat="49.20262" lon="-0.41938">
        <ele>123</ele>
        <time>2012-08-16T17:28:09Z</time>
      </trkpt>
      <trkpt lat="49.20253" lon="-0.41916">
        <ele>124</ele>
        <time>2012-08-16T17:28:13Z</time>
      </trkpt>
      <trkpt lat="49.20251" lon="-0.4191">
        <ele>124</ele>
        <time>2012-08-16T17:28:14Z</time>
      </trkpt>
      <trkpt lat="49.20244" lon="-0.41902">
        <ele>124</ele>
        <time>2012-08-16T17:28:16Z</time>
      </trkpt>
      <trkpt lat="49.20242" lon="-0.41897">
        <ele>124</ele>
        <time>2012-08-16T17:28:17Z</time>
      </trkpt>
      <trkpt lat="49.20236" lon="-0.4189">
        <ele>124</ele>
        <time>2012-08-16T17:28:19Z</time>
      </trkpt>
      <trkpt lat="49.20231" lon="-0.41879">
        <ele>125</ele>
        <time>2012-08-16T17:28:21Z</time>
      </trkpt>
      <trkpt lat="49.20229" lon="-0.41872">
        <ele>125</ele>
        <time>2012-08-16T17:28:22Z</time>
      </trkpt>
      <trkpt lat="49.20227" lon="-0.41866">
        <ele>125</ele>
        <time>2012-08-16T17:28:23Z</time>
      </trkpt>
      <trkpt lat="49.20222" lon="-0.41855">
        <ele>125</ele>
        <time>2012-08-16T17:28:25Z</time>
      </trkpt>
      <trkpt lat="49.20217" lon="-0.41842">
        <ele>126</ele>
        <time>2012-08-16T17:28:27Z</time>
      </trkpt>
      <trkpt lat="49.20212" lon="-0.41832">
        <ele>125</ele>
        <time>2012-08-16T17:28:29Z</time>
      </trkpt>
      <trkpt lat="49.20208" lon="-0.41821">
        <ele>125</ele>
        <time>2012-08-16T17:28:31Z</time>
      </trkpt>
      <trkpt lat="49.20204" lon="-0.41815">
        <ele>125</ele>
        <time>2012-08-16T17:28:32Z</time>
      </trkpt>
      <trkpt lat="49.20199" lon="-0.41803">
        <ele>125</ele>
        <time>2012-08-16T17:28:34Z</time>
      </trkpt>
      <trkpt lat="49.20196" lon="-0.41797">
        <ele>125</ele>
        <time>2012-08-16T17:28:35Z</time>
      </trkpt>
      <trkpt lat="49.20194" lon="-0.41791">
        <ele>125</ele>
        <time>2012-08-16T17:28:36Z</time>
      </trkpt>
      <trkpt lat="49.2019" lon="-0.41785">
        <ele>125</ele>
        <time>2012-08-16T17:28:37Z</time>
      </trkpt>
      <trkpt lat="49.20186" lon="-0.41773">
        <ele>125</ele>
        <time>2012-08-16T17:28:39Z</time>
      </trkpt>
      <trkpt lat="49.20182" lon="-0.41764">
        <ele>126</ele>
        <time>2012-08-16T17:28:41Z</time>
      </trkpt>
      <trkpt lat="49.20177" lon="-0.41753">
        <ele>126</ele>
        <time>2012-08-16T17:28:43Z</time>
      </trkpt>
      <trkpt lat="49.20171" lon="-0.41744">
        <ele>126</ele>
        <time>2012-08-16T17:28:45Z</time>
      </trkpt>
      <trkpt lat="49.20166" lon="-0.41734">
        <ele>127</ele>
        <time>2012-08-16T17:28:47Z</time>
      </trkpt>
      <trkpt lat="49.20164" lon="-0.41728">
        <ele>127</ele>
        <time>2012-08-16T17:28:48Z</time>
      </trkpt>
      <trkpt lat="49.20159" lon="-0.41717">
        <ele>127</ele>
        <time>2012-08-16T17:28:50Z</time>
      </trkpt>
      <trkpt lat="49.20156" lon="-0.41711">
        <ele>127</ele>
        <time>2012-08-16T17:28:51Z</time>
      </trkpt>
      <trkpt lat="49.20153" lon="-0.41705">
        <ele>127</ele>
        <time>2012-08-16T17:28:52Z</time>
      </trkpt>
      <trkpt lat="49.20147" lon="-0.41694">
        <ele>127</ele>
        <time>2012-08-16T17:28:54Z</time>
      </trkpt>
      <trkpt lat="49.20142" lon="-0.41685">
        <ele>128</ele>
        <time>2012-08-16T17:28:56Z</time>
      </trkpt>
      <trkpt lat="49.2014" lon="-0.41679">
        <ele>128</ele>
        <time>2012-08-16T17:28:57Z</time>
      </trkpt>
      <trkpt lat="49.20134" lon="-0.4167">
        <ele>129</ele>
        <time>2012-08-16T17:28:59Z</time>
      </trkpt>
      <trkpt lat="49.20129" lon="-0.41661">
        <ele>128</ele>
        <time>2012-08-16T17:29:01Z</time>
      </trkpt>
      <trkpt lat="49.20124" lon="-0.41651">
        <ele>128</ele>
        <time>2012-08-16T17:29:03Z</time>
      </trkpt>
      <trkpt lat="49.20121" lon="-0.41644">
        <ele>128</ele>
        <time>2012-08-16T17:29:05Z</time>
      </trkpt>
      <trkpt lat="49.20116" lon="-0.41635">
        <ele>128</ele>
        <time>2012-08-16T17:29:07Z</time>
      </trkpt>
      <trkpt lat="49.20112" lon="-0.41626">
        <ele>127</ele>
        <time>2012-08-16T17:29:09Z</time>
      </trkpt>
      <trkpt lat="49.20107" lon="-0.41617">
        <ele>128</ele>
        <time>2012-08-16T17:29:11Z</time>
      </trkpt>
      <trkpt lat="49.20102" lon="-0.41604">
        <ele>128</ele>
        <time>2012-08-16T17:29:13Z</time>
      </trkpt>
      <trkpt lat="49.20099" lon="-0.41597">
        <ele>128</ele>
        <time>2012-08-16T17:29:14Z</time>
      </trkpt>
      <trkpt lat="49.20094" lon="-0.41586">
        <ele>128</ele>
        <time>2012-08-16T17:29:16Z</time>
      </trkpt>
      <trkpt lat="49.20089" lon="-0.41573">
        <ele>128</ele>
        <time>2012-08-16T17:29:18Z</time>
      </trkpt>
      <trkpt lat="49.20086" lon="-0.41566">
        <ele>128</ele>
        <time>2012-08-16T17:29:19Z</time>
      </trkpt>
      <trkpt lat="49.20084" lon="-0.41559">
        <ele>128</ele>
        <time>2012-08-16T17:29:20Z</time>
      </trkpt>
      <trkpt lat="49.20078" lon="-0.41548">
        <ele>128</ele>
        <time>2012-08-16T17:29:22Z</time>
      </trkpt>
      <trkpt lat="49.20076" lon="-0.41542">
        <ele>127</ele>
        <time>2012-08-16T17:29:23Z</time>
      </trkpt>
      <trkpt lat="49.20072" lon="-0.41536">
        <ele>127</ele>
        <time>2012-08-16T17:29:24Z</time>
      </trkpt>
      <trkpt lat="49.20067" lon="-0.41525">
        <ele>127</ele>
        <time>2012-08-16T17:29:26Z</time>
      </trkpt>
      <trkpt lat="49.20062" lon="-0.41515">
        <ele>127</ele>
        <time>2012-08-16T17:29:28Z</time>
      </trkpt>
      <trkpt lat="49.20057" lon="-0.41506">
        <ele>126</ele>
        <time>2012-08-16T17:29:30Z</time>
      </trkpt>
      <trkpt lat="49.20055" lon="-0.415">
        <ele>126</ele>
        <time>2012-08-16T17:29:31Z</time>
      </trkpt>
      <trkpt lat="49.20049" lon="-0.41489">
        <ele>126</ele>
        <time>2012-08-16T17:29:33Z</time>
      </trkpt>
      <trkpt lat="49.20044" lon="-0.41478">
        <ele>126</ele>
        <time>2012-08-16T17:29:35Z</time>
      </trkpt>
      <trkpt lat="49.20041" lon="-0.41471">
        <ele>126</ele>
        <time>2012-08-16T17:29:36Z</time>
      </trkpt>
      <trkpt lat="49.20038" lon="-0.41465">
        <ele>126</ele>
        <time>2012-08-16T17:29:37Z</time>
      </trkpt>
      <trkpt lat="49.20035" lon="-0.41459">
        <ele>126</ele>
        <time>2012-08-16T17:29:38Z</time>
      </trkpt>
      <trkpt lat="49.20031" lon="-0.41452">
        <ele>126</ele>
        <time>2012-08-16T17:29:39Z</time>
      </trkpt>
      <trkpt lat="49.20028" lon="-0.41445">
        <ele>126</ele>
        <time>2012-08-16T17:29:40Z</time>
      </trkpt>
      <trkpt lat="49.20026" lon="-0.41438">
        <ele>126</ele>
        <time>2012-08-16T17:29:41Z</time>
      </trkpt>
      <trkpt lat="49.20023" lon="-0.41431">
        <ele>126</ele>
        <time>2012-08-16T17:29:42Z</time>
      </trkpt>
      <trkpt lat="49.20019" lon="-0.41423">
        <ele>126</ele>
        <time>2012-08-16T17:29:43Z</time>
      </trkpt>
      <trkpt lat="49.20017" lon="-0.41417">
        <ele>126</ele>
        <time>2012-08-16T17:29:44Z</time>
      </trkpt>
      <trkpt lat="49.20014" lon="-0.41411">
        <ele>126</ele>
        <time>2012-08-16T17:29:45Z</time>
      </trkpt>
      <trkpt lat="49.20008" lon="-0.41399">
        <ele>126</ele>
        <time>2012-08-16T17:29:47Z</time>
      </trkpt>
      <trkpt lat="49.20005" lon="-0.41392">
        <ele>125</ele>
        <time>2012-08-16T17:29:48Z</time>
      </trkpt>
      <trkpt lat="49.19998" lon="-0.41382">
        <ele>125</ele>
        <time>2012-08-16T17:29:50Z</time>
      </trkpt>
      <trkpt lat="49.19994" lon="-0.4137">
        <ele>124</ele>
        <time>2012-08-16T17:29:52Z</time>
      </trkpt>
      <trkpt lat="49.19988" lon="-0.41359">
        <ele>124</ele>
        <time>2012-08-16T17:29:54Z</time>
      </trkpt>
      <trkpt lat="49.19985" lon="-0.41353">
        <ele>124</ele>
        <time>2012-08-16T17:29:55Z</time>
      </trkpt>
      <trkpt lat="49.1998" lon="-0.4134">
        <ele>123</ele>
        <time>2012-08-16T17:29:57Z</time>
      </trkpt>
      <trkpt lat="49.19978" lon="-0.41333">
        <ele>123</ele>
        <time>2012-08-16T17:29:58Z</time>
      </trkpt>
      <trkpt lat="49.19975" lon="-0.41326">
        <ele>123</ele>
        <time>2012-08-16T17:29:59Z</time>
      </trkpt>
      <trkpt lat="49.19971" lon="-0.4132">
        <ele>122</ele>
        <time>2012-08-16T17:30:00Z</time>
      </trkpt>
      <trkpt lat="49.19965" lon="-0.41309">
        <ele>123</ele>
        <time>2012-08-16T17:30:02Z</time>
      </trkpt>
      <trkpt lat="49.19961" lon="-0.41304">
        <ele>124</ele>
        <time>2012-08-16T17:30:03Z</time>
      </trkpt>
      <trkpt lat="49.19958" lon="-0.41298">
        <ele>124</ele>
        <time>2012-08-16T17:30:04Z</time>
      </trkpt>
      <trkpt lat="49.19954" lon="-0.41292">
        <ele>124</ele>
        <time>2012-08-16T17:30:05Z</time>
      </trkpt>
      <trkpt lat="49.1995" lon="-0.41288">
        <ele>124</ele>
        <time>2012-08-16T17:30:06Z</time>
      </trkpt>
      <trkpt lat="49.19946" lon="-0.41284">
        <ele>124</ele>
        <time>2012-08-16T17:30:07Z</time>
      </trkpt>
      <trkpt lat="49.19942" lon="-0.4128">
        <ele>124</ele>
        <time>2012-08-16T17:30:08Z</time>
      </trkpt>
      <trkpt lat="49.19933" lon="-0.41274">
        <ele>124</ele>
        <time>2012-08-16T17:30:10Z</time>
      </trkpt>
      <trkpt lat="49.19928" lon="-0.41272">
        <ele>124</ele>
        <time>2012-08-16T17:30:11Z</time>
      </trkpt>
      <trkpt lat="49.19922" lon="-0.41269">
        <ele>124</ele>
        <time>2012-08-16T17:30:12Z</time>
      </trkpt>
      <trkpt lat="49.19916" lon="-0.41266">
        <ele>124</ele>
        <time>2012-08-16T17:30:13Z</time>
      </trkpt>
      <trkpt lat="49.19912" lon="-0.41264">
        <ele>124</ele>
        <time>2012-08-16T17:30:14Z</time>
      </trkpt>
      <trkpt lat="49.19902" lon="-0.4126">
        <ele>124</ele>
        <time>2012-08-16T17:30:16Z</time>
      </trkpt>
      <trkpt lat="49.19898" lon="-0.41259">
        <ele>123</ele>
        <time>2012-08-16T17:30:17Z</time>
      </trkpt>
      <trkpt lat="49.19893" lon="-0.41258">
        <ele>124</ele>
        <time>2012-08-16T17:30:18Z</time>
      </trkpt>
      <trkpt lat="49.19888" lon="-0.41258">
        <ele>123</ele>
        <time>2012-08-16T17:30:19Z</time>
      </trkpt>
      <trkpt lat="49.19884" lon="-0.41262">
        <ele>123</ele>
        <time>2012-08-16T17:30:20Z</time>
      </trkpt>
      <trkpt lat="49.19879" lon="-0.41265">
        <ele>123</ele>
        <time>2012-08-16T17:30:21Z</time>
      </trkpt>
      <trkpt lat="49.19875" lon="-0.41267">
        <ele>123</ele>
        <time>2012-08-16T17:30:22Z</time>
      </trkpt>
      <trkpt lat="49.1987" lon="-0.41271">
        <ele>122</ele>
        <time>2012-08-16T17:30:23Z</time>
      </trkpt>
      <trkpt lat="49.19865" lon="-0.41273">
        <ele>122</ele>
        <time>2012-08-16T17:30:24Z</time>
      </trkpt>
      <trkpt lat="49.19861" lon="-0.41277">
        <ele>122</ele>
        <time>2012-08-16T17:30:25Z</time>
      </trkpt>
      <trkpt lat="49.19857" lon="-0.4128">
        <ele>122</ele>
        <time>2012-08-16T17:30:26Z</time>
      </trkpt>
      <trkpt lat="49.19853" lon="-0.41285">
        <ele>121</ele>
        <time>2012-08-16T17:30:27Z</time>
      </trkpt>
      <trkpt lat="49.1985" lon="-0.41291">
        <ele>121</ele>
        <time>2012-08-16T17:30:28Z</time>
      </trkpt>
      <trkpt lat="49.19846" lon="-0.41295">
        <ele>120</ele>
        <time>2012-08-16T17:30:29Z</time>
      </trkpt>
      <trkpt lat="49.1984" lon="-0.41304">
        <ele>120</ele>
        <time>2012-08-16T17:30:31Z</time>
      </trkpt>
      <trkpt lat="49.19836" lon="-0.41309">
        <ele>120</ele>
        <time>2012-08-16T17:30:32Z</time>
      </trkpt>
      <trkpt lat="49.19833" lon="-0.41314">
        <ele>120</ele>
        <time>2012-08-16T17:30:33Z</time>
      </trkpt>
      <trkpt lat="49.1983" lon="-0.41318">
        <ele>119</ele>
        <time>2012-08-16T17:30:34Z</time>
      </trkpt>
      <trkpt lat="49.19823" lon="-0.41326">
        <ele>119</ele>
        <time>2012-08-16T17:30:36Z</time>
      </trkpt>
      <trkpt lat="49.1982" lon="-0.41332">
        <ele>119</ele>
        <time>2012-08-16T17:30:37Z</time>
      </trkpt>
      <trkpt lat="49.19814" lon="-0.41341">
        <ele>119</ele>
        <time>2012-08-16T17:30:39Z</time>
      </trkpt>
      <trkpt lat="49.19808" lon="-0.4135">
        <ele>119</ele>
        <time>2012-08-16T17:30:41Z</time>
      </trkpt>
      <trkpt lat="49.19802" lon="-0.4136">
        <ele>119</ele>
        <time>2012-08-16T17:30:43Z</time>
      </trkpt>
      <trkpt lat="49.19796" lon="-0.4137">
        <ele>119</ele>
        <time>2012-08-16T17:30:45Z</time>
      </trkpt>
      <trkpt lat="49.19793" lon="-0.41376">
        <ele>119</ele>
        <time>2012-08-16T17:30:46Z</time>
      </trkpt>
      <trkpt lat="49.19787" lon="-0.41385">
        <ele>119</ele>
        <time>2012-08-16T17:30:48Z</time>
      </trkpt>
      <trkpt lat="49.19783" lon="-0.4139">
        <ele>119</ele>
        <time>2012-08-16T17:30:49Z</time>
      </trkpt>
      <trkpt lat="49.19778" lon="-0.41399">
        <ele>120</ele>
        <time>2012-08-16T17:30:51Z</time>
      </trkpt>
      <trkpt lat="49.19772" lon="-0.41406">
        <ele>119</ele>
        <time>2012-08-16T17:30:53Z</time>
      </trkpt>
      <trkpt lat="49.19767" lon="-0.41408">
        <ele>119</ele>
        <time>2012-08-16T17:30:54Z</time>
      </trkpt>
      <trkpt lat="49.19759" lon="-0.41408">
        <ele>120</ele>
        <time>2012-08-16T17:30:56Z</time>
      </trkpt>
      <trkpt lat="49.19754" lon="-0.41405">
        <ele>120</ele>
        <time>2012-08-16T17:30:57Z</time>
      </trkpt>
      <trkpt lat="49.19748" lon="-0.41399">
        <ele>121</ele>
        <time>2012-08-16T17:30:59Z</time>
      </trkpt>
      <trkpt lat="49.19743" lon="-0.4139">
        <ele>121</ele>
        <time>2012-08-16T17:31:01Z</time>
      </trkpt>
      <trkpt lat="49.19737" lon="-0.4138">
        <ele>121</ele>
        <time>2012-08-16T17:31:03Z</time>
      </trkpt>
      <trkpt lat="49.19731" lon="-0.41371">
        <ele>122</ele>
        <time>2012-08-16T17:31:05Z</time>
      </trkpt>
      <trkpt lat="49.19725" lon="-0.41361">
        <ele>121</ele>
        <time>2012-08-16T17:31:07Z</time>
      </trkpt>
      <trkpt lat="49.19722" lon="-0.41356">
        <ele>121</ele>
        <time>2012-08-16T17:31:08Z</time>
      </trkpt>
      <trkpt lat="49.19713" lon="-0.4134">
        <ele>121</ele>
        <time>2012-08-16T17:31:11Z</time>
      </trkpt>
      <trkpt lat="49.19708" lon="-0.41329">
        <ele>121</ele>
        <time>2012-08-16T17:31:13Z</time>
      </trkpt>
      <trkpt lat="49.19703" lon="-0.41318">
        <ele>123</ele>
        <time>2012-08-16T17:31:15Z</time>
      </trkpt>
      <trkpt lat="49.19699" lon="-0.41307">
        <ele>123</ele>
        <time>2012-08-16T17:31:17Z</time>
      </trkpt>
      <trkpt lat="49.19695" lon="-0.41302">
        <ele>123</ele>
        <time>2012-08-16T17:31:18Z</time>
      </trkpt>
      <trkpt lat="49.1969" lon="-0.4129">
        <ele>124</ele>
        <time>2012-08-16T17:31:20Z</time>
      </trkpt>
      <trkpt lat="49.19684" lon="-0.4128">
        <ele>124</ele>
        <time>2012-08-16T17:31:22Z</time>
      </trkpt>
      <trkpt lat="49.19681" lon="-0.41275">
        <ele>124</ele>
        <time>2012-08-16T17:31:23Z</time>
      </trkpt>
      <trkpt lat="49.19677" lon="-0.4127">
        <ele>123</ele>
        <time>2012-08-16T17:31:24Z</time>
      </trkpt>
      <trkpt lat="49.19674" lon="-0.41264">
        <ele>123</ele>
        <time>2012-08-16T17:31:25Z</time>
      </trkpt>
      <trkpt lat="49.19671" lon="-0.41259">
        <ele>123</ele>
        <time>2012-08-16T17:31:26Z</time>
      </trkpt>
      <trkpt lat="49.19668" lon="-0.41252">
        <ele>123</ele>
        <time>2012-08-16T17:31:27Z</time>
      </trkpt>
      <trkpt lat="49.19665" lon="-0.41246">
        <ele>123</ele>
        <time>2012-08-16T17:31:28Z</time>
      </trkpt>
      <trkpt lat="49.19662" lon="-0.4124">
        <ele>123</ele>
        <time>2012-08-16T17:31:29Z</time>
      </trkpt>
      <trkpt lat="49.19659" lon="-0.41235">
        <ele>123</ele>
        <time>2012-08-16T17:31:30Z</time>
      </trkpt>
      <trkpt lat="49.19655" lon="-0.41229">
        <ele>123</ele>
        <time>2012-08-16T17:31:31Z</time>
      </trkpt>
      <trkpt lat="49.19652" lon="-0.41223">
        <ele>123</ele>
        <time>2012-08-16T17:31:32Z</time>
      </trkpt>
      <trkpt lat="49.19649" lon="-0.41217">
        <ele>123</ele>
        <time>2012-08-16T17:31:33Z</time>
      </trkpt>
      <trkpt lat="49.19647" lon="-0.41211">
        <ele>123</ele>
        <time>2012-08-16T17:31:34Z</time>
      </trkpt>
      <trkpt lat="49.19644" lon="-0.41205">
        <ele>123</ele>
        <time>2012-08-16T17:31:35Z</time>
      </trkpt>
      <trkpt lat="49.19641" lon="-0.41198">
        <ele>123</ele>
        <time>2012-08-16T17:31:36Z</time>
      </trkpt>
      <trkpt lat="49.19638" lon="-0.41191">
        <ele>124</ele>
        <time>2012-08-16T17:31:37Z</time>
      </trkpt>
      <trkpt lat="49.19636" lon="-0.41182">
        <ele>124</ele>
        <time>2012-08-16T17:31:38Z</time>
      </trkpt>
      <trkpt lat="49.19633" lon="-0.41174">
        <ele>124</ele>
        <time>2012-08-16T17:31:39Z</time>
      </trkpt>
      <trkpt lat="49.1963" lon="-0.41169">
        <ele>124</ele>
        <time>2012-08-16T17:31:40Z</time>
      </trkpt>
      <trkpt lat="49.19627" lon="-0.41162">
        <ele>124</ele>
        <time>2012-08-16T17:31:41Z</time>
      </trkpt>
      <trkpt lat="49.19625" lon="-0.41156">
        <ele>125</ele>
        <time>2012-08-16T17:31:42Z</time>
      </trkpt>
      <trkpt lat="49.19622" lon="-0.41149">
        <ele>125</ele>
        <time>2012-08-16T17:31:43Z</time>
      </trkpt>
      <trkpt lat="49.19619" lon="-0.41142">
        <ele>125</ele>
        <time>2012-08-16T17:31:44Z</time>
      </trkpt>
      <trkpt lat="49.19616" lon="-0.41136">
        <ele>125</ele>
        <time>2012-08-16T17:31:45Z</time>
      </trkpt>
      <trkpt lat="49.19614" lon="-0.41129">
        <ele>125</ele>
        <time>2012-08-16T17:31:46Z</time>
      </trkpt>
      <trkpt lat="49.19611" lon="-0.41122">
        <ele>125</ele>
        <time>2012-08-16T17:31:47Z</time>
      </trkpt>
      <trkpt lat="49.19609" lon="-0.41116">
        <ele>125</ele>
        <time>2012-08-16T17:31:48Z</time>
      </trkpt>
      <trkpt lat="49.19606" lon="-0.41109">
        <ele>125</ele>
        <time>2012-08-16T17:31:49Z</time>
      </trkpt>
      <trkpt lat="49.19604" lon="-0.41102">
        <ele>125</ele>
        <time>2012-08-16T17:31:50Z</time>
      </trkpt>
      <trkpt lat="49.19602" lon="-0.41095">
        <ele>125</ele>
        <time>2012-08-16T17:31:51Z</time>
      </trkpt>
      <trkpt lat="49.19599" lon="-0.41086">
        <ele>125</ele>
        <time>2012-08-16T17:31:52Z</time>
      </trkpt>
      <trkpt lat="49.19597" lon="-0.4108">
        <ele>125</ele>
        <time>2012-08-16T17:31:53Z</time>
      </trkpt>
      <trkpt lat="49.1959" lon="-0.4107">
        <ele>126</ele>
        <time>2012-08-16T17:31:55Z</time>
      </trkpt>
      <trkpt lat="49.19587" lon="-0.41065">
        <ele>126</ele>
        <time>2012-08-16T17:31:56Z</time>
      </trkpt>
      <trkpt lat="49.19578" lon="-0.41058">
        <ele>126</ele>
        <time>2012-08-16T17:31:58Z</time>
      </trkpt>
      <trkpt lat="49.19574" lon="-0.41054">
        <ele>126</ele>
        <time>2012-08-16T17:31:59Z</time>
      </trkpt>
      <trkpt lat="49.19564" lon="-0.4105">
        <ele>126</ele>
        <time>2012-08-16T17:32:01Z</time>
      </trkpt>
      <trkpt lat="49.1956" lon="-0.41048">
        <ele>126</ele>
        <time>2012-08-16T17:32:02Z</time>
      </trkpt>
      <trkpt lat="49.19554" lon="-0.41047">
        <ele>126</ele>
        <time>2012-08-16T17:32:03Z</time>
      </trkpt>
      <trkpt lat="49.19549" lon="-0.41046">
        <ele>126</ele>
        <time>2012-08-16T17:32:04Z</time>
      </trkpt>
      <trkpt lat="49.19544" lon="-0.41045">
        <ele>126</ele>
        <time>2012-08-16T17:32:05Z</time>
      </trkpt>
      <trkpt lat="49.19539" lon="-0.41044">
        <ele>126</ele>
        <time>2012-08-16T17:32:06Z</time>
      </trkpt>
      <trkpt lat="49.19534" lon="-0.41043">
        <ele>126</ele>
        <time>2012-08-16T17:32:07Z</time>
      </trkpt>
      <trkpt lat="49.1953" lon="-0.4104">
        <ele>127</ele>
        <time>2012-08-16T17:32:08Z</time>
      </trkpt>
      <trkpt lat="49.19525" lon="-0.41039">
        <ele>127</ele>
        <time>2012-08-16T17:32:09Z</time>
      </trkpt>
      <trkpt lat="49.1952" lon="-0.41039">
        <ele>127</ele>
        <time>2012-08-16T17:32:10Z</time>
      </trkpt>
      <trkpt lat="49.19511" lon="-0.41038">
        <ele>127</ele>
        <time>2012-08-16T17:32:12Z</time>
      </trkpt>
      <trkpt lat="49.19502" lon="-0.41038">
        <ele>126</ele>
        <time>2012-08-16T17:32:14Z</time>
      </trkpt>
      <trkpt lat="49.19497" lon="-0.41037">
        <ele>126</ele>
        <time>2012-08-16T17:32:15Z</time>
      </trkpt>
      <trkpt lat="49.19492" lon="-0.41036">
        <ele>126</ele>
        <time>2012-08-16T17:32:16Z</time>
      </trkpt>
      <trkpt lat="49.19484" lon="-0.41036">
        <ele>126</ele>
        <time>2012-08-16T17:32:18Z</time>
      </trkpt>
      <trkpt lat="49.19475" lon="-0.41034">
        <ele>126</ele>
        <time>2012-08-16T17:32:20Z</time>
      </trkpt>
      <trkpt lat="49.19466" lon="-0.41032">
        <ele>125</ele>
        <time>2012-08-16T17:32:22Z</time>
      </trkpt>
      <trkpt lat="49.19458" lon="-0.41031">
        <ele>125</ele>
        <time>2012-08-16T17:32:24Z</time>
      </trkpt>
      <trkpt lat="49.1945" lon="-0.41029">
        <ele>125</ele>
        <time>2012-08-16T17:32:26Z</time>
      </trkpt>
      <trkpt lat="49.19442" lon="-0.41026">
        <ele>125</ele>
        <time>2012-08-16T17:32:28Z</time>
      </trkpt>
      <trkpt lat="49.19435" lon="-0.41023">
        <ele>125</ele>
        <time>2012-08-16T17:32:30Z</time>
      </trkpt>
      <trkpt lat="49.19427" lon="-0.41023">
        <ele>124</ele>
        <time>2012-08-16T17:32:32Z</time>
      </trkpt>
      <trkpt lat="49.1942" lon="-0.41021">
        <ele>124</ele>
        <time>2012-08-16T17:32:34Z</time>
      </trkpt>
      <trkpt lat="49.19413" lon="-0.41021">
        <ele>123</ele>
        <time>2012-08-16T17:32:36Z</time>
      </trkpt>
      <trkpt lat="49.19407" lon="-0.41021">
        <ele>123</ele>
        <time>2012-08-16T17:32:38Z</time>
      </trkpt>
      <trkpt lat="49.19402" lon="-0.41021">
        <ele>123</ele>
        <time>2012-08-16T17:32:40Z</time>
      </trkpt>
      <trkpt lat="49.19394" lon="-0.41022">
        <ele>123</ele>
        <time>2012-08-16T17:32:43Z</time>
      </trkpt>
      <trkpt lat="49.19388" lon="-0.41022">
        <ele>123</ele>
        <time>2012-08-16T17:32:45Z</time>
      </trkpt>
      <trkpt lat="49.19382" lon="-0.41023">
        <ele>124</ele>
        <time>2012-08-16T17:32:47Z</time>
      </trkpt>
      <trkpt lat="49.19375" lon="-0.4102">
        <ele>125</ele>
        <time>2012-08-16T17:32:49Z</time>
      </trkpt>
      <trkpt lat="49.19368" lon="-0.41017">
        <ele>124</ele>
        <time>2012-08-16T17:32:51Z</time>
      </trkpt>
      <trkpt lat="49.19358" lon="-0.41012">
        <ele>125</ele>
        <time>2012-08-16T17:32:53Z</time>
      </trkpt>
      <trkpt lat="49.19352" lon="-0.41012">
        <ele>125</ele>
        <time>2012-08-16T17:32:55Z</time>
      </trkpt>
      <trkpt lat="49.19344" lon="-0.4101">
        <ele>125</ele>
        <time>2012-08-16T17:32:57Z</time>
      </trkpt>
      <trkpt lat="49.19336" lon="-0.41007">
        <ele>125</ele>
        <time>2012-08-16T17:32:59Z</time>
      </trkpt>
      <trkpt lat="49.19328" lon="-0.41003">
        <ele>124</ele>
        <time>2012-08-16T17:33:01Z</time>
      </trkpt>
      <trkpt lat="49.1932" lon="-0.41">
        <ele>124</ele>
        <time>2012-08-16T17:33:03Z</time>
      </trkpt>
      <trkpt lat="49.19312" lon="-0.40996">
        <ele>125</ele>
        <time>2012-08-16T17:33:05Z</time>
      </trkpt>
      <trkpt lat="49.19304" lon="-0.4099">
        <ele>125</ele>
        <time>2012-08-16T17:33:07Z</time>
      </trkpt>
      <trkpt lat="49.193" lon="-0.40987">
        <ele>124</ele>
        <time>2012-08-16T17:33:08Z</time>
      </trkpt>
      <trkpt lat="49.19292" lon="-0.40982">
        <ele>125</ele>
        <time>2012-08-16T17:33:10Z</time>
      </trkpt>
      <trkpt lat="49.19283" lon="-0.40976">
        <ele>125</ele>
        <time>2012-08-16T17:33:13Z</time>
      </trkpt>
      <trkpt lat="49.19276" lon="-0.4097">
        <ele>125</ele>
        <time>2012-08-16T17:33:15Z</time>
      </trkpt>
      <trkpt lat="49.19269" lon="-0.40964">
        <ele>124</ele>
        <time>2012-08-16T17:33:17Z</time>
      </trkpt>
      <trkpt lat="49.19262" lon="-0.40958">
        <ele>124</ele>
        <time>2012-08-16T17:33:19Z</time>
      </trkpt>
      <trkpt lat="49.19254" lon="-0.40951">
        <ele>124</ele>
        <time>2012-08-16T17:33:21Z</time>
      </trkpt>
      <trkpt lat="49.1925" lon="-0.40948">
        <ele>124</ele>
        <time>2012-08-16T17:33:22Z</time>
      </trkpt>
      <trkpt lat="49.19242" lon="-0.40942">
        <ele>124</ele>
        <time>2012-08-16T17:33:24Z</time>
      </trkpt>
      <trkpt lat="49.19238" lon="-0.40938">
        <ele>124</ele>
        <time>2012-08-16T17:33:25Z</time>
      </trkpt>
      <trkpt lat="49.1923" lon="-0.40931">
        <ele>125</ele>
        <time>2012-08-16T17:33:27Z</time>
      </trkpt>
      <trkpt lat="49.19222" lon="-0.40923">
        <ele>125</ele>
        <time>2012-08-16T17:33:29Z</time>
      </trkpt>
      <trkpt lat="49.19215" lon="-0.40915">
        <ele>124</ele>
        <time>2012-08-16T17:33:31Z</time>
      </trkpt>
      <trkpt lat="49.19213" lon="-0.40907">
        <ele>124</ele>
        <time>2012-08-16T17:33:32Z</time>
      </trkpt>
      <trkpt lat="49.19212" lon="-0.409">
        <ele>124</ele>
        <time>2012-08-16T17:33:33Z</time>
      </trkpt>
      <trkpt lat="49.19209" lon="-0.40886">
        <ele>124</ele>
        <time>2012-08-16T17:33:35Z</time>
      </trkpt>
      <trkpt lat="49.1921" lon="-0.40878">
        <ele>124</ele>
        <time>2012-08-16T17:33:36Z</time>
      </trkpt>
      <trkpt lat="49.19215" lon="-0.40866">
        <ele>124</ele>
        <time>2012-08-16T17:33:38Z</time>
      </trkpt>
      <trkpt lat="49.19218" lon="-0.40859">
        <ele>124</ele>
        <time>2012-08-16T17:33:39Z</time>
      </trkpt>
      <trkpt lat="49.19221" lon="-0.40853">
        <ele>124</ele>
        <time>2012-08-16T17:33:40Z</time>
      </trkpt>
      <trkpt lat="49.19224" lon="-0.40846">
        <ele>125</ele>
        <time>2012-08-16T17:33:41Z</time>
      </trkpt>
      <trkpt lat="49.19226" lon="-0.40839">
        <ele>124</ele>
        <time>2012-08-16T17:33:42Z</time>
      </trkpt>
      <trkpt lat="49.19229" lon="-0.40831">
        <ele>124</ele>
        <time>2012-08-16T17:33:43Z</time>
      </trkpt>
      <trkpt lat="49.19232" lon="-0.40824">
        <ele>123</ele>
        <time>2012-08-16T17:33:44Z</time>
      </trkpt>
      <trkpt lat="49.19235" lon="-0.40816">
        <ele>123</ele>
        <time>2012-08-16T17:33:45Z</time>
      </trkpt>
      <trkpt lat="49.19237" lon="-0.40807">
        <ele>122</ele>
        <time>2012-08-16T17:33:46Z</time>
      </trkpt>
      <trkpt lat="49.1924" lon="-0.408">
        <ele>122</ele>
        <time>2012-08-16T17:33:47Z</time>
      </trkpt>
      <trkpt lat="49.19243" lon="-0.40793">
        <ele>123</ele>
        <time>2012-08-16T17:33:48Z</time>
      </trkpt>
      <trkpt lat="49.19245" lon="-0.40787">
        <ele>122</ele>
        <time>2012-08-16T17:33:49Z</time>
      </trkpt>
      <trkpt lat="49.19247" lon="-0.40779">
        <ele>122</ele>
        <time>2012-08-16T17:33:50Z</time>
      </trkpt>
      <trkpt lat="49.1925" lon="-0.40771">
        <ele>121</ele>
        <time>2012-08-16T17:33:51Z</time>
      </trkpt>
      <trkpt lat="49.19253" lon="-0.40763">
        <ele>121</ele>
        <time>2012-08-16T17:33:52Z</time>
      </trkpt>
      <trkpt lat="49.19256" lon="-0.40756">
        <ele>122</ele>
        <time>2012-08-16T17:33:53Z</time>
      </trkpt>
      <trkpt lat="49.19259" lon="-0.40748">
        <ele>122</ele>
        <time>2012-08-16T17:33:54Z</time>
      </trkpt>
      <trkpt lat="49.19262" lon="-0.40741">
        <ele>122</ele>
        <time>2012-08-16T17:33:55Z</time>
      </trkpt>
      <trkpt lat="49.19265" lon="-0.40735">
        <ele>122</ele>
        <time>2012-08-16T17:33:56Z</time>
      </trkpt>
      <trkpt lat="49.19267" lon="-0.40727">
        <ele>122</ele>
        <time>2012-08-16T17:33:57Z</time>
      </trkpt>
      <trkpt lat="49.1927" lon="-0.4072">
        <ele>122</ele>
        <time>2012-08-16T17:33:58Z</time>
      </trkpt>
      <trkpt lat="49.19273" lon="-0.40713">
        <ele>122</ele>
        <time>2012-08-16T17:33:59Z</time>
      </trkpt>
      <trkpt lat="49.19276" lon="-0.40705">
        <ele>122</ele>
        <time>2012-08-16T17:34:00Z</time>
      </trkpt>
      <trkpt lat="49.19279" lon="-0.40698">
        <ele>123</ele>
        <time>2012-08-16T17:34:01Z</time>
      </trkpt>
      <trkpt lat="49.19281" lon="-0.40691">
        <ele>123</ele>
        <time>2012-08-16T17:34:02Z</time>
      </trkpt>
      <trkpt lat="49.19284" lon="-0.40684">
        <ele>123</ele>
        <time>2012-08-16T17:34:03Z</time>
      </trkpt>
      <trkpt lat="49.19287" lon="-0.40677">
        <ele>123</ele>
        <time>2012-08-16T17:34:04Z</time>
      </trkpt>
      <trkpt lat="49.19288" lon="-0.4067">
        <ele>123</ele>
        <time>2012-08-16T17:34:05Z</time>
      </trkpt>
      <trkpt lat="49.19291" lon="-0.40656">
        <ele>123</ele>
        <time>2012-08-16T17:34:07Z</time>
      </trkpt>
      <trkpt lat="49.19292" lon="-0.40649">
        <ele>123</ele>
        <time>2012-08-16T17:34:08Z</time>
      </trkpt>
      <trkpt lat="49.1929" lon="-0.40641">
        <ele>123</ele>
        <time>2012-08-16T17:34:09Z</time>
      </trkpt>
      <trkpt lat="49.19284" lon="-0.40633">
        <ele>122</ele>
        <time>2012-08-16T17:34:11Z</time>
      </trkpt>
      <trkpt lat="49.19279" lon="-0.40628">
        <ele>123</ele>
        <time>2012-08-16T17:34:12Z</time>
      </trkpt>
      <trkpt lat="49.19274" lon="-0.40624">
        <ele>123</ele>
        <time>2012-08-16T17:34:13Z</time>
      </trkpt>
      <trkpt lat="49.1927" lon="-0.4062">
        <ele>123</ele>
        <time>2012-08-16T17:34:14Z</time>
      </trkpt>
      <trkpt lat="49.19265" lon="-0.40615">
        <ele>123</ele>
        <time>2012-08-16T17:34:15Z</time>
      </trkpt>
      <trkpt lat="49.19259" lon="-0.4061">
        <ele>124</ele>
        <time>2012-08-16T17:34:16Z</time>
      </trkpt>
      <trkpt lat="49.19254" lon="-0.40606">
        <ele>123</ele>
        <time>2012-08-16T17:34:17Z</time>
      </trkpt>
      <trkpt lat="49.19249" lon="-0.406">
        <ele>123</ele>
        <time>2012-08-16T17:34:18Z</time>
      </trkpt>
      <trkpt lat="49.19244" lon="-0.40596">
        <ele>124</ele>
        <time>2012-08-16T17:34:19Z</time>
      </trkpt>
      <trkpt lat="49.19239" lon="-0.40592">
        <ele>123</ele>
        <time>2012-08-16T17:34:20Z</time>
      </trkpt>
      <trkpt lat="49.19235" lon="-0.40587">
        <ele>123</ele>
        <time>2012-08-16T17:34:21Z</time>
      </trkpt>
      <trkpt lat="49.1923" lon="-0.40583">
        <ele>123</ele>
        <time>2012-08-16T17:34:22Z</time>
      </trkpt>
      <trkpt lat="49.19226" lon="-0.40579">
        <ele>123</ele>
        <time>2012-08-16T17:34:23Z</time>
      </trkpt>
      <trkpt lat="49.1922" lon="-0.40571">
        <ele>123</ele>
        <time>2012-08-16T17:34:25Z</time>
      </trkpt>
      <trkpt lat="49.1922" lon="-0.40559">
        <ele>123</ele>
        <time>2012-08-16T17:34:27Z</time>
      </trkpt>
      <trkpt lat="49.19221" lon="-0.40551">
        <ele>123</ele>
        <time>2012-08-16T17:34:28Z</time>
      </trkpt>
      <trkpt lat="49.19222" lon="-0.40544">
        <ele>122</ele>
        <time>2012-08-16T17:34:29Z</time>
      </trkpt>
      <trkpt lat="49.19224" lon="-0.40536">
        <ele>122</ele>
        <time>2012-08-16T17:34:30Z</time>
      </trkpt>
      <trkpt lat="49.19227" lon="-0.40529">
        <ele>121</ele>
        <time>2012-08-16T17:34:31Z</time>
      </trkpt>
      <trkpt lat="49.19229" lon="-0.40521">
        <ele>121</ele>
        <time>2012-08-16T17:34:32Z</time>
      </trkpt>
      <trkpt lat="49.19232" lon="-0.40514">
        <ele>121</ele>
        <time>2012-08-16T17:34:33Z</time>
      </trkpt>
      <trkpt lat="49.19235" lon="-0.40507">
        <ele>121</ele>
        <time>2012-08-16T17:34:34Z</time>
      </trkpt>
      <trkpt lat="49.19236" lon="-0.405">
        <ele>121</ele>
        <time>2012-08-16T17:34:35Z</time>
      </trkpt>
      <trkpt lat="49.19238" lon="-0.40493">
        <ele>120</ele>
        <time>2012-08-16T17:34:36Z</time>
      </trkpt>
      <trkpt lat="49.1924" lon="-0.40486">
        <ele>120</ele>
        <time>2012-08-16T17:34:37Z</time>
      </trkpt>
      <trkpt lat="49.19242" lon="-0.40479">
        <ele>120</ele>
        <time>2012-08-16T17:34:38Z</time>
      </trkpt>
      <trkpt lat="49.19244" lon="-0.40472">
        <ele>120</ele>
        <time>2012-08-16T17:34:39Z</time>
      </trkpt>
      <trkpt lat="49.19247" lon="-0.40464">
        <ele>120</ele>
        <time>2012-08-16T17:34:40Z</time>
      </trkpt>
      <trkpt lat="49.19249" lon="-0.40457">
        <ele>120</ele>
        <time>2012-08-16T17:34:41Z</time>
      </trkpt>
      <trkpt lat="49.19251" lon="-0.40449">
        <ele>120</ele>
        <time>2012-08-16T17:34:42Z</time>
      </trkpt>
      <trkpt lat="49.19252" lon="-0.40442">
        <ele>120</ele>
        <time>2012-08-16T17:34:43Z</time>
      </trkpt>
      <trkpt lat="49.19253" lon="-0.40433">
        <ele>120</ele>
        <time>2012-08-16T17:34:44Z</time>
      </trkpt>
      <trkpt lat="49.19256" lon="-0.40427">
        <ele>121</ele>
        <time>2012-08-16T17:34:45Z</time>
      </trkpt>
      <trkpt lat="49.19258" lon="-0.4042">
        <ele>121</ele>
        <time>2012-08-16T17:34:46Z</time>
      </trkpt>
      <trkpt lat="49.1926" lon="-0.40412">
        <ele>122</ele>
        <time>2012-08-16T17:34:47Z</time>
      </trkpt>
      <trkpt lat="49.19262" lon="-0.40405">
        <ele>122</ele>
        <time>2012-08-16T17:34:48Z</time>
      </trkpt>
      <trkpt lat="49.19263" lon="-0.40397">
        <ele>121</ele>
        <time>2012-08-16T17:34:49Z</time>
      </trkpt>
      <trkpt lat="49.19265" lon="-0.4039">
        <ele>121</ele>
        <time>2012-08-16T17:34:50Z</time>
      </trkpt>
      <trkpt lat="49.19264" lon="-0.40383">
        <ele>121</ele>
        <time>2012-08-16T17:34:51Z</time>
      </trkpt>
      <trkpt lat="49.19258" lon="-0.40373">
        <ele>121</ele>
        <time>2012-08-16T17:34:53Z</time>
      </trkpt>
      <trkpt lat="49.19254" lon="-0.40368">
        <ele>121</ele>
        <time>2012-08-16T17:34:54Z</time>
      </trkpt>
      <trkpt lat="49.1925" lon="-0.40363">
        <ele>120</ele>
        <time>2012-08-16T17:34:55Z</time>
      </trkpt>
      <trkpt lat="49.19246" lon="-0.40358">
        <ele>121</ele>
        <time>2012-08-16T17:34:56Z</time>
      </trkpt>
      <trkpt lat="49.1924" lon="-0.40352">
        <ele>121</ele>
        <time>2012-08-16T17:34:57Z</time>
      </trkpt>
      <trkpt lat="49.19236" lon="-0.40347">
        <ele>121</ele>
        <time>2012-08-16T17:34:58Z</time>
      </trkpt>
      <trkpt lat="49.1923" lon="-0.40342">
        <ele>121</ele>
        <time>2012-08-16T17:34:59Z</time>
      </trkpt>
      <trkpt lat="49.19226" lon="-0.40339">
        <ele>120</ele>
        <time>2012-08-16T17:35:00Z</time>
      </trkpt>
      <trkpt lat="49.19222" lon="-0.40334">
        <ele>121</ele>
        <time>2012-08-16T17:35:01Z</time>
      </trkpt>
      <trkpt lat="49.19217" lon="-0.4033">
        <ele>120</ele>
        <time>2012-08-16T17:35:02Z</time>
      </trkpt>
      <trkpt lat="49.19213" lon="-0.40326">
        <ele>120</ele>
        <time>2012-08-16T17:35:03Z</time>
      </trkpt>
      <trkpt lat="49.19209" lon="-0.40322">
        <ele>120</ele>
        <time>2012-08-16T17:35:04Z</time>
      </trkpt>
      <trkpt lat="49.19204" lon="-0.40317">
        <ele>120</ele>
        <time>2012-08-16T17:35:05Z</time>
      </trkpt>
      <trkpt lat="49.192" lon="-0.40311">
        <ele>120</ele>
        <time>2012-08-16T17:35:06Z</time>
      </trkpt>
      <trkpt lat="49.19194" lon="-0.40304">
        <ele>121</ele>
        <time>2012-08-16T17:35:07Z</time>
      </trkpt>
      <trkpt lat="49.19189" lon="-0.40297">
        <ele>122</ele>
        <time>2012-08-16T17:35:08Z</time>
      </trkpt>
      <trkpt lat="49.19183" lon="-0.40292">
        <ele>122</ele>
        <time>2012-08-16T17:35:09Z</time>
      </trkpt>
      <trkpt lat="49.19178" lon="-0.40286">
        <ele>122</ele>
        <time>2012-08-16T17:35:10Z</time>
      </trkpt>
      <trkpt lat="49.19173" lon="-0.40281">
        <ele>122</ele>
        <time>2012-08-16T17:35:11Z</time>
      </trkpt>
      <trkpt lat="49.19168" lon="-0.40274">
        <ele>121</ele>
        <time>2012-08-16T17:35:12Z</time>
      </trkpt>
      <trkpt lat="49.19163" lon="-0.40269">
        <ele>120</ele>
        <time>2012-08-16T17:35:13Z</time>
      </trkpt>
      <trkpt lat="49.19157" lon="-0.40263">
        <ele>120</ele>
        <time>2012-08-16T17:35:14Z</time>
      </trkpt>
      <trkpt lat="49.19152" lon="-0.40258">
        <ele>120</ele>
        <time>2012-08-16T17:35:15Z</time>
      </trkpt>
      <trkpt lat="49.19147" lon="-0.40253">
        <ele>120</ele>
        <time>2012-08-16T17:35:16Z</time>
      </trkpt>
      <trkpt lat="49.19142" lon="-0.40248">
        <ele>119</ele>
        <time>2012-08-16T17:35:17Z</time>
      </trkpt>
      <trkpt lat="49.19137" lon="-0.40243">
        <ele>119</ele>
        <time>2012-08-16T17:35:18Z</time>
      </trkpt>
      <trkpt lat="49.19132" lon="-0.40239">
        <ele>119</ele>
        <time>2012-08-16T17:35:19Z</time>
      </trkpt>
      <trkpt lat="49.19127" lon="-0.40234">
        <ele>119</ele>
        <time>2012-08-16T17:35:20Z</time>
      </trkpt>
      <trkpt lat="49.19122" lon="-0.40229">
        <ele>119</ele>
        <time>2012-08-16T17:35:21Z</time>
      </trkpt>
      <trkpt lat="49.19118" lon="-0.40224">
        <ele>118</ele>
        <time>2012-08-16T17:35:22Z</time>
      </trkpt>
      <trkpt lat="49.19113" lon="-0.4022">
        <ele>118</ele>
        <time>2012-08-16T17:35:23Z</time>
      </trkpt>
      <trkpt lat="49.19108" lon="-0.40214">
        <ele>118</ele>
        <time>2012-08-16T17:35:24Z</time>
      </trkpt>
      <trkpt lat="49.19104" lon="-0.40209">
        <ele>118</ele>
        <time>2012-08-16T17:35:25Z</time>
      </trkpt>
      <trkpt lat="49.19099" lon="-0.40204">
        <ele>118</ele>
        <time>2012-08-16T17:35:26Z</time>
      </trkpt>
      <trkpt lat="49.19094" lon="-0.40199">
        <ele>119</ele>
        <time>2012-08-16T17:35:27Z</time>
      </trkpt>
      <trkpt lat="49.19089" lon="-0.40193">
        <ele>118</ele>
        <time>2012-08-16T17:35:28Z</time>
      </trkpt>
      <trkpt lat="49.19085" lon="-0.40188">
        <ele>118</ele>
        <time>2012-08-16T17:35:29Z</time>
      </trkpt>
      <trkpt lat="49.1908" lon="-0.40182">
        <ele>118</ele>
        <time>2012-08-16T17:35:30Z</time>
      </trkpt>
      <trkpt lat="49.19075" lon="-0.40175">
        <ele>117</ele>
        <time>2012-08-16T17:35:31Z</time>
      </trkpt>
      <trkpt lat="49.19069" lon="-0.4017">
        <ele>118</ele>
        <time>2012-08-16T17:35:32Z</time>
      </trkpt>
      <trkpt lat="49.19064" lon="-0.40164">
        <ele>118</ele>
        <time>2012-08-16T17:35:33Z</time>
      </trkpt>
      <trkpt lat="49.19057" lon="-0.40161">
        <ele>118</ele>
        <time>2012-08-16T17:35:34Z</time>
      </trkpt>
      <trkpt lat="49.19051" lon="-0.40158">
        <ele>118</ele>
        <time>2012-08-16T17:35:35Z</time>
      </trkpt>
      <trkpt lat="49.19045" lon="-0.40161">
        <ele>118</ele>
        <time>2012-08-16T17:35:36Z</time>
      </trkpt>
      <trkpt lat="49.19039" lon="-0.40163">
        <ele>118</ele>
        <time>2012-08-16T17:35:37Z</time>
      </trkpt>
      <trkpt lat="49.19033" lon="-0.40166">
        <ele>118</ele>
        <time>2012-08-16T17:35:38Z</time>
      </trkpt>
      <trkpt lat="49.19027" lon="-0.40168">
        <ele>118</ele>
        <time>2012-08-16T17:35:39Z</time>
      </trkpt>
      <trkpt lat="49.19022" lon="-0.4017">
        <ele>119</ele>
        <time>2012-08-16T17:35:40Z</time>
      </trkpt>
      <trkpt lat="49.19017" lon="-0.40173">
        <ele>119</ele>
        <time>2012-08-16T17:35:41Z</time>
      </trkpt>
      <trkpt lat="49.1901" lon="-0.40178">
        <ele>118</ele>
        <time>2012-08-16T17:35:43Z</time>
      </trkpt>
      <trkpt lat="49.19012" lon="-0.40187">
        <ele>117</ele>
        <time>2012-08-16T17:35:45Z</time>
      </trkpt>
      <trkpt lat="49.19017" lon="-0.40192">
        <ele>117</ele>
        <time>2012-08-16T17:35:48Z</time>
      </trkpt>
      <trkpt lat="49.19022" lon="-0.40197">
        <ele>117</ele>
        <time>2012-08-16T17:35:50Z</time>
      </trkpt>
      <trkpt lat="49.19026" lon="-0.40199">
        <ele>117</ele>
        <time>2012-08-16T17:35:52Z</time>
      </trkpt>
      <trkpt lat="49.19031" lon="-0.40204">
        <ele>116</ele>
        <time>2012-08-16T17:35:54Z</time>
      </trkpt>
      <trkpt lat="49.19035" lon="-0.4021">
        <ele>117</ele>
        <time>2012-08-16T17:35:56Z</time>
      </trkpt>
      <trkpt lat="49.1904" lon="-0.40218">
        <ele>117</ele>
        <time>2012-08-16T17:35:58Z</time>
      </trkpt>
      <trkpt lat="49.19045" lon="-0.40222">
        <ele>117</ele>
        <time>2012-08-16T17:36:00Z</time>
      </trkpt>
      <trkpt lat="49.19048" lon="-0.40228">
        <ele>118</ele>
        <time>2012-08-16T17:36:02Z</time>
      </trkpt>
      <trkpt lat="49.1905" lon="-0.40236">
        <ele>118</ele>
        <time>2012-08-16T17:36:05Z</time>
      </trkpt>
    </trkseg>
  </trk>
</gpx>